<?xml version='1.0' encoding='UTF-8'?><gpx version="1.1" creator="JPX - https://github.com/jenetics/jpx" xmlns="http://www.topografix.com/GPX/1/1"><trk><trkseg><trkpt lat="44.7855097" lon="9.147091"><ele>471.0</ele><time>2026-04-02T08:08:35.003Z</time></trkpt><trkpt lat="44.7853869" lon="9.1471884"><ele>471.0</ele><time>2026-04-02T08:08:37.003Z</time></trkpt><trkpt lat="44.7853122" lon="9.1472384"><ele>471.0</ele><time>2026-04-02T08:08:38.003Z</time></trkpt><trkpt lat="44.785228" lon="9.1472798"><ele>471.0</ele><time>2026-04-02T08:08:39.003Z</time></trkpt><trkpt lat="44.7851447" lon="9.1473258"><ele>471.0</ele><time>2026-04-02T08:08:40.003Z</time></trkpt><trkpt lat="44.785061" lon="9.1473764"><ele>471.0</ele><time>2026-04-02T08:08:41.003Z</time></trkpt><trkpt lat="44.7849673" lon="9.1474258"><ele>471.0</ele><time>2026-04-02T08:08:42.003Z</time></trkpt><trkpt lat="44.7848857" lon="9.1474775"><ele>471.0</ele><time>2026-04-02T08:08:43.003Z</time></trkpt><trkpt lat="44.7848101" lon="9.1475444"><ele>471.0</ele><time>2026-04-02T08:08:44.003Z</time></trkpt><trkpt lat="44.7847359" lon="9.1476132"><ele>471.0</ele><time>2026-04-02T08:08:45.003Z</time></trkpt><trkpt lat="44.7846722" lon="9.147697"><ele>471.0</ele><time>2026-04-02T08:08:46.003Z</time></trkpt><trkpt lat="44.7846122" lon="9.1477894"><ele>471.0</ele><time>2026-04-02T08:08:47.003Z</time></trkpt><trkpt lat="44.7845478" lon="9.1478549"><ele>471.0</ele><time>2026-04-02T08:08:48.003Z</time></trkpt><trkpt lat="44.7844711" lon="9.1479122"><ele>471.0</ele><time>2026-04-02T08:08:49.003Z</time></trkpt><trkpt lat="44.7843835" lon="9.1479627"><ele>471.0</ele><time>2026-04-02T08:08:50.003Z</time></trkpt><trkpt lat="44.7842933" lon="9.1479955"><ele>471.0</ele><time>2026-04-02T08:08:51.003Z</time></trkpt><trkpt lat="44.7842302" lon="9.1480204"><ele>470.8</ele><time>2026-04-02T08:08:52.003Z</time></trkpt><trkpt lat="44.7841472" lon="9.1479907"><ele>470.6</ele><time>2026-04-02T08:08:54.003Z</time></trkpt><trkpt lat="44.7840991" lon="9.1478894"><ele>470.4</ele><time>2026-04-02T08:08:56.003Z</time></trkpt><trkpt lat="44.784069" lon="9.147709"><ele>470.2</ele><time>2026-04-02T08:08:58.003Z</time></trkpt><trkpt lat="44.7840517" lon="9.1475897"><ele>470.0</ele><time>2026-04-02T08:08:59.003Z</time></trkpt><trkpt lat="44.7840216" lon="9.1474657"><ele>469.25</ele><time>2026-04-02T08:09:00.003Z</time></trkpt><trkpt lat="44.783992" lon="9.1473341"><ele>468.5</ele><time>2026-04-02T08:09:01.003Z</time></trkpt><trkpt lat="44.7839635" lon="9.1471856"><ele>467.75</ele><time>2026-04-02T08:09:02.003Z</time></trkpt><trkpt lat="44.7839188" lon="9.1470119"><ele>467.0</ele><time>2026-04-02T08:09:03.003Z</time></trkpt><trkpt lat="44.7838806" lon="9.1468576"><ele>467.0</ele><time>2026-04-02T08:09:04.003Z</time></trkpt><trkpt lat="44.7838322" lon="9.1466972"><ele>467.0</ele><time>2026-04-02T08:09:05.003Z</time></trkpt><trkpt lat="44.7837809" lon="9.1465232"><ele>467.0</ele><time>2026-04-02T08:09:06.002Z</time></trkpt><trkpt lat="44.7837342" lon="9.1463576"><ele>467.0</ele><time>2026-04-02T08:09:07.003Z</time></trkpt><trkpt lat="44.783691" lon="9.1462034"><ele>466.8</ele><time>2026-04-02T08:09:08.003Z</time></trkpt><trkpt lat="44.7836638" lon="9.1460438"><ele>466.6</ele><time>2026-04-02T08:09:09.002Z</time></trkpt><trkpt lat="44.7836627" lon="9.1458888"><ele>466.40000000000003</ele><time>2026-04-02T08:09:10.003Z</time></trkpt><trkpt lat="44.7836902" lon="9.145741"><ele>466.20000000000005</ele><time>2026-04-02T08:09:11.002Z</time></trkpt><trkpt lat="44.7837325" lon="9.1456015"><ele>466.0</ele><time>2026-04-02T08:09:12.003Z</time></trkpt><trkpt lat="44.7837635" lon="9.1454678"><ele>466.28571428571433</ele><time>2026-04-02T08:09:13.002Z</time></trkpt><trkpt lat="44.7837714" lon="9.1453506"><ele>466.57142857142856</ele><time>2026-04-02T08:09:14.002Z</time></trkpt><trkpt lat="44.7837601" lon="9.1452452"><ele>466.8571428571429</ele><time>2026-04-02T08:09:15.002Z</time></trkpt><trkpt lat="44.7837301" lon="9.1451641"><ele>467.14285714285717</ele><time>2026-04-02T08:09:16.003Z</time></trkpt><trkpt lat="44.7836858" lon="9.1450992"><ele>467.42857142857144</ele><time>2026-04-02T08:09:17.003Z</time></trkpt><trkpt lat="44.7836358" lon="9.145022"><ele>467.7142857142857</ele><time>2026-04-02T08:09:18.003Z</time></trkpt><trkpt lat="44.7835896" lon="9.1449274"><ele>468.0</ele><time>2026-04-02T08:09:19.003Z</time></trkpt><trkpt lat="44.7835642" lon="9.1448314"><ele>470.4</ele><time>2026-04-02T08:09:20.003Z</time></trkpt><trkpt lat="44.7835528" lon="9.1447351"><ele>472.79999999999995</ele><time>2026-04-02T08:09:21.003Z</time></trkpt><trkpt lat="44.7835867" lon="9.1445871"><ele>475.2</ele><time>2026-04-02T08:09:23.002Z</time></trkpt><trkpt lat="44.7836958" lon="9.144481"><ele>477.6</ele><time>2026-04-02T08:09:25.003Z</time></trkpt><trkpt lat="44.7837712" lon="9.1444193"><ele>480.0</ele><time>2026-04-02T08:09:26.003Z</time></trkpt><trkpt lat="44.7838522" lon="9.1443551"><ele>480.0</ele><time>2026-04-02T08:09:27.003Z</time></trkpt><trkpt lat="44.7839215" lon="9.1442848"><ele>480.0</ele><time>2026-04-02T08:09:28.002Z</time></trkpt><trkpt lat="44.7839722" lon="9.1441969"><ele>480.0</ele><time>2026-04-02T08:09:29.002Z</time></trkpt><trkpt lat="44.7840122" lon="9.1440927"><ele>480.0</ele><time>2026-04-02T08:09:30.003Z</time></trkpt><trkpt lat="44.7840527" lon="9.1439723"><ele>480.0</ele><time>2026-04-02T08:09:31.003Z</time></trkpt><trkpt lat="44.7840957" lon="9.1438377"><ele>480.0</ele><time>2026-04-02T08:09:32.003Z</time></trkpt><trkpt lat="44.784142" lon="9.143698"><ele>482.1666666666667</ele><time>2026-04-02T08:09:33.003Z</time></trkpt><trkpt lat="44.7841814" lon="9.1435581"><ele>484.33333333333337</ele><time>2026-04-02T08:09:34.003Z</time></trkpt><trkpt lat="44.7842054" lon="9.1434255"><ele>486.5</ele><time>2026-04-02T08:09:35.003Z</time></trkpt><trkpt lat="44.7842182" lon="9.1433074"><ele>488.6666666666667</ele><time>2026-04-02T08:09:36.003Z</time></trkpt><trkpt lat="44.7842218" lon="9.1432059"><ele>490.83333333333337</ele><time>2026-04-02T08:09:37.003Z</time></trkpt><trkpt lat="44.7842215" lon="9.1431083"><ele>493.0</ele><time>2026-04-02T08:09:38.002Z</time></trkpt><trkpt lat="44.784198" lon="9.1430196"><ele>494.0</ele><time>2026-04-02T08:09:39.003Z</time></trkpt><trkpt lat="44.7841787" lon="9.1428621"><ele>494.99999999999994</ele><time>2026-04-02T08:09:41.003Z</time></trkpt><trkpt lat="44.7842247" lon="9.1427062"><ele>495.99999999999994</ele><time>2026-04-02T08:09:43.003Z</time></trkpt><trkpt lat="44.7842432" lon="9.1425988"><ele>497.0</ele><time>2026-04-02T08:09:45.003Z</time></trkpt><trkpt lat="44.7842101" lon="9.1424949"><ele>498.0</ele><time>2026-04-02T08:09:47.003Z</time></trkpt><trkpt lat="44.7841485" lon="9.1423864"><ele>495.3333333333333</ele><time>2026-04-02T08:09:49.003Z</time></trkpt><trkpt lat="44.7841122" lon="9.1422592"><ele>492.66666666666663</ele><time>2026-04-02T08:09:51.003Z</time></trkpt><trkpt lat="44.7840845" lon="9.1421491"><ele>490.0</ele><time>2026-04-02T08:09:53.003Z</time></trkpt><trkpt lat="44.784058" lon="9.1420386"><ele>487.3333333333333</ele><time>2026-04-02T08:09:55.003Z</time></trkpt><trkpt lat="44.7839825" lon="9.1419311"><ele>484.66666666666663</ele><time>2026-04-02T08:09:57.003Z</time></trkpt><trkpt lat="44.7839211" lon="9.1418852"><ele>482.0</ele><time>2026-04-02T08:09:58.003Z</time></trkpt><trkpt lat="44.7838376" lon="9.1418488"><ele>482.0</ele><time>2026-04-02T08:09:59.003Z</time></trkpt><trkpt lat="44.7837478" lon="9.1418207"><ele>482.00000000000006</ele><time>2026-04-02T08:10:00.003Z</time></trkpt><trkpt lat="44.7836521" lon="9.141797"><ele>482.00000000000006</ele><time>2026-04-02T08:10:01.003Z</time></trkpt><trkpt lat="44.7835547" lon="9.1417847"><ele>482.0</ele><time>2026-04-02T08:10:02.003Z</time></trkpt><trkpt lat="44.7834746" lon="9.1417671"><ele>482.0</ele><time>2026-04-02T08:10:03.003Z</time></trkpt><trkpt lat="44.7833795" lon="9.1417624"><ele>482.3333333333333</ele><time>2026-04-02T08:10:04.003Z</time></trkpt><trkpt lat="44.7833014" lon="9.1417539"><ele>482.66666666666663</ele><time>2026-04-02T08:10:05.003Z</time></trkpt><trkpt lat="44.7832127" lon="9.141741"><ele>483.0</ele><time>2026-04-02T08:10:06.003Z</time></trkpt><trkpt lat="44.7831285" lon="9.1417209"><ele>483.33333333333337</ele><time>2026-04-02T08:10:07.002Z</time></trkpt><trkpt lat="44.7830532" lon="9.1416686"><ele>483.6666666666667</ele><time>2026-04-02T08:10:08.003Z</time></trkpt><trkpt lat="44.782984" lon="9.1415775"><ele>484.0</ele><time>2026-04-02T08:10:09.003Z</time></trkpt><trkpt lat="44.7829128" lon="9.1414409"><ele>482.75</ele><time>2026-04-02T08:10:10.002Z</time></trkpt><trkpt lat="44.7828389" lon="9.1412903"><ele>481.5</ele><time>2026-04-02T08:10:11.003Z</time></trkpt><trkpt lat="44.7827629" lon="9.1411452"><ele>480.25</ele><time>2026-04-02T08:10:12.003Z</time></trkpt><trkpt lat="44.7826917" lon="9.1410149"><ele>479.0</ele><time>2026-04-02T08:10:13.003Z</time></trkpt><trkpt lat="44.7826227" lon="9.1409014"><ele>479.0</ele><time>2026-04-02T08:10:14.003Z</time></trkpt><trkpt lat="44.782553" lon="9.1407855"><ele>479.0</ele><time>2026-04-02T08:10:15.002Z</time></trkpt><trkpt lat="44.7824729" lon="9.1406777"><ele>479.0</ele><time>2026-04-02T08:10:16.002Z</time></trkpt><trkpt lat="44.7823921" lon="9.1405873"><ele>479.0</ele><time>2026-04-02T08:10:17.003Z</time></trkpt><trkpt lat="44.7823222" lon="9.140516"><ele>479.0</ele><time>2026-04-02T08:10:18.003Z</time></trkpt><trkpt lat="44.7822601" lon="9.1404302"><ele>479.49999999999994</ele><time>2026-04-02T08:10:19.003Z</time></trkpt><trkpt lat="44.7822065" lon="9.1403406"><ele>480.0</ele><time>2026-04-02T08:10:20.003Z</time></trkpt><trkpt lat="44.782146" lon="9.1402554"><ele>480.5</ele><time>2026-04-02T08:10:21.003Z</time></trkpt><trkpt lat="44.7820794" lon="9.1401794"><ele>481.0</ele><time>2026-04-02T08:10:22.003Z</time></trkpt><trkpt lat="44.7820138" lon="9.1401125"><ele>481.49999999999994</ele><time>2026-04-02T08:10:23.003Z</time></trkpt><trkpt lat="44.7819567" lon="9.1400321"><ele>482.0</ele><time>2026-04-02T08:10:24.002Z</time></trkpt><trkpt lat="44.7819081" lon="9.139931"><ele>482.40000000000003</ele><time>2026-04-02T08:10:25.003Z</time></trkpt><trkpt lat="44.7818801" lon="9.1398123"><ele>482.80000000000007</ele><time>2026-04-02T08:10:26.003Z</time></trkpt><trkpt lat="44.7818595" lon="9.1396851"><ele>483.2</ele><time>2026-04-02T08:10:27.003Z</time></trkpt><trkpt lat="44.7818311" lon="9.1395574"><ele>483.6</ele><time>2026-04-02T08:10:28.003Z</time></trkpt><trkpt lat="44.7817881" lon="9.1394454"><ele>484.0</ele><time>2026-04-02T08:10:29.003Z</time></trkpt><trkpt lat="44.7817301" lon="9.1393507"><ele>484.0</ele><time>2026-04-02T08:10:30.003Z</time></trkpt><trkpt lat="44.7816504" lon="9.1392818"><ele>484.0</ele><time>2026-04-02T08:10:31.003Z</time></trkpt><trkpt lat="44.7815546" lon="9.1392501"><ele>484.0</ele><time>2026-04-02T08:10:32.003Z</time></trkpt><trkpt lat="44.7814467" lon="9.139253"><ele>484.0</ele><time>2026-04-02T08:10:33.002Z</time></trkpt><trkpt lat="44.7813259" lon="9.1392706"><ele>484.0</ele><time>2026-04-02T08:10:34.003Z</time></trkpt><trkpt lat="44.7812017" lon="9.1392655"><ele>484.0</ele><time>2026-04-02T08:10:35.003Z</time></trkpt><trkpt lat="44.7810768" lon="9.1392374"><ele>484.0</ele><time>2026-04-02T08:10:36.003Z</time></trkpt><trkpt lat="44.7809576" lon="9.1391827"><ele>484.0</ele><time>2026-04-02T08:10:37.003Z</time></trkpt><trkpt lat="44.7808514" lon="9.1391149"><ele>484.0</ele><time>2026-04-02T08:10:38.003Z</time></trkpt><trkpt lat="44.7807591" lon="9.1390267"><ele>486.5</ele><time>2026-04-02T08:10:39.002Z</time></trkpt><trkpt lat="44.7806719" lon="9.1389218"><ele>489.0</ele><time>2026-04-02T08:10:40.003Z</time></trkpt><trkpt lat="44.7805919" lon="9.1387942"><ele>491.5</ele><time>2026-04-02T08:10:41.002Z</time></trkpt><trkpt lat="44.7805229" lon="9.1386443"><ele>494.0</ele><time>2026-04-02T08:10:42.003Z</time></trkpt><trkpt lat="44.7804625" lon="9.1384911"><ele>494.0</ele><time>2026-04-02T08:10:43.003Z</time></trkpt><trkpt lat="44.7804025" lon="9.1383402"><ele>494.0</ele><time>2026-04-02T08:10:44.003Z</time></trkpt><trkpt lat="44.7803417" lon="9.1382067"><ele>494.0</ele><time>2026-04-02T08:10:45.003Z</time></trkpt><trkpt lat="44.7802777" lon="9.1380968"><ele>494.0</ele><time>2026-04-02T08:10:46.003Z</time></trkpt><trkpt lat="44.7802029" lon="9.1380046"><ele>494.0</ele><time>2026-04-02T08:10:47.003Z</time></trkpt><trkpt lat="44.7801158" lon="9.1379411"><ele>494.79999999999995</ele><time>2026-04-02T08:10:48.003Z</time></trkpt><trkpt lat="44.7800256" lon="9.1379061"><ele>495.59999999999997</ele><time>2026-04-02T08:10:49.002Z</time></trkpt><trkpt lat="44.7799293" lon="9.1378949"><ele>496.4</ele><time>2026-04-02T08:10:50.003Z</time></trkpt><trkpt lat="44.7798237" lon="9.1378989"><ele>497.2</ele><time>2026-04-02T08:10:51.003Z</time></trkpt><trkpt lat="44.7797306" lon="9.1379009"><ele>498.0</ele><time>2026-04-02T08:10:52.003Z</time></trkpt><trkpt lat="44.7796552" lon="9.1378951"><ele>498.0</ele><time>2026-04-02T08:10:53.003Z</time></trkpt><trkpt lat="44.7795457" lon="9.1378444"><ele>497.99999999999994</ele><time>2026-04-02T08:10:55.003Z</time></trkpt><trkpt lat="44.7794857" lon="9.1377076"><ele>497.99999999999994</ele><time>2026-04-02T08:10:57.003Z</time></trkpt><trkpt lat="44.7794652" lon="9.1375957"><ele>498.0</ele><time>2026-04-02T08:10:58.002Z</time></trkpt><trkpt lat="44.7794408" lon="9.1374608"><ele>498.0</ele><time>2026-04-02T08:10:59.002Z</time></trkpt><trkpt lat="44.7794045" lon="9.1373317"><ele>497.0</ele><time>2026-04-02T08:11:00.003Z</time></trkpt><trkpt lat="44.7793547" lon="9.1372196"><ele>495.99999999999994</ele><time>2026-04-02T08:11:01.003Z</time></trkpt><trkpt lat="44.7792901" lon="9.1371121"><ele>494.99999999999994</ele><time>2026-04-02T08:11:02.003Z</time></trkpt><trkpt lat="44.779213" lon="9.1369996"><ele>494.0</ele><time>2026-04-02T08:11:03.003Z</time></trkpt><trkpt lat="44.7791426" lon="9.1368749"><ele>493.0</ele><time>2026-04-02T08:11:04.003Z</time></trkpt><trkpt lat="44.7790747" lon="9.1367439"><ele>493.0</ele><time>2026-04-02T08:11:05.002Z</time></trkpt><trkpt lat="44.7790064" lon="9.1365907"><ele>493.0</ele><time>2026-04-02T08:11:06.003Z</time></trkpt><trkpt lat="44.7789368" lon="9.1364298"><ele>493.0</ele><time>2026-04-02T08:11:07.002Z</time></trkpt><trkpt lat="44.7788706" lon="9.1362651"><ele>493.0</ele><time>2026-04-02T08:11:08.003Z</time></trkpt><trkpt lat="44.7788096" lon="9.1361044"><ele>495.59999999999997</ele><time>2026-04-02T08:11:09.003Z</time></trkpt><trkpt lat="44.7787489" lon="9.1359532"><ele>498.19999999999993</ele><time>2026-04-02T08:11:10.003Z</time></trkpt><trkpt lat="44.7786921" lon="9.1358237"><ele>500.8</ele><time>2026-04-02T08:11:11.003Z</time></trkpt><trkpt lat="44.7786304" lon="9.1357032"><ele>503.4</ele><time>2026-04-02T08:11:12.002Z</time></trkpt><trkpt lat="44.7785567" lon="9.1356013"><ele>506.0</ele><time>2026-04-02T08:11:13.002Z</time></trkpt><trkpt lat="44.7784771" lon="9.1355193"><ele>506.0</ele><time>2026-04-02T08:11:14.003Z</time></trkpt><trkpt lat="44.7783898" lon="9.1354636"><ele>506.0</ele><time>2026-04-02T08:11:15.003Z</time></trkpt><trkpt lat="44.7782906" lon="9.1354437"><ele>506.0</ele><time>2026-04-02T08:11:16.003Z</time></trkpt><trkpt lat="44.778182" lon="9.1354502"><ele>506.0</ele><time>2026-04-02T08:11:17.003Z</time></trkpt><trkpt lat="44.7780567" lon="9.1354976"><ele>506.0</ele><time>2026-04-02T08:11:18.003Z</time></trkpt><trkpt lat="44.7779347" lon="9.135524"><ele>506.0</ele><time>2026-04-02T08:11:19.003Z</time></trkpt><trkpt lat="44.777811" lon="9.1355414"><ele>506.0</ele><time>2026-04-02T08:11:20.003Z</time></trkpt><trkpt lat="44.7776841" lon="9.1355436"><ele>506.0</ele><time>2026-04-02T08:11:21.003Z</time></trkpt><trkpt lat="44.7775606" lon="9.1355371"><ele>506.0</ele><time>2026-04-02T08:11:22.002Z</time></trkpt><trkpt lat="44.7774375" lon="9.1355126"><ele>506.8</ele><time>2026-04-02T08:11:23.003Z</time></trkpt><trkpt lat="44.7773247" lon="9.1354683"><ele>507.6</ele><time>2026-04-02T08:11:24.003Z</time></trkpt><trkpt lat="44.7772269" lon="9.1354045"><ele>508.4</ele><time>2026-04-02T08:11:25.003Z</time></trkpt><trkpt lat="44.777138" lon="9.1353317"><ele>509.2</ele><time>2026-04-02T08:11:26.003Z</time></trkpt><trkpt lat="44.7770589" lon="9.1352654"><ele>510.0</ele><time>2026-04-02T08:11:27.003Z</time></trkpt><trkpt lat="44.776987" lon="9.1352084"><ele>510.0</ele><time>2026-04-02T08:11:28.003Z</time></trkpt><trkpt lat="44.7769242" lon="9.1351659"><ele>510.0</ele><time>2026-04-02T08:11:29.003Z</time></trkpt><trkpt lat="44.7768048" lon="9.1351311"><ele>510.0</ele><time>2026-04-02T08:11:31.002Z</time></trkpt><trkpt lat="44.7767339" lon="9.1351307"><ele>510.0</ele><time>2026-04-02T08:11:32.003Z</time></trkpt><trkpt lat="44.7766585" lon="9.1351148"><ele>510.0</ele><time>2026-04-02T08:11:33.003Z</time></trkpt><trkpt lat="44.7765831" lon="9.1350983"><ele>510.0</ele><time>2026-04-02T08:11:34.003Z</time></trkpt><trkpt lat="44.7765042" lon="9.1350804"><ele>510.4</ele><time>2026-04-02T08:11:35.003Z</time></trkpt><trkpt lat="44.7764129" lon="9.1350711"><ele>510.8</ele><time>2026-04-02T08:11:36.003Z</time></trkpt><trkpt lat="44.7763242" lon="9.1350604"><ele>511.20000000000005</ele><time>2026-04-02T08:11:37.003Z</time></trkpt><trkpt lat="44.7762327" lon="9.1350423"><ele>511.6</ele><time>2026-04-02T08:11:38.003Z</time></trkpt><trkpt lat="44.7761442" lon="9.1350169"><ele>512.0</ele><time>2026-04-02T08:11:39.003Z</time></trkpt><trkpt lat="44.7760503" lon="9.1349881"><ele>513.8000000000001</ele><time>2026-04-02T08:11:40.003Z</time></trkpt><trkpt lat="44.7759511" lon="9.1349638"><ele>515.6</ele><time>2026-04-02T08:11:41.003Z</time></trkpt><trkpt lat="44.775847" lon="9.1349449"><ele>517.4000000000001</ele><time>2026-04-02T08:11:42.003Z</time></trkpt><trkpt lat="44.7757465" lon="9.1349292"><ele>519.2</ele><time>2026-04-02T08:11:43.002Z</time></trkpt><trkpt lat="44.7756445" lon="9.1349139"><ele>521.0</ele><time>2026-04-02T08:11:44.003Z</time></trkpt><trkpt lat="44.7755446" lon="9.1348886"><ele>523.4</ele><time>2026-04-02T08:11:45.003Z</time></trkpt><trkpt lat="44.7754468" lon="9.1348582"><ele>525.8</ele><time>2026-04-02T08:11:46.003Z</time></trkpt><trkpt lat="44.7753457" lon="9.1348239"><ele>528.1999999999999</ele><time>2026-04-02T08:11:47.003Z</time></trkpt><trkpt lat="44.7752304" lon="9.134791"><ele>530.6</ele><time>2026-04-02T08:11:48.003Z</time></trkpt><trkpt lat="44.7751192" lon="9.1347559"><ele>533.0</ele><time>2026-04-02T08:11:49.003Z</time></trkpt><trkpt lat="44.7750083" lon="9.1347141"><ele>533.6</ele><time>2026-04-02T08:11:50.002Z</time></trkpt><trkpt lat="44.774902" lon="9.1346698"><ele>534.1999999999999</ele><time>2026-04-02T08:11:51.003Z</time></trkpt><trkpt lat="44.774804" lon="9.1346255"><ele>534.8</ele><time>2026-04-02T08:11:52.002Z</time></trkpt><trkpt lat="44.7747112" lon="9.1345856"><ele>535.4</ele><time>2026-04-02T08:11:53.003Z</time></trkpt><trkpt lat="44.7746336" lon="9.1345458"><ele>536.0</ele><time>2026-04-02T08:11:54.002Z</time></trkpt><trkpt lat="44.7745619" lon="9.134488"><ele>536.0</ele><time>2026-04-02T08:11:55.003Z</time></trkpt><trkpt lat="44.7744888" lon="9.134403"><ele>536.0</ele><time>2026-04-02T08:11:56.003Z</time></trkpt><trkpt lat="44.7744147" lon="9.1342951"><ele>536.0</ele><time>2026-04-02T08:11:57.002Z</time></trkpt><trkpt lat="44.7743454" lon="9.1341759"><ele>536.0</ele><time>2026-04-02T08:11:58.003Z</time></trkpt><trkpt lat="44.7742981" lon="9.1340616"><ele>536.0</ele><time>2026-04-02T08:11:59.003Z</time></trkpt><trkpt lat="44.7742682" lon="9.1339449"><ele>538.6</ele><time>2026-04-02T08:12:00.003Z</time></trkpt><trkpt lat="44.7742537" lon="9.1338233"><ele>541.2</ele><time>2026-04-02T08:12:01.003Z</time></trkpt><trkpt lat="44.7742485" lon="9.1336936"><ele>543.8</ele><time>2026-04-02T08:12:02.003Z</time></trkpt><trkpt lat="44.7742397" lon="9.133557"><ele>546.4</ele><time>2026-04-02T08:12:03.002Z</time></trkpt><trkpt lat="44.7742286" lon="9.1334247"><ele>549.0</ele><time>2026-04-02T08:12:04.002Z</time></trkpt><trkpt lat="44.7742162" lon="9.1332902"><ele>550.6</ele><time>2026-04-02T08:12:05.002Z</time></trkpt><trkpt lat="44.7742025" lon="9.1331413"><ele>552.2</ele><time>2026-04-02T08:12:06.003Z</time></trkpt><trkpt lat="44.7741923" lon="9.1329792"><ele>553.8000000000001</ele><time>2026-04-02T08:12:07.003Z</time></trkpt><trkpt lat="44.7741847" lon="9.132827"><ele>555.4</ele><time>2026-04-02T08:12:08.003Z</time></trkpt><trkpt lat="44.774175" lon="9.1326796"><ele>557.0</ele><time>2026-04-02T08:12:09.003Z</time></trkpt><trkpt lat="44.7741725" lon="9.1325435"><ele>557.0</ele><time>2026-04-02T08:12:10.003Z</time></trkpt><trkpt lat="44.7741805" lon="9.1324269"><ele>557.0</ele><time>2026-04-02T08:12:11.003Z</time></trkpt><trkpt lat="44.7742018" lon="9.1323326"><ele>557.0</ele><time>2026-04-02T08:12:12.003Z</time></trkpt><trkpt lat="44.7742412" lon="9.1322634"><ele>557.0</ele><time>2026-04-02T08:12:13.003Z</time></trkpt><trkpt lat="44.7743532" lon="9.1322087"><ele>557.0</ele><time>2026-04-02T08:12:15.003Z</time></trkpt><trkpt lat="44.7744254" lon="9.132218"><ele>557.0</ele><time>2026-04-02T08:12:16.003Z</time></trkpt><trkpt lat="44.7745115" lon="9.1322393"><ele>560.2</ele><time>2026-04-02T08:12:17.003Z</time></trkpt><trkpt lat="44.774602" lon="9.1322568"><ele>563.4000000000001</ele><time>2026-04-02T08:12:18.003Z</time></trkpt><trkpt lat="44.7746993" lon="9.13225"><ele>566.5999999999999</ele><time>2026-04-02T08:12:19.003Z</time></trkpt><trkpt lat="44.7748206" lon="9.1322351"><ele>569.8</ele><time>2026-04-02T08:12:20.003Z</time></trkpt><trkpt lat="44.7749501" lon="9.1322207"><ele>573.0</ele><time>2026-04-02T08:12:21.003Z</time></trkpt><trkpt lat="44.7750826" lon="9.132202"><ele>574.6</ele><time>2026-04-02T08:12:22.003Z</time></trkpt><trkpt lat="44.7752091" lon="9.132185"><ele>576.1999999999999</ele><time>2026-04-02T08:12:23.003Z</time></trkpt><trkpt lat="44.7753258" lon="9.132171"><ele>577.8</ele><time>2026-04-02T08:12:24.003Z</time></trkpt><trkpt lat="44.7754291" lon="9.1321561"><ele>579.4</ele><time>2026-04-02T08:12:25.003Z</time></trkpt><trkpt lat="44.7755276" lon="9.1321467"><ele>581.0</ele><time>2026-04-02T08:12:26.003Z</time></trkpt><trkpt lat="44.7756218" lon="9.1321415"><ele>581.0</ele><time>2026-04-02T08:12:27.003Z</time></trkpt><trkpt lat="44.775712" lon="9.1321453"><ele>581.0</ele><time>2026-04-02T08:12:28.003Z</time></trkpt><trkpt lat="44.7758008" lon="9.1321302"><ele>581.0</ele><time>2026-04-02T08:12:29.003Z</time></trkpt><trkpt lat="44.7758858" lon="9.1321018"><ele>581.0</ele><time>2026-04-02T08:12:30.003Z</time></trkpt><trkpt lat="44.7759662" lon="9.1320691"><ele>581.0</ele><time>2026-04-02T08:12:31.002Z</time></trkpt><trkpt lat="44.7760512" lon="9.1320358"><ele>581.0</ele><time>2026-04-02T08:12:32.002Z</time></trkpt><trkpt lat="44.7761376" lon="9.1320071"><ele>580.4285714285714</ele><time>2026-04-02T08:12:33.003Z</time></trkpt><trkpt lat="44.7762196" lon="9.1319806"><ele>579.8571428571429</ele><time>2026-04-02T08:12:34.002Z</time></trkpt><trkpt lat="44.776291" lon="9.1319616"><ele>579.2857142857142</ele><time>2026-04-02T08:12:35.003Z</time></trkpt><trkpt lat="44.7763589" lon="9.1319541"><ele>578.7142857142858</ele><time>2026-04-02T08:12:36.003Z</time></trkpt><trkpt lat="44.7764275" lon="9.1319519"><ele>578.1428571428571</ele><time>2026-04-02T08:12:37.003Z</time></trkpt><trkpt lat="44.7764965" lon="9.1319467"><ele>577.5714285714286</ele><time>2026-04-02T08:12:38.003Z</time></trkpt><trkpt lat="44.7765618" lon="9.1319217"><ele>577.0</ele><time>2026-04-02T08:12:39.003Z</time></trkpt><trkpt lat="44.7766254" lon="9.1318736"><ele>577.0</ele><time>2026-04-02T08:12:40.003Z</time></trkpt><trkpt lat="44.7766799" lon="9.131811"><ele>577.0</ele><time>2026-04-02T08:12:41.003Z</time></trkpt><trkpt lat="44.7767269" lon="9.1317427"><ele>577.0</ele><time>2026-04-02T08:12:42.002Z</time></trkpt><trkpt lat="44.7767743" lon="9.1316069"><ele>577.0</ele><time>2026-04-02T08:12:44.003Z</time></trkpt><trkpt lat="44.7767333" lon="9.1314806"><ele>577.0</ele><time>2026-04-02T08:12:46.003Z</time></trkpt><trkpt lat="44.7766333" lon="9.1313966"><ele>580.0</ele><time>2026-04-02T08:12:48.003Z</time></trkpt><trkpt lat="44.7765121" lon="9.1313444"><ele>583.0</ele><time>2026-04-02T08:12:50.003Z</time></trkpt><trkpt lat="44.7764519" lon="9.1313096"><ele>586.0</ele><time>2026-04-02T08:12:51.003Z</time></trkpt><trkpt lat="44.7763899" lon="9.131267"><ele>589.0</ele><time>2026-04-02T08:12:52.003Z</time></trkpt><trkpt lat="44.7763209" lon="9.1312193"><ele>592.0</ele><time>2026-04-02T08:12:53.003Z</time></trkpt><trkpt lat="44.7762363" lon="9.1311652"><ele>595.0</ele><time>2026-04-02T08:12:54.003Z</time></trkpt><trkpt lat="44.7761426" lon="9.1311089"><ele>595.0</ele><time>2026-04-02T08:12:55.003Z</time></trkpt><trkpt lat="44.7760482" lon="9.131059"><ele>595.0</ele><time>2026-04-02T08:12:56.003Z</time></trkpt><trkpt lat="44.7759543" lon="9.1310246"><ele>595.0</ele><time>2026-04-02T08:12:57.003Z</time></trkpt><trkpt lat="44.7758698" lon="9.1310008"><ele>595.0</ele><time>2026-04-02T08:12:58.003Z</time></trkpt><trkpt lat="44.7757957" lon="9.1309797"><ele>595.0</ele><time>2026-04-02T08:12:59.003Z</time></trkpt><trkpt lat="44.7757308" lon="9.1309615"><ele>595.0</ele><time>2026-04-02T08:13:00.003Z</time></trkpt><trkpt lat="44.7756175" lon="9.1309347"><ele>597.0</ele><time>2026-04-02T08:13:02.003Z</time></trkpt><trkpt lat="44.7755122" lon="9.1308309"><ele>599.0</ele><time>2026-04-02T08:13:04.003Z</time></trkpt><trkpt lat="44.7754717" lon="9.1307452"><ele>601.0</ele><time>2026-04-02T08:13:05.003Z</time></trkpt><trkpt lat="44.7754376" lon="9.1306464"><ele>603.0</ele><time>2026-04-02T08:13:06.002Z</time></trkpt><trkpt lat="44.7754148" lon="9.130545"><ele>605.0</ele><time>2026-04-02T08:13:07.003Z</time></trkpt><trkpt lat="44.7754022" lon="9.130454"><ele>607.0</ele><time>2026-04-02T08:13:08.003Z</time></trkpt><trkpt lat="44.7753983" lon="9.1303596"><ele>609.0</ele><time>2026-04-02T08:13:09.003Z</time></trkpt><trkpt lat="44.7753935" lon="9.1302551"><ele>611.0</ele><time>2026-04-02T08:13:10.003Z</time></trkpt><trkpt lat="44.7753852" lon="9.1301502"><ele>613.0</ele><time>2026-04-02T08:13:11.003Z</time></trkpt><trkpt lat="44.7753757" lon="9.1300376"><ele>615.0</ele><time>2026-04-02T08:13:12.003Z</time></trkpt><trkpt lat="44.77537" lon="9.1299194"><ele>617.0</ele><time>2026-04-02T08:13:13.003Z</time></trkpt><trkpt lat="44.7753737" lon="9.1297912"><ele>619.0</ele><time>2026-04-02T08:13:14.003Z</time></trkpt><trkpt lat="44.7753873" lon="9.1296628"><ele>620.5</ele><time>2026-04-02T08:13:15.003Z</time></trkpt><trkpt lat="44.7754016" lon="9.1295341"><ele>622.0</ele><time>2026-04-02T08:13:16.003Z</time></trkpt><trkpt lat="44.7754031" lon="9.1294142"><ele>623.5</ele><time>2026-04-02T08:13:17.003Z</time></trkpt><trkpt lat="44.7753906" lon="9.1293004"><ele>625.0</ele><time>2026-04-02T08:13:18.002Z</time></trkpt><trkpt lat="44.7753793" lon="9.1291804"><ele>626.5</ele><time>2026-04-02T08:13:19.003Z</time></trkpt><trkpt lat="44.7753781" lon="9.1290624"><ele>628.0</ele><time>2026-04-02T08:13:20.003Z</time></trkpt><trkpt lat="44.7753894" lon="9.1289411"><ele>630.0</ele><time>2026-04-02T08:13:21.003Z</time></trkpt><trkpt lat="44.7753981" lon="9.1288413"><ele>632.0</ele><time>2026-04-02T08:13:22.002Z</time></trkpt><trkpt lat="44.7753728" lon="9.1286884"><ele>634.0</ele><time>2026-04-02T08:13:24.003Z</time></trkpt><trkpt lat="44.7753133" lon="9.1285504"><ele>636.0</ele><time>2026-04-02T08:13:26.003Z</time></trkpt><trkpt lat="44.7752733" lon="9.1283862"><ele>638.0</ele><time>2026-04-02T08:13:28.003Z</time></trkpt><trkpt lat="44.775209" lon="9.1282114"><ele>638.4</ele><time>2026-04-02T08:13:30.003Z</time></trkpt><trkpt lat="44.7751437" lon="9.1281271"><ele>638.8</ele><time>2026-04-02T08:13:31.003Z</time></trkpt><trkpt lat="44.7750767" lon="9.1280458"><ele>639.2</ele><time>2026-04-02T08:13:32.003Z</time></trkpt><trkpt lat="44.7750049" lon="9.1279586"><ele>639.6</ele><time>2026-04-02T08:13:33.002Z</time></trkpt><trkpt lat="44.7749186" lon="9.1278571"><ele>640.0</ele><time>2026-04-02T08:13:34.002Z</time></trkpt><trkpt lat="44.7748237" lon="9.1277549"><ele>640.0</ele><time>2026-04-02T08:13:35.002Z</time></trkpt><trkpt lat="44.7747258" lon="9.1276753"><ele>640.0</ele><time>2026-04-02T08:13:36.002Z</time></trkpt><trkpt lat="44.7746313" lon="9.1276107"><ele>640.0</ele><time>2026-04-02T08:13:37.002Z</time></trkpt><trkpt lat="44.7745425" lon="9.1275758"><ele>640.0</ele><time>2026-04-02T08:13:38.002Z</time></trkpt><trkpt lat="44.7744608" lon="9.1275696"><ele>640.0</ele><time>2026-04-02T08:13:39.002Z</time></trkpt><trkpt lat="44.774382" lon="9.1275944"><ele>637.5</ele><time>2026-04-02T08:13:40.001Z</time></trkpt><trkpt lat="44.7743054" lon="9.1276461"><ele>635.0</ele><time>2026-04-02T08:13:41.002Z</time></trkpt><trkpt lat="44.7742378" lon="9.1277093"><ele>632.5</ele><time>2026-04-02T08:13:42.002Z</time></trkpt><trkpt lat="44.7741714" lon="9.1277809"><ele>630.0</ele><time>2026-04-02T08:13:43.001Z</time></trkpt><trkpt lat="44.7740888" lon="9.1278542"><ele>627.5</ele><time>2026-04-02T08:13:44.002Z</time></trkpt><trkpt lat="44.774009" lon="9.1279105"><ele>625.0</ele><time>2026-04-02T08:13:45.002Z</time></trkpt><trkpt lat="44.7739229" lon="9.1279619"><ele>625.0</ele><time>2026-04-02T08:13:46.002Z</time></trkpt><trkpt lat="44.7738327" lon="9.128003"><ele>625.0</ele><time>2026-04-02T08:13:47.002Z</time></trkpt><trkpt lat="44.7737345" lon="9.1280436"><ele>625.0</ele><time>2026-04-02T08:13:48.002Z</time></trkpt><trkpt lat="44.7736357" lon="9.1280797"><ele>625.0</ele><time>2026-04-02T08:13:49.002Z</time></trkpt><trkpt lat="44.7735366" lon="9.1281255"><ele>625.0</ele><time>2026-04-02T08:13:50.002Z</time></trkpt><trkpt lat="44.7734357" lon="9.1281676"><ele>622.8</ele><time>2026-04-02T08:13:51.002Z</time></trkpt><trkpt lat="44.7733428" lon="9.1282148"><ele>620.6</ele><time>2026-04-02T08:13:52.002Z</time></trkpt><trkpt lat="44.7732591" lon="9.1282665"><ele>618.4</ele><time>2026-04-02T08:13:53.002Z</time></trkpt><trkpt lat="44.7731748" lon="9.1283264"><ele>616.2</ele><time>2026-04-02T08:13:54.002Z</time></trkpt><trkpt lat="44.773096" lon="9.1283902"><ele>614.0</ele><time>2026-04-02T08:13:55.002Z</time></trkpt><trkpt lat="44.7730196" lon="9.1284599"><ele>614.0</ele><time>2026-04-02T08:13:56.002Z</time></trkpt><trkpt lat="44.7729415" lon="9.1285364"><ele>614.0</ele><time>2026-04-02T08:13:57.002Z</time></trkpt><trkpt lat="44.7728585" lon="9.1286139"><ele>614.0</ele><time>2026-04-02T08:13:58.002Z</time></trkpt><trkpt lat="44.7727783" lon="9.1286909"><ele>614.0</ele><time>2026-04-02T08:13:59.001Z</time></trkpt><trkpt lat="44.7726888" lon="9.1287775"><ele>614.0</ele><time>2026-04-02T08:14:00.002Z</time></trkpt><trkpt lat="44.7725974" lon="9.1288634"><ele>613.0</ele><time>2026-04-02T08:14:01.002Z</time></trkpt><trkpt lat="44.7724992" lon="9.1289461"><ele>612.0</ele><time>2026-04-02T08:14:02.002Z</time></trkpt><trkpt lat="44.7723992" lon="9.1290286"><ele>611.0</ele><time>2026-04-02T08:14:03.002Z</time></trkpt><trkpt lat="44.7723038" lon="9.1291072"><ele>610.0</ele><time>2026-04-02T08:14:04.001Z</time></trkpt><trkpt lat="44.7722164" lon="9.1291772"><ele>609.0</ele><time>2026-04-02T08:14:05.002Z</time></trkpt><trkpt lat="44.7721305" lon="9.1292528"><ele>609.0</ele><time>2026-04-02T08:14:06.002Z</time></trkpt><trkpt lat="44.7720606" lon="9.1293133"><ele>609.0</ele><time>2026-04-02T08:14:07.002Z</time></trkpt><trkpt lat="44.7719795" lon="9.1293822"><ele>609.0</ele><time>2026-04-02T08:14:09.002Z</time></trkpt><trkpt lat="44.77193" lon="9.1293238"><ele>609.0</ele><time>2026-04-02T08:14:13.002Z</time></trkpt><trkpt lat="44.7719683" lon="9.1292232"><ele>609.0</ele><time>2026-04-02T08:14:15.002Z</time></trkpt><trkpt lat="44.7720523" lon="9.1290571"><ele>608.25</ele><time>2026-04-02T08:14:17.002Z</time></trkpt><trkpt lat="44.7721033" lon="9.1289401"><ele>607.5</ele><time>2026-04-02T08:14:18.002Z</time></trkpt><trkpt lat="44.7721519" lon="9.128798"><ele>606.75</ele><time>2026-04-02T08:14:19.002Z</time></trkpt><trkpt lat="44.7721963" lon="9.1286359"><ele>606.0</ele><time>2026-04-02T08:14:20.002Z</time></trkpt><trkpt lat="44.772232" lon="9.1284667"><ele>606.0</ele><time>2026-04-02T08:14:21.002Z</time></trkpt><trkpt lat="44.7722668" lon="9.1283034"><ele>606.0</ele><time>2026-04-02T08:14:22.002Z</time></trkpt><trkpt lat="44.7723026" lon="9.1281386"><ele>606.0</ele><time>2026-04-02T08:14:23.002Z</time></trkpt><trkpt lat="44.7723419" lon="9.1279678"><ele>606.0</ele><time>2026-04-02T08:14:24.002Z</time></trkpt><trkpt lat="44.7723884" lon="9.1277837"><ele>603.25</ele><time>2026-04-02T08:14:25.001Z</time></trkpt><trkpt lat="44.7724456" lon="9.1275952"><ele>600.5</ele><time>2026-04-02T08:14:26.002Z</time></trkpt><trkpt lat="44.7725061" lon="9.1274137"><ele>597.75</ele><time>2026-04-02T08:14:27.002Z</time></trkpt><trkpt lat="44.7725729" lon="9.12726"><ele>595.0</ele><time>2026-04-02T08:14:28.002Z</time></trkpt><trkpt lat="44.7726381" lon="9.1271237"><ele>595.5</ele><time>2026-04-02T08:14:29.002Z</time></trkpt><trkpt lat="44.7727174" lon="9.127006"><ele>596.0</ele><time>2026-04-02T08:14:30.002Z</time></trkpt><trkpt lat="44.7728074" lon="9.1268954"><ele>596.5</ele><time>2026-04-02T08:14:31.002Z</time></trkpt><trkpt lat="44.7729052" lon="9.1268007"><ele>597.0</ele><time>2026-04-02T08:14:32.002Z</time></trkpt><trkpt lat="44.7729959" lon="9.1267249"><ele>597.0</ele><time>2026-04-02T08:14:33.002Z</time></trkpt><trkpt lat="44.7730651" lon="9.1266468"><ele>597.0</ele><time>2026-04-02T08:14:34.002Z</time></trkpt><trkpt lat="44.7731116" lon="9.1265507"><ele>597.0</ele><time>2026-04-02T08:14:35.002Z</time></trkpt><trkpt lat="44.7731435" lon="9.12645"><ele>597.0</ele><time>2026-04-02T08:14:36.002Z</time></trkpt><trkpt lat="44.7731425" lon="9.1263396"><ele>597.0</ele><time>2026-04-02T08:14:37.002Z</time></trkpt><trkpt lat="44.7731118" lon="9.12623"><ele>597.0</ele><time>2026-04-02T08:14:38.002Z</time></trkpt><trkpt lat="44.7730628" lon="9.1261214"><ele>595.0</ele><time>2026-04-02T08:14:39.002Z</time></trkpt><trkpt lat="44.7730102" lon="9.1260146"><ele>593.0</ele><time>2026-04-02T08:14:40.002Z</time></trkpt><trkpt lat="44.7729729" lon="9.125874"><ele>591.0</ele><time>2026-04-02T08:14:41.002Z</time></trkpt><trkpt lat="44.7729509" lon="9.1257223"><ele>589.0</ele><time>2026-04-02T08:14:42.002Z</time></trkpt><trkpt lat="44.7729508" lon="9.1255589"><ele>587.0</ele><time>2026-04-02T08:14:43.002Z</time></trkpt><trkpt lat="44.7729737" lon="9.1253904"><ele>584.0</ele><time>2026-04-02T08:14:44.002Z</time></trkpt><trkpt lat="44.7730189" lon="9.1252184"><ele>581.0</ele><time>2026-04-02T08:14:45.002Z</time></trkpt><trkpt lat="44.7730746" lon="9.1250433"><ele>578.0</ele><time>2026-04-02T08:14:46.002Z</time></trkpt><trkpt lat="44.7731296" lon="9.1248805"><ele>575.0</ele><time>2026-04-02T08:14:47.002Z</time></trkpt><trkpt lat="44.7731724" lon="9.1247468"><ele>573.4</ele><time>2026-04-02T08:14:48.002Z</time></trkpt><trkpt lat="44.7731998" lon="9.1246421"><ele>571.8</ele><time>2026-04-02T08:14:49.002Z</time></trkpt><trkpt lat="44.7731782" lon="9.1244974"><ele>570.2</ele><time>2026-04-02T08:14:51.002Z</time></trkpt><trkpt lat="44.7730808" lon="9.1244262"><ele>568.6</ele><time>2026-04-02T08:14:53.002Z</time></trkpt><trkpt lat="44.7730021" lon="9.1244348"><ele>567.0</ele><time>2026-04-02T08:14:54.001Z</time></trkpt><trkpt lat="44.7729043" lon="9.1244854"><ele>567.0</ele><time>2026-04-02T08:14:55.002Z</time></trkpt><trkpt lat="44.772805" lon="9.124559"><ele>567.0</ele><time>2026-04-02T08:14:56.001Z</time></trkpt><trkpt lat="44.7727043" lon="9.124631"><ele>567.0</ele><time>2026-04-02T08:14:57.002Z</time></trkpt><trkpt lat="44.7726091" lon="9.1246893"><ele>567.0</ele><time>2026-04-02T08:14:58.001Z</time></trkpt><trkpt lat="44.7725292" lon="9.1247406"><ele>567.0</ele><time>2026-04-02T08:14:59.002Z</time></trkpt><trkpt lat="44.7724641" lon="9.1247785"><ele>565.2</ele><time>2026-04-02T08:15:00.002Z</time></trkpt><trkpt lat="44.7723767" lon="9.1247841"><ele>563.4000000000001</ele><time>2026-04-02T08:15:02.001Z</time></trkpt><trkpt lat="44.7723476" lon="9.1246607"><ele>561.5999999999999</ele><time>2026-04-02T08:15:04.002Z</time></trkpt><trkpt lat="44.7723567" lon="9.1245575"><ele>559.8</ele><time>2026-04-02T08:15:05.002Z</time></trkpt><trkpt lat="44.7723821" lon="9.1244216"><ele>558.0</ele><time>2026-04-02T08:15:06.001Z</time></trkpt><trkpt lat="44.7724214" lon="9.1242634"><ele>558.0</ele><time>2026-04-02T08:15:07.002Z</time></trkpt><trkpt lat="44.7724597" lon="9.1240924"><ele>558.0</ele><time>2026-04-02T08:15:08.002Z</time></trkpt><trkpt lat="44.7724933" lon="9.1239159"><ele>558.0</ele><time>2026-04-02T08:15:09.002Z</time></trkpt><trkpt lat="44.7725286" lon="9.1237551"><ele>558.0</ele><time>2026-04-02T08:15:10.002Z</time></trkpt><trkpt lat="44.7725803" lon="9.1235911"><ele>556.8</ele><time>2026-04-02T08:15:11.002Z</time></trkpt><trkpt lat="44.7726414" lon="9.1234444"><ele>555.5999999999999</ele><time>2026-04-02T08:15:12.002Z</time></trkpt><trkpt lat="44.7727023" lon="9.1233128"><ele>554.4000000000001</ele><time>2026-04-02T08:15:13.002Z</time></trkpt><trkpt lat="44.772771" lon="9.1232112"><ele>553.2</ele><time>2026-04-02T08:15:14.002Z</time></trkpt><trkpt lat="44.7728413" lon="9.1231403"><ele>552.0</ele><time>2026-04-02T08:15:15.002Z</time></trkpt><trkpt lat="44.7729008" lon="9.1230869"><ele>550.2</ele><time>2026-04-02T08:15:16.002Z</time></trkpt><trkpt lat="44.7729685" lon="9.1229529"><ele>548.4000000000001</ele><time>2026-04-02T08:15:18.002Z</time></trkpt><trkpt lat="44.7729417" lon="9.1228218"><ele>546.5999999999999</ele><time>2026-04-02T08:15:20.002Z</time></trkpt><trkpt lat="44.7728965" lon="9.1227593"><ele>544.8</ele><time>2026-04-02T08:15:21.001Z</time></trkpt><trkpt lat="44.7728277" lon="9.1227021"><ele>543.0</ele><time>2026-04-02T08:15:22.002Z</time></trkpt><trkpt lat="44.7727349" lon="9.1226636"><ele>543.0</ele><time>2026-04-02T08:15:23.002Z</time></trkpt><trkpt lat="44.7726409" lon="9.1226231"><ele>543.0</ele><time>2026-04-02T08:15:24.002Z</time></trkpt><trkpt lat="44.7725413" lon="9.1225913"><ele>543.0</ele><time>2026-04-02T08:15:25.002Z</time></trkpt><trkpt lat="44.7724424" lon="9.1225714"><ele>543.0</ele><time>2026-04-02T08:15:26.002Z</time></trkpt><trkpt lat="44.7723416" lon="9.1225713"><ele>543.0</ele><time>2026-04-02T08:15:27.002Z</time></trkpt><trkpt lat="44.7722401" lon="9.122593"><ele>543.0</ele><time>2026-04-02T08:15:28.002Z</time></trkpt><trkpt lat="44.7721399" lon="9.1226212"><ele>543.0</ele><time>2026-04-02T08:15:29.002Z</time></trkpt><trkpt lat="44.7720482" lon="9.1226518"><ele>543.0</ele><time>2026-04-02T08:15:30.002Z</time></trkpt><trkpt lat="44.771962" lon="9.1226873"><ele>543.0</ele><time>2026-04-02T08:15:31.002Z</time></trkpt><trkpt lat="44.7718864" lon="9.1227233"><ele>543.0</ele><time>2026-04-02T08:15:32.002Z</time></trkpt><trkpt lat="44.7718132" lon="9.122749"><ele>543.0</ele><time>2026-04-02T08:15:33.002Z</time></trkpt><trkpt lat="44.7717496" lon="9.1227632"><ele>540.6</ele><time>2026-04-02T08:15:34.002Z</time></trkpt><trkpt lat="44.7716495" lon="9.1227405"><ele>538.1999999999999</ele><time>2026-04-02T08:15:36.002Z</time></trkpt><trkpt lat="44.7716052" lon="9.122601"><ele>535.8</ele><time>2026-04-02T08:15:38.002Z</time></trkpt><trkpt lat="44.7716105" lon="9.122509"><ele>533.4</ele><time>2026-04-02T08:15:39.001Z</time></trkpt><trkpt lat="44.7716384" lon="9.1224075"><ele>531.0</ele><time>2026-04-02T08:15:40.002Z</time></trkpt><trkpt lat="44.7717036" lon="9.1223011"><ele>531.25</ele><time>2026-04-02T08:15:41.002Z</time></trkpt><trkpt lat="44.7717922" lon="9.1221874"><ele>531.5</ele><time>2026-04-02T08:15:42.002Z</time></trkpt><trkpt lat="44.7718846" lon="9.1220692"><ele>531.75</ele><time>2026-04-02T08:15:43.002Z</time></trkpt><trkpt lat="44.7719624" lon="9.1219573"><ele>532.0</ele><time>2026-04-02T08:15:44.002Z</time></trkpt><trkpt lat="44.7720324" lon="9.1218517"><ele>532.0</ele><time>2026-04-02T08:15:45.002Z</time></trkpt><trkpt lat="44.7721057" lon="9.1217523"><ele>532.0</ele><time>2026-04-02T08:15:46.002Z</time></trkpt><trkpt lat="44.7721875" lon="9.1216686"><ele>532.0</ele><time>2026-04-02T08:15:47.002Z</time></trkpt><trkpt lat="44.7722641" lon="9.1215766"><ele>532.0</ele><time>2026-04-02T08:15:48.001Z</time></trkpt><trkpt lat="44.7723365" lon="9.1214839"><ele>532.0</ele><time>2026-04-02T08:15:49.002Z</time></trkpt><trkpt lat="44.7724105" lon="9.1213967"><ele>529.2</ele><time>2026-04-02T08:15:50.002Z</time></trkpt><trkpt lat="44.7724814" lon="9.121323"><ele>526.4000000000001</ele><time>2026-04-02T08:15:51.001Z</time></trkpt><trkpt lat="44.7725583" lon="9.121269"><ele>523.5999999999999</ele><time>2026-04-02T08:15:52.002Z</time></trkpt><trkpt lat="44.7726484" lon="9.1212234"><ele>520.8</ele><time>2026-04-02T08:15:53.002Z</time></trkpt><trkpt lat="44.7727463" lon="9.1211929"><ele>518.0</ele><time>2026-04-02T08:15:54.002Z</time></trkpt><trkpt lat="44.7728498" lon="9.1211719"><ele>518.0</ele><time>2026-04-02T08:15:55.002Z</time></trkpt><trkpt lat="44.7729544" lon="9.1211493"><ele>518.0</ele><time>2026-04-02T08:15:56.002Z</time></trkpt><trkpt lat="44.7730634" lon="9.1211252"><ele>518.0</ele><time>2026-04-02T08:15:57.002Z</time></trkpt><trkpt lat="44.7731746" lon="9.1210876"><ele>518.0</ele><time>2026-04-02T08:15:58.002Z</time></trkpt><trkpt lat="44.7732783" lon="9.1210427"><ele>518.0</ele><time>2026-04-02T08:15:59.002Z</time></trkpt><trkpt lat="44.7733642" lon="9.1209858"><ele>518.0</ele><time>2026-04-02T08:16:00.002Z</time></trkpt><trkpt lat="44.7734376" lon="9.1209161"><ele>518.0</ele><time>2026-04-02T08:16:01.002Z</time></trkpt><trkpt lat="44.7734981" lon="9.1208202"><ele>518.0</ele><time>2026-04-02T08:16:02.002Z</time></trkpt><trkpt lat="44.7735341" lon="9.1207012"><ele>518.0</ele><time>2026-04-02T08:16:03.001Z</time></trkpt><trkpt lat="44.7735592" lon="9.1205678"><ele>518.0</ele><time>2026-04-02T08:16:04.002Z</time></trkpt><trkpt lat="44.7735725" lon="9.1204265"><ele>516.4</ele><time>2026-04-02T08:16:05.002Z</time></trkpt><trkpt lat="44.7735675" lon="9.1202878"><ele>514.8</ele><time>2026-04-02T08:16:06.002Z</time></trkpt><trkpt lat="44.773543" lon="9.1201573"><ele>513.2</ele><time>2026-04-02T08:16:07.002Z</time></trkpt><trkpt lat="44.7734998" lon="9.1200421"><ele>511.6</ele><time>2026-04-02T08:16:08.001Z</time></trkpt><trkpt lat="44.7734333" lon="9.1199376"><ele>510.0</ele><time>2026-04-02T08:16:09.002Z</time></trkpt><trkpt lat="44.7733536" lon="9.1198486"><ele>510.0</ele><time>2026-04-02T08:16:10.001Z</time></trkpt><trkpt lat="44.7732642" lon="9.1197669"><ele>510.0</ele><time>2026-04-02T08:16:11.002Z</time></trkpt><trkpt lat="44.7731759" lon="9.1197009"><ele>510.0</ele><time>2026-04-02T08:16:12.002Z</time></trkpt><trkpt lat="44.7730855" lon="9.1196452"><ele>510.0</ele><time>2026-04-02T08:16:13.002Z</time></trkpt><trkpt lat="44.7730027" lon="9.1195934"><ele>510.0</ele><time>2026-04-02T08:16:14.002Z</time></trkpt><trkpt lat="44.7729275" lon="9.1195454"><ele>510.0</ele><time>2026-04-02T08:16:15.002Z</time></trkpt><trkpt lat="44.7728495" lon="9.1194799"><ele>510.0</ele><time>2026-04-02T08:16:16.002Z</time></trkpt><trkpt lat="44.7727727" lon="9.1194161"><ele>510.0</ele><time>2026-04-02T08:16:17.002Z</time></trkpt><trkpt lat="44.7727023" lon="9.1193407"><ele>510.0</ele><time>2026-04-02T08:16:18.001Z</time></trkpt><trkpt lat="44.7726336" lon="9.1192575"><ele>510.0</ele><time>2026-04-02T08:16:19.002Z</time></trkpt><trkpt lat="44.7725644" lon="9.1191671"><ele>508.5</ele><time>2026-04-02T08:16:20.002Z</time></trkpt><trkpt lat="44.7725002" lon="9.1190758"><ele>507.0</ele><time>2026-04-02T08:16:21.002Z</time></trkpt><trkpt lat="44.7724423" lon="9.1189933"><ele>505.5</ele><time>2026-04-02T08:16:22.002Z</time></trkpt><trkpt lat="44.772391" lon="9.1189356"><ele>504.0</ele><time>2026-04-02T08:16:23.002Z</time></trkpt><trkpt lat="44.7723365" lon="9.118888"><ele>502.5</ele><time>2026-04-02T08:16:24.002Z</time></trkpt><trkpt lat="44.772233" lon="9.1188051"><ele>501.0</ele><time>2026-04-02T08:16:26.001Z</time></trkpt><trkpt lat="44.7721654" lon="9.1186432"><ele>500.6</ele><time>2026-04-02T08:16:28.002Z</time></trkpt><trkpt lat="44.7721638" lon="9.1185192"><ele>500.20000000000005</ele><time>2026-04-02T08:16:29.002Z</time></trkpt><trkpt lat="44.7721891" lon="9.1183926"><ele>499.79999999999995</ele><time>2026-04-02T08:16:30.002Z</time></trkpt><trkpt lat="44.7722217" lon="9.1182702"><ele>499.4</ele><time>2026-04-02T08:16:31.002Z</time></trkpt><trkpt lat="44.7722544" lon="9.1181447"><ele>499.0</ele><time>2026-04-02T08:16:32.002Z</time></trkpt><trkpt lat="44.7722835" lon="9.1180164"><ele>498.83333333333337</ele><time>2026-04-02T08:16:33.001Z</time></trkpt><trkpt lat="44.7723042" lon="9.1178905"><ele>498.6666666666667</ele><time>2026-04-02T08:16:34.001Z</time></trkpt><trkpt lat="44.7723037" lon="9.1177855"><ele>498.5</ele><time>2026-04-02T08:16:35.002Z</time></trkpt><trkpt lat="44.7722898" lon="9.1176975"><ele>498.33333333333337</ele><time>2026-04-02T08:16:36.002Z</time></trkpt><trkpt lat="44.7722605" lon="9.1176157"><ele>498.1666666666667</ele><time>2026-04-02T08:16:37.001Z</time></trkpt><trkpt lat="44.7722147" lon="9.1175298"><ele>498.0</ele><time>2026-04-02T08:16:38.002Z</time></trkpt><trkpt lat="44.7721606" lon="9.1174385"><ele>497.2</ele><time>2026-04-02T08:16:39.002Z</time></trkpt><trkpt lat="44.7721097" lon="9.1173324"><ele>496.4</ele><time>2026-04-02T08:16:40.002Z</time></trkpt><trkpt lat="44.7720692" lon="9.1172153"><ele>495.59999999999997</ele><time>2026-04-02T08:16:41.002Z</time></trkpt><trkpt lat="44.7720459" lon="9.1170838"><ele>494.79999999999995</ele><time>2026-04-02T08:16:42.002Z</time></trkpt><trkpt lat="44.7720357" lon="9.1169464"><ele>494.0</ele><time>2026-04-02T08:16:43.002Z</time></trkpt><trkpt lat="44.7720448" lon="9.1168101"><ele>494.0</ele><time>2026-04-02T08:16:44.001Z</time></trkpt><trkpt lat="44.7720605" lon="9.1166839"><ele>494.0</ele><time>2026-04-02T08:16:45.002Z</time></trkpt><trkpt lat="44.7720796" lon="9.1165613"><ele>494.0</ele><time>2026-04-02T08:16:46.002Z</time></trkpt><trkpt lat="44.7721002" lon="9.1164363"><ele>494.0</ele><time>2026-04-02T08:16:47.001Z</time></trkpt><trkpt lat="44.7721194" lon="9.1163037"><ele>494.0</ele><time>2026-04-02T08:16:48.002Z</time></trkpt><trkpt lat="44.7721396" lon="9.1161552"><ele>492.5</ele><time>2026-04-02T08:16:49.002Z</time></trkpt><trkpt lat="44.7721634" lon="9.1159964"><ele>491.0</ele><time>2026-04-02T08:16:50.002Z</time></trkpt><trkpt lat="44.7721876" lon="9.1158339"><ele>489.5</ele><time>2026-04-02T08:16:51.001Z</time></trkpt><trkpt lat="44.7722096" lon="9.1156744"><ele>488.0</ele><time>2026-04-02T08:16:52.002Z</time></trkpt><trkpt lat="44.7722312" lon="9.1155191"><ele>487.2</ele><time>2026-04-02T08:16:53.002Z</time></trkpt><trkpt lat="44.7722487" lon="9.1153636"><ele>486.4</ele><time>2026-04-02T08:16:54.002Z</time></trkpt><trkpt lat="44.7722607" lon="9.1152329"><ele>485.59999999999997</ele><time>2026-04-02T08:16:55.002Z</time></trkpt><trkpt lat="44.7722781" lon="9.1150936"><ele>484.79999999999995</ele><time>2026-04-02T08:16:56.002Z</time></trkpt><trkpt lat="44.772288" lon="9.1149521"><ele>484.0</ele><time>2026-04-02T08:16:57.002Z</time></trkpt><trkpt lat="44.7722957" lon="9.1148136"><ele>483.33333333333337</ele><time>2026-04-02T08:16:58.002Z</time></trkpt><trkpt lat="44.7722936" lon="9.1146833"><ele>482.6666666666667</ele><time>2026-04-02T08:16:59.002Z</time></trkpt><trkpt lat="44.772273" lon="9.1145637"><ele>482.0</ele><time>2026-04-02T08:17:00.001Z</time></trkpt><trkpt lat="44.7722386" lon="9.1144582"><ele>481.33333333333337</ele><time>2026-04-02T08:17:01.001Z</time></trkpt><trkpt lat="44.7722022" lon="9.1143713"><ele>480.6666666666667</ele><time>2026-04-02T08:17:02.002Z</time></trkpt><trkpt lat="44.7721648" lon="9.1142795"><ele>480.0</ele><time>2026-04-02T08:17:03.002Z</time></trkpt><trkpt lat="44.7721444" lon="9.1141775"><ele>479.0</ele><time>2026-04-02T08:17:04.002Z</time></trkpt><trkpt lat="44.772139" lon="9.1140635"><ele>478.0</ele><time>2026-04-02T08:17:05.002Z</time></trkpt><trkpt lat="44.772147" lon="9.1139388"><ele>477.0</ele><time>2026-04-02T08:17:06.002Z</time></trkpt><trkpt lat="44.7721655" lon="9.1137996"><ele>476.0</ele><time>2026-04-02T08:17:07.002Z</time></trkpt><trkpt lat="44.7721859" lon="9.1136547"><ele>475.0</ele><time>2026-04-02T08:17:08.002Z</time></trkpt><trkpt lat="44.7722139" lon="9.1135066"><ele>475.0</ele><time>2026-04-02T08:17:09.002Z</time></trkpt><trkpt lat="44.7722349" lon="9.1133462"><ele>475.0</ele><time>2026-04-02T08:17:10.002Z</time></trkpt><trkpt lat="44.7722506" lon="9.1131847"><ele>475.0</ele><time>2026-04-02T08:17:11.002Z</time></trkpt><trkpt lat="44.772261" lon="9.1130231"><ele>475.0</ele><time>2026-04-02T08:17:12.002Z</time></trkpt><trkpt lat="44.7722565" lon="9.1128775"><ele>474.6</ele><time>2026-04-02T08:17:13.002Z</time></trkpt><trkpt lat="44.7722431" lon="9.1127443"><ele>474.2</ele><time>2026-04-02T08:17:14.002Z</time></trkpt><trkpt lat="44.7722201" lon="9.1126127"><ele>473.79999999999995</ele><time>2026-04-02T08:17:15.002Z</time></trkpt><trkpt lat="44.7721936" lon="9.1124805"><ele>473.4</ele><time>2026-04-02T08:17:16.002Z</time></trkpt><trkpt lat="44.7721699" lon="9.1123451"><ele>473.0</ele><time>2026-04-02T08:17:17.002Z</time></trkpt><trkpt lat="44.7721489" lon="9.1121974"><ele>472.0</ele><time>2026-04-02T08:17:18.002Z</time></trkpt><trkpt lat="44.7721275" lon="9.112037"><ele>471.0</ele><time>2026-04-02T08:17:19.002Z</time></trkpt><trkpt lat="44.7721022" lon="9.111867"><ele>470.0</ele><time>2026-04-02T08:17:20.002Z</time></trkpt><trkpt lat="44.7720773" lon="9.1116955"><ele>469.0</ele><time>2026-04-02T08:17:21.001Z</time></trkpt><trkpt lat="44.7720616" lon="9.1115235"><ele>467.0</ele><time>2026-04-02T08:17:22.002Z</time></trkpt><trkpt lat="44.7720674" lon="9.111362"><ele>465.0</ele><time>2026-04-02T08:17:23.002Z</time></trkpt><trkpt lat="44.7720874" lon="9.1112071"><ele>463.0</ele><time>2026-04-02T08:17:24.002Z</time></trkpt><trkpt lat="44.7721125" lon="9.111058"><ele>461.0</ele><time>2026-04-02T08:17:25.002Z</time></trkpt><trkpt lat="44.7721401" lon="9.1109141"><ele>459.0</ele><time>2026-04-02T08:17:26.002Z</time></trkpt><trkpt lat="44.7721686" lon="9.110777"><ele>457.5</ele><time>2026-04-02T08:17:27.002Z</time></trkpt><trkpt lat="44.7721929" lon="9.1106609"><ele>456.0</ele><time>2026-04-02T08:17:28.002Z</time></trkpt><trkpt lat="44.7722072" lon="9.1105697"><ele>454.5</ele><time>2026-04-02T08:17:29.002Z</time></trkpt><trkpt lat="44.7722055" lon="9.1104544"><ele>453.0</ele><time>2026-04-02T08:17:31.002Z</time></trkpt><trkpt lat="44.7721148" lon="9.1104619"><ele>451.5</ele><time>2026-04-02T08:17:35.002Z</time></trkpt><trkpt lat="44.7720108" lon="9.1105354"><ele>450.0</ele><time>2026-04-02T08:17:37.002Z</time></trkpt><trkpt lat="44.7719418" lon="9.1105783"><ele>450.0</ele><time>2026-04-02T08:17:38.002Z</time></trkpt><trkpt lat="44.7718653" lon="9.1106143"><ele>450.0</ele><time>2026-04-02T08:17:39.002Z</time></trkpt><trkpt lat="44.7717891" lon="9.110636"><ele>450.0</ele><time>2026-04-02T08:17:40.002Z</time></trkpt><trkpt lat="44.7717174" lon="9.1106472"><ele>450.0</ele><time>2026-04-02T08:17:41.002Z</time></trkpt><trkpt lat="44.7716164" lon="9.1106599"><ele>450.0</ele><time>2026-04-02T08:17:43.002Z</time></trkpt><trkpt lat="44.77154" lon="9.1106578"><ele>450.0</ele><time>2026-04-02T08:17:45.002Z</time></trkpt><trkpt lat="44.7714517" lon="9.1106456"><ele>450.6666666666667</ele><time>2026-04-02T08:17:47.001Z</time></trkpt><trkpt lat="44.7713898" lon="9.1106275"><ele>451.33333333333337</ele><time>2026-04-02T08:17:48.002Z</time></trkpt><trkpt lat="44.771313" lon="9.1106063"><ele>452.0</ele><time>2026-04-02T08:17:49.002Z</time></trkpt><trkpt lat="44.7712259" lon="9.1105848"><ele>452.6666666666667</ele><time>2026-04-02T08:17:50.002Z</time></trkpt><trkpt lat="44.7711346" lon="9.1105727"><ele>453.33333333333337</ele><time>2026-04-02T08:17:51.002Z</time></trkpt><trkpt lat="44.7710339" lon="9.1105662"><ele>454.0</ele><time>2026-04-02T08:17:52.002Z</time></trkpt><trkpt lat="44.7709368" lon="9.1105517"><ele>454.0</ele><time>2026-04-02T08:17:53.002Z</time></trkpt><trkpt lat="44.7708404" lon="9.110532"><ele>454.0</ele><time>2026-04-02T08:17:54.002Z</time></trkpt><trkpt lat="44.7707521" lon="9.1104982"><ele>454.0</ele><time>2026-04-02T08:17:55.002Z</time></trkpt><trkpt lat="44.7706637" lon="9.1104454"><ele>454.0</ele><time>2026-04-02T08:17:56.002Z</time></trkpt><trkpt lat="44.7705806" lon="9.1103686"><ele>454.0</ele><time>2026-04-02T08:17:57.002Z</time></trkpt><trkpt lat="44.7704903" lon="9.1102798"><ele>454.0</ele><time>2026-04-02T08:17:58.002Z</time></trkpt><trkpt lat="44.7704028" lon="9.1101802"><ele>454.0</ele><time>2026-04-02T08:17:59.002Z</time></trkpt><trkpt lat="44.7703132" lon="9.1100867"><ele>454.0</ele><time>2026-04-02T08:18:00.001Z</time></trkpt><trkpt lat="44.7702215" lon="9.109993"><ele>454.0</ele><time>2026-04-02T08:18:01.002Z</time></trkpt><trkpt lat="44.7701226" lon="9.1099171"><ele>455.0</ele><time>2026-04-02T08:18:02.002Z</time></trkpt><trkpt lat="44.7700151" lon="9.1098601"><ele>456.0</ele><time>2026-04-02T08:18:03.002Z</time></trkpt><trkpt lat="44.7698991" lon="9.1098225"><ele>457.0</ele><time>2026-04-02T08:18:04.002Z</time></trkpt><trkpt lat="44.7697749" lon="9.1098096"><ele>458.0</ele><time>2026-04-02T08:18:05.002Z</time></trkpt><trkpt lat="44.7696438" lon="9.1098135"><ele>458.0</ele><time>2026-04-02T08:18:06.002Z</time></trkpt><trkpt lat="44.7695061" lon="9.1098229"><ele>458.0</ele><time>2026-04-02T08:18:07.001Z</time></trkpt><trkpt lat="44.7693669" lon="9.1098277"><ele>458.0</ele><time>2026-04-02T08:18:08.002Z</time></trkpt><trkpt lat="44.7692289" lon="9.1098104"><ele>458.0</ele><time>2026-04-02T08:18:09.002Z</time></trkpt><trkpt lat="44.7691059" lon="9.1097878"><ele>459.4</ele><time>2026-04-02T08:18:10.002Z</time></trkpt><trkpt lat="44.769" lon="9.1097571"><ele>460.79999999999995</ele><time>2026-04-02T08:18:11.002Z</time></trkpt><trkpt lat="44.7689152" lon="9.1097191"><ele>462.2</ele><time>2026-04-02T08:18:12.002Z</time></trkpt><trkpt lat="44.7688392" lon="9.1096566"><ele>463.6</ele><time>2026-04-02T08:18:13.002Z</time></trkpt><trkpt lat="44.7687739" lon="9.1095769"><ele>465.0</ele><time>2026-04-02T08:18:14.002Z</time></trkpt><trkpt lat="44.7687193" lon="9.1094723"><ele>465.0</ele><time>2026-04-02T08:18:15.002Z</time></trkpt><trkpt lat="44.7686758" lon="9.1093656"><ele>465.0</ele><time>2026-04-02T08:18:16.002Z</time></trkpt><trkpt lat="44.7686429" lon="9.1092668"><ele>465.0</ele><time>2026-04-02T08:18:17.002Z</time></trkpt><trkpt lat="44.7686116" lon="9.1091616"><ele>465.0</ele><time>2026-04-02T08:18:18.002Z</time></trkpt><trkpt lat="44.7685755" lon="9.1090361"><ele>465.0</ele><time>2026-04-02T08:18:19.002Z</time></trkpt><trkpt lat="44.7685331" lon="9.1089056"><ele>465.0</ele><time>2026-04-02T08:18:20.002Z</time></trkpt><trkpt lat="44.7684785" lon="9.108775"><ele>467.2</ele><time>2026-04-02T08:18:21.001Z</time></trkpt><trkpt lat="44.7684115" lon="9.1086742"><ele>469.4</ele><time>2026-04-02T08:18:22.002Z</time></trkpt><trkpt lat="44.7683285" lon="9.1086033"><ele>471.6</ele><time>2026-04-02T08:18:23.002Z</time></trkpt><trkpt lat="44.7682316" lon="9.1085717"><ele>473.8</ele><time>2026-04-02T08:18:24.002Z</time></trkpt><trkpt lat="44.7681246" lon="9.1085751"><ele>476.0</ele><time>2026-04-02T08:18:25.002Z</time></trkpt><trkpt lat="44.7680143" lon="9.1085867"><ele>476.0</ele><time>2026-04-02T08:18:26.001Z</time></trkpt><trkpt lat="44.7679024" lon="9.1085994"><ele>476.0</ele><time>2026-04-02T08:18:27.002Z</time></trkpt><trkpt lat="44.767793" lon="9.108607"><ele>476.0</ele><time>2026-04-02T08:18:28.002Z</time></trkpt><trkpt lat="44.7676823" lon="9.1086154"><ele>476.0</ele><time>2026-04-02T08:18:29.002Z</time></trkpt><trkpt lat="44.767573" lon="9.1086241"><ele>476.0</ele><time>2026-04-02T08:18:30.002Z</time></trkpt><trkpt lat="44.7674624" lon="9.1086252"><ele>479.5</ele><time>2026-04-02T08:18:31.002Z</time></trkpt><trkpt lat="44.7673551" lon="9.1086005"><ele>483.0</ele><time>2026-04-02T08:18:32.002Z</time></trkpt><trkpt lat="44.7672448" lon="9.1085515"><ele>486.5</ele><time>2026-04-02T08:18:33.001Z</time></trkpt><trkpt lat="44.7671297" lon="9.1084961"><ele>490.0</ele><time>2026-04-02T08:18:34.001Z</time></trkpt><trkpt lat="44.7670157" lon="9.1084631"><ele>490.0</ele><time>2026-04-02T08:18:35.002Z</time></trkpt><trkpt lat="44.766906" lon="9.1084459"><ele>490.0</ele><time>2026-04-02T08:18:36.002Z</time></trkpt><trkpt lat="44.7668014" lon="9.1084212"><ele>490.0</ele><time>2026-04-02T08:18:37.002Z</time></trkpt><trkpt lat="44.7667057" lon="9.108376"><ele>490.0</ele><time>2026-04-02T08:18:38.001Z</time></trkpt><trkpt lat="44.7666237" lon="9.1083075"><ele>490.0</ele><time>2026-04-02T08:18:39.002Z</time></trkpt><trkpt lat="44.7665371" lon="9.1082117"><ele>493.4</ele><time>2026-04-02T08:18:40.002Z</time></trkpt><trkpt lat="44.7664525" lon="9.108104"><ele>496.8</ele><time>2026-04-02T08:18:41.002Z</time></trkpt><trkpt lat="44.7663654" lon="9.1079923"><ele>500.20000000000005</ele><time>2026-04-02T08:18:42.002Z</time></trkpt><trkpt lat="44.7662753" lon="9.1078873"><ele>503.6</ele><time>2026-04-02T08:18:43.002Z</time></trkpt><trkpt lat="44.7662025" lon="9.1077949"><ele>507.0</ele><time>2026-04-02T08:18:44.002Z</time></trkpt><trkpt lat="44.7661479" lon="9.1077143"><ele>507.0</ele><time>2026-04-02T08:18:45.002Z</time></trkpt><trkpt lat="44.7661057" lon="9.1076126"><ele>507.00000000000006</ele><time>2026-04-02T08:18:46.002Z</time></trkpt><trkpt lat="44.7660846" lon="9.1075023"><ele>507.00000000000006</ele><time>2026-04-02T08:18:47.002Z</time></trkpt><trkpt lat="44.7660828" lon="9.1073758"><ele>507.0</ele><time>2026-04-02T08:18:48.002Z</time></trkpt><trkpt lat="44.7661029" lon="9.107241"><ele>507.0</ele><time>2026-04-02T08:18:49.002Z</time></trkpt><trkpt lat="44.7661392" lon="9.1071065"><ele>509.20000000000005</ele><time>2026-04-02T08:18:50.001Z</time></trkpt><trkpt lat="44.7661967" lon="9.1069799"><ele>511.40000000000003</ele><time>2026-04-02T08:18:51.002Z</time></trkpt><trkpt lat="44.7662783" lon="9.106885"><ele>513.5999999999999</ele><time>2026-04-02T08:18:52.002Z</time></trkpt><trkpt lat="44.7663665" lon="9.1068101"><ele>515.8</ele><time>2026-04-02T08:18:53.002Z</time></trkpt><trkpt lat="44.7664648" lon="9.1067486"><ele>518.0</ele><time>2026-04-02T08:18:54.002Z</time></trkpt><trkpt lat="44.7665677" lon="9.1066903"><ele>518.0</ele><time>2026-04-02T08:18:55.002Z</time></trkpt><trkpt lat="44.7666644" lon="9.1066321"><ele>518.0</ele><time>2026-04-02T08:18:56.002Z</time></trkpt><trkpt lat="44.7667525" lon="9.1065751"><ele>518.0</ele><time>2026-04-02T08:18:57.002Z</time></trkpt><trkpt lat="44.7668368" lon="9.1065136"><ele>518.0</ele><time>2026-04-02T08:18:58.002Z</time></trkpt><trkpt lat="44.766916" lon="9.1064554"><ele>518.0</ele><time>2026-04-02T08:18:59.002Z</time></trkpt><trkpt lat="44.7669932" lon="9.10641"><ele>516.6666666666666</ele><time>2026-04-02T08:19:00.002Z</time></trkpt><trkpt lat="44.7670513" lon="9.1063579"><ele>515.3333333333333</ele><time>2026-04-02T08:19:01.002Z</time></trkpt><trkpt lat="44.767118" lon="9.1062491"><ele>514.0</ele><time>2026-04-02T08:19:03.002Z</time></trkpt><trkpt lat="44.7670916" lon="9.106086"><ele>512.6666666666666</ele><time>2026-04-02T08:19:05.002Z</time></trkpt><trkpt lat="44.7670582" lon="9.105991"><ele>511.3333333333333</ele><time>2026-04-02T08:19:06.001Z</time></trkpt><trkpt lat="44.7670264" lon="9.1058944"><ele>510.0</ele><time>2026-04-02T08:19:07.001Z</time></trkpt><trkpt lat="44.7669935" lon="9.1057986"><ele>510.0</ele><time>2026-04-02T08:19:08.002Z</time></trkpt><trkpt lat="44.7669632" lon="9.1057151"><ele>510.0</ele><time>2026-04-02T08:19:09.002Z</time></trkpt><trkpt lat="44.7669113" lon="9.1055829"><ele>510.0</ele><time>2026-04-02T08:19:11.001Z</time></trkpt><trkpt lat="44.7668818" lon="9.1054535"><ele>510.0</ele><time>2026-04-02T08:19:13.002Z</time></trkpt><trkpt lat="44.7669274" lon="9.1053205"><ele>510.0</ele><time>2026-04-02T08:19:15.002Z</time></trkpt><trkpt lat="44.7669698" lon="9.1052414"><ele>510.0</ele><time>2026-04-02T08:19:16.002Z</time></trkpt><trkpt lat="44.7670122" lon="9.1051542"><ele>510.0</ele><time>2026-04-02T08:19:17.001Z</time></trkpt><trkpt lat="44.767047" lon="9.1050561"><ele>510.0</ele><time>2026-04-02T08:19:18.002Z</time></trkpt><trkpt lat="44.7670677" lon="9.1049524"><ele>510.0</ele><time>2026-04-02T08:19:19.002Z</time></trkpt><trkpt lat="44.7670718" lon="9.1048474"><ele>510.0</ele><time>2026-04-02T08:19:20.001Z</time></trkpt><trkpt lat="44.7670675" lon="9.1047405"><ele>510.0</ele><time>2026-04-02T08:19:21.002Z</time></trkpt><trkpt lat="44.7670624" lon="9.1046282"><ele>510.0</ele><time>2026-04-02T08:19:22.002Z</time></trkpt><trkpt lat="44.7670493" lon="9.1045351"><ele>510.0</ele><time>2026-04-02T08:19:23.001Z</time></trkpt><trkpt lat="44.7670173" lon="9.1044419"><ele>510.0</ele><time>2026-04-02T08:19:24.002Z</time></trkpt><trkpt lat="44.7669625" lon="9.1043587"><ele>510.0</ele><time>2026-04-02T08:19:25.001Z</time></trkpt><trkpt lat="44.7668942" lon="9.1042807"><ele>510.0</ele><time>2026-04-02T08:19:26.002Z</time></trkpt><trkpt lat="44.7668159" lon="9.1041973"><ele>510.0</ele><time>2026-04-02T08:19:27.002Z</time></trkpt><trkpt lat="44.7667321" lon="9.104128"><ele>510.0</ele><time>2026-04-02T08:19:28.002Z</time></trkpt><trkpt lat="44.766648" lon="9.1040903"><ele>514.6666666666666</ele><time>2026-04-02T08:19:29.002Z</time></trkpt><trkpt lat="44.7665621" lon="9.1040802"><ele>519.3333333333334</ele><time>2026-04-02T08:19:30.001Z</time></trkpt><trkpt lat="44.7664786" lon="9.1041123"><ele>524.0</ele><time>2026-04-02T08:19:31.002Z</time></trkpt><trkpt lat="44.7663984" lon="9.1041606"><ele>528.6666666666667</ele><time>2026-04-02T08:19:32.002Z</time></trkpt><trkpt lat="44.7663253" lon="9.1042211"><ele>533.3333333333334</ele><time>2026-04-02T08:19:33.002Z</time></trkpt><trkpt lat="44.7662513" lon="9.1043052"><ele>538.0</ele><time>2026-04-02T08:19:34.002Z</time></trkpt><trkpt lat="44.7661675" lon="9.1043727"><ele>538.0</ele><time>2026-04-02T08:19:35.002Z</time></trkpt><trkpt lat="44.7660888" lon="9.1044568"><ele>538.0</ele><time>2026-04-02T08:19:36.002Z</time></trkpt><trkpt lat="44.7660237" lon="9.1045456"><ele>538.0</ele><time>2026-04-02T08:19:37.002Z</time></trkpt><trkpt lat="44.7659728" lon="9.1046478"><ele>538.0</ele><time>2026-04-02T08:19:38.002Z</time></trkpt><trkpt lat="44.7659389" lon="9.1047619"><ele>538.0</ele><time>2026-04-02T08:19:39.002Z</time></trkpt><trkpt lat="44.7659038" lon="9.1048849"><ele>539.6</ele><time>2026-04-02T08:19:40.002Z</time></trkpt><trkpt lat="44.7658495" lon="9.1050092"><ele>541.1999999999999</ele><time>2026-04-02T08:19:41.002Z</time></trkpt><trkpt lat="44.7657824" lon="9.1051313"><ele>542.8</ele><time>2026-04-02T08:19:42.002Z</time></trkpt><trkpt lat="44.765706" lon="9.1052357"><ele>544.4</ele><time>2026-04-02T08:19:43.002Z</time></trkpt><trkpt lat="44.765613" lon="9.1053312"><ele>546.0</ele><time>2026-04-02T08:19:44.002Z</time></trkpt><trkpt lat="44.7655131" lon="9.1054088"><ele>546.0</ele><time>2026-04-02T08:19:45.002Z</time></trkpt><trkpt lat="44.7654019" lon="9.1054784"><ele>546.0</ele><time>2026-04-02T08:19:46.002Z</time></trkpt><trkpt lat="44.7652835" lon="9.1055315"><ele>546.0</ele><time>2026-04-02T08:19:47.002Z</time></trkpt><trkpt lat="44.7651594" lon="9.1055746"><ele>546.0</ele><time>2026-04-02T08:19:48.001Z</time></trkpt><trkpt lat="44.7650426" lon="9.1056246"><ele>547.0</ele><time>2026-04-02T08:19:49.002Z</time></trkpt><trkpt lat="44.7649445" lon="9.1056916"><ele>548.0</ele><time>2026-04-02T08:19:50.002Z</time></trkpt><trkpt lat="44.7648554" lon="9.1057761"><ele>549.0</ele><time>2026-04-02T08:19:51.002Z</time></trkpt><trkpt lat="44.7647735" lon="9.1058698"><ele>550.0</ele><time>2026-04-02T08:19:52.002Z</time></trkpt><trkpt lat="44.7646987" lon="9.1059659"><ele>551.0</ele><time>2026-04-02T08:19:53.002Z</time></trkpt><trkpt lat="44.7646321" lon="9.1060414"><ele>551.0</ele><time>2026-04-02T08:19:54.002Z</time></trkpt><trkpt lat="44.7645607" lon="9.1060903"><ele>551.0</ele><time>2026-04-02T08:19:55.002Z</time></trkpt><trkpt lat="44.7644903" lon="9.1061075"><ele>551.0</ele><time>2026-04-02T08:19:56.002Z</time></trkpt><trkpt lat="44.7644139" lon="9.1060831"><ele>551.0</ele><time>2026-04-02T08:19:57.002Z</time></trkpt><trkpt lat="44.7643329" lon="9.1060194"><ele>551.0</ele><time>2026-04-02T08:19:58.002Z</time></trkpt><trkpt lat="44.764247" lon="9.1059557"><ele>551.0</ele><time>2026-04-02T08:19:59.002Z</time></trkpt><trkpt lat="44.76415" lon="9.1059057"><ele>554.6</ele><time>2026-04-02T08:20:00.002Z</time></trkpt><trkpt lat="44.7640456" lon="9.1058637"><ele>558.2</ele><time>2026-04-02T08:20:01.002Z</time></trkpt><trkpt lat="44.7639432" lon="9.1058246"><ele>561.8</ele><time>2026-04-02T08:20:02.002Z</time></trkpt><trkpt lat="44.7638323" lon="9.105795"><ele>565.4</ele><time>2026-04-02T08:20:03.002Z</time></trkpt><trkpt lat="44.7637154" lon="9.1057637"><ele>569.0</ele><time>2026-04-02T08:20:04.001Z</time></trkpt><trkpt lat="44.7635984" lon="9.1057315"><ele>573.75</ele><time>2026-04-02T08:20:05.002Z</time></trkpt><trkpt lat="44.7634746" lon="9.1057026"><ele>578.5</ele><time>2026-04-02T08:20:06.001Z</time></trkpt><trkpt lat="44.7633509" lon="9.1056701"><ele>583.25</ele><time>2026-04-02T08:20:07.002Z</time></trkpt><trkpt lat="44.7632279" lon="9.1056478"><ele>588.0</ele><time>2026-04-02T08:20:08.002Z</time></trkpt><trkpt lat="44.7631217" lon="9.1056306"><ele>588.0</ele><time>2026-04-02T08:20:09.002Z</time></trkpt><trkpt lat="44.7630303" lon="9.1056142"><ele>588.0</ele><time>2026-04-02T08:20:10.002Z</time></trkpt><trkpt lat="44.7629515" lon="9.1055954"><ele>588.0</ele><time>2026-04-02T08:20:11.002Z</time></trkpt><trkpt lat="44.7628708" lon="9.1055864"><ele>588.0</ele><time>2026-04-02T08:20:12.002Z</time></trkpt><trkpt lat="44.7627929" lon="9.1055906"><ele>588.0</ele><time>2026-04-02T08:20:13.002Z</time></trkpt><trkpt lat="44.7627233" lon="9.1056214"><ele>588.0</ele><time>2026-04-02T08:20:14.002Z</time></trkpt><trkpt lat="44.7626703" lon="9.1056712"><ele>588.0</ele><time>2026-04-02T08:20:15.002Z</time></trkpt><trkpt lat="44.7625764" lon="9.1057057"><ele>588.0</ele><time>2026-04-02T08:20:17.001Z</time></trkpt><trkpt lat="44.7625171" lon="9.1056509"><ele>588.0</ele><time>2026-04-02T08:20:19.002Z</time></trkpt><trkpt lat="44.762579" lon="9.1055431"><ele>588.0</ele><time>2026-04-02T08:20:21.002Z</time></trkpt><trkpt lat="44.7626409" lon="9.1054816"><ele>588.0</ele><time>2026-04-02T08:20:22.002Z</time></trkpt><trkpt lat="44.7627154" lon="9.1054133"><ele>588.0</ele><time>2026-04-02T08:20:23.002Z</time></trkpt><trkpt lat="44.7628057" lon="9.1053402"><ele>588.0</ele><time>2026-04-02T08:20:24.002Z</time></trkpt><trkpt lat="44.7628935" lon="9.1052703"><ele>588.0</ele><time>2026-04-02T08:20:25.002Z</time></trkpt><trkpt lat="44.7629804" lon="9.1052025"><ele>588.0</ele><time>2026-04-02T08:20:26.002Z</time></trkpt><trkpt lat="44.7630512" lon="9.1051293"><ele>588.0</ele><time>2026-04-02T08:20:27.002Z</time></trkpt><trkpt lat="44.7631034" lon="9.1050297"><ele>588.0</ele><time>2026-04-02T08:20:28.002Z</time></trkpt><trkpt lat="44.7631385" lon="9.1049017"><ele>590.5</ele><time>2026-04-02T08:20:29.002Z</time></trkpt><trkpt lat="44.7631722" lon="9.1047809"><ele>593.0</ele><time>2026-04-02T08:20:30.002Z</time></trkpt><trkpt lat="44.7632152" lon="9.1046848"><ele>595.5</ele><time>2026-04-02T08:20:31.002Z</time></trkpt><trkpt lat="44.7632698" lon="9.1046165"><ele>598.0</ele><time>2026-04-02T08:20:32.002Z</time></trkpt><trkpt lat="44.7633313" lon="9.1045709"><ele>600.5</ele><time>2026-04-02T08:20:33.002Z</time></trkpt><trkpt lat="44.7634047" lon="9.1045606"><ele>603.0</ele><time>2026-04-02T08:20:34.002Z</time></trkpt><trkpt lat="44.7634813" lon="9.1045868"><ele>600.0</ele><time>2026-04-02T08:20:35.002Z</time></trkpt><trkpt lat="44.7635664" lon="9.104655"><ele>597.0</ele><time>2026-04-02T08:20:36.002Z</time></trkpt><trkpt lat="44.7636517" lon="9.1047638"><ele>594.0</ele><time>2026-04-02T08:20:37.001Z</time></trkpt><trkpt lat="44.763732" lon="9.1048493"><ele>591.0</ele><time>2026-04-02T08:20:38.002Z</time></trkpt><trkpt lat="44.7638011" lon="9.104887"><ele>588.0</ele><time>2026-04-02T08:20:39.002Z</time></trkpt><trkpt lat="44.7638489" lon="9.1047978"><ele>588.0</ele><time>2026-04-02T08:20:41.002Z</time></trkpt><trkpt lat="44.7637763" lon="9.1046912"><ele>588.0</ele><time>2026-04-02T08:20:43.002Z</time></trkpt><trkpt lat="44.7636957" lon="9.104645"><ele>588.0</ele><time>2026-04-02T08:20:44.002Z</time></trkpt><trkpt lat="44.7636047" lon="9.1045903"><ele>588.0</ele><time>2026-04-02T08:20:45.002Z</time></trkpt><trkpt lat="44.7635207" lon="9.1045181"><ele>588.0</ele><time>2026-04-02T08:20:46.002Z</time></trkpt><trkpt lat="44.7634435" lon="9.1044346"><ele>591.0</ele><time>2026-04-02T08:20:47.002Z</time></trkpt><trkpt lat="44.7633651" lon="9.1043403"><ele>594.0</ele><time>2026-04-02T08:20:48.002Z</time></trkpt><trkpt lat="44.7632891" lon="9.1042413"><ele>597.0</ele><time>2026-04-02T08:20:49.001Z</time></trkpt><trkpt lat="44.7632074" lon="9.1041513"><ele>600.0</ele><time>2026-04-02T08:20:50.002Z</time></trkpt><trkpt lat="44.7631206" lon="9.104072"><ele>603.0</ele><time>2026-04-02T08:20:51.002Z</time></trkpt><trkpt lat="44.7630278" lon="9.1039973"><ele>603.8333333333334</ele><time>2026-04-02T08:20:52.002Z</time></trkpt><trkpt lat="44.7629391" lon="9.1039225"><ele>604.6666666666666</ele><time>2026-04-02T08:20:53.002Z</time></trkpt><trkpt lat="44.7628483" lon="9.1038577"><ele>605.5</ele><time>2026-04-02T08:20:54.002Z</time></trkpt><trkpt lat="44.7627771" lon="9.103807"><ele>606.3333333333333</ele><time>2026-04-02T08:20:55.002Z</time></trkpt><trkpt lat="44.7627065" lon="9.1037693"><ele>607.1666666666666</ele><time>2026-04-02T08:20:56.002Z</time></trkpt><trkpt lat="44.7626358" lon="9.1037645"><ele>608.0</ele><time>2026-04-02T08:20:57.002Z</time></trkpt><trkpt lat="44.7625699" lon="9.1037983"><ele>608.8</ele><time>2026-04-02T08:20:58.002Z</time></trkpt><trkpt lat="44.7625064" lon="9.1038653"><ele>609.5999999999999</ele><time>2026-04-02T08:20:59.002Z</time></trkpt><trkpt lat="44.7624394" lon="9.1039418"><ele>610.4000000000001</ele><time>2026-04-02T08:21:00.002Z</time></trkpt><trkpt lat="44.762368" lon="9.1040346"><ele>611.2</ele><time>2026-04-02T08:21:01.001Z</time></trkpt><trkpt lat="44.762285" lon="9.1041139"><ele>612.0</ele><time>2026-04-02T08:21:02.002Z</time></trkpt><trkpt lat="44.7621962" lon="9.1041643"><ele>612.0</ele><time>2026-04-02T08:21:03.002Z</time></trkpt><trkpt lat="44.7621046" lon="9.1041884"><ele>612.0</ele><time>2026-04-02T08:21:04.002Z</time></trkpt><trkpt lat="44.7620105" lon="9.1041693"><ele>612.0</ele><time>2026-04-02T08:21:05.002Z</time></trkpt><trkpt lat="44.7619126" lon="9.1041283"><ele>612.0</ele><time>2026-04-02T08:21:06.002Z</time></trkpt><trkpt lat="44.761822" lon="9.1040632"><ele>612.0</ele><time>2026-04-02T08:21:07.001Z</time></trkpt><trkpt lat="44.761736" lon="9.1039795"><ele>616.6</ele><time>2026-04-02T08:21:08.002Z</time></trkpt><trkpt lat="44.7616501" lon="9.1038917"><ele>621.2</ele><time>2026-04-02T08:21:09.002Z</time></trkpt><trkpt lat="44.7615647" lon="9.1038065"><ele>625.8</ele><time>2026-04-02T08:21:10.002Z</time></trkpt><trkpt lat="44.7614743" lon="9.1037222"><ele>630.4</ele><time>2026-04-02T08:21:11.002Z</time></trkpt><trkpt lat="44.7613776" lon="9.1036447"><ele>635.0</ele><time>2026-04-02T08:21:12.002Z</time></trkpt><trkpt lat="44.7612704" lon="9.1035777"><ele>635.0</ele><time>2026-04-02T08:21:13.002Z</time></trkpt><trkpt lat="44.7611677" lon="9.1035241"><ele>635.0</ele><time>2026-04-02T08:21:14.002Z</time></trkpt><trkpt lat="44.7610696" lon="9.1034655"><ele>635.0</ele><time>2026-04-02T08:21:15.002Z</time></trkpt><trkpt lat="44.7609856" lon="9.1034233"><ele>635.0</ele><time>2026-04-02T08:21:16.002Z</time></trkpt><trkpt lat="44.7608977" lon="9.1034072"><ele>635.0</ele><time>2026-04-02T08:21:17.002Z</time></trkpt><trkpt lat="44.7608011" lon="9.1034041"><ele>636.2</ele><time>2026-04-02T08:21:18.001Z</time></trkpt><trkpt lat="44.7607109" lon="9.1034328"><ele>637.4</ele><time>2026-04-02T08:21:19.002Z</time></trkpt><trkpt lat="44.7606299" lon="9.1034894"><ele>638.5999999999999</ele><time>2026-04-02T08:21:20.001Z</time></trkpt><trkpt lat="44.7605449" lon="9.1035788"><ele>639.8</ele><time>2026-04-02T08:21:21.002Z</time></trkpt><trkpt lat="44.7604622" lon="9.1036992"><ele>641.0</ele><time>2026-04-02T08:21:22.002Z</time></trkpt><trkpt lat="44.7603697" lon="9.1038263"><ele>641.0</ele><time>2026-04-02T08:21:23.002Z</time></trkpt><trkpt lat="44.7602742" lon="9.1039448"><ele>641.0</ele><time>2026-04-02T08:21:24.002Z</time></trkpt><trkpt lat="44.7601793" lon="9.1040532"><ele>641.0</ele><time>2026-04-02T08:21:25.002Z</time></trkpt><trkpt lat="44.760078" lon="9.104146"><ele>641.0</ele><time>2026-04-02T08:21:26.002Z</time></trkpt><trkpt lat="44.7599681" lon="9.1042191"><ele>642.0</ele><time>2026-04-02T08:21:27.002Z</time></trkpt><trkpt lat="44.7598524" lon="9.1042715"><ele>643.0</ele><time>2026-04-02T08:21:28.001Z</time></trkpt><trkpt lat="44.7597354" lon="9.1042969"><ele>644.0</ele><time>2026-04-02T08:21:29.001Z</time></trkpt><trkpt lat="44.7596191" lon="9.1043122"><ele>645.0</ele><time>2026-04-02T08:21:30.001Z</time></trkpt><trkpt lat="44.7594969" lon="9.1043162"><ele>645.0</ele><time>2026-04-02T08:21:31.002Z</time></trkpt><trkpt lat="44.7593687" lon="9.1043021"><ele>645.0</ele><time>2026-04-02T08:21:32.002Z</time></trkpt><trkpt lat="44.7592464" lon="9.104293"><ele>645.0</ele><time>2026-04-02T08:21:33.002Z</time></trkpt><trkpt lat="44.7591247" lon="9.1042946"><ele>645.0</ele><time>2026-04-02T08:21:34.002Z</time></trkpt><trkpt lat="44.7590069" lon="9.104331"><ele>647.5</ele><time>2026-04-02T08:21:35.002Z</time></trkpt><trkpt lat="44.7588907" lon="9.1043945"><ele>650.0</ele><time>2026-04-02T08:21:36.001Z</time></trkpt><trkpt lat="44.7587852" lon="9.1044802"><ele>652.5</ele><time>2026-04-02T08:21:37.002Z</time></trkpt><trkpt lat="44.7586865" lon="9.1045675"><ele>655.0</ele><time>2026-04-02T08:21:38.002Z</time></trkpt><trkpt lat="44.7586029" lon="9.104652"><ele>655.0</ele><time>2026-04-02T08:21:39.002Z</time></trkpt><trkpt lat="44.7585261" lon="9.1046965"><ele>655.0</ele><time>2026-04-02T08:21:40.002Z</time></trkpt><trkpt lat="44.7584589" lon="9.1047164"><ele>655.0</ele><time>2026-04-02T08:21:41.002Z</time></trkpt><trkpt lat="44.7583842" lon="9.1046605"><ele>655.0</ele><time>2026-04-02T08:21:43.002Z</time></trkpt><trkpt lat="44.7584158" lon="9.1044867"><ele>655.0</ele><time>2026-04-02T08:21:45.002Z</time></trkpt><trkpt lat="44.7584736" lon="9.1044005"><ele>655.0</ele><time>2026-04-02T08:21:46.002Z</time></trkpt><trkpt lat="44.7585445" lon="9.1042941"><ele>655.0</ele><time>2026-04-02T08:21:47.002Z</time></trkpt><trkpt lat="44.7586197" lon="9.1042037"><ele>655.0</ele><time>2026-04-02T08:21:48.002Z</time></trkpt><trkpt lat="44.7587101" lon="9.1041142"><ele>655.0</ele><time>2026-04-02T08:21:49.002Z</time></trkpt><trkpt lat="44.7588062" lon="9.1040389"><ele>655.0</ele><time>2026-04-02T08:21:50.002Z</time></trkpt><trkpt lat="44.7589031" lon="9.103967"><ele>655.0</ele><time>2026-04-02T08:21:51.002Z</time></trkpt><trkpt lat="44.7589962" lon="9.1038903"><ele>654.6</ele><time>2026-04-02T08:21:52.002Z</time></trkpt><trkpt lat="44.7590814" lon="9.103798"><ele>654.2</ele><time>2026-04-02T08:21:53.002Z</time></trkpt><trkpt lat="44.7591655" lon="9.1037028"><ele>653.8</ele><time>2026-04-02T08:21:54.002Z</time></trkpt><trkpt lat="44.759249" lon="9.1036041"><ele>653.4</ele><time>2026-04-02T08:21:55.002Z</time></trkpt><trkpt lat="44.7593256" lon="9.1034891"><ele>653.0</ele><time>2026-04-02T08:21:56.002Z</time></trkpt><trkpt lat="44.7593857" lon="9.1033701"><ele>654.1666666666666</ele><time>2026-04-02T08:21:57.002Z</time></trkpt><trkpt lat="44.7594337" lon="9.1032454"><ele>655.3333333333333</ele><time>2026-04-02T08:21:58.002Z</time></trkpt><trkpt lat="44.7594645" lon="9.103136"><ele>656.5</ele><time>2026-04-02T08:21:59.002Z</time></trkpt><trkpt lat="44.75948" lon="9.103045"><ele>657.6666666666666</ele><time>2026-04-02T08:22:00.002Z</time></trkpt><trkpt lat="44.7594619" lon="9.1029569"><ele>658.8333333333334</ele><time>2026-04-02T08:22:02.002Z</time></trkpt><trkpt lat="44.7594065" lon="9.1030229"><ele>660.0</ele><time>2026-04-02T08:22:04.002Z</time></trkpt><trkpt lat="44.7593551" lon="9.1031133"><ele>662.4</ele><time>2026-04-02T08:22:05.001Z</time></trkpt><trkpt lat="44.7592792" lon="9.1032114"><ele>664.8</ele><time>2026-04-02T08:22:06.001Z</time></trkpt><trkpt lat="44.7591945" lon="9.1032969"><ele>667.2</ele><time>2026-04-02T08:22:07.002Z</time></trkpt><trkpt lat="44.7590936" lon="9.1033705"><ele>669.6</ele><time>2026-04-02T08:22:08.001Z</time></trkpt><trkpt lat="44.7589841" lon="9.1034419"><ele>672.0</ele><time>2026-04-02T08:22:09.002Z</time></trkpt><trkpt lat="44.7588764" lon="9.1035131"><ele>672.0</ele><time>2026-04-02T08:22:10.002Z</time></trkpt><trkpt lat="44.7587693" lon="9.1035602"><ele>672.0</ele><time>2026-04-02T08:22:11.002Z</time></trkpt><trkpt lat="44.7586701" lon="9.1036012"><ele>672.0</ele><time>2026-04-02T08:22:12.002Z</time></trkpt><trkpt lat="44.7585817" lon="9.1036457"><ele>672.0</ele><time>2026-04-02T08:22:13.002Z</time></trkpt><trkpt lat="44.7585028" lon="9.1036828"><ele>672.0</ele><time>2026-04-02T08:22:14.001Z</time></trkpt><trkpt lat="44.7584339" lon="9.1037044"><ele>675.2</ele><time>2026-04-02T08:22:15.002Z</time></trkpt><trkpt lat="44.7583662" lon="9.103718"><ele>678.4000000000001</ele><time>2026-04-02T08:22:16.002Z</time></trkpt><trkpt lat="44.7582673" lon="9.1036651"><ele>681.5999999999999</ele><time>2026-04-02T08:22:18.002Z</time></trkpt><trkpt lat="44.7582724" lon="9.1035256"><ele>684.8</ele><time>2026-04-02T08:22:20.002Z</time></trkpt><trkpt lat="44.7583226" lon="9.1034332"><ele>688.0</ele><time>2026-04-02T08:22:21.002Z</time></trkpt><trkpt lat="44.7583936" lon="9.1033215"><ele>686.8</ele><time>2026-04-02T08:22:22.002Z</time></trkpt><trkpt lat="44.758459" lon="9.1031985"><ele>685.5999999999999</ele><time>2026-04-02T08:22:23.002Z</time></trkpt><trkpt lat="44.7585225" lon="9.1030571"><ele>684.4000000000001</ele><time>2026-04-02T08:22:24.002Z</time></trkpt><trkpt lat="44.7585794" lon="9.1029201"><ele>683.2</ele><time>2026-04-02T08:22:25.001Z</time></trkpt><trkpt lat="44.7586382" lon="9.1027932"><ele>682.0</ele><time>2026-04-02T08:22:26.002Z</time></trkpt><trkpt lat="44.7586959" lon="9.1026768"><ele>682.0</ele><time>2026-04-02T08:22:27.002Z</time></trkpt><trkpt lat="44.7587261" lon="9.102555"><ele>682.0</ele><time>2026-04-02T08:22:28.001Z</time></trkpt><trkpt lat="44.7587368" lon="9.1024265"><ele>682.0</ele><time>2026-04-02T08:22:29.002Z</time></trkpt><trkpt lat="44.7587288" lon="9.1023122"><ele>682.0</ele><time>2026-04-02T08:22:30.001Z</time></trkpt><trkpt lat="44.7586997" lon="9.1021897"><ele>682.0</ele><time>2026-04-02T08:22:31.002Z</time></trkpt><trkpt lat="44.7586602" lon="9.1020629"><ele>682.75</ele><time>2026-04-02T08:22:32.002Z</time></trkpt><trkpt lat="44.7586192" lon="9.1019186"><ele>683.5</ele><time>2026-04-02T08:22:33.001Z</time></trkpt><trkpt lat="44.7585608" lon="9.1017656"><ele>684.25</ele><time>2026-04-02T08:22:34.002Z</time></trkpt><trkpt lat="44.7584985" lon="9.1016275"><ele>685.0</ele><time>2026-04-02T08:22:35.002Z</time></trkpt><trkpt lat="44.7584296" lon="9.1014888"><ele>689.25</ele><time>2026-04-02T08:22:36.002Z</time></trkpt><trkpt lat="44.7583468" lon="9.1013554"><ele>693.5</ele><time>2026-04-02T08:22:37.002Z</time></trkpt><trkpt lat="44.7582584" lon="9.1012279"><ele>697.75</ele><time>2026-04-02T08:22:38.002Z</time></trkpt><trkpt lat="44.7581732" lon="9.1011004"><ele>702.0</ele><time>2026-04-02T08:22:39.002Z</time></trkpt><trkpt lat="44.7580935" lon="9.1009823"><ele>702.0</ele><time>2026-04-02T08:22:40.002Z</time></trkpt><trkpt lat="44.7580077" lon="9.1008744"><ele>702.0</ele><time>2026-04-02T08:22:41.002Z</time></trkpt><trkpt lat="44.7579188" lon="9.100786"><ele>702.0</ele><time>2026-04-02T08:22:42.002Z</time></trkpt><trkpt lat="44.7578339" lon="9.1007035"><ele>702.0</ele><time>2026-04-02T08:22:43.002Z</time></trkpt><trkpt lat="44.7577598" lon="9.1006146"><ele>702.0</ele><time>2026-04-02T08:22:44.002Z</time></trkpt><trkpt lat="44.7577147" lon="9.1005085"><ele>703.2</ele><time>2026-04-02T08:22:45.002Z</time></trkpt><trkpt lat="44.7576972" lon="9.1003822"><ele>704.4000000000001</ele><time>2026-04-02T08:22:46.002Z</time></trkpt><trkpt lat="44.7577102" lon="9.100261"><ele>705.5999999999999</ele><time>2026-04-02T08:22:47.002Z</time></trkpt><trkpt lat="44.757761" lon="9.1001526"><ele>706.8</ele><time>2026-04-02T08:22:48.002Z</time></trkpt><trkpt lat="44.757836" lon="9.1000596"><ele>708.0</ele><time>2026-04-02T08:22:49.002Z</time></trkpt><trkpt lat="44.7579235" lon="9.0999705"><ele>710.2</ele><time>2026-04-02T08:22:50.002Z</time></trkpt><trkpt lat="44.7580097" lon="9.0998915"><ele>712.4</ele><time>2026-04-02T08:22:51.001Z</time></trkpt><trkpt lat="44.7580916" lon="9.0998184"><ele>714.6</ele><time>2026-04-02T08:22:52.002Z</time></trkpt><trkpt lat="44.7581541" lon="9.0997482"><ele>716.8000000000001</ele><time>2026-04-02T08:22:53.002Z</time></trkpt><trkpt lat="44.7581913" lon="9.0996236"><ele>719.0</ele><time>2026-04-02T08:22:55.002Z</time></trkpt><trkpt lat="44.7581333" lon="9.0995439"><ele>719.0</ele><time>2026-04-02T08:22:57.001Z</time></trkpt><trkpt lat="44.7580496" lon="9.0995391"><ele>719.0</ele><time>2026-04-02T08:22:59.002Z</time></trkpt><trkpt lat="44.7579369" lon="9.0996204"><ele>719.0</ele><time>2026-04-02T08:23:01.002Z</time></trkpt><trkpt lat="44.757856" lon="9.09969"><ele>719.0</ele><time>2026-04-02T08:23:02.002Z</time></trkpt><trkpt lat="44.7577745" lon="9.0997576"><ele>719.0</ele><time>2026-04-02T08:23:03.002Z</time></trkpt><trkpt lat="44.757683" lon="9.0998175"><ele>718.8000000000001</ele><time>2026-04-02T08:23:04.002Z</time></trkpt><trkpt lat="44.7575894" lon="9.0998655"><ele>718.6</ele><time>2026-04-02T08:23:05.002Z</time></trkpt><trkpt lat="44.7574894" lon="9.099896"><ele>718.4</ele><time>2026-04-02T08:23:06.002Z</time></trkpt><trkpt lat="44.7573808" lon="9.0999156"><ele>718.2</ele><time>2026-04-02T08:23:07.002Z</time></trkpt><trkpt lat="44.7572662" lon="9.0999302"><ele>718.0</ele><time>2026-04-02T08:23:08.002Z</time></trkpt><trkpt lat="44.7571406" lon="9.0999436"><ele>718.0</ele><time>2026-04-02T08:23:09.002Z</time></trkpt><trkpt lat="44.7570175" lon="9.0999511"><ele>718.0</ele><time>2026-04-02T08:23:10.002Z</time></trkpt><trkpt lat="44.7568923" lon="9.0999751"><ele>718.0</ele><time>2026-04-02T08:23:11.002Z</time></trkpt><trkpt lat="44.7567668" lon="9.1000147"><ele>718.0</ele><time>2026-04-02T08:23:12.002Z</time></trkpt><trkpt lat="44.7566403" lon="9.1000572"><ele>718.75</ele><time>2026-04-02T08:23:13.002Z</time></trkpt><trkpt lat="44.7565197" lon="9.1001014"><ele>719.5</ele><time>2026-04-02T08:23:14.002Z</time></trkpt><trkpt lat="44.756404" lon="9.100146"><ele>720.25</ele><time>2026-04-02T08:23:15.002Z</time></trkpt><trkpt lat="44.7562974" lon="9.1001883"><ele>721.0</ele><time>2026-04-02T08:23:16.001Z</time></trkpt><trkpt lat="44.7561977" lon="9.1002312"><ele>721.0</ele><time>2026-04-02T08:23:17.002Z</time></trkpt><trkpt lat="44.756093" lon="9.1002878"><ele>721.0</ele><time>2026-04-02T08:23:18.001Z</time></trkpt><trkpt lat="44.7559877" lon="9.1003395"><ele>721.0</ele><time>2026-04-02T08:23:19.002Z</time></trkpt><trkpt lat="44.755877" lon="9.1003981"><ele>721.0</ele><time>2026-04-02T08:23:20.002Z</time></trkpt><trkpt lat="44.7557661" lon="9.1004561"><ele>721.25</ele><time>2026-04-02T08:23:21.001Z</time></trkpt><trkpt lat="44.7556484" lon="9.1005124"><ele>721.5</ele><time>2026-04-02T08:23:22.002Z</time></trkpt><trkpt lat="44.7555291" lon="9.1005772"><ele>721.75</ele><time>2026-04-02T08:23:23.002Z</time></trkpt><trkpt lat="44.7554101" lon="9.1006425"><ele>722.0</ele><time>2026-04-02T08:23:24.002Z</time></trkpt><trkpt lat="44.755292" lon="9.1007032"><ele>725.0</ele><time>2026-04-02T08:23:25.001Z</time></trkpt><trkpt lat="44.7551704" lon="9.1007553"><ele>728.0</ele><time>2026-04-02T08:23:26.002Z</time></trkpt><trkpt lat="44.7550469" lon="9.1007965"><ele>731.0</ele><time>2026-04-02T08:23:27.002Z</time></trkpt><trkpt lat="44.7549211" lon="9.1008304"><ele>734.0</ele><time>2026-04-02T08:23:28.002Z</time></trkpt><trkpt lat="44.7548062" lon="9.1008628"><ele>734.0</ele><time>2026-04-02T08:23:29.002Z</time></trkpt><trkpt lat="44.7547052" lon="9.1008924"><ele>734.0</ele><time>2026-04-02T08:23:30.001Z</time></trkpt><trkpt lat="44.7546191" lon="9.1009231"><ele>734.0</ele><time>2026-04-02T08:23:31.002Z</time></trkpt><trkpt lat="44.7545484" lon="9.1009784"><ele>734.0</ele><time>2026-04-02T08:23:32.002Z</time></trkpt><trkpt lat="44.7545053" lon="9.1010455"><ele>734.0</ele><time>2026-04-02T08:23:33.002Z</time></trkpt><trkpt lat="44.7545032" lon="9.1011946"><ele>734.0</ele><time>2026-04-02T08:23:35.002Z</time></trkpt><trkpt lat="44.7545459" lon="9.1012602"><ele>734.0</ele><time>2026-04-02T08:23:36.002Z</time></trkpt><trkpt lat="44.7546203" lon="9.1013172"><ele>734.0</ele><time>2026-04-02T08:23:37.002Z</time></trkpt><trkpt lat="44.7547173" lon="9.1013704"><ele>734.0</ele><time>2026-04-02T08:23:38.001Z</time></trkpt><trkpt lat="44.7548116" lon="9.1014297"><ele>734.0</ele><time>2026-04-02T08:23:39.002Z</time></trkpt><trkpt lat="44.7548949" lon="9.1015003"><ele>734.0</ele><time>2026-04-02T08:23:40.001Z</time></trkpt><trkpt lat="44.7549635" lon="9.101585"><ele>735.6666666666666</ele><time>2026-04-02T08:23:41.002Z</time></trkpt><trkpt lat="44.7550105" lon="9.1016726"><ele>737.3333333333333</ele><time>2026-04-02T08:23:42.002Z</time></trkpt><trkpt lat="44.7550314" lon="9.1017701"><ele>739.0</ele><time>2026-04-02T08:23:43.002Z</time></trkpt><trkpt lat="44.7550208" lon="9.1018615"><ele>740.6666666666666</ele><time>2026-04-02T08:23:44.002Z</time></trkpt><trkpt lat="44.7549849" lon="9.1019504"><ele>742.3333333333334</ele><time>2026-04-02T08:23:45.001Z</time></trkpt><trkpt lat="44.7549174" lon="9.1020228"><ele>744.0</ele><time>2026-04-02T08:23:46.002Z</time></trkpt><trkpt lat="44.7548264" lon="9.1020762"><ele>744.0</ele><time>2026-04-02T08:23:47.002Z</time></trkpt><trkpt lat="44.7547424" lon="9.1021367"><ele>744.0</ele><time>2026-04-02T08:23:48.001Z</time></trkpt><trkpt lat="44.7546759" lon="9.1022232"><ele>744.0</ele><time>2026-04-02T08:23:49.002Z</time></trkpt><trkpt lat="44.7546271" lon="9.1023379"><ele>744.0</ele><time>2026-04-02T08:23:50.002Z</time></trkpt><trkpt lat="44.7546024" lon="9.102472"><ele>744.0</ele><time>2026-04-02T08:23:51.002Z</time></trkpt><trkpt lat="44.7546013" lon="9.1026206"><ele>745.0</ele><time>2026-04-02T08:23:52.002Z</time></trkpt><trkpt lat="44.7546236" lon="9.1027874"><ele>746.0</ele><time>2026-04-02T08:23:53.002Z</time></trkpt><trkpt lat="44.7546468" lon="9.1029574"><ele>747.0</ele><time>2026-04-02T08:23:54.001Z</time></trkpt><trkpt lat="44.7546622" lon="9.1031274"><ele>748.0</ele><time>2026-04-02T08:23:55.002Z</time></trkpt><trkpt lat="44.7546645" lon="9.1032805"><ele>749.2</ele><time>2026-04-02T08:23:56.002Z</time></trkpt><trkpt lat="44.7546417" lon="9.1034192"><ele>750.4</ele><time>2026-04-02T08:23:57.002Z</time></trkpt><trkpt lat="44.7546016" lon="9.1035419"><ele>751.6</ele><time>2026-04-02T08:23:58.002Z</time></trkpt><trkpt lat="44.7545565" lon="9.1036631"><ele>752.8000000000001</ele><time>2026-04-02T08:23:59.002Z</time></trkpt><trkpt lat="44.7545021" lon="9.1037716"><ele>754.0</ele><time>2026-04-02T08:24:00.002Z</time></trkpt><trkpt lat="44.7544419" lon="9.1038881"><ele>754.5</ele><time>2026-04-02T08:24:01.001Z</time></trkpt><trkpt lat="44.7543681" lon="9.1040149"><ele>755.0</ele><time>2026-04-02T08:24:02.002Z</time></trkpt><trkpt lat="44.7542757" lon="9.1041262"><ele>755.5</ele><time>2026-04-02T08:24:03.001Z</time></trkpt><trkpt lat="44.754174" lon="9.1042223"><ele>756.0</ele><time>2026-04-02T08:24:04.002Z</time></trkpt><trkpt lat="44.7540664" lon="9.1043189"><ele>758.5</ele><time>2026-04-02T08:24:05.002Z</time></trkpt><trkpt lat="44.7539581" lon="9.1044186"><ele>761.0</ele><time>2026-04-02T08:24:06.002Z</time></trkpt><trkpt lat="44.7538558" lon="9.1045116"><ele>763.5</ele><time>2026-04-02T08:24:07.002Z</time></trkpt><trkpt lat="44.7537513" lon="9.1046014"><ele>766.0</ele><time>2026-04-02T08:24:08.002Z</time></trkpt><trkpt lat="44.7536665" lon="9.1046891"><ele>766.0</ele><time>2026-04-02T08:24:09.002Z</time></trkpt><trkpt lat="44.7536046" lon="9.1047999"><ele>766.0</ele><time>2026-04-02T08:24:10.002Z</time></trkpt><trkpt lat="44.753563" lon="9.1049232"><ele>766.0</ele><time>2026-04-02T08:24:11.002Z</time></trkpt><trkpt lat="44.753523" lon="9.1050592"><ele>766.0</ele><time>2026-04-02T08:24:12.002Z</time></trkpt><trkpt lat="44.7534807" lon="9.1051937"><ele>766.0</ele><time>2026-04-02T08:24:13.001Z</time></trkpt><trkpt lat="44.7534392" lon="9.1053326"><ele>768.0</ele><time>2026-04-02T08:24:14.002Z</time></trkpt><trkpt lat="44.7533937" lon="9.1054547"><ele>770.0</ele><time>2026-04-02T08:24:15.002Z</time></trkpt><trkpt lat="44.7533339" lon="9.105544"><ele>772.0</ele><time>2026-04-02T08:24:16.002Z</time></trkpt><trkpt lat="44.7532686" lon="9.1055901"><ele>774.0</ele><time>2026-04-02T08:24:17.002Z</time></trkpt><trkpt lat="44.7531937" lon="9.1056052"><ele>775.9999999999999</ele><time>2026-04-02T08:24:18.002Z</time></trkpt><trkpt lat="44.7531127" lon="9.1055843"><ele>778.0</ele><time>2026-04-02T08:24:19.001Z</time></trkpt><trkpt lat="44.7530365" lon="9.1055723"><ele>777.9999999999999</ele><time>2026-04-02T08:24:20.002Z</time></trkpt><trkpt lat="44.7529649" lon="9.1055999"><ele>778.0</ele><time>2026-04-02T08:24:21.002Z</time></trkpt><trkpt lat="44.7529119" lon="9.1056758"><ele>778.0</ele><time>2026-04-02T08:24:22.002Z</time></trkpt><trkpt lat="44.7528703" lon="9.1057767"><ele>778.0</ele><time>2026-04-02T08:24:23.002Z</time></trkpt><trkpt lat="44.7528346" lon="9.1058802"><ele>777.9999999999999</ele><time>2026-04-02T08:24:24.001Z</time></trkpt><trkpt lat="44.7527911" lon="9.10599"><ele>778.0</ele><time>2026-04-02T08:24:25.002Z</time></trkpt><trkpt lat="44.7527361" lon="9.1061009"><ele>780.1666666666666</ele><time>2026-04-02T08:24:26.002Z</time></trkpt><trkpt lat="44.7526674" lon="9.1062052"><ele>782.3333333333333</ele><time>2026-04-02T08:24:27.002Z</time></trkpt><trkpt lat="44.7525969" lon="9.1062999"><ele>784.5</ele><time>2026-04-02T08:24:28.002Z</time></trkpt><trkpt lat="44.752529" lon="9.1063781"><ele>786.6666666666667</ele><time>2026-04-02T08:24:29.002Z</time></trkpt><trkpt lat="44.7524599" lon="9.1064417"><ele>788.8333333333334</ele><time>2026-04-02T08:24:30.002Z</time></trkpt><trkpt lat="44.7524028" lon="9.1064873"><ele>791.0</ele><time>2026-04-02T08:24:31.002Z</time></trkpt><trkpt lat="44.7523197" lon="9.1065296"><ele>791.0</ele><time>2026-04-02T08:24:33.002Z</time></trkpt><trkpt lat="44.7522347" lon="9.1065477"><ele>791.0</ele><time>2026-04-02T08:24:37.002Z</time></trkpt><trkpt lat="44.7521384" lon="9.1065139"><ele>791.0</ele><time>2026-04-02T08:24:39.002Z</time></trkpt><trkpt lat="44.7520089" lon="9.1064513"><ele>791.0</ele><time>2026-04-02T08:24:41.002Z</time></trkpt><trkpt lat="44.7519243" lon="9.1064198"><ele>791.0</ele><time>2026-04-02T08:24:42.002Z</time></trkpt><trkpt lat="44.7518193" lon="9.1063829"><ele>791.5</ele><time>2026-04-02T08:24:43.002Z</time></trkpt><trkpt lat="44.7516983" lon="9.1063176"><ele>792.0</ele><time>2026-04-02T08:24:44.002Z</time></trkpt><trkpt lat="44.7515781" lon="9.1062309"><ele>792.5</ele><time>2026-04-02T08:24:45.002Z</time></trkpt><trkpt lat="44.7514594" lon="9.1061179"><ele>793.0</ele><time>2026-04-02T08:24:46.002Z</time></trkpt><trkpt lat="44.751341" lon="9.1060052"><ele>793.0</ele><time>2026-04-02T08:24:47.002Z</time></trkpt><trkpt lat="44.7512186" lon="9.1059101"><ele>793.0</ele><time>2026-04-02T08:24:48.002Z</time></trkpt><trkpt lat="44.7510824" lon="9.1058218"><ele>793.0</ele><time>2026-04-02T08:24:49.001Z</time></trkpt><trkpt lat="44.7509415" lon="9.1057383"><ele>793.0</ele><time>2026-04-02T08:24:50.002Z</time></trkpt><trkpt lat="44.7508073" lon="9.105669"><ele>790.0</ele><time>2026-04-02T08:24:51.002Z</time></trkpt><trkpt lat="44.7506756" lon="9.1055953"><ele>787.0</ele><time>2026-04-02T08:24:52.002Z</time></trkpt><trkpt lat="44.7505464" lon="9.1055223"><ele>784.0</ele><time>2026-04-02T08:24:53.002Z</time></trkpt><trkpt lat="44.750416" lon="9.1054384"><ele>781.0</ele><time>2026-04-02T08:24:54.001Z</time></trkpt><trkpt lat="44.7502883" lon="9.1053383"><ele>782.75</ele><time>2026-04-02T08:24:55.002Z</time></trkpt><trkpt lat="44.750165" lon="9.1052367"><ele>784.5</ele><time>2026-04-02T08:24:56.002Z</time></trkpt><trkpt lat="44.7500717" lon="9.1051433"><ele>786.25</ele><time>2026-04-02T08:24:57.002Z</time></trkpt><trkpt lat="44.7499933" lon="9.105025"><ele>788.0</ele><time>2026-04-02T08:24:58.002Z</time></trkpt><trkpt lat="44.7499117" lon="9.1048983"><ele>784.5</ele><time>2026-04-02T08:24:59.002Z</time></trkpt><trkpt lat="44.7498267" lon="9.10476"><ele>781.0</ele><time>2026-04-02T08:25:00.002Z</time></trkpt><trkpt lat="44.7497433" lon="9.1046317"><ele>777.5</ele><time>2026-04-02T08:25:01.002Z</time></trkpt><trkpt lat="44.7496483" lon="9.104505"><ele>774.0</ele><time>2026-04-02T08:25:02.002Z</time></trkpt><trkpt lat="44.749545" lon="9.1043883"><ele>774.0</ele><time>2026-04-02T08:25:03.002Z</time></trkpt><trkpt lat="44.7494333" lon="9.10427"><ele>774.0</ele><time>2026-04-02T08:25:04.001Z</time></trkpt><trkpt lat="44.749315" lon="9.1041467"><ele>774.0</ele><time>2026-04-02T08:25:05.002Z</time></trkpt><trkpt lat="44.7492067" lon="9.10404"><ele>774.0</ele><time>2026-04-02T08:25:06.002Z</time></trkpt><trkpt lat="44.7491117" lon="9.1039333"><ele>772.25</ele><time>2026-04-02T08:25:07.002Z</time></trkpt><trkpt lat="44.7490283" lon="9.103845"><ele>770.5</ele><time>2026-04-02T08:25:08.002Z</time></trkpt><trkpt lat="44.7489267" lon="9.1037917"><ele>768.75</ele><time>2026-04-02T08:25:09.002Z</time></trkpt><trkpt lat="44.7488117" lon="9.1037567"><ele>767.0</ele><time>2026-04-02T08:25:10.002Z</time></trkpt><trkpt lat="44.748685" lon="9.10374"><ele>767.0</ele><time>2026-04-02T08:25:11.002Z</time></trkpt><trkpt lat="44.7485533" lon="9.1037267"><ele>767.0</ele><time>2026-04-02T08:25:12.002Z</time></trkpt><trkpt lat="44.748425" lon="9.103695"><ele>767.0</ele><time>2026-04-02T08:25:13.001Z</time></trkpt><trkpt lat="44.74831" lon="9.10365"><ele>767.0</ele><time>2026-04-02T08:25:14.002Z</time></trkpt><trkpt lat="44.74819" lon="9.103575"><ele>767.5</ele><time>2026-04-02T08:25:15.002Z</time></trkpt><trkpt lat="44.7480817" lon="9.103495"><ele>768.0</ele><time>2026-04-02T08:25:16.002Z</time></trkpt><trkpt lat="44.747975" lon="9.1034083"><ele>768.5</ele><time>2026-04-02T08:25:17.002Z</time></trkpt><trkpt lat="44.7478667" lon="9.1033233"><ele>769.0</ele><time>2026-04-02T08:25:18.002Z</time></trkpt><trkpt lat="44.74777" lon="9.1032233"><ele>770.0</ele><time>2026-04-02T08:25:19.002Z</time></trkpt><trkpt lat="44.7476983" lon="9.1031167"><ele>771.0</ele><time>2026-04-02T08:25:20.002Z</time></trkpt><trkpt lat="44.7476433" lon="9.1030033"><ele>772.0</ele><time>2026-04-02T08:25:21.002Z</time></trkpt><trkpt lat="44.7476017" lon="9.1028683"><ele>773.0</ele><time>2026-04-02T08:25:22.002Z</time></trkpt><trkpt lat="44.7475783" lon="9.10272"><ele>774.0</ele><time>2026-04-02T08:25:23.001Z</time></trkpt><trkpt lat="44.7475667" lon="9.10256"><ele>774.0</ele><time>2026-04-02T08:25:24.002Z</time></trkpt><trkpt lat="44.7475617" lon="9.1023817"><ele>774.0</ele><time>2026-04-02T08:25:25.002Z</time></trkpt><trkpt lat="44.7475583" lon="9.1021917"><ele>774.0</ele><time>2026-04-02T08:25:26.002Z</time></trkpt><trkpt lat="44.7475583" lon="9.102025"><ele>774.0</ele><time>2026-04-02T08:25:27.002Z</time></trkpt><trkpt lat="44.747565" lon="9.101865"><ele>774.0</ele><time>2026-04-02T08:25:28.002Z</time></trkpt><trkpt lat="44.747565" lon="9.1017"><ele>774.0</ele><time>2026-04-02T08:25:29.002Z</time></trkpt><trkpt lat="44.7475617" lon="9.1015533"><ele>774.0</ele><time>2026-04-02T08:25:30.002Z</time></trkpt><trkpt lat="44.7475367" lon="9.1013783"><ele>774.0</ele><time>2026-04-02T08:25:31.002Z</time></trkpt><trkpt lat="44.7475083" lon="9.1012133"><ele>773.25</ele><time>2026-04-02T08:25:32.002Z</time></trkpt><trkpt lat="44.7474833" lon="9.101055"><ele>772.5</ele><time>2026-04-02T08:25:33.002Z</time></trkpt><trkpt lat="44.7474567" lon="9.1008833"><ele>771.75</ele><time>2026-04-02T08:25:34.002Z</time></trkpt><trkpt lat="44.7474467" lon="9.1007083"><ele>771.0</ele><time>2026-04-02T08:25:35.002Z</time></trkpt><trkpt lat="44.7474383" lon="9.10054"><ele>770.5</ele><time>2026-04-02T08:25:36.002Z</time></trkpt><trkpt lat="44.7474433" lon="9.1003983"><ele>770.0</ele><time>2026-04-02T08:25:37.002Z</time></trkpt><trkpt lat="44.7474417" lon="9.100265"><ele>769.5</ele><time>2026-04-02T08:25:38.002Z</time></trkpt><trkpt lat="44.7474367" lon="9.1001467"><ele>769.0</ele><time>2026-04-02T08:25:39.002Z</time></trkpt><trkpt lat="44.7474083" lon="9.100035"><ele>768.5</ele><time>2026-04-02T08:25:40.002Z</time></trkpt><trkpt lat="44.747365" lon="9.0999317"><ele>768.0</ele><time>2026-04-02T08:25:41.002Z</time></trkpt><trkpt lat="44.7473017" lon="9.0998433"><ele>766.4</ele><time>2026-04-02T08:25:42.002Z</time></trkpt><trkpt lat="44.74723" lon="9.0997533"><ele>764.8</ele><time>2026-04-02T08:25:43.002Z</time></trkpt><trkpt lat="44.7471583" lon="9.09963"><ele>763.2</ele><time>2026-04-02T08:25:44.002Z</time></trkpt><trkpt lat="44.7470967" lon="9.0995083"><ele>761.6</ele><time>2026-04-02T08:25:45.002Z</time></trkpt><trkpt lat="44.7470417" lon="9.09935"><ele>760.0</ele><time>2026-04-02T08:25:46.002Z</time></trkpt><trkpt lat="44.747" lon="9.0991617"><ele>761.0</ele><time>2026-04-02T08:25:47.002Z</time></trkpt><trkpt lat="44.7469767" lon="9.0989783"><ele>762.0</ele><time>2026-04-02T08:25:48.002Z</time></trkpt><trkpt lat="44.7469233" lon="9.0988"><ele>763.0</ele><time>2026-04-02T08:25:49.002Z</time></trkpt><trkpt lat="44.7468733" lon="9.0986467"><ele>764.0</ele><time>2026-04-02T08:25:50.001Z</time></trkpt><trkpt lat="44.7468117" lon="9.0984833"><ele>764.0</ele><time>2026-04-02T08:25:51Z</time></trkpt><trkpt lat="44.746735" lon="9.09834"><ele>764.0</ele><time>2026-04-02T08:25:52Z</time></trkpt><trkpt lat="44.7466467" lon="9.09818"><ele>764.0</ele><time>2026-04-02T08:25:53.001Z</time></trkpt><trkpt lat="44.7465817" lon="9.0980183"><ele>764.0</ele><time>2026-04-02T08:25:54.001Z</time></trkpt><trkpt lat="44.74651" lon="9.0978583"><ele>762.75</ele><time>2026-04-02T08:25:55.001Z</time></trkpt><trkpt lat="44.7464333" lon="9.0977033"><ele>761.5</ele><time>2026-04-02T08:25:56Z</time></trkpt><trkpt lat="44.746365" lon="9.0975283"><ele>760.25</ele><time>2026-04-02T08:25:57.001Z</time></trkpt><trkpt lat="44.74629" lon="9.0973617"><ele>759.0</ele><time>2026-04-02T08:25:58.001Z</time></trkpt><trkpt lat="44.74622" lon="9.097175"><ele>757.0</ele><time>2026-04-02T08:25:59.001Z</time></trkpt><trkpt lat="44.74616" lon="9.0970167"><ele>755.0</ele><time>2026-04-02T08:26:00.001Z</time></trkpt><trkpt lat="44.7461017" lon="9.0968667"><ele>753.0</ele><time>2026-04-02T08:26:01.001Z</time></trkpt><trkpt lat="44.746055" lon="9.0967167"><ele>751.0</ele><time>2026-04-02T08:26:02.001Z</time></trkpt><trkpt lat="44.7460317" lon="9.0965883"><ele>751.5999999999999</ele><time>2026-04-02T08:26:03.001Z</time></trkpt><trkpt lat="44.7460317" lon="9.0964633"><ele>752.2</ele><time>2026-04-02T08:26:04.001Z</time></trkpt><trkpt lat="44.7460667" lon="9.096335"><ele>752.8</ele><time>2026-04-02T08:26:05Z</time></trkpt><trkpt lat="44.7461267" lon="9.0962333"><ele>753.4000000000001</ele><time>2026-04-02T08:26:06.001Z</time></trkpt><trkpt lat="44.7461917" lon="9.096115"><ele>754.0</ele><time>2026-04-02T08:26:07.001Z</time></trkpt><trkpt lat="44.74625" lon="9.0959933"><ele>754.0</ele><time>2026-04-02T08:26:08Z</time></trkpt><trkpt lat="44.7463017" lon="9.095865"><ele>754.0</ele><time>2026-04-02T08:26:09.001Z</time></trkpt><trkpt lat="44.746335" lon="9.0957433"><ele>754.0</ele><time>2026-04-02T08:26:10.001Z</time></trkpt><trkpt lat="44.7463633" lon="9.0956283"><ele>754.0</ele><time>2026-04-02T08:26:11.001Z</time></trkpt><trkpt lat="44.7463717" lon="9.0954817"><ele>754.0</ele><time>2026-04-02T08:26:12.001Z</time></trkpt><trkpt lat="44.7463617" lon="9.09534"><ele>755.25</ele><time>2026-04-02T08:26:13.001Z</time></trkpt><trkpt lat="44.7463183" lon="9.0952033"><ele>756.5</ele><time>2026-04-02T08:26:14Z</time></trkpt><trkpt lat="44.7462517" lon="9.0950767"><ele>757.75</ele><time>2026-04-02T08:26:15.001Z</time></trkpt><trkpt lat="44.74617" lon="9.09495"><ele>759.0</ele><time>2026-04-02T08:26:16Z</time></trkpt><trkpt lat="44.7460867" lon="9.0948433"><ele>756.0</ele><time>2026-04-02T08:26:17.001Z</time></trkpt><trkpt lat="44.746" lon="9.0947317"><ele>753.0</ele><time>2026-04-02T08:26:18Z</time></trkpt><trkpt lat="44.7459233" lon="9.0946"><ele>750.0</ele><time>2026-04-02T08:26:19.001Z</time></trkpt><trkpt lat="44.7458517" lon="9.0944683"><ele>747.0</ele><time>2026-04-02T08:26:20.001Z</time></trkpt><trkpt lat="44.745795" lon="9.0943517"><ele>747.0</ele><time>2026-04-02T08:26:21.001Z</time></trkpt><trkpt lat="44.7457367" lon="9.0942417"><ele>747.0</ele><time>2026-04-02T08:26:22.001Z</time></trkpt><trkpt lat="44.745675" lon="9.0941583"><ele>747.0</ele><time>2026-04-02T08:26:23.001Z</time></trkpt><trkpt lat="44.7455967" lon="9.0940817"><ele>747.0</ele><time>2026-04-02T08:26:24.001Z</time></trkpt><trkpt lat="44.7455083" lon="9.094015"><ele>747.0</ele><time>2026-04-02T08:26:25Z</time></trkpt><trkpt lat="44.7454067" lon="9.09396"><ele>745.0</ele><time>2026-04-02T08:26:26.001Z</time></trkpt><trkpt lat="44.7452833" lon="9.093895"><ele>743.0</ele><time>2026-04-02T08:26:27.001Z</time></trkpt><trkpt lat="44.7451617" lon="9.0938317"><ele>741.0</ele><time>2026-04-02T08:26:28.001Z</time></trkpt><trkpt lat="44.74504" lon="9.0937717"><ele>739.0</ele><time>2026-04-02T08:26:29Z</time></trkpt><trkpt lat="44.74493" lon="9.0937217"><ele>737.8000000000001</ele><time>2026-04-02T08:26:30.001Z</time></trkpt><trkpt lat="44.7448183" lon="9.093685"><ele>736.6</ele><time>2026-04-02T08:26:31.001Z</time></trkpt><trkpt lat="44.7447167" lon="9.0936633"><ele>735.4</ele><time>2026-04-02T08:26:32.001Z</time></trkpt><trkpt lat="44.7446283" lon="9.0936433"><ele>734.2</ele><time>2026-04-02T08:26:33.001Z</time></trkpt><trkpt lat="44.74454" lon="9.0936317"><ele>733.0</ele><time>2026-04-02T08:26:34.001Z</time></trkpt><trkpt lat="44.7444483" lon="9.0936217"><ele>732.0</ele><time>2026-04-02T08:26:35Z</time></trkpt><trkpt lat="44.74435" lon="9.0935983"><ele>731.0</ele><time>2026-04-02T08:26:36.001Z</time></trkpt><trkpt lat="44.7442433" lon="9.09356"><ele>730.0</ele><time>2026-04-02T08:26:37Z</time></trkpt><trkpt lat="44.7441383" lon="9.0935267"><ele>729.0</ele><time>2026-04-02T08:26:38.001Z</time></trkpt><trkpt lat="44.7440467" lon="9.0935033"><ele>728.0</ele><time>2026-04-02T08:26:39.001Z</time></trkpt><trkpt lat="44.7439633" lon="9.0935117"><ele>728.0</ele><time>2026-04-02T08:26:40.001Z</time></trkpt><trkpt lat="44.7438867" lon="9.0935567"><ele>728.0</ele><time>2026-04-02T08:26:41.001Z</time></trkpt><trkpt lat="44.7438183" lon="9.09364"><ele>728.0</ele><time>2026-04-02T08:26:42Z</time></trkpt><trkpt lat="44.7437483" lon="9.0937333"><ele>728.0</ele><time>2026-04-02T08:26:43.001Z</time></trkpt><trkpt lat="44.7436733" lon="9.09382"><ele>728.0</ele><time>2026-04-02T08:26:44.001Z</time></trkpt><trkpt lat="44.7435883" lon="9.0938967"><ele>727.8</ele><time>2026-04-02T08:26:45.001Z</time></trkpt><trkpt lat="44.743495" lon="9.0939567"><ele>727.5999999999999</ele><time>2026-04-02T08:26:46.001Z</time></trkpt><trkpt lat="44.7433917" lon="9.094005"><ele>727.4000000000001</ele><time>2026-04-02T08:26:47.001Z</time></trkpt><trkpt lat="44.7432817" lon="9.0940467"><ele>727.2</ele><time>2026-04-02T08:26:48.001Z</time></trkpt><trkpt lat="44.743175" lon="9.0940867"><ele>727.0</ele><time>2026-04-02T08:26:49.001Z</time></trkpt><trkpt lat="44.7430783" lon="9.094115"><ele>727.0</ele><time>2026-04-02T08:26:50Z</time></trkpt><trkpt lat="44.74298" lon="9.0941367"><ele>727.0</ele><time>2026-04-02T08:26:51.001Z</time></trkpt><trkpt lat="44.7428983" lon="9.094165"><ele>727.0</ele><time>2026-04-02T08:26:52Z</time></trkpt><trkpt lat="44.7428233" lon="9.094205"><ele>727.0</ele><time>2026-04-02T08:26:53Z</time></trkpt><trkpt lat="44.7427467" lon="9.094245"><ele>727.0</ele><time>2026-04-02T08:26:54Z</time></trkpt><trkpt lat="44.742665" lon="9.0942667"><ele>727.0</ele><time>2026-04-02T08:26:55.001Z</time></trkpt><trkpt lat="44.7425683" lon="9.0942783"><ele>725.8333333333334</ele><time>2026-04-02T08:26:56.001Z</time></trkpt><trkpt lat="44.74248" lon="9.0942883"><ele>724.6666666666667</ele><time>2026-04-02T08:26:57.001Z</time></trkpt><trkpt lat="44.7424067" lon="9.0942917"><ele>723.5</ele><time>2026-04-02T08:26:58.001Z</time></trkpt><trkpt lat="44.74234" lon="9.0942967"><ele>722.3333333333334</ele><time>2026-04-02T08:26:59.001Z</time></trkpt><trkpt lat="44.7422433" lon="9.0943417"><ele>721.1666666666666</ele><time>2026-04-02T08:27:01.001Z</time></trkpt><trkpt lat="44.7421483" lon="9.094365"><ele>720.0</ele><time>2026-04-02T08:27:03Z</time></trkpt><trkpt lat="44.7420667" lon="9.09431"><ele>720.0</ele><time>2026-04-02T08:27:05.001Z</time></trkpt><trkpt lat="44.7419583" lon="9.0942517"><ele>720.0</ele><time>2026-04-02T08:27:07Z</time></trkpt><trkpt lat="44.7418767" lon="9.0942267"><ele>720.0</ele><time>2026-04-02T08:27:08.001Z</time></trkpt><trkpt lat="44.7417983" lon="9.0941933"><ele>720.0</ele><time>2026-04-02T08:27:09Z</time></trkpt><trkpt lat="44.74172" lon="9.0941617"><ele>720.0</ele><time>2026-04-02T08:27:10.001Z</time></trkpt><trkpt lat="44.7416417" lon="9.0941233"><ele>720.0</ele><time>2026-04-02T08:27:11Z</time></trkpt><trkpt lat="44.7415733" lon="9.0940917"><ele>720.5</ele><time>2026-04-02T08:27:12.001Z</time></trkpt><trkpt lat="44.7415133" lon="9.094055"><ele>721.0</ele><time>2026-04-02T08:27:13.001Z</time></trkpt><trkpt lat="44.74144" lon="9.094005"><ele>721.5</ele><time>2026-04-02T08:27:15.001Z</time></trkpt><trkpt lat="44.7413483" lon="9.09399"><ele>722.0</ele><time>2026-04-02T08:27:19Z</time></trkpt><trkpt lat="44.7412717" lon="9.0940067"><ele>722.5</ele><time>2026-04-02T08:27:21.001Z</time></trkpt><trkpt lat="44.741165" lon="9.0940517"><ele>723.0</ele><time>2026-04-02T08:27:23Z</time></trkpt><trkpt lat="44.7411033" lon="9.0940933"><ele>723.0</ele><time>2026-04-02T08:27:24.001Z</time></trkpt><trkpt lat="44.7410333" lon="9.0941217"><ele>723.0</ele><time>2026-04-02T08:27:25.001Z</time></trkpt><trkpt lat="44.7409617" lon="9.0941483"><ele>723.0</ele><time>2026-04-02T08:27:26.001Z</time></trkpt><trkpt lat="44.7409" lon="9.0941733"><ele>723.0</ele><time>2026-04-02T08:27:27.001Z</time></trkpt><trkpt lat="44.740805" lon="9.0942017"><ele>723.0</ele><time>2026-04-02T08:27:29.001Z</time></trkpt><trkpt lat="44.740735" lon="9.09421"><ele>723.0</ele><time>2026-04-02T08:27:34.001Z</time></trkpt><trkpt lat="44.74065" lon="9.094215"><ele>723.0</ele><time>2026-04-02T08:27:36.001Z</time></trkpt><trkpt lat="44.7405383" lon="9.09421"><ele>723.0</ele><time>2026-04-02T08:27:38Z</time></trkpt><trkpt lat="44.7404167" lon="9.0942017"><ele>723.0</ele><time>2026-04-02T08:27:40.001Z</time></trkpt><trkpt lat="44.740305" lon="9.0942017"><ele>723.0</ele><time>2026-04-02T08:27:42.001Z</time></trkpt><trkpt lat="44.7401967" lon="9.0942117"><ele>722.4</ele><time>2026-04-02T08:27:44.001Z</time></trkpt><trkpt lat="44.7401067" lon="9.0942367"><ele>721.8</ele><time>2026-04-02T08:27:46.001Z</time></trkpt><trkpt lat="44.7400233" lon="9.0942783"><ele>721.2</ele><time>2026-04-02T08:27:48.001Z</time></trkpt><trkpt lat="44.7399383" lon="9.0943283"><ele>720.6</ele><time>2026-04-02T08:27:50.001Z</time></trkpt><trkpt lat="44.7398567" lon="9.0944183"><ele>720.0</ele><time>2026-04-02T08:27:52.001Z</time></trkpt><trkpt lat="44.7397667" lon="9.0945233"><ele>720.0</ele><time>2026-04-02T08:27:54.001Z</time></trkpt><trkpt lat="44.7397167" lon="9.094585"><ele>720.0</ele><time>2026-04-02T08:27:55.001Z</time></trkpt><trkpt lat="44.7396367" lon="9.0946817"><ele>720.0</ele><time>2026-04-02T08:27:57.001Z</time></trkpt><trkpt lat="44.7395717" lon="9.0947317"><ele>720.0</ele><time>2026-04-02T08:27:59.001Z</time></trkpt><trkpt lat="44.73963" lon="9.094635"><ele>720.0</ele><time>2026-04-02T08:28:38.001Z</time></trkpt><trkpt lat="44.7396733" lon="9.094565"><ele>720.0</ele><time>2026-04-02T08:28:39Z</time></trkpt><trkpt lat="44.7397283" lon="9.094495"><ele>720.0</ele><time>2026-04-02T08:28:40.001Z</time></trkpt><trkpt lat="44.7397767" lon="9.094425"><ele>720.0</ele><time>2026-04-02T08:28:41.001Z</time></trkpt><trkpt lat="44.7398283" lon="9.094365"><ele>720.0</ele><time>2026-04-02T08:28:42.001Z</time></trkpt><trkpt lat="44.7398833" lon="9.09431"><ele>720.0</ele><time>2026-04-02T08:28:43.001Z</time></trkpt><trkpt lat="44.7399433" lon="9.09427"><ele>720.0</ele><time>2026-04-02T08:28:44.001Z</time></trkpt><trkpt lat="44.7400117" lon="9.0942483"><ele>720.0</ele><time>2026-04-02T08:28:45.001Z</time></trkpt><trkpt lat="44.7401283" lon="9.09422"><ele>720.6</ele><time>2026-04-02T08:28:47.001Z</time></trkpt><trkpt lat="44.74023" lon="9.0942117"><ele>721.2</ele><time>2026-04-02T08:28:49.001Z</time></trkpt><trkpt lat="44.7403333" lon="9.0942083"><ele>721.8</ele><time>2026-04-02T08:28:51.001Z</time></trkpt><trkpt lat="44.7404333" lon="9.0941917"><ele>722.4</ele><time>2026-04-02T08:28:53.001Z</time></trkpt><trkpt lat="44.74055" lon="9.0942083"><ele>723.0</ele><time>2026-04-02T08:28:55.001Z</time></trkpt><trkpt lat="44.7406483" lon="9.0942183"><ele>723.0</ele><time>2026-04-02T08:28:57.001Z</time></trkpt><trkpt lat="44.740765" lon="9.09417"><ele>723.0</ele><time>2026-04-02T08:28:59.001Z</time></trkpt><trkpt lat="44.7408333" lon="9.0941267"><ele>723.0</ele><time>2026-04-02T08:29:00.001Z</time></trkpt><trkpt lat="44.740905" lon="9.0940783"><ele>723.0</ele><time>2026-04-02T08:29:01.001Z</time></trkpt><trkpt lat="44.74098" lon="9.0940017"><ele>723.0</ele><time>2026-04-02T08:29:02.001Z</time></trkpt><trkpt lat="44.7410467" lon="9.0939067"><ele>720.8</ele><time>2026-04-02T08:29:03.001Z</time></trkpt><trkpt lat="44.7410967" lon="9.0937967"><ele>718.5999999999999</ele><time>2026-04-02T08:29:04.001Z</time></trkpt><trkpt lat="44.7411517" lon="9.0936667"><ele>716.4000000000001</ele><time>2026-04-02T08:29:05.001Z</time></trkpt><trkpt lat="44.7412017" lon="9.0935267"><ele>714.2</ele><time>2026-04-02T08:29:06.001Z</time></trkpt><trkpt lat="44.7412633" lon="9.093375"><ele>712.0</ele><time>2026-04-02T08:29:07.001Z</time></trkpt><trkpt lat="44.7413167" lon="9.0932367"><ele>709.3333333333334</ele><time>2026-04-02T08:29:08.001Z</time></trkpt><trkpt lat="44.741365" lon="9.0931117"><ele>706.6666666666667</ele><time>2026-04-02T08:29:09.001Z</time></trkpt><trkpt lat="44.7414017" lon="9.0929783"><ele>704.0</ele><time>2026-04-02T08:29:10Z</time></trkpt><trkpt lat="44.7414333" lon="9.0928683"><ele>701.3333333333334</ele><time>2026-04-02T08:29:11.001Z</time></trkpt><trkpt lat="44.7414667" lon="9.0927683"><ele>698.6666666666666</ele><time>2026-04-02T08:29:12.001Z</time></trkpt><trkpt lat="44.7415283" lon="9.0927333"><ele>696.0</ele><time>2026-04-02T08:29:13.001Z</time></trkpt><trkpt lat="44.7416383" lon="9.0926917"><ele>696.0</ele><time>2026-04-02T08:29:15.001Z</time></trkpt><trkpt lat="44.7417433" lon="9.09279"><ele>696.0</ele><time>2026-04-02T08:29:17.001Z</time></trkpt><trkpt lat="44.7417867" lon="9.0928683"><ele>696.0</ele><time>2026-04-02T08:29:18.001Z</time></trkpt><trkpt lat="44.74185" lon="9.09289"><ele>696.0</ele><time>2026-04-02T08:29:20Z</time></trkpt><trkpt lat="44.7418417" lon="9.0927817"><ele>696.0</ele><time>2026-04-02T08:29:22.001Z</time></trkpt><trkpt lat="44.7417483" lon="9.0926467"><ele>696.0</ele><time>2026-04-02T08:29:24.001Z</time></trkpt><trkpt lat="44.7416633" lon="9.0925783"><ele>696.0</ele><time>2026-04-02T08:29:25.001Z</time></trkpt><trkpt lat="44.74156" lon="9.0925233"><ele>696.0</ele><time>2026-04-02T08:29:26.001Z</time></trkpt><trkpt lat="44.7414667" lon="9.0925"><ele>696.0</ele><time>2026-04-02T08:29:27.001Z</time></trkpt><trkpt lat="44.7413767" lon="9.0925217"><ele>696.0</ele><time>2026-04-02T08:29:28.001Z</time></trkpt><trkpt lat="44.7413033" lon="9.09258"><ele>696.0</ele><time>2026-04-02T08:29:29.001Z</time></trkpt><trkpt lat="44.741245" lon="9.0926633"><ele>696.0</ele><time>2026-04-02T08:29:30.001Z</time></trkpt><trkpt lat="44.7411933" lon="9.092765"><ele>696.0</ele><time>2026-04-02T08:29:31.001Z</time></trkpt><trkpt lat="44.7411383" lon="9.0928767"><ele>696.0</ele><time>2026-04-02T08:29:32.001Z</time></trkpt><trkpt lat="44.74107" lon="9.09298"><ele>696.0</ele><time>2026-04-02T08:29:33Z</time></trkpt><trkpt lat="44.741005" lon="9.093085"><ele>697.5</ele><time>2026-04-02T08:29:34Z</time></trkpt><trkpt lat="44.7409367" lon="9.0931817"><ele>699.0</ele><time>2026-04-02T08:29:35.001Z</time></trkpt><trkpt lat="44.7408667" lon="9.093275"><ele>700.5</ele><time>2026-04-02T08:29:36Z</time></trkpt><trkpt lat="44.7407933" lon="9.0933317"><ele>702.0</ele><time>2026-04-02T08:29:37Z</time></trkpt><trkpt lat="44.74073" lon="9.093355"><ele>703.5</ele><time>2026-04-02T08:29:38.001Z</time></trkpt><trkpt lat="44.7406517" lon="9.0933033"><ele>705.0</ele><time>2026-04-02T08:29:40.001Z</time></trkpt><trkpt lat="44.740665" lon="9.09316"><ele>701.2</ele><time>2026-04-02T08:29:42.001Z</time></trkpt><trkpt lat="44.740715" lon="9.09308"><ele>697.4</ele><time>2026-04-02T08:29:43.001Z</time></trkpt><trkpt lat="44.7407833" lon="9.0929983"><ele>693.5999999999999</ele><time>2026-04-02T08:29:44.001Z</time></trkpt><trkpt lat="44.7408617" lon="9.092905"><ele>689.8</ele><time>2026-04-02T08:29:45.001Z</time></trkpt><trkpt lat="44.740925" lon="9.0928"><ele>686.0</ele><time>2026-04-02T08:29:46.001Z</time></trkpt><trkpt lat="44.7409817" lon="9.092695"><ele>686.0</ele><time>2026-04-02T08:29:47.001Z</time></trkpt><trkpt lat="44.7410217" lon="9.092565"><ele>686.0</ele><time>2026-04-02T08:29:48.001Z</time></trkpt><trkpt lat="44.7410433" lon="9.0924167"><ele>686.0</ele><time>2026-04-02T08:29:49.001Z</time></trkpt><trkpt lat="44.7410583" lon="9.0922683"><ele>686.0</ele><time>2026-04-02T08:29:50.001Z</time></trkpt><trkpt lat="44.741065" lon="9.0921167"><ele>686.0</ele><time>2026-04-02T08:29:51.001Z</time></trkpt><trkpt lat="44.74108" lon="9.0919917"><ele>684.5999999999999</ele><time>2026-04-02T08:29:52.001Z</time></trkpt><trkpt lat="44.7411083" lon="9.09186"><ele>683.2</ele><time>2026-04-02T08:29:53.001Z</time></trkpt><trkpt lat="44.741165" lon="9.091775"><ele>681.8</ele><time>2026-04-02T08:29:54.001Z</time></trkpt><trkpt lat="44.7412317" lon="9.0916983"><ele>680.4000000000001</ele><time>2026-04-02T08:29:55.001Z</time></trkpt><trkpt lat="44.7413133" lon="9.0916233"><ele>679.0</ele><time>2026-04-02T08:29:56.001Z</time></trkpt><trkpt lat="44.741405" lon="9.09156"><ele>675.8333333333334</ele><time>2026-04-02T08:29:57.001Z</time></trkpt><trkpt lat="44.741505" lon="9.0915067"><ele>672.6666666666667</ele><time>2026-04-02T08:29:58.001Z</time></trkpt><trkpt lat="44.7415933" lon="9.0914533"><ele>669.5</ele><time>2026-04-02T08:29:59.001Z</time></trkpt><trkpt lat="44.7416667" lon="9.0914067"><ele>666.3333333333334</ele><time>2026-04-02T08:30:00.001Z</time></trkpt><trkpt lat="44.7417317" lon="9.0913567"><ele>663.1666666666666</ele><time>2026-04-02T08:30:01.001Z</time></trkpt><trkpt lat="44.7417917" lon="9.0913"><ele>660.0</ele><time>2026-04-02T08:30:02.001Z</time></trkpt><trkpt lat="44.7418617" lon="9.09123"><ele>660.0</ele><time>2026-04-02T08:30:03.001Z</time></trkpt><trkpt lat="44.741945" lon="9.09118"><ele>660.0</ele><time>2026-04-02T08:30:04.001Z</time></trkpt><trkpt lat="44.74203" lon="9.0911717"><ele>660.0</ele><time>2026-04-02T08:30:05Z</time></trkpt><trkpt lat="44.742125" lon="9.091185"><ele>660.0</ele><time>2026-04-02T08:30:06.001Z</time></trkpt><trkpt lat="44.742215" lon="9.0911883"><ele>660.0</ele><time>2026-04-02T08:30:07.001Z</time></trkpt><trkpt lat="44.742295" lon="9.0911817"><ele>660.0</ele><time>2026-04-02T08:30:08.001Z</time></trkpt><trkpt lat="44.7423617" lon="9.091075"><ele>660.0</ele><time>2026-04-02T08:30:10.001Z</time></trkpt><trkpt lat="44.7422983" lon="9.0909967"><ele>660.0</ele><time>2026-04-02T08:30:12.001Z</time></trkpt><trkpt lat="44.742235" lon="9.0909917"><ele>660.0</ele><time>2026-04-02T08:30:13.001Z</time></trkpt><trkpt lat="44.742155" lon="9.0909767"><ele>660.0</ele><time>2026-04-02T08:30:14.001Z</time></trkpt><trkpt lat="44.742055" lon="9.0909667"><ele>660.0</ele><time>2026-04-02T08:30:15Z</time></trkpt><trkpt lat="44.74195" lon="9.0909567"><ele>660.0</ele><time>2026-04-02T08:30:16.001Z</time></trkpt><trkpt lat="44.7418433" lon="9.0909433"><ele>660.0</ele><time>2026-04-02T08:30:17.001Z</time></trkpt><trkpt lat="44.741745" lon="9.0909283"><ele>660.0</ele><time>2026-04-02T08:30:18.001Z</time></trkpt><trkpt lat="44.7416667" lon="9.0909067"><ele>660.0</ele><time>2026-04-02T08:30:19.001Z</time></trkpt><trkpt lat="44.7415633" lon="9.0908567"><ele>660.0</ele><time>2026-04-02T08:30:21.001Z</time></trkpt><trkpt lat="44.7415367" lon="9.0907717"><ele>660.0</ele><time>2026-04-02T08:30:23.001Z</time></trkpt><trkpt lat="44.7416" lon="9.090685"><ele>660.0</ele><time>2026-04-02T08:30:25.001Z</time></trkpt><trkpt lat="44.7417433" lon="9.090705"><ele>658.0</ele><time>2026-04-02T08:30:27.001Z</time></trkpt><trkpt lat="44.7418283" lon="9.090705"><ele>656.0</ele><time>2026-04-02T08:30:28.001Z</time></trkpt><trkpt lat="44.741915" lon="9.0906683"><ele>654.0</ele><time>2026-04-02T08:30:29.001Z</time></trkpt><trkpt lat="44.7420067" lon="9.0906167"><ele>652.0</ele><time>2026-04-02T08:30:30Z</time></trkpt><trkpt lat="44.742105" lon="9.0905183"><ele>650.0</ele><time>2026-04-02T08:30:31.001Z</time></trkpt><trkpt lat="44.7422033" lon="9.0904283"><ele>650.0</ele><time>2026-04-02T08:30:32.001Z</time></trkpt><trkpt lat="44.74231" lon="9.0903483"><ele>650.0</ele><time>2026-04-02T08:30:33.001Z</time></trkpt><trkpt lat="44.7424133" lon="9.09027"><ele>650.0</ele><time>2026-04-02T08:30:34.001Z</time></trkpt><trkpt lat="44.7425233" lon="9.0901767"><ele>650.0</ele><time>2026-04-02T08:30:35.001Z</time></trkpt><trkpt lat="44.74263" lon="9.090085"><ele>651.2</ele><time>2026-04-02T08:30:36.001Z</time></trkpt><trkpt lat="44.7427267" lon="9.0899933"><ele>652.4</ele><time>2026-04-02T08:30:37.001Z</time></trkpt><trkpt lat="44.7428133" lon="9.0898983"><ele>653.5999999999999</ele><time>2026-04-02T08:30:38.001Z</time></trkpt><trkpt lat="44.742885" lon="9.0898117"><ele>654.8</ele><time>2026-04-02T08:30:39Z</time></trkpt><trkpt lat="44.7429417" lon="9.089725"><ele>656.0</ele><time>2026-04-02T08:30:40.001Z</time></trkpt><trkpt lat="44.7429817" lon="9.0896067"><ele>656.0</ele><time>2026-04-02T08:30:41.001Z</time></trkpt><trkpt lat="44.7430217" lon="9.08947"><ele>656.0</ele><time>2026-04-02T08:30:42.001Z</time></trkpt><trkpt lat="44.743055" lon="9.089315"><ele>656.0</ele><time>2026-04-02T08:30:43.001Z</time></trkpt><trkpt lat="44.7430767" lon="9.089155"><ele>656.0</ele><time>2026-04-02T08:30:44.001Z</time></trkpt><trkpt lat="44.7430917" lon="9.089005"><ele>656.0</ele><time>2026-04-02T08:30:45.001Z</time></trkpt><trkpt lat="44.7431" lon="9.0888583"><ele>654.8</ele><time>2026-04-02T08:30:46.001Z</time></trkpt><trkpt lat="44.743105" lon="9.0887083"><ele>653.5999999999999</ele><time>2026-04-02T08:30:47.001Z</time></trkpt><trkpt lat="44.7431033" lon="9.0885617"><ele>652.4</ele><time>2026-04-02T08:30:48.001Z</time></trkpt><trkpt lat="44.7430917" lon="9.08843"><ele>651.2</ele><time>2026-04-02T08:30:49Z</time></trkpt><trkpt lat="44.74307" lon="9.0882967"><ele>650.0</ele><time>2026-04-02T08:30:50.001Z</time></trkpt><trkpt lat="44.7430383" lon="9.0881583"><ele>647.5</ele><time>2026-04-02T08:30:51.001Z</time></trkpt><trkpt lat="44.7430083" lon="9.0880083"><ele>645.0</ele><time>2026-04-02T08:30:52.001Z</time></trkpt><trkpt lat="44.7429867" lon="9.0878483"><ele>642.5</ele><time>2026-04-02T08:30:53Z</time></trkpt><trkpt lat="44.742965" lon="9.0876567"><ele>640.0</ele><time>2026-04-02T08:30:54.001Z</time></trkpt><trkpt lat="44.742955" lon="9.0874683"><ele>637.6</ele><time>2026-04-02T08:30:55.001Z</time></trkpt><trkpt lat="44.7429667" lon="9.0872933"><ele>635.2</ele><time>2026-04-02T08:30:56.001Z</time></trkpt><trkpt lat="44.7429867" lon="9.0871367"><ele>632.8</ele><time>2026-04-02T08:30:57.001Z</time></trkpt><trkpt lat="44.74301" lon="9.0870067"><ele>630.4</ele><time>2026-04-02T08:30:58.001Z</time></trkpt><trkpt lat="44.743045" lon="9.0869117"><ele>628.0</ele><time>2026-04-02T08:30:59.001Z</time></trkpt><trkpt lat="44.743095" lon="9.086845"><ele>628.0</ele><time>2026-04-02T08:31:00Z</time></trkpt><trkpt lat="44.7431667" lon="9.08681"><ele>628.0</ele><time>2026-04-02T08:31:01.001Z</time></trkpt><trkpt lat="44.7432567" lon="9.0867883"><ele>628.0</ele><time>2026-04-02T08:31:02.001Z</time></trkpt><trkpt lat="44.7433533" lon="9.086775"><ele>628.0</ele><time>2026-04-02T08:31:03.001Z</time></trkpt><trkpt lat="44.74344" lon="9.0867617"><ele>628.0</ele><time>2026-04-02T08:31:04.001Z</time></trkpt><trkpt lat="44.743515" lon="9.086725"><ele>628.0</ele><time>2026-04-02T08:31:05.001Z</time></trkpt><trkpt lat="44.74358" lon="9.086665"><ele>627.4</ele><time>2026-04-02T08:31:06.001Z</time></trkpt><trkpt lat="44.74364" lon="9.0865833"><ele>626.8</ele><time>2026-04-02T08:31:07Z</time></trkpt><trkpt lat="44.74368" lon="9.08647"><ele>626.2</ele><time>2026-04-02T08:31:08Z</time></trkpt><trkpt lat="44.7436983" lon="9.086345"><ele>625.6</ele><time>2026-04-02T08:31:09.001Z</time></trkpt><trkpt lat="44.743695" lon="9.0862"><ele>625.0</ele><time>2026-04-02T08:31:10.001Z</time></trkpt><trkpt lat="44.74368" lon="9.08604"><ele>625.0</ele><time>2026-04-02T08:31:11.001Z</time></trkpt><trkpt lat="44.7436567" lon="9.085875"><ele>625.0</ele><time>2026-04-02T08:31:12Z</time></trkpt><trkpt lat="44.7436417" lon="9.085705"><ele>625.0</ele><time>2026-04-02T08:31:13.001Z</time></trkpt><trkpt lat="44.74363" lon="9.0855383"><ele>625.0</ele><time>2026-04-02T08:31:14.001Z</time></trkpt><trkpt lat="44.7436133" lon="9.0853567"><ele>622.75</ele><time>2026-04-02T08:31:15.001Z</time></trkpt><trkpt lat="44.7436083" lon="9.08518"><ele>620.5</ele><time>2026-04-02T08:31:16.001Z</time></trkpt><trkpt lat="44.74363" lon="9.0850183"><ele>618.25</ele><time>2026-04-02T08:31:17Z</time></trkpt><trkpt lat="44.74367" lon="9.0848733"><ele>616.0</ele><time>2026-04-02T08:31:18.001Z</time></trkpt><trkpt lat="44.74373" lon="9.0847317"><ele>614.6</ele><time>2026-04-02T08:31:19.001Z</time></trkpt><trkpt lat="44.7437967" lon="9.0846"><ele>613.2</ele><time>2026-04-02T08:31:20.001Z</time></trkpt><trkpt lat="44.743865" lon="9.08447"><ele>611.8</ele><time>2026-04-02T08:31:21Z</time></trkpt><trkpt lat="44.7439233" lon="9.08435"><ele>610.4</ele><time>2026-04-02T08:31:22Z</time></trkpt><trkpt lat="44.7439717" lon="9.0842533"><ele>609.0</ele><time>2026-04-02T08:31:23.001Z</time></trkpt><trkpt lat="44.7440017" lon="9.08415"><ele>607.4</ele><time>2026-04-02T08:31:24.001Z</time></trkpt><trkpt lat="44.744005" lon="9.0840467"><ele>605.8</ele><time>2026-04-02T08:31:25.001Z</time></trkpt><trkpt lat="44.7439867" lon="9.0839383"><ele>604.2</ele><time>2026-04-02T08:31:26.001Z</time></trkpt><trkpt lat="44.74396" lon="9.0838167"><ele>602.6</ele><time>2026-04-02T08:31:27.001Z</time></trkpt><trkpt lat="44.743935" lon="9.0836717"><ele>601.0</ele><time>2026-04-02T08:31:28.001Z</time></trkpt><trkpt lat="44.7439067" lon="9.0835133"><ele>601.0</ele><time>2026-04-02T08:31:29.001Z</time></trkpt><trkpt lat="44.743875" lon="9.08336"><ele>601.0</ele><time>2026-04-02T08:31:30.001Z</time></trkpt><trkpt lat="44.7438483" lon="9.0832217"><ele>601.0</ele><time>2026-04-02T08:31:31.001Z</time></trkpt><trkpt lat="44.7438233" lon="9.0831"><ele>601.0</ele><time>2026-04-02T08:31:32.001Z</time></trkpt><trkpt lat="44.7438117" lon="9.0830067"><ele>601.0</ele><time>2026-04-02T08:31:33.001Z</time></trkpt><trkpt lat="44.7437783" lon="9.08287"><ele>599.2</ele><time>2026-04-02T08:31:35.001Z</time></trkpt><trkpt lat="44.7437283" lon="9.0827533"><ele>597.4000000000001</ele><time>2026-04-02T08:31:37.001Z</time></trkpt><trkpt lat="44.7436583" lon="9.08268"><ele>595.6</ele><time>2026-04-02T08:31:39.001Z</time></trkpt><trkpt lat="44.7435617" lon="9.0826667"><ele>593.8000000000001</ele><time>2026-04-02T08:31:41Z</time></trkpt><trkpt lat="44.7434633" lon="9.0827117"><ele>592.0</ele><time>2026-04-02T08:31:43.001Z</time></trkpt><trkpt lat="44.7433667" lon="9.0827233"><ele>592.0</ele><time>2026-04-02T08:31:45.001Z</time></trkpt><trkpt lat="44.7432833" lon="9.08267"><ele>592.0</ele><time>2026-04-02T08:31:47.001Z</time></trkpt><trkpt lat="44.74322" lon="9.082565"><ele>592.0</ele><time>2026-04-02T08:31:49.001Z</time></trkpt><trkpt lat="44.7431717" lon="9.0824367"><ele>592.0</ele><time>2026-04-02T08:31:51.001Z</time></trkpt><trkpt lat="44.743105" lon="9.0822967"><ele>592.0</ele><time>2026-04-02T08:31:53.001Z</time></trkpt><trkpt lat="44.7430567" lon="9.08222"><ele>589.4</ele><time>2026-04-02T08:31:54Z</time></trkpt><trkpt lat="44.7429983" lon="9.0821517"><ele>586.8000000000001</ele><time>2026-04-02T08:31:55.001Z</time></trkpt><trkpt lat="44.7429133" lon="9.082085"><ele>584.2</ele><time>2026-04-02T08:31:56.001Z</time></trkpt><trkpt lat="44.7428183" lon="9.0820033"><ele>581.6</ele><time>2026-04-02T08:31:57.001Z</time></trkpt><trkpt lat="44.7427167" lon="9.081925"><ele>579.0</ele><time>2026-04-02T08:31:58.001Z</time></trkpt><trkpt lat="44.742605" lon="9.0818517"><ele>578.0</ele><time>2026-04-02T08:31:59.001Z</time></trkpt><trkpt lat="44.7425017" lon="9.0817867"><ele>577.0</ele><time>2026-04-02T08:32:00.001Z</time></trkpt><trkpt lat="44.74239" lon="9.0817083"><ele>576.0</ele><time>2026-04-02T08:32:01.001Z</time></trkpt><trkpt lat="44.742275" lon="9.0816317"><ele>575.0</ele><time>2026-04-02T08:32:02.001Z</time></trkpt><trkpt lat="44.7421683" lon="9.081555"><ele>572.2</ele><time>2026-04-02T08:32:03.001Z</time></trkpt><trkpt lat="44.74207" lon="9.0814717"><ele>569.4</ele><time>2026-04-02T08:32:04.001Z</time></trkpt><trkpt lat="44.7419833" lon="9.0813967"><ele>566.6</ele><time>2026-04-02T08:32:05.001Z</time></trkpt><trkpt lat="44.741905" lon="9.0813183"><ele>563.8</ele><time>2026-04-02T08:32:06.001Z</time></trkpt><trkpt lat="44.7418517" lon="9.0812483"><ele>561.0</ele><time>2026-04-02T08:32:07Z</time></trkpt><trkpt lat="44.7418133" lon="9.0811667"><ele>561.0</ele><time>2026-04-02T08:32:08.001Z</time></trkpt><trkpt lat="44.741785" lon="9.0810733"><ele>561.0</ele><time>2026-04-02T08:32:09.001Z</time></trkpt><trkpt lat="44.7418067" lon="9.0809133"><ele>561.0</ele><time>2026-04-02T08:32:11.001Z</time></trkpt><trkpt lat="44.741895" lon="9.0808633"><ele>561.0</ele><time>2026-04-02T08:32:13.001Z</time></trkpt><trkpt lat="44.741965" lon="9.080895"><ele>561.0</ele><time>2026-04-02T08:32:14Z</time></trkpt><trkpt lat="44.7420433" lon="9.0809183"><ele>561.0</ele><time>2026-04-02T08:32:15.001Z</time></trkpt><trkpt lat="44.74211" lon="9.0809333"><ele>561.0</ele><time>2026-04-02T08:32:16.001Z</time></trkpt><trkpt lat="44.7422033" lon="9.0808517"><ele>561.0</ele><time>2026-04-02T08:32:18Z</time></trkpt><trkpt lat="44.742195" lon="9.0806817"><ele>561.0</ele><time>2026-04-02T08:32:20.001Z</time></trkpt><trkpt lat="44.7421617" lon="9.0805867"><ele>561.0</ele><time>2026-04-02T08:32:21.001Z</time></trkpt><trkpt lat="44.742105" lon="9.08049"><ele>561.0</ele><time>2026-04-02T08:32:22.001Z</time></trkpt><trkpt lat="44.7420367" lon="9.0803967"><ele>559.1666666666666</ele><time>2026-04-02T08:32:23.001Z</time></trkpt><trkpt lat="44.741965" lon="9.080305"><ele>557.3333333333334</ele><time>2026-04-02T08:32:24.001Z</time></trkpt><trkpt lat="44.7418917" lon="9.0801933"><ele>555.5</ele><time>2026-04-02T08:32:25.001Z</time></trkpt><trkpt lat="44.741825" lon="9.08011"><ele>553.6666666666667</ele><time>2026-04-02T08:32:26.001Z</time></trkpt><trkpt lat="44.7417583" lon="9.0800683"><ele>551.8333333333334</ele><time>2026-04-02T08:32:27.001Z</time></trkpt><trkpt lat="44.7416867" lon="9.0800483"><ele>550.0</ele><time>2026-04-02T08:32:28.001Z</time></trkpt><trkpt lat="44.7416167" lon="9.08006"><ele>549.6</ele><time>2026-04-02T08:32:29.001Z</time></trkpt><trkpt lat="44.74154" lon="9.0800933"><ele>549.2</ele><time>2026-04-02T08:32:30.001Z</time></trkpt><trkpt lat="44.7414533" lon="9.08016"><ele>548.8</ele><time>2026-04-02T08:32:31.001Z</time></trkpt><trkpt lat="44.7413683" lon="9.0802417"><ele>548.4</ele><time>2026-04-02T08:32:32Z</time></trkpt><trkpt lat="44.74129" lon="9.0803467"><ele>548.0</ele><time>2026-04-02T08:32:33Z</time></trkpt><trkpt lat="44.7412217" lon="9.080455"><ele>548.0</ele><time>2026-04-02T08:32:34.001Z</time></trkpt><trkpt lat="44.741155" lon="9.0805317"><ele>548.0</ele><time>2026-04-02T08:32:35.001Z</time></trkpt><trkpt lat="44.7410983" lon="9.080585"><ele>548.0</ele><time>2026-04-02T08:32:36.001Z</time></trkpt><trkpt lat="44.7409983" lon="9.080565"><ele>548.0</ele><time>2026-04-02T08:32:38.001Z</time></trkpt><trkpt lat="44.7409483" lon="9.08042"><ele>548.0</ele><time>2026-04-02T08:32:40.001Z</time></trkpt><trkpt lat="44.740935" lon="9.0803083"><ele>545.8</ele><time>2026-04-02T08:32:41.001Z</time></trkpt><trkpt lat="44.7409317" lon="9.0801883"><ele>543.5999999999999</ele><time>2026-04-02T08:32:42.001Z</time></trkpt><trkpt lat="44.74093" lon="9.080045"><ele>541.4000000000001</ele><time>2026-04-02T08:32:43.001Z</time></trkpt><trkpt lat="44.7409283" lon="9.0799033"><ele>539.2</ele><time>2026-04-02T08:32:44.001Z</time></trkpt><trkpt lat="44.7409167" lon="9.0797633"><ele>537.0</ele><time>2026-04-02T08:32:45.001Z</time></trkpt><trkpt lat="44.7409033" lon="9.07962"><ele>536.4</ele><time>2026-04-02T08:32:46.001Z</time></trkpt><trkpt lat="44.7408883" lon="9.07948"><ele>535.8000000000001</ele><time>2026-04-02T08:32:47Z</time></trkpt><trkpt lat="44.740875" lon="9.0793383"><ele>535.2</ele><time>2026-04-02T08:32:48.001Z</time></trkpt><trkpt lat="44.7408683" lon="9.0791767"><ele>534.6</ele><time>2026-04-02T08:32:49.001Z</time></trkpt><trkpt lat="44.7408617" lon="9.0790233"><ele>534.0</ele><time>2026-04-02T08:32:50.001Z</time></trkpt><trkpt lat="44.7408433" lon="9.0788983"><ele>533.2857142857143</ele><time>2026-04-02T08:32:51.001Z</time></trkpt><trkpt lat="44.740825" lon="9.0787817"><ele>532.5714285714286</ele><time>2026-04-02T08:32:52.001Z</time></trkpt><trkpt lat="44.740775" lon="9.0786983"><ele>531.8571428571429</ele><time>2026-04-02T08:32:53.001Z</time></trkpt><trkpt lat="44.74071" lon="9.078635"><ele>531.1428571428571</ele><time>2026-04-02T08:32:54.001Z</time></trkpt><trkpt lat="44.740655" lon="9.07859"><ele>530.4285714285714</ele><time>2026-04-02T08:32:55.001Z</time></trkpt><trkpt lat="44.7406067" lon="9.07851"><ele>529.7142857142858</ele><time>2026-04-02T08:32:56.001Z</time></trkpt><trkpt lat="44.7405867" lon="9.0784167"><ele>529.0</ele><time>2026-04-02T08:32:57.001Z</time></trkpt><trkpt lat="44.7405967" lon="9.07831"><ele>526.8333333333334</ele><time>2026-04-02T08:32:58.001Z</time></trkpt><trkpt lat="44.7406233" lon="9.0781983"><ele>524.6666666666667</ele><time>2026-04-02T08:32:59.001Z</time></trkpt><trkpt lat="44.7406683" lon="9.0780967"><ele>522.5</ele><time>2026-04-02T08:33:00.001Z</time></trkpt><trkpt lat="44.7407267" lon="9.0780117"><ele>520.3333333333334</ele><time>2026-04-02T08:33:01.001Z</time></trkpt><trkpt lat="44.7408067" lon="9.0779517"><ele>518.1666666666666</ele><time>2026-04-02T08:33:02.001Z</time></trkpt><trkpt lat="44.7409017" lon="9.0779083"><ele>516.0</ele><time>2026-04-02T08:33:03.001Z</time></trkpt><trkpt lat="44.740995" lon="9.077865"><ele>516.0</ele><time>2026-04-02T08:33:04.001Z</time></trkpt><trkpt lat="44.741075" lon="9.0778367"><ele>516.0</ele><time>2026-04-02T08:33:05.001Z</time></trkpt><trkpt lat="44.7411417" lon="9.0778067"><ele>516.0</ele><time>2026-04-02T08:33:06.001Z</time></trkpt><trkpt lat="44.7412167" lon="9.0777417"><ele>516.0</ele><time>2026-04-02T08:33:08.001Z</time></trkpt><trkpt lat="44.7411567" lon="9.0777067"><ele>516.0</ele><time>2026-04-02T08:33:10Z</time></trkpt><trkpt lat="44.7410867" lon="9.0777183"><ele>516.0</ele><time>2026-04-02T08:33:11.001Z</time></trkpt><trkpt lat="44.740995" lon="9.07774"><ele>516.0</ele><time>2026-04-02T08:33:12.001Z</time></trkpt><trkpt lat="44.7408917" lon="9.0777383"><ele>516.0</ele><time>2026-04-02T08:33:13Z</time></trkpt><trkpt lat="44.7407817" lon="9.0777183"><ele>516.0</ele><time>2026-04-02T08:33:14.001Z</time></trkpt><trkpt lat="44.74068" lon="9.0776883"><ele>516.0</ele><time>2026-04-02T08:33:15Z</time></trkpt><trkpt lat="44.7405717" lon="9.0776533"><ele>516.0</ele><time>2026-04-02T08:33:16.001Z</time></trkpt><trkpt lat="44.74047" lon="9.07764"><ele>516.0</ele><time>2026-04-02T08:33:17.001Z</time></trkpt><trkpt lat="44.74037" lon="9.0776433"><ele>516.0</ele><time>2026-04-02T08:33:18Z</time></trkpt><trkpt lat="44.7402633" lon="9.0776617"><ele>516.0</ele><time>2026-04-02T08:33:19Z</time></trkpt><trkpt lat="44.740185" lon="9.0776733"><ele>516.0</ele><time>2026-04-02T08:33:20Z</time></trkpt><trkpt lat="44.7400967" lon="9.0776667"><ele>516.0</ele><time>2026-04-02T08:33:22.001Z</time></trkpt><trkpt lat="44.7401217" lon="9.0775483"><ele>516.0</ele><time>2026-04-02T08:33:25.001Z</time></trkpt><trkpt lat="44.74022" lon="9.0775"><ele>516.0</ele><time>2026-04-02T08:33:27.001Z</time></trkpt><trkpt lat="44.740285" lon="9.0774833"><ele>516.0</ele><time>2026-04-02T08:33:28.001Z</time></trkpt><trkpt lat="44.740355" lon="9.0774533"><ele>516.0</ele><time>2026-04-02T08:33:29Z</time></trkpt><trkpt lat="44.740435" lon="9.0774283"><ele>516.0</ele><time>2026-04-02T08:33:30Z</time></trkpt><trkpt lat="44.7405183" lon="9.077395"><ele>516.0</ele><time>2026-04-02T08:33:31.001Z</time></trkpt><trkpt lat="44.7405883" lon="9.0773517"><ele>515.5</ele><time>2026-04-02T08:33:32.001Z</time></trkpt><trkpt lat="44.7406333" lon="9.077285"><ele>515.0</ele><time>2026-04-02T08:33:33.001Z</time></trkpt><trkpt lat="44.74067" lon="9.07713"><ele>514.5</ele><time>2026-04-02T08:33:35.001Z</time></trkpt><trkpt lat="44.7406517" lon="9.07704"><ele>514.0</ele><time>2026-04-02T08:33:36.001Z</time></trkpt><trkpt lat="44.7406133" lon="9.07695"><ele>513.5</ele><time>2026-04-02T08:33:37.001Z</time></trkpt><trkpt lat="44.7405667" lon="9.076835"><ele>513.0</ele><time>2026-04-02T08:33:38.001Z</time></trkpt><trkpt lat="44.7405167" lon="9.0766833"><ele>514.25</ele><time>2026-04-02T08:33:39.001Z</time></trkpt><trkpt lat="44.7404667" lon="9.07652"><ele>515.5</ele><time>2026-04-02T08:33:40.001Z</time></trkpt><trkpt lat="44.740415" lon="9.07635"><ele>516.75</ele><time>2026-04-02T08:33:41Z</time></trkpt><trkpt lat="44.7403667" lon="9.07619"><ele>518.0</ele><time>2026-04-02T08:33:42.001Z</time></trkpt><trkpt lat="44.740325" lon="9.07606"><ele>518.0</ele><time>2026-04-02T08:33:43.001Z</time></trkpt><trkpt lat="44.7402733" lon="9.07594"><ele>518.0</ele><time>2026-04-02T08:33:44Z</time></trkpt><trkpt lat="44.7402017" lon="9.0758367"><ele>518.0</ele><time>2026-04-02T08:33:45.001Z</time></trkpt><trkpt lat="44.740105" lon="9.0757533"><ele>518.0</ele><time>2026-04-02T08:33:46.001Z</time></trkpt><trkpt lat="44.7400317" lon="9.0756783"><ele>518.0</ele><time>2026-04-02T08:33:47.001Z</time></trkpt><trkpt lat="44.739985" lon="9.0755933"><ele>515.0</ele><time>2026-04-02T08:33:48.001Z</time></trkpt><trkpt lat="44.7399467" lon="9.0754767"><ele>511.99999999999994</ele><time>2026-04-02T08:33:49.001Z</time></trkpt><trkpt lat="44.73995" lon="9.0753583"><ele>508.99999999999994</ele><time>2026-04-02T08:33:50Z</time></trkpt><trkpt lat="44.7399717" lon="9.0752167"><ele>506.0</ele><time>2026-04-02T08:33:51Z</time></trkpt><trkpt lat="44.74" lon="9.0750733"><ele>503.0</ele><time>2026-04-02T08:33:51.999Z</time></trkpt><trkpt lat="44.740025" lon="9.0749217"><ele>502.2</ele><time>2026-04-02T08:33:53Z</time></trkpt><trkpt lat="44.7400517" lon="9.07477"><ele>501.4</ele><time>2026-04-02T08:33:54Z</time></trkpt><trkpt lat="44.7400817" lon="9.074635"><ele>500.59999999999997</ele><time>2026-04-02T08:33:55Z</time></trkpt><trkpt lat="44.7401267" lon="9.07452"><ele>499.79999999999995</ele><time>2026-04-02T08:33:56Z</time></trkpt><trkpt lat="44.7401783" lon="9.0744233"><ele>499.0</ele><time>2026-04-02T08:33:56.999Z</time></trkpt><trkpt lat="44.7402483" lon="9.0743433"><ele>499.6</ele><time>2026-04-02T08:33:58Z</time></trkpt><trkpt lat="44.74033" lon="9.0742633"><ele>500.2</ele><time>2026-04-02T08:33:58.999Z</time></trkpt><trkpt lat="44.7404067" lon="9.074175"><ele>500.80000000000007</ele><time>2026-04-02T08:34:00Z</time></trkpt><trkpt lat="44.7404917" lon="9.0740917"><ele>501.40000000000003</ele><time>2026-04-02T08:34:01Z</time></trkpt><trkpt lat="44.7405717" lon="9.0739967"><ele>502.0</ele><time>2026-04-02T08:34:02Z</time></trkpt><trkpt lat="44.7406533" lon="9.0738983"><ele>502.0</ele><time>2026-04-02T08:34:03Z</time></trkpt><trkpt lat="44.7407367" lon="9.0737817"><ele>502.00000000000006</ele><time>2026-04-02T08:34:04Z</time></trkpt><trkpt lat="44.7408083" lon="9.0736717"><ele>502.00000000000006</ele><time>2026-04-02T08:34:05Z</time></trkpt><trkpt lat="44.7408683" lon="9.073545"><ele>502.0</ele><time>2026-04-02T08:34:06Z</time></trkpt><trkpt lat="44.74093" lon="9.0734333"><ele>502.0</ele><time>2026-04-02T08:34:07Z</time></trkpt><trkpt lat="44.7409833" lon="9.0733117"><ele>501.40000000000003</ele><time>2026-04-02T08:34:07.999Z</time></trkpt><trkpt lat="44.7410367" lon="9.0731817"><ele>500.80000000000007</ele><time>2026-04-02T08:34:09Z</time></trkpt><trkpt lat="44.7410733" lon="9.0730533"><ele>500.2</ele><time>2026-04-02T08:34:10Z</time></trkpt><trkpt lat="44.7410967" lon="9.07293"><ele>499.6</ele><time>2026-04-02T08:34:11Z</time></trkpt><trkpt lat="44.7411067" lon="9.07282"><ele>499.0</ele><time>2026-04-02T08:34:11.999Z</time></trkpt><trkpt lat="44.74108" lon="9.0727183"><ele>499.00000000000006</ele><time>2026-04-02T08:34:12.999Z</time></trkpt><trkpt lat="44.74103" lon="9.0726283"><ele>499.0</ele><time>2026-04-02T08:34:14Z</time></trkpt><trkpt lat="44.7409583" lon="9.0725717"><ele>499.0</ele><time>2026-04-02T08:34:15Z</time></trkpt><trkpt lat="44.7408667" lon="9.0725367"><ele>499.0</ele><time>2026-04-02T08:34:16Z</time></trkpt><trkpt lat="44.7407733" lon="9.0725"><ele>499.00000000000006</ele><time>2026-04-02T08:34:16.999Z</time></trkpt><trkpt lat="44.740695" lon="9.0724617"><ele>499.0</ele><time>2026-04-02T08:34:18Z</time></trkpt><trkpt lat="44.74063" lon="9.0723617"><ele>500.00000000000006</ele><time>2026-04-02T08:34:19.999Z</time></trkpt><trkpt lat="44.7406667" lon="9.0722683"><ele>501.0</ele><time>2026-04-02T08:34:22.999Z</time></trkpt><trkpt lat="44.7407367" lon="9.0722267"><ele>502.0</ele><time>2026-04-02T08:34:25Z</time></trkpt><trkpt lat="44.74084" lon="9.072185"><ele>503.0</ele><time>2026-04-02T08:34:27Z</time></trkpt><trkpt lat="44.7409017" lon="9.0721583"><ele>504.00000000000006</ele><time>2026-04-02T08:34:28Z</time></trkpt><trkpt lat="44.7409667" lon="9.0721183"><ele>505.0</ele><time>2026-04-02T08:34:29Z</time></trkpt><trkpt lat="44.7410417" lon="9.0720767"><ele>507.50000000000006</ele><time>2026-04-02T08:34:30Z</time></trkpt><trkpt lat="44.74112" lon="9.07204"><ele>510.0</ele><time>2026-04-02T08:34:31Z</time></trkpt><trkpt lat="44.7412017" lon="9.0719983"><ele>512.5</ele><time>2026-04-02T08:34:32Z</time></trkpt><trkpt lat="44.741265" lon="9.0719433"><ele>515.0</ele><time>2026-04-02T08:34:33Z</time></trkpt><trkpt lat="44.7413017" lon="9.071785"><ele>517.5</ele><time>2026-04-02T08:34:35Z</time></trkpt><trkpt lat="44.7412817" lon="9.0716983"><ele>520.0</ele><time>2026-04-02T08:34:36Z</time></trkpt><trkpt lat="44.7412433" lon="9.0716217"><ele>521.8</ele><time>2026-04-02T08:34:37Z</time></trkpt><trkpt lat="44.7411933" lon="9.071535"><ele>523.6</ele><time>2026-04-02T08:34:38Z</time></trkpt><trkpt lat="44.7411433" lon="9.0714433"><ele>525.4</ele><time>2026-04-02T08:34:38.999Z</time></trkpt><trkpt lat="44.7410967" lon="9.0713383"><ele>527.2</ele><time>2026-04-02T08:34:40Z</time></trkpt><trkpt lat="44.74105" lon="9.0712117"><ele>529.0</ele><time>2026-04-02T08:34:41Z</time></trkpt><trkpt lat="44.74102" lon="9.0710667"><ele>526.25</ele><time>2026-04-02T08:34:42Z</time></trkpt><trkpt lat="44.740995" lon="9.0709167"><ele>523.5</ele><time>2026-04-02T08:34:43Z</time></trkpt><trkpt lat="44.7409717" lon="9.0707583"><ele>520.75</ele><time>2026-04-02T08:34:44Z</time></trkpt><trkpt lat="44.74094" lon="9.0706"><ele>518.0</ele><time>2026-04-02T08:34:45Z</time></trkpt><trkpt lat="44.7408967" lon="9.0704267"><ele>518.0</ele><time>2026-04-02T08:34:46Z</time></trkpt><trkpt lat="44.740855" lon="9.070255"><ele>518.0</ele><time>2026-04-02T08:34:47Z</time></trkpt><trkpt lat="44.7408217" lon="9.0700883"><ele>518.0</ele><time>2026-04-02T08:34:48Z</time></trkpt><trkpt lat="44.7407917" lon="9.0699283"><ele>518.0</ele><time>2026-04-02T08:34:48.999Z</time></trkpt><trkpt lat="44.7407667" lon="9.06978"><ele>519.75</ele><time>2026-04-02T08:34:50Z</time></trkpt><trkpt lat="44.7407483" lon="9.0696167"><ele>521.5</ele><time>2026-04-02T08:34:51Z</time></trkpt><trkpt lat="44.7407483" lon="9.0694517"><ele>523.25</ele><time>2026-04-02T08:34:51.999Z</time></trkpt><trkpt lat="44.740785" lon="9.0692883"><ele>525.0</ele><time>2026-04-02T08:34:53Z</time></trkpt><trkpt lat="44.7408383" lon="9.0691367"><ele>526.0</ele><time>2026-04-02T08:34:54Z</time></trkpt><trkpt lat="44.7409033" lon="9.06898"><ele>527.0</ele><time>2026-04-02T08:34:55Z</time></trkpt><trkpt lat="44.7409733" lon="9.068825"><ele>528.0</ele><time>2026-04-02T08:34:56Z</time></trkpt><trkpt lat="44.7410367" lon="9.06868"><ele>529.0</ele><time>2026-04-02T08:34:57Z</time></trkpt><trkpt lat="44.74106" lon="9.0685367"><ele>529.0</ele><time>2026-04-02T08:34:57.999Z</time></trkpt><trkpt lat="44.7410567" lon="9.0684067"><ele>529.0</ele><time>2026-04-02T08:34:58.999Z</time></trkpt><trkpt lat="44.7410267" lon="9.0682933"><ele>529.0</ele><time>2026-04-02T08:35:00Z</time></trkpt><trkpt lat="44.74098" lon="9.0681983"><ele>529.0</ele><time>2026-04-02T08:35:01Z</time></trkpt><trkpt lat="44.7409133" lon="9.0680967"><ele>529.0</ele><time>2026-04-02T08:35:02Z</time></trkpt><trkpt lat="44.7408667" lon="9.0679683"><ele>530.0</ele><time>2026-04-02T08:35:03Z</time></trkpt><trkpt lat="44.7408333" lon="9.067825"><ele>531.0</ele><time>2026-04-02T08:35:04Z</time></trkpt><trkpt lat="44.740825" lon="9.06766"><ele>532.0</ele><time>2026-04-02T08:35:05Z</time></trkpt><trkpt lat="44.7408267" lon="9.0674833"><ele>533.0</ele><time>2026-04-02T08:35:06Z</time></trkpt><trkpt lat="44.74083" lon="9.0673117"><ele>533.0</ele><time>2026-04-02T08:35:07Z</time></trkpt><trkpt lat="44.7408367" lon="9.0671433"><ele>533.0</ele><time>2026-04-02T08:35:08Z</time></trkpt><trkpt lat="44.7408533" lon="9.0669767"><ele>533.0</ele><time>2026-04-02T08:35:09Z</time></trkpt><trkpt lat="44.7408567" lon="9.06683"><ele>533.0</ele><time>2026-04-02T08:35:10Z</time></trkpt><trkpt lat="44.7408817" lon="9.0667433"><ele>533.0</ele><time>2026-04-02T08:35:11Z</time></trkpt><trkpt lat="44.740955" lon="9.0666667"><ele>533.0</ele><time>2026-04-02T08:35:12.999Z</time></trkpt><trkpt lat="44.7410083" lon="9.066715"><ele>533.0</ele><time>2026-04-02T08:35:14Z</time></trkpt><trkpt lat="44.7410583" lon="9.0667933"><ele>533.0</ele><time>2026-04-02T08:35:15Z</time></trkpt><trkpt lat="44.7410917" lon="9.0668767"><ele>533.0</ele><time>2026-04-02T08:35:16Z</time></trkpt><trkpt lat="44.7411" lon="9.066985"><ele>533.0</ele><time>2026-04-02T08:35:17Z</time></trkpt><trkpt lat="44.7410917" lon="9.0671"><ele>533.0</ele><time>2026-04-02T08:35:18Z</time></trkpt><trkpt lat="44.74107" lon="9.0672083"><ele>533.0</ele><time>2026-04-02T08:35:19Z</time></trkpt><trkpt lat="44.7410483" lon="9.067325"><ele>533.0</ele><time>2026-04-02T08:35:20Z</time></trkpt><trkpt lat="44.7410417" lon="9.0674233"><ele>533.0</ele><time>2026-04-02T08:35:21Z</time></trkpt><trkpt lat="44.7410633" lon="9.0675133"><ele>533.0</ele><time>2026-04-02T08:35:22Z</time></trkpt><trkpt lat="44.7411583" lon="9.067665"><ele>533.0</ele><time>2026-04-02T08:35:23.999Z</time></trkpt><trkpt lat="44.7412267" lon="9.0677433"><ele>533.0</ele><time>2026-04-02T08:35:25Z</time></trkpt><trkpt lat="44.7412967" lon="9.06783"><ele>538.0</ele><time>2026-04-02T08:35:26Z</time></trkpt><trkpt lat="44.7413783" lon="9.06792"><ele>543.0</ele><time>2026-04-02T08:35:27Z</time></trkpt><trkpt lat="44.741455" lon="9.0679983"><ele>548.0</ele><time>2026-04-02T08:35:28Z</time></trkpt><trkpt lat="44.7415317" lon="9.0680433"><ele>553.0</ele><time>2026-04-02T08:35:29Z</time></trkpt><trkpt lat="44.7416117" lon="9.068"><ele>558.0</ele><time>2026-04-02T08:35:31Z</time></trkpt><trkpt lat="44.7415967" lon="9.0678833"><ele>558.0</ele><time>2026-04-02T08:35:33Z</time></trkpt><trkpt lat="44.74156" lon="9.067805"><ele>558.0</ele><time>2026-04-02T08:35:34Z</time></trkpt><trkpt lat="44.7415017" lon="9.0677183"><ele>558.0</ele><time>2026-04-02T08:35:34.999Z</time></trkpt><trkpt lat="44.7414517" lon="9.06762"><ele>558.0</ele><time>2026-04-02T08:35:35.999Z</time></trkpt><trkpt lat="44.7414083" lon="9.0675067"><ele>558.0</ele><time>2026-04-02T08:35:37Z</time></trkpt><trkpt lat="44.7413917" lon="9.0673883"><ele>558.0</ele><time>2026-04-02T08:35:38Z</time></trkpt><trkpt lat="44.7413967" lon="9.067265"><ele>557.3333333333334</ele><time>2026-04-02T08:35:39Z</time></trkpt><trkpt lat="44.7414183" lon="9.0671483"><ele>556.6666666666666</ele><time>2026-04-02T08:35:40Z</time></trkpt><trkpt lat="44.7414717" lon="9.0670617"><ele>556.0</ele><time>2026-04-02T08:35:41Z</time></trkpt><trkpt lat="44.7415317" lon="9.0669933"><ele>555.3333333333333</ele><time>2026-04-02T08:35:42Z</time></trkpt><trkpt lat="44.741615" lon="9.06696"><ele>554.6666666666666</ele><time>2026-04-02T08:35:43Z</time></trkpt><trkpt lat="44.7416983" lon="9.06694"><ele>554.0</ele><time>2026-04-02T08:35:44Z</time></trkpt><trkpt lat="44.7417867" lon="9.066955"><ele>554.0</ele><time>2026-04-02T08:35:45Z</time></trkpt><trkpt lat="44.74187" lon="9.0669667"><ele>554.0</ele><time>2026-04-02T08:35:46Z</time></trkpt><trkpt lat="44.74194" lon="9.067"><ele>554.0</ele><time>2026-04-02T08:35:46.999Z</time></trkpt><trkpt lat="44.7419917" lon="9.067055"><ele>554.0</ele><time>2026-04-02T08:35:48Z</time></trkpt><trkpt lat="44.742045" lon="9.067125"><ele>554.0</ele><time>2026-04-02T08:35:49Z</time></trkpt><trkpt lat="44.7420933" lon="9.0672033"><ele>554.0</ele><time>2026-04-02T08:35:50Z</time></trkpt><trkpt lat="44.742145" lon="9.0672883"><ele>554.0</ele><time>2026-04-02T08:35:50.999Z</time></trkpt><trkpt lat="44.7421967" lon="9.0673767"><ele>556.0</ele><time>2026-04-02T08:35:52Z</time></trkpt><trkpt lat="44.7422467" lon="9.0674717"><ele>558.0</ele><time>2026-04-02T08:35:53Z</time></trkpt><trkpt lat="44.7423083" lon="9.06758"><ele>560.0</ele><time>2026-04-02T08:35:54Z</time></trkpt><trkpt lat="44.7423683" lon="9.0676967"><ele>562.0</ele><time>2026-04-02T08:35:55Z</time></trkpt><trkpt lat="44.7424317" lon="9.067825"><ele>564.0</ele><time>2026-04-02T08:35:55.999Z</time></trkpt><trkpt lat="44.7425067" lon="9.0679433"><ele>564.0</ele><time>2026-04-02T08:35:57Z</time></trkpt><trkpt lat="44.7425783" lon="9.0680667"><ele>564.0</ele><time>2026-04-02T08:35:57.999Z</time></trkpt><trkpt lat="44.742635" lon="9.068185"><ele>564.0</ele><time>2026-04-02T08:35:59Z</time></trkpt><trkpt lat="44.7426917" lon="9.0682983"><ele>564.0</ele><time>2026-04-02T08:35:59.999Z</time></trkpt><trkpt lat="44.742765" lon="9.0684067"><ele>564.0</ele><time>2026-04-02T08:36:01Z</time></trkpt><trkpt lat="44.7428517" lon="9.0684867"><ele>567.0</ele><time>2026-04-02T08:36:02Z</time></trkpt><trkpt lat="44.7429383" lon="9.06853"><ele>570.0</ele><time>2026-04-02T08:36:03Z</time></trkpt><trkpt lat="44.7430217" lon="9.0685467"><ele>573.0</ele><time>2026-04-02T08:36:03.999Z</time></trkpt><trkpt lat="44.7431117" lon="9.06854"><ele>576.0</ele><time>2026-04-02T08:36:05Z</time></trkpt><trkpt lat="44.743205" lon="9.0685117"><ele>579.0</ele><time>2026-04-02T08:36:06Z</time></trkpt><trkpt lat="44.7432933" lon="9.0684333"><ele>579.0</ele><time>2026-04-02T08:36:07Z</time></trkpt><trkpt lat="44.743375" lon="9.0683433"><ele>579.0</ele><time>2026-04-02T08:36:08Z</time></trkpt><trkpt lat="44.7434517" lon="9.0682533"><ele>579.0</ele><time>2026-04-02T08:36:09Z</time></trkpt><trkpt lat="44.743525" lon="9.0681633"><ele>579.0</ele><time>2026-04-02T08:36:10Z</time></trkpt><trkpt lat="44.743605" lon="9.068095"><ele>579.0</ele><time>2026-04-02T08:36:11Z</time></trkpt><trkpt lat="44.7436633" lon="9.0680433"><ele>579.0</ele><time>2026-04-02T08:36:12Z</time></trkpt><trkpt lat="44.7437433" lon="9.06808"><ele>579.0</ele><time>2026-04-02T08:36:14Z</time></trkpt><trkpt lat="44.743765" lon="9.0682233"><ele>579.0</ele><time>2026-04-02T08:36:16Z</time></trkpt><trkpt lat="44.7437617" lon="9.06833"><ele>579.0</ele><time>2026-04-02T08:36:17Z</time></trkpt><trkpt lat="44.7437567" lon="9.0684433"><ele>579.0</ele><time>2026-04-02T08:36:18Z</time></trkpt><trkpt lat="44.7437483" lon="9.068565"><ele>579.0</ele><time>2026-04-02T08:36:19Z</time></trkpt><trkpt lat="44.7437383" lon="9.06868"><ele>579.0</ele><time>2026-04-02T08:36:20Z</time></trkpt><trkpt lat="44.7437383" lon="9.0687933"><ele>579.0</ele><time>2026-04-02T08:36:21Z</time></trkpt><trkpt lat="44.7437567" lon="9.068915"><ele>579.0</ele><time>2026-04-02T08:36:22Z</time></trkpt><trkpt lat="44.7437817" lon="9.06903"><ele>579.0</ele><time>2026-04-02T08:36:23Z</time></trkpt><trkpt lat="44.7438133" lon="9.0691517"><ele>579.0</ele><time>2026-04-02T08:36:23.999Z</time></trkpt><trkpt lat="44.7438583" lon="9.069275"><ele>579.0</ele><time>2026-04-02T08:36:25Z</time></trkpt><trkpt lat="44.7439133" lon="9.0693933"><ele>582.75</ele><time>2026-04-02T08:36:26Z</time></trkpt><trkpt lat="44.7439833" lon="9.069515"><ele>586.5</ele><time>2026-04-02T08:36:27Z</time></trkpt><trkpt lat="44.7440633" lon="9.06963"><ele>590.25</ele><time>2026-04-02T08:36:28Z</time></trkpt><trkpt lat="44.74415" lon="9.06974"><ele>594.0</ele><time>2026-04-02T08:36:29Z</time></trkpt><trkpt lat="44.74425" lon="9.0698317"><ele>594.0</ele><time>2026-04-02T08:36:30Z</time></trkpt><trkpt lat="44.7443567" lon="9.069915"><ele>594.0</ele><time>2026-04-02T08:36:31Z</time></trkpt><trkpt lat="44.74447" lon="9.0699883"><ele>594.0</ele><time>2026-04-02T08:36:32Z</time></trkpt><trkpt lat="44.7445717" lon="9.0700683"><ele>594.0</ele><time>2026-04-02T08:36:33Z</time></trkpt><trkpt lat="44.7446733" lon="9.070175"><ele>595.0</ele><time>2026-04-02T08:36:33.999Z</time></trkpt><trkpt lat="44.7447517" lon="9.0703117"><ele>596.0</ele><time>2026-04-02T08:36:35Z</time></trkpt><trkpt lat="44.744825" lon="9.0704583"><ele>597.0</ele><time>2026-04-02T08:36:36Z</time></trkpt><trkpt lat="44.7448967" lon="9.0705967"><ele>598.0</ele><time>2026-04-02T08:36:36.999Z</time></trkpt><trkpt lat="44.74498" lon="9.070715"><ele>598.8333333333334</ele><time>2026-04-02T08:36:37.999Z</time></trkpt><trkpt lat="44.74506" lon="9.0708133"><ele>599.6666666666667</ele><time>2026-04-02T08:36:38.999Z</time></trkpt><trkpt lat="44.7451333" lon="9.07088"><ele>600.5</ele><time>2026-04-02T08:36:40Z</time></trkpt><trkpt lat="44.7452017" lon="9.070905"><ele>601.3333333333334</ele><time>2026-04-02T08:36:41Z</time></trkpt><trkpt lat="44.7452733" lon="9.0709117"><ele>602.1666666666666</ele><time>2026-04-02T08:36:42Z</time></trkpt><trkpt lat="44.74535" lon="9.0708883"><ele>603.0</ele><time>2026-04-02T08:36:43Z</time></trkpt><trkpt lat="44.7454283" lon="9.070835"><ele>603.25</ele><time>2026-04-02T08:36:44Z</time></trkpt><trkpt lat="44.7455183" lon="9.0707583"><ele>603.5</ele><time>2026-04-02T08:36:45Z</time></trkpt><trkpt lat="44.745615" lon="9.0706717"><ele>603.75</ele><time>2026-04-02T08:36:45.999Z</time></trkpt><trkpt lat="44.7457083" lon="9.0705767"><ele>604.0</ele><time>2026-04-02T08:36:47Z</time></trkpt><trkpt lat="44.7458317" lon="9.070495"><ele>604.0</ele><time>2026-04-02T08:36:48Z</time></trkpt><trkpt lat="44.7459483" lon="9.0704"><ele>604.0</ele><time>2026-04-02T08:36:49Z</time></trkpt><trkpt lat="44.7460683" lon="9.0703033"><ele>604.0</ele><time>2026-04-02T08:36:50Z</time></trkpt><trkpt lat="44.7461883" lon="9.0701983"><ele>604.0</ele><time>2026-04-02T08:36:51Z</time></trkpt><trkpt lat="44.7462967" lon="9.0700933"><ele>604.5</ele><time>2026-04-02T08:36:51.999Z</time></trkpt><trkpt lat="44.7464017" lon="9.0699917"><ele>605.0</ele><time>2026-04-02T08:36:53Z</time></trkpt><trkpt lat="44.746505" lon="9.0698883"><ele>605.5</ele><time>2026-04-02T08:36:54Z</time></trkpt><trkpt lat="44.746595" lon="9.0697817"><ele>606.0</ele><time>2026-04-02T08:36:55Z</time></trkpt><trkpt lat="44.7466917" lon="9.06968"><ele>606.0</ele><time>2026-04-02T08:36:56Z</time></trkpt><trkpt lat="44.7467917" lon="9.069585"><ele>606.0</ele><time>2026-04-02T08:36:57Z</time></trkpt><trkpt lat="44.74689" lon="9.0694817"><ele>606.0</ele><time>2026-04-02T08:36:57.999Z</time></trkpt><trkpt lat="44.74698" lon="9.0693867"><ele>606.0</ele><time>2026-04-02T08:36:59Z</time></trkpt><trkpt lat="44.74707" lon="9.06929"><ele>607.0</ele><time>2026-04-02T08:37:00Z</time></trkpt><trkpt lat="44.74717" lon="9.0691967"><ele>608.0</ele><time>2026-04-02T08:37:01Z</time></trkpt><trkpt lat="44.7472633" lon="9.0690967"><ele>609.0</ele><time>2026-04-02T08:37:02Z</time></trkpt><trkpt lat="44.7473467" lon="9.0689717"><ele>610.0</ele><time>2026-04-02T08:37:02.999Z</time></trkpt><trkpt lat="44.7474367" lon="9.0688517"><ele>610.0</ele><time>2026-04-02T08:37:04Z</time></trkpt><trkpt lat="44.7475117" lon="9.0687167"><ele>610.0</ele><time>2026-04-02T08:37:05Z</time></trkpt><trkpt lat="44.74757" lon="9.06859"><ele>610.0</ele><time>2026-04-02T08:37:06Z</time></trkpt><trkpt lat="44.7476367" lon="9.0684767"><ele>610.0</ele><time>2026-04-02T08:37:07Z</time></trkpt><trkpt lat="44.74771" lon="9.068375"><ele>610.0</ele><time>2026-04-02T08:37:08Z</time></trkpt><trkpt lat="44.7477867" lon="9.0682867"><ele>610.0</ele><time>2026-04-02T08:37:08.999Z</time></trkpt><trkpt lat="44.74788" lon="9.0682117"><ele>610.0</ele><time>2026-04-02T08:37:10Z</time></trkpt><trkpt lat="44.7479833" lon="9.0681483"><ele>610.0</ele><time>2026-04-02T08:37:11Z</time></trkpt><trkpt lat="44.7481067" lon="9.0680917"><ele>610.0</ele><time>2026-04-02T08:37:12Z</time></trkpt><trkpt lat="44.7482317" lon="9.0680217"><ele>610.0</ele><time>2026-04-02T08:37:13Z</time></trkpt><trkpt lat="44.74834" lon="9.067935"><ele>610.0</ele><time>2026-04-02T08:37:13.999Z</time></trkpt><trkpt lat="44.74844" lon="9.0678283"><ele>610.0</ele><time>2026-04-02T08:37:15Z</time></trkpt><trkpt lat="44.7485383" lon="9.0677083"><ele>610.0</ele><time>2026-04-02T08:37:16Z</time></trkpt><trkpt lat="44.7486233" lon="9.0675783"><ele>609.75</ele><time>2026-04-02T08:37:16.999Z</time></trkpt><trkpt lat="44.7487033" lon="9.0674617"><ele>609.5</ele><time>2026-04-02T08:37:18Z</time></trkpt><trkpt lat="44.748775" lon="9.0673467"><ele>609.25</ele><time>2026-04-02T08:37:19Z</time></trkpt><trkpt lat="44.7488483" lon="9.0672267"><ele>609.0</ele><time>2026-04-02T08:37:20Z</time></trkpt><trkpt lat="44.7489117" lon="9.0670933"><ele>609.5</ele><time>2026-04-02T08:37:21Z</time></trkpt><trkpt lat="44.7489817" lon="9.0669717"><ele>610.0</ele><time>2026-04-02T08:37:22Z</time></trkpt><trkpt lat="44.7490583" lon="9.0668533"><ele>610.5</ele><time>2026-04-02T08:37:23Z</time></trkpt><trkpt lat="44.7491417" lon="9.06674"><ele>611.0</ele><time>2026-04-02T08:37:24Z</time></trkpt><trkpt lat="44.749225" lon="9.066635"><ele>610.4</ele><time>2026-04-02T08:37:25Z</time></trkpt><trkpt lat="44.7492967" lon="9.066525"><ele>609.8</ele><time>2026-04-02T08:37:26Z</time></trkpt><trkpt lat="44.749355" lon="9.0664067"><ele>609.1999999999999</ele><time>2026-04-02T08:37:27Z</time></trkpt><trkpt lat="44.7494067" lon="9.066275"><ele>608.6</ele><time>2026-04-02T08:37:28Z</time></trkpt><trkpt lat="44.7494533" lon="9.06613"><ele>608.0</ele><time>2026-04-02T08:37:29Z</time></trkpt><trkpt lat="44.749485" lon="9.0659833"><ele>607.5</ele><time>2026-04-02T08:37:30Z</time></trkpt><trkpt lat="44.74952" lon="9.0658217"><ele>607.0</ele><time>2026-04-02T08:37:31Z</time></trkpt><trkpt lat="44.7495433" lon="9.0656483"><ele>606.5</ele><time>2026-04-02T08:37:32Z</time></trkpt><trkpt lat="44.7495583" lon="9.0654583"><ele>606.0</ele><time>2026-04-02T08:37:33Z</time></trkpt><trkpt lat="44.749565" lon="9.0652683"><ele>606.0</ele><time>2026-04-02T08:37:34Z</time></trkpt><trkpt lat="44.74958" lon="9.065085"><ele>606.0</ele><time>2026-04-02T08:37:35Z</time></trkpt><trkpt lat="44.7496033" lon="9.06491"><ele>606.0</ele><time>2026-04-02T08:37:36Z</time></trkpt><trkpt lat="44.7496333" lon="9.0647533"><ele>606.0</ele><time>2026-04-02T08:37:37Z</time></trkpt><trkpt lat="44.7496817" lon="9.0646117"><ele>606.5</ele><time>2026-04-02T08:37:38Z</time></trkpt><trkpt lat="44.7497333" lon="9.0644733"><ele>607.0</ele><time>2026-04-02T08:37:39Z</time></trkpt><trkpt lat="44.7497817" lon="9.06433"><ele>607.5</ele><time>2026-04-02T08:37:40Z</time></trkpt><trkpt lat="44.74984" lon="9.06419"><ele>608.0</ele><time>2026-04-02T08:37:41Z</time></trkpt><trkpt lat="44.7499033" lon="9.064035"><ele>606.0</ele><time>2026-04-02T08:37:41.999Z</time></trkpt><trkpt lat="44.7499617" lon="9.0638867"><ele>604.0</ele><time>2026-04-02T08:37:43Z</time></trkpt><trkpt lat="44.7500217" lon="9.063745"><ele>602.0</ele><time>2026-04-02T08:37:44Z</time></trkpt><trkpt lat="44.7500767" lon="9.0636267"><ele>600.0</ele><time>2026-04-02T08:37:45Z</time></trkpt><trkpt lat="44.7501233" lon="9.0635283"><ele>598.0</ele><time>2026-04-02T08:37:46Z</time></trkpt><trkpt lat="44.7502033" lon="9.0633817"><ele>598.1999999999999</ele><time>2026-04-02T08:37:48Z</time></trkpt><trkpt lat="44.7502683" lon="9.0632967"><ele>598.4</ele><time>2026-04-02T08:37:49Z</time></trkpt><trkpt lat="44.7503417" lon="9.0631967"><ele>598.5999999999999</ele><time>2026-04-02T08:37:50Z</time></trkpt><trkpt lat="44.7504117" lon="9.063075"><ele>598.8</ele><time>2026-04-02T08:37:51Z</time></trkpt><trkpt lat="44.7504767" lon="9.062945"><ele>599.0</ele><time>2026-04-02T08:37:52Z</time></trkpt><trkpt lat="44.7505283" lon="9.0628"><ele>598.4</ele><time>2026-04-02T08:37:53Z</time></trkpt><trkpt lat="44.750585" lon="9.0626767"><ele>597.8</ele><time>2026-04-02T08:37:54Z</time></trkpt><trkpt lat="44.75065" lon="9.0625767"><ele>597.2</ele><time>2026-04-02T08:37:55Z</time></trkpt><trkpt lat="44.7507383" lon="9.062505"><ele>596.6</ele><time>2026-04-02T08:37:56Z</time></trkpt><trkpt lat="44.7508317" lon="9.06242"><ele>596.0</ele><time>2026-04-02T08:37:57Z</time></trkpt><trkpt lat="44.750935" lon="9.0623183"><ele>595.5</ele><time>2026-04-02T08:37:58Z</time></trkpt><trkpt lat="44.7510283" lon="9.0621833"><ele>595.0</ele><time>2026-04-02T08:37:59Z</time></trkpt><trkpt lat="44.7511183" lon="9.0620467"><ele>594.5</ele><time>2026-04-02T08:38:00Z</time></trkpt><trkpt lat="44.7512067" lon="9.0619067"><ele>594.0</ele><time>2026-04-02T08:38:01Z</time></trkpt><trkpt lat="44.7513017" lon="9.061765"><ele>592.0</ele><time>2026-04-02T08:38:02Z</time></trkpt><trkpt lat="44.7513717" lon="9.06163"><ele>590.0</ele><time>2026-04-02T08:38:02.999Z</time></trkpt><trkpt lat="44.751425" lon="9.061485"><ele>588.0</ele><time>2026-04-02T08:38:04Z</time></trkpt><trkpt lat="44.7514733" lon="9.061335"><ele>586.0</ele><time>2026-04-02T08:38:05Z</time></trkpt><trkpt lat="44.7515417" lon="9.0611983"><ele>586.0</ele><time>2026-04-02T08:38:06Z</time></trkpt><trkpt lat="44.7516167" lon="9.061085"><ele>586.0</ele><time>2026-04-02T08:38:06.999Z</time></trkpt><trkpt lat="44.75171" lon="9.0610017"><ele>586.0</ele><time>2026-04-02T08:38:08Z</time></trkpt><trkpt lat="44.7518183" lon="9.060945"><ele>586.0</ele><time>2026-04-02T08:38:09Z</time></trkpt><trkpt lat="44.7519167" lon="9.0609083"><ele>586.0</ele><time>2026-04-02T08:38:10Z</time></trkpt><trkpt lat="44.75201" lon="9.0608783"><ele>585.3333333333334</ele><time>2026-04-02T08:38:11Z</time></trkpt><trkpt lat="44.7520983" lon="9.0608283"><ele>584.6666666666667</ele><time>2026-04-02T08:38:11.999Z</time></trkpt><trkpt lat="44.752175" lon="9.0607617"><ele>584.0</ele><time>2026-04-02T08:38:13Z</time></trkpt><trkpt lat="44.7522417" lon="9.0606867"><ele>583.3333333333334</ele><time>2026-04-02T08:38:14Z</time></trkpt><trkpt lat="44.7523083" lon="9.0606133"><ele>582.6666666666666</ele><time>2026-04-02T08:38:14.999Z</time></trkpt><trkpt lat="44.7523867" lon="9.0605433"><ele>582.0</ele><time>2026-04-02T08:38:16Z</time></trkpt><trkpt lat="44.752475" lon="9.0604867"><ele>581.4</ele><time>2026-04-02T08:38:17Z</time></trkpt><trkpt lat="44.7525733" lon="9.0604583"><ele>580.8000000000001</ele><time>2026-04-02T08:38:18Z</time></trkpt><trkpt lat="44.7526833" lon="9.0604433"><ele>580.2</ele><time>2026-04-02T08:38:19Z</time></trkpt><trkpt lat="44.7527967" lon="9.060425"><ele>579.6</ele><time>2026-04-02T08:38:20Z</time></trkpt><trkpt lat="44.7529183" lon="9.0603967"><ele>579.0</ele><time>2026-04-02T08:38:20.999Z</time></trkpt><trkpt lat="44.7530417" lon="9.0603667"><ele>579.0</ele><time>2026-04-02T08:38:22Z</time></trkpt><trkpt lat="44.7531633" lon="9.0603283"><ele>579.0</ele><time>2026-04-02T08:38:23Z</time></trkpt><trkpt lat="44.7532817" lon="9.0602883"><ele>579.0</ele><time>2026-04-02T08:38:24Z</time></trkpt><trkpt lat="44.7533983" lon="9.0602517"><ele>579.0</ele><time>2026-04-02T08:38:25Z</time></trkpt><trkpt lat="44.753515" lon="9.0602017"><ele>579.75</ele><time>2026-04-02T08:38:26Z</time></trkpt><trkpt lat="44.753625" lon="9.060145"><ele>580.5</ele><time>2026-04-02T08:38:27Z</time></trkpt><trkpt lat="44.7537317" lon="9.0600833"><ele>581.25</ele><time>2026-04-02T08:38:28Z</time></trkpt><trkpt lat="44.753835" lon="9.06001"><ele>582.0</ele><time>2026-04-02T08:38:29Z</time></trkpt><trkpt lat="44.75394" lon="9.059945"><ele>582.0</ele><time>2026-04-02T08:38:30Z</time></trkpt><trkpt lat="44.7540483" lon="9.059875"><ele>582.0</ele><time>2026-04-02T08:38:31Z</time></trkpt><trkpt lat="44.7541517" lon="9.059805"><ele>582.0</ele><time>2026-04-02T08:38:32Z</time></trkpt><trkpt lat="44.754225" lon="9.0597333"><ele>582.0</ele><time>2026-04-02T08:38:33Z</time></trkpt><trkpt lat="44.75428" lon="9.0596717"><ele>582.0</ele><time>2026-04-02T08:38:34Z</time></trkpt><trkpt lat="44.7543233" lon="9.0596033"><ele>582.0</ele><time>2026-04-02T08:38:35Z</time></trkpt><trkpt lat="44.7543567" lon="9.0595233"><ele>582.0</ele><time>2026-04-02T08:38:36Z</time></trkpt><trkpt lat="44.7543817" lon="9.059425"><ele>582.0</ele><time>2026-04-02T08:38:37Z</time></trkpt><trkpt lat="44.7544083" lon="9.0593067"><ele>582.0</ele><time>2026-04-02T08:38:37.999Z</time></trkpt><trkpt lat="44.7544367" lon="9.0591683"><ele>582.0</ele><time>2026-04-02T08:38:39Z</time></trkpt><trkpt lat="44.7544683" lon="9.0590183"><ele>582.0</ele><time>2026-04-02T08:38:40Z</time></trkpt><trkpt lat="44.7545083" lon="9.05887"><ele>582.0</ele><time>2026-04-02T08:38:41Z</time></trkpt><trkpt lat="44.7545683" lon="9.05872"><ele>582.0</ele><time>2026-04-02T08:38:41.999Z</time></trkpt><trkpt lat="44.7546467" lon="9.0585833"><ele>582.0</ele><time>2026-04-02T08:38:43Z</time></trkpt><trkpt lat="44.7547283" lon="9.0584483"><ele>582.0</ele><time>2026-04-02T08:38:44Z</time></trkpt><trkpt lat="44.75482" lon="9.05831"><ele>581.75</ele><time>2026-04-02T08:38:45Z</time></trkpt><trkpt lat="44.7549133" lon="9.058165"><ele>581.5</ele><time>2026-04-02T08:38:46Z</time></trkpt><trkpt lat="44.7550167" lon="9.05802"><ele>581.25</ele><time>2026-04-02T08:38:47Z</time></trkpt><trkpt lat="44.7551133" lon="9.05786"><ele>581.0</ele><time>2026-04-02T08:38:48Z</time></trkpt><trkpt lat="44.7552083" lon="9.057695"><ele>581.5</ele><time>2026-04-02T08:38:48.999Z</time></trkpt><trkpt lat="44.7552933" lon="9.0575233"><ele>582.0</ele><time>2026-04-02T08:38:49.999Z</time></trkpt><trkpt lat="44.75538" lon="9.0573633"><ele>582.5</ele><time>2026-04-02T08:38:51Z</time></trkpt><trkpt lat="44.75547" lon="9.057225"><ele>583.0</ele><time>2026-04-02T08:38:52Z</time></trkpt><trkpt lat="44.75556" lon="9.0571233"><ele>583.0</ele><time>2026-04-02T08:38:53Z</time></trkpt><trkpt lat="44.7556383" lon="9.0570533"><ele>583.0</ele><time>2026-04-02T08:38:54Z</time></trkpt><trkpt lat="44.755725" lon="9.0569933"><ele>583.0</ele><time>2026-04-02T08:38:55Z</time></trkpt><trkpt lat="44.755805" lon="9.0569333"><ele>583.0</ele><time>2026-04-02T08:38:56Z</time></trkpt><trkpt lat="44.755885" lon="9.0568733"><ele>583.0</ele><time>2026-04-02T08:38:57Z</time></trkpt><trkpt lat="44.7559667" lon="9.0568217"><ele>583.6</ele><time>2026-04-02T08:38:58Z</time></trkpt><trkpt lat="44.7560583" lon="9.056765"><ele>584.1999999999999</ele><time>2026-04-02T08:38:59Z</time></trkpt><trkpt lat="44.75616" lon="9.0567083"><ele>584.8</ele><time>2026-04-02T08:39:00Z</time></trkpt><trkpt lat="44.7562683" lon="9.0566483"><ele>585.4</ele><time>2026-04-02T08:39:01Z</time></trkpt><trkpt lat="44.7563767" lon="9.0565917"><ele>586.0</ele><time>2026-04-02T08:39:02Z</time></trkpt><trkpt lat="44.7564817" lon="9.0565233"><ele>586.0</ele><time>2026-04-02T08:39:03Z</time></trkpt><trkpt lat="44.7565733" lon="9.0564233"><ele>586.0</ele><time>2026-04-02T08:39:04Z</time></trkpt><trkpt lat="44.7566567" lon="9.0563067"><ele>586.0</ele><time>2026-04-02T08:39:05Z</time></trkpt><trkpt lat="44.75673" lon="9.0561767"><ele>586.0</ele><time>2026-04-02T08:39:06Z</time></trkpt><trkpt lat="44.7567967" lon="9.0560483"><ele>586.0</ele><time>2026-04-02T08:39:07Z</time></trkpt><trkpt lat="44.7568583" lon="9.05592"><ele>586.0</ele><time>2026-04-02T08:39:08Z</time></trkpt><trkpt lat="44.75693" lon="9.055795"><ele>586.0</ele><time>2026-04-02T08:39:09Z</time></trkpt><trkpt lat="44.7570033" lon="9.0556783"><ele>586.0</ele><time>2026-04-02T08:39:10Z</time></trkpt><trkpt lat="44.757075" lon="9.055555"><ele>586.0</ele><time>2026-04-02T08:39:11Z</time></trkpt><trkpt lat="44.757155" lon="9.0554317"><ele>586.75</ele><time>2026-04-02T08:39:12Z</time></trkpt><trkpt lat="44.75723" lon="9.0552967"><ele>587.5</ele><time>2026-04-02T08:39:13Z</time></trkpt><trkpt lat="44.7573183" lon="9.0551683"><ele>588.25</ele><time>2026-04-02T08:39:14Z</time></trkpt><trkpt lat="44.757415" lon="9.055065"><ele>589.0</ele><time>2026-04-02T08:39:14.999Z</time></trkpt><trkpt lat="44.757525" lon="9.0549717"><ele>589.0</ele><time>2026-04-02T08:39:15.999Z</time></trkpt><trkpt lat="44.757635" lon="9.054875"><ele>589.0</ele><time>2026-04-02T08:39:17Z</time></trkpt><trkpt lat="44.7577333" lon="9.054765"><ele>589.0</ele><time>2026-04-02T08:39:18Z</time></trkpt><trkpt lat="44.75783" lon="9.0546617"><ele>589.0</ele><time>2026-04-02T08:39:19Z</time></trkpt><trkpt lat="44.7579183" lon="9.05454"><ele>589.0</ele><time>2026-04-02T08:39:20Z</time></trkpt><trkpt lat="44.7580217" lon="9.0544367"><ele>589.0</ele><time>2026-04-02T08:39:21Z</time></trkpt><trkpt lat="44.7581233" lon="9.0543467"><ele>589.0</ele><time>2026-04-02T08:39:22Z</time></trkpt><trkpt lat="44.7582333" lon="9.05427"><ele>589.0</ele><time>2026-04-02T08:39:23Z</time></trkpt><trkpt lat="44.7583467" lon="9.054205"><ele>589.0</ele><time>2026-04-02T08:39:24Z</time></trkpt><trkpt lat="44.75847" lon="9.0541467"><ele>589.0</ele><time>2026-04-02T08:39:25Z</time></trkpt><trkpt lat="44.7585967" lon="9.0540917"><ele>589.0</ele><time>2026-04-02T08:39:26Z</time></trkpt><trkpt lat="44.7587267" lon="9.054045"><ele>589.0</ele><time>2026-04-02T08:39:26.999Z</time></trkpt><trkpt lat="44.75885" lon="9.0539967"><ele>588.25</ele><time>2026-04-02T08:39:28Z</time></trkpt><trkpt lat="44.7589683" lon="9.0539533"><ele>587.5</ele><time>2026-04-02T08:39:29Z</time></trkpt><trkpt lat="44.75908" lon="9.0539083"><ele>586.75</ele><time>2026-04-02T08:39:29.999Z</time></trkpt><trkpt lat="44.7591967" lon="9.0538433"><ele>586.0</ele><time>2026-04-02T08:39:31Z</time></trkpt><trkpt lat="44.759295" lon="9.053765"><ele>589.0</ele><time>2026-04-02T08:39:31.999Z</time></trkpt><trkpt lat="44.7593817" lon="9.05367"><ele>592.0</ele><time>2026-04-02T08:39:33Z</time></trkpt><trkpt lat="44.75947" lon="9.0535583"><ele>595.0</ele><time>2026-04-02T08:39:34Z</time></trkpt><trkpt lat="44.7595483" lon="9.0534333"><ele>598.0</ele><time>2026-04-02T08:39:35Z</time></trkpt><trkpt lat="44.75962" lon="9.0533067"><ele>597.0</ele><time>2026-04-02T08:39:36Z</time></trkpt><trkpt lat="44.7597017" lon="9.0531633"><ele>596.0</ele><time>2026-04-02T08:39:37Z</time></trkpt><trkpt lat="44.7597883" lon="9.0530417"><ele>595.0</ele><time>2026-04-02T08:39:38Z</time></trkpt><trkpt lat="44.7598717" lon="9.0529217"><ele>594.0</ele><time>2026-04-02T08:39:39Z</time></trkpt><trkpt lat="44.75996" lon="9.0528083"><ele>594.0</ele><time>2026-04-02T08:39:40Z</time></trkpt><trkpt lat="44.7600417" lon="9.0527183"><ele>594.0</ele><time>2026-04-02T08:39:41Z</time></trkpt><trkpt lat="44.7601267" lon="9.0526383"><ele>594.0</ele><time>2026-04-02T08:39:42Z</time></trkpt><trkpt lat="44.7602167" lon="9.0525917"><ele>594.0</ele><time>2026-04-02T08:39:42.999Z</time></trkpt><trkpt lat="44.7603" lon="9.0525733"><ele>594.0</ele><time>2026-04-02T08:39:44Z</time></trkpt><trkpt lat="44.7603767" lon="9.05258"><ele>596.4</ele><time>2026-04-02T08:39:45Z</time></trkpt><trkpt lat="44.7604567" lon="9.052595"><ele>598.8</ele><time>2026-04-02T08:39:46Z</time></trkpt><trkpt lat="44.7605383" lon="9.0526133"><ele>601.2</ele><time>2026-04-02T08:39:47Z</time></trkpt><trkpt lat="44.76063" lon="9.052635"><ele>603.6</ele><time>2026-04-02T08:39:48Z</time></trkpt><trkpt lat="44.7607317" lon="9.0526467"><ele>606.0</ele><time>2026-04-02T08:39:49Z</time></trkpt><trkpt lat="44.7608233" lon="9.05264"><ele>606.0</ele><time>2026-04-02T08:39:49.999Z</time></trkpt><trkpt lat="44.760905" lon="9.05261"><ele>606.0</ele><time>2026-04-02T08:39:50.999Z</time></trkpt><trkpt lat="44.760975" lon="9.0525883"><ele>606.0</ele><time>2026-04-02T08:39:52Z</time></trkpt><trkpt lat="44.7608967" lon="9.0526033"><ele>606.0</ele><time>2026-04-02T08:40:04Z</time></trkpt><trkpt lat="44.76082" lon="9.05263"><ele>606.0</ele><time>2026-04-02T08:40:07Z</time></trkpt><trkpt lat="44.7607517" lon="9.0526383"><ele>606.0</ele><time>2026-04-02T08:40:26Z</time></trkpt><trkpt lat="44.760685" lon="9.0526417"><ele>606.0</ele><time>2026-04-02T08:40:30Z</time></trkpt><trkpt lat="44.7606167" lon="9.0526333"><ele>606.0</ele><time>2026-04-02T08:40:34Z</time></trkpt><trkpt lat="44.76055" lon="9.0526167"><ele>606.0</ele><time>2026-04-02T08:40:38Z</time></trkpt><trkpt lat="44.7604783" lon="9.0526017"><ele>606.0</ele><time>2026-04-02T08:40:44Z</time></trkpt><trkpt lat="44.7604133" lon="9.0525967"><ele>606.0</ele><time>2026-04-02T08:40:51Z</time></trkpt><trkpt lat="44.7602833" lon="9.0526"><ele>606.0</ele><time>2026-04-02T08:41:04.999Z</time></trkpt><trkpt lat="44.760285" lon="9.0525017"><ele>606.0</ele><time>2026-04-02T08:41:12.999Z</time></trkpt><trkpt lat="44.7603617" lon="9.05238"><ele>606.1666666666666</ele><time>2026-04-02T08:41:14.999Z</time></trkpt><trkpt lat="44.7604167" lon="9.0523017"><ele>606.3333333333334</ele><time>2026-04-02T08:41:15.999Z</time></trkpt><trkpt lat="44.7604733" lon="9.0522133"><ele>606.5</ele><time>2026-04-02T08:41:16.999Z</time></trkpt><trkpt lat="44.760535" lon="9.0521183"><ele>606.6666666666667</ele><time>2026-04-02T08:41:17.999Z</time></trkpt><trkpt lat="44.7605883" lon="9.0520283"><ele>606.8333333333334</ele><time>2026-04-02T08:41:18.999Z</time></trkpt><trkpt lat="44.7606367" lon="9.0519367"><ele>607.0</ele><time>2026-04-02T08:41:19.999Z</time></trkpt><trkpt lat="44.760665" lon="9.0518367"><ele>607.0</ele><time>2026-04-02T08:41:20.999Z</time></trkpt><trkpt lat="44.7606817" lon="9.0517317"><ele>607.0</ele><time>2026-04-02T08:41:21.999Z</time></trkpt><trkpt lat="44.7606783" lon="9.051615"><ele>607.0</ele><time>2026-04-02T08:41:22.999Z</time></trkpt><trkpt lat="44.7606717" lon="9.0514967"><ele>607.0</ele><time>2026-04-02T08:41:23.998Z</time></trkpt><trkpt lat="44.760645" lon="9.051375"><ele>607.0</ele><time>2026-04-02T08:41:24.999Z</time></trkpt><trkpt lat="44.7606083" lon="9.0512517"><ele>607.0</ele><time>2026-04-02T08:41:25.999Z</time></trkpt><trkpt lat="44.7605383" lon="9.0511483"><ele>606.6</ele><time>2026-04-02T08:41:26.999Z</time></trkpt><trkpt lat="44.76046" lon="9.0510283"><ele>606.2</ele><time>2026-04-02T08:41:27.999Z</time></trkpt><trkpt lat="44.7603983" lon="9.050905"><ele>605.8</ele><time>2026-04-02T08:41:28.999Z</time></trkpt><trkpt lat="44.7603467" lon="9.050795"><ele>605.4</ele><time>2026-04-02T08:41:29.999Z</time></trkpt><trkpt lat="44.7602967" lon="9.05069"><ele>605.0</ele><time>2026-04-02T08:41:30.999Z</time></trkpt><trkpt lat="44.7602317" lon="9.0506133"><ele>602.4</ele><time>2026-04-02T08:41:31.999Z</time></trkpt><trkpt lat="44.7601533" lon="9.05054"><ele>599.8</ele><time>2026-04-02T08:41:32.999Z</time></trkpt><trkpt lat="44.7600767" lon="9.0504683"><ele>597.2</ele><time>2026-04-02T08:41:33.999Z</time></trkpt><trkpt lat="44.7600017" lon="9.05038"><ele>594.6</ele><time>2026-04-02T08:41:34.998Z</time></trkpt><trkpt lat="44.759935" lon="9.0502717"><ele>592.0</ele><time>2026-04-02T08:41:35.999Z</time></trkpt><trkpt lat="44.7598817" lon="9.0501583"><ele>592.0</ele><time>2026-04-02T08:41:36.999Z</time></trkpt><trkpt lat="44.7598167" lon="9.0500517"><ele>592.0</ele><time>2026-04-02T08:41:37.998Z</time></trkpt><trkpt lat="44.7597467" lon="9.049965"><ele>592.0</ele><time>2026-04-02T08:41:38.999Z</time></trkpt><trkpt lat="44.7596717" lon="9.0498933"><ele>592.0</ele><time>2026-04-02T08:41:39.999Z</time></trkpt><trkpt lat="44.759595" lon="9.0498133"><ele>592.0</ele><time>2026-04-02T08:41:40.999Z</time></trkpt><trkpt lat="44.759515" lon="9.04973"><ele>591.4</ele><time>2026-04-02T08:41:41.998Z</time></trkpt><trkpt lat="44.7594367" lon="9.0496533"><ele>590.8000000000001</ele><time>2026-04-02T08:41:42.999Z</time></trkpt><trkpt lat="44.7593533" lon="9.0495683"><ele>590.2</ele><time>2026-04-02T08:41:43.999Z</time></trkpt><trkpt lat="44.7592767" lon="9.0494983"><ele>589.6</ele><time>2026-04-02T08:41:44.999Z</time></trkpt><trkpt lat="44.7592033" lon="9.049425"><ele>589.0</ele><time>2026-04-02T08:41:45.999Z</time></trkpt><trkpt lat="44.7591333" lon="9.0493517"><ele>589.0</ele><time>2026-04-02T08:41:46.999Z</time></trkpt><trkpt lat="44.759075" lon="9.0493083"><ele>589.0</ele><time>2026-04-02T08:41:47.999Z</time></trkpt><trkpt lat="44.7590167" lon="9.0492683"><ele>589.0</ele><time>2026-04-02T08:41:48.999Z</time></trkpt><trkpt lat="44.7588933" lon="9.0492217"><ele>589.0</ele><time>2026-04-02T08:41:50.998Z</time></trkpt><trkpt lat="44.7588083" lon="9.0491517"><ele>589.0</ele><time>2026-04-02T08:41:52.999Z</time></trkpt><trkpt lat="44.7587467" lon="9.04899"><ele>589.0</ele><time>2026-04-02T08:41:54.999Z</time></trkpt><trkpt lat="44.7587217" lon="9.0488783"><ele>589.0</ele><time>2026-04-02T08:41:55.999Z</time></trkpt><trkpt lat="44.7586917" lon="9.0487467"><ele>589.0</ele><time>2026-04-02T08:41:56.998Z</time></trkpt><trkpt lat="44.7586617" lon="9.0485883"><ele>589.0</ele><time>2026-04-02T08:41:57.999Z</time></trkpt><trkpt lat="44.75863" lon="9.0484233"><ele>589.0</ele><time>2026-04-02T08:41:58.998Z</time></trkpt><trkpt lat="44.7585883" lon="9.0482517"><ele>589.0</ele><time>2026-04-02T08:41:59.999Z</time></trkpt><trkpt lat="44.75855" lon="9.04806"><ele>589.0</ele><time>2026-04-02T08:42:00.998Z</time></trkpt><trkpt lat="44.758515" lon="9.04788"><ele>589.0</ele><time>2026-04-02T08:42:01.999Z</time></trkpt><trkpt lat="44.758485" lon="9.04772"><ele>589.0</ele><time>2026-04-02T08:42:02.998Z</time></trkpt><trkpt lat="44.7584517" lon="9.0475667"><ele>587.0</ele><time>2026-04-02T08:42:03.999Z</time></trkpt><trkpt lat="44.7584217" lon="9.04742"><ele>585.0</ele><time>2026-04-02T08:42:04.999Z</time></trkpt><trkpt lat="44.7583933" lon="9.0472617"><ele>583.0</ele><time>2026-04-02T08:42:05.999Z</time></trkpt><trkpt lat="44.7583583" lon="9.04713"><ele>581.0</ele><time>2026-04-02T08:42:06.999Z</time></trkpt><trkpt lat="44.7583233" lon="9.0470333"><ele>579.0</ele><time>2026-04-02T08:42:07.999Z</time></trkpt><trkpt lat="44.7582867" lon="9.0469583"><ele>579.0</ele><time>2026-04-02T08:42:08.999Z</time></trkpt><trkpt lat="44.758235" lon="9.0468817"><ele>579.0</ele><time>2026-04-02T08:42:09.999Z</time></trkpt><trkpt lat="44.758185" lon="9.04682"><ele>579.0</ele><time>2026-04-02T08:42:10.999Z</time></trkpt><trkpt lat="44.75811" lon="9.0467083"><ele>579.0</ele><time>2026-04-02T08:42:12.999Z</time></trkpt><trkpt lat="44.7580633" lon="9.0466367"><ele>579.0</ele><time>2026-04-02T08:42:13.999Z</time></trkpt><trkpt lat="44.7580083" lon="9.0465617"><ele>579.0</ele><time>2026-04-02T08:42:14.999Z</time></trkpt><trkpt lat="44.757955" lon="9.0464867"><ele>579.0</ele><time>2026-04-02T08:42:15.999Z</time></trkpt><trkpt lat="44.7579" lon="9.046405"><ele>579.0</ele><time>2026-04-02T08:42:16.999Z</time></trkpt><trkpt lat="44.75784" lon="9.04633"><ele>579.0</ele><time>2026-04-02T08:42:17.999Z</time></trkpt><trkpt lat="44.7577733" lon="9.04626"><ele>579.0</ele><time>2026-04-02T08:42:18.998Z</time></trkpt><trkpt lat="44.7576983" lon="9.0462083"><ele>579.0</ele><time>2026-04-02T08:42:19.998Z</time></trkpt><trkpt lat="44.7576217" lon="9.0461533"><ele>579.0</ele><time>2026-04-02T08:42:20.999Z</time></trkpt><trkpt lat="44.75755" lon="9.0460917"><ele>579.0</ele><time>2026-04-02T08:42:21.998Z</time></trkpt><trkpt lat="44.7574817" lon="9.04604"><ele>579.0</ele><time>2026-04-02T08:42:22.999Z</time></trkpt><trkpt lat="44.7574133" lon="9.0459917"><ele>579.0</ele><time>2026-04-02T08:42:23.999Z</time></trkpt><trkpt lat="44.757355" lon="9.0459333"><ele>579.0</ele><time>2026-04-02T08:42:24.999Z</time></trkpt><trkpt lat="44.7572967" lon="9.0458617"><ele>579.0</ele><time>2026-04-02T08:42:25.998Z</time></trkpt><trkpt lat="44.757245" lon="9.04578"><ele>579.0</ele><time>2026-04-02T08:42:26.999Z</time></trkpt><trkpt lat="44.7571983" lon="9.0457067"><ele>582.0</ele><time>2026-04-02T08:42:27.999Z</time></trkpt><trkpt lat="44.7571417" lon="9.0455983"><ele>585.0</ele><time>2026-04-02T08:42:29.999Z</time></trkpt><trkpt lat="44.7571367" lon="9.045505"><ele>588.0</ele><time>2026-04-02T08:42:31.999Z</time></trkpt><trkpt lat="44.757115" lon="9.0453917"><ele>591.0</ele><time>2026-04-02T08:42:33.998Z</time></trkpt><trkpt lat="44.7570517" lon="9.04529"><ele>594.0</ele><time>2026-04-02T08:42:35.999Z</time></trkpt><trkpt lat="44.75697" lon="9.0451717"><ele>594.0</ele><time>2026-04-02T08:42:37.999Z</time></trkpt><trkpt lat="44.7569217" lon="9.0450817"><ele>594.0</ele><time>2026-04-02T08:42:38.999Z</time></trkpt><trkpt lat="44.7568733" lon="9.0449783"><ele>594.0</ele><time>2026-04-02T08:42:39.999Z</time></trkpt><trkpt lat="44.7568333" lon="9.0448583"><ele>594.0</ele><time>2026-04-02T08:42:40.999Z</time></trkpt><trkpt lat="44.7567983" lon="9.044725"><ele>594.0</ele><time>2026-04-02T08:42:41.999Z</time></trkpt><trkpt lat="44.7567783" lon="9.0445933"><ele>594.75</ele><time>2026-04-02T08:42:42.999Z</time></trkpt><trkpt lat="44.7567783" lon="9.04443"><ele>595.5</ele><time>2026-04-02T08:42:43.999Z</time></trkpt><trkpt lat="44.7567967" lon="9.044265"><ele>596.25</ele><time>2026-04-02T08:42:44.999Z</time></trkpt><trkpt lat="44.75684" lon="9.0441033"><ele>597.0</ele><time>2026-04-02T08:42:45.999Z</time></trkpt><trkpt lat="44.7568933" lon="9.043915"><ele>597.0</ele><time>2026-04-02T08:42:46.999Z</time></trkpt><trkpt lat="44.7569633" lon="9.0437417"><ele>597.0</ele><time>2026-04-02T08:42:47.999Z</time></trkpt><trkpt lat="44.757015" lon="9.0435433"><ele>597.0</ele><time>2026-04-02T08:42:48.998Z</time></trkpt><trkpt lat="44.7570717" lon="9.04334"><ele>597.0</ele><time>2026-04-02T08:42:49.999Z</time></trkpt><trkpt lat="44.7571267" lon="9.0431367"><ele>595.5</ele><time>2026-04-02T08:42:50.999Z</time></trkpt><trkpt lat="44.757175" lon="9.042935"><ele>594.0</ele><time>2026-04-02T08:42:51.999Z</time></trkpt><trkpt lat="44.757215" lon="9.0427267"><ele>592.5</ele><time>2026-04-02T08:42:52.999Z</time></trkpt><trkpt lat="44.7572467" lon="9.0425833"><ele>591.0</ele><time>2026-04-02T08:42:53.999Z</time></trkpt><trkpt lat="44.7572683" lon="9.04247"><ele>591.1666666666666</ele><time>2026-04-02T08:42:54.999Z</time></trkpt><trkpt lat="44.7572867" lon="9.042375"><ele>591.3333333333334</ele><time>2026-04-02T08:42:55.999Z</time></trkpt><trkpt lat="44.7573317" lon="9.0422117"><ele>591.5</ele><time>2026-04-02T08:42:57.999Z</time></trkpt><trkpt lat="44.75737" lon="9.0421367"><ele>591.6666666666667</ele><time>2026-04-02T08:42:58.999Z</time></trkpt><trkpt lat="44.7574167" lon="9.0420767"><ele>591.8333333333334</ele><time>2026-04-02T08:42:59.999Z</time></trkpt><trkpt lat="44.757475" lon="9.0420417"><ele>592.0</ele><time>2026-04-02T08:43:00.999Z</time></trkpt><trkpt lat="44.7575467" lon="9.0420433"><ele>592.0</ele><time>2026-04-02T08:43:01.999Z</time></trkpt><trkpt lat="44.7576233" lon="9.042075"><ele>592.0</ele><time>2026-04-02T08:43:02.999Z</time></trkpt><trkpt lat="44.7577283" lon="9.04213"><ele>592.0</ele><time>2026-04-02T08:43:04.999Z</time></trkpt><trkpt lat="44.7577433" lon="9.04203"><ele>592.0</ele><time>2026-04-02T08:43:08.998Z</time></trkpt><trkpt lat="44.7576683" lon="9.0419867"><ele>592.0</ele><time>2026-04-02T08:43:10.999Z</time></trkpt><trkpt lat="44.7575417" lon="9.0419817"><ele>592.0</ele><time>2026-04-02T08:43:12.999Z</time></trkpt><trkpt lat="44.7574683" lon="9.0419767"><ele>592.0</ele><time>2026-04-02T08:43:13.999Z</time></trkpt><trkpt lat="44.757405" lon="9.0419517"><ele>592.0</ele><time>2026-04-02T08:43:14.998Z</time></trkpt><trkpt lat="44.7573033" lon="9.0418683"><ele>592.0</ele><time>2026-04-02T08:43:16.999Z</time></trkpt><trkpt lat="44.7572283" lon="9.0417267"><ele>592.0</ele><time>2026-04-02T08:43:18.999Z</time></trkpt><trkpt lat="44.757195" lon="9.0416367"><ele>592.0</ele><time>2026-04-02T08:43:19.999Z</time></trkpt><trkpt lat="44.7571517" lon="9.0415333"><ele>592.0</ele><time>2026-04-02T08:43:20.999Z</time></trkpt><trkpt lat="44.7571033" lon="9.041435"><ele>592.0</ele><time>2026-04-02T08:43:21.999Z</time></trkpt><trkpt lat="44.7570483" lon="9.0413267"><ele>592.0</ele><time>2026-04-02T08:43:22.999Z</time></trkpt><trkpt lat="44.7569867" lon="9.0412217"><ele>592.0</ele><time>2026-04-02T08:43:23.999Z</time></trkpt><trkpt lat="44.7569333" lon="9.04111"><ele>592.0</ele><time>2026-04-02T08:43:24.999Z</time></trkpt><trkpt lat="44.7568917" lon="9.0409817"><ele>592.0</ele><time>2026-04-02T08:43:25.999Z</time></trkpt><trkpt lat="44.7568517" lon="9.0408583"><ele>592.0</ele><time>2026-04-02T08:43:26.999Z</time></trkpt><trkpt lat="44.7568067" lon="9.0407333"><ele>592.0</ele><time>2026-04-02T08:43:27.999Z</time></trkpt><trkpt lat="44.7567533" lon="9.040615"><ele>592.0</ele><time>2026-04-02T08:43:28.999Z</time></trkpt><trkpt lat="44.7567017" lon="9.04049"><ele>592.2</ele><time>2026-04-02T08:43:29.999Z</time></trkpt><trkpt lat="44.7566467" lon="9.0403883"><ele>592.4000000000001</ele><time>2026-04-02T08:43:30.999Z</time></trkpt><trkpt lat="44.75658" lon="9.04029"><ele>592.5999999999999</ele><time>2026-04-02T08:43:31.999Z</time></trkpt><trkpt lat="44.7565067" lon="9.0401767"><ele>592.8</ele><time>2026-04-02T08:43:32.999Z</time></trkpt><trkpt lat="44.7564333" lon="9.0400433"><ele>593.0</ele><time>2026-04-02T08:43:33.999Z</time></trkpt><trkpt lat="44.7563583" lon="9.0399067"><ele>590.5</ele><time>2026-04-02T08:43:34.999Z</time></trkpt><trkpt lat="44.7562883" lon="9.0397667"><ele>588.0</ele><time>2026-04-02T08:43:35.999Z</time></trkpt><trkpt lat="44.7562167" lon="9.039625"><ele>585.5</ele><time>2026-04-02T08:43:36.999Z</time></trkpt><trkpt lat="44.756145" lon="9.039485"><ele>583.0</ele><time>2026-04-02T08:43:37.999Z</time></trkpt><trkpt lat="44.75608" lon="9.0393483"><ele>584.6</ele><time>2026-04-02T08:43:38.999Z</time></trkpt><trkpt lat="44.7560167" lon="9.0392167"><ele>586.1999999999999</ele><time>2026-04-02T08:43:39.999Z</time></trkpt><trkpt lat="44.7559633" lon="9.0390933"><ele>587.8</ele><time>2026-04-02T08:43:40.999Z</time></trkpt><trkpt lat="44.7559133" lon="9.0389867"><ele>589.4</ele><time>2026-04-02T08:43:41.999Z</time></trkpt><trkpt lat="44.7558733" lon="9.0388817"><ele>591.0</ele><time>2026-04-02T08:43:42.999Z</time></trkpt><trkpt lat="44.7558317" lon="9.0387717"><ele>591.0</ele><time>2026-04-02T08:43:43.999Z</time></trkpt><trkpt lat="44.7557733" lon="9.0386817"><ele>591.0</ele><time>2026-04-02T08:43:44.999Z</time></trkpt><trkpt lat="44.7556983" lon="9.0386"><ele>591.0</ele><time>2026-04-02T08:43:45.999Z</time></trkpt><trkpt lat="44.7556067" lon="9.038525"><ele>591.0</ele><time>2026-04-02T08:43:46.998Z</time></trkpt><trkpt lat="44.7555017" lon="9.038475"><ele>591.0</ele><time>2026-04-02T08:43:47.998Z</time></trkpt><trkpt lat="44.7553933" lon="9.0384383"><ele>591.0</ele><time>2026-04-02T08:43:48.998Z</time></trkpt><trkpt lat="44.7552833" lon="9.0384133"><ele>591.0</ele><time>2026-04-02T08:43:49.999Z</time></trkpt><trkpt lat="44.7551733" lon="9.0383867"><ele>591.0</ele><time>2026-04-02T08:43:50.999Z</time></trkpt><trkpt lat="44.7550617" lon="9.0383333"><ele>591.0</ele><time>2026-04-02T08:43:51.999Z</time></trkpt><trkpt lat="44.75495" lon="9.03827"><ele>587.75</ele><time>2026-04-02T08:43:52.998Z</time></trkpt><trkpt lat="44.754855" lon="9.0381833"><ele>584.5</ele><time>2026-04-02T08:43:53.999Z</time></trkpt><trkpt lat="44.7547583" lon="9.038065"><ele>581.25</ele><time>2026-04-02T08:43:54.999Z</time></trkpt><trkpt lat="44.7546667" lon="9.037955"><ele>578.0</ele><time>2026-04-02T08:43:55.999Z</time></trkpt><trkpt lat="44.754575" lon="9.037805"><ele>578.0</ele><time>2026-04-02T08:43:56.999Z</time></trkpt><trkpt lat="44.7545083" lon="9.0376633"><ele>578.0</ele><time>2026-04-02T08:43:57.999Z</time></trkpt><trkpt lat="44.7544683" lon="9.0375167"><ele>578.0</ele><time>2026-04-02T08:43:58.999Z</time></trkpt><trkpt lat="44.7544317" lon="9.0373633"><ele>578.0</ele><time>2026-04-02T08:43:59.999Z</time></trkpt><trkpt lat="44.75439" lon="9.037205"><ele>579.25</ele><time>2026-04-02T08:44:00.999Z</time></trkpt><trkpt lat="44.7543333" lon="9.037055"><ele>580.5</ele><time>2026-04-02T08:44:01.999Z</time></trkpt><trkpt lat="44.7542583" lon="9.0369267"><ele>581.75</ele><time>2026-04-02T08:44:02.999Z</time></trkpt><trkpt lat="44.75417" lon="9.0368067"><ele>583.0</ele><time>2026-04-02T08:44:03.999Z</time></trkpt><trkpt lat="44.754075" lon="9.0367067"><ele>578.75</ele><time>2026-04-02T08:44:04.999Z</time></trkpt><trkpt lat="44.753965" lon="9.0366167"><ele>574.5</ele><time>2026-04-02T08:44:05.999Z</time></trkpt><trkpt lat="44.7538533" lon="9.0365367"><ele>570.25</ele><time>2026-04-02T08:44:06.999Z</time></trkpt><trkpt lat="44.753755" lon="9.0364467"><ele>566.0</ele><time>2026-04-02T08:44:07.999Z</time></trkpt><trkpt lat="44.7536617" lon="9.0363483"><ele>566.0</ele><time>2026-04-02T08:44:08.999Z</time></trkpt><trkpt lat="44.7535783" lon="9.0362267"><ele>566.0</ele><time>2026-04-02T08:44:09.999Z</time></trkpt><trkpt lat="44.7535183" lon="9.0360867"><ele>566.0</ele><time>2026-04-02T08:44:10.998Z</time></trkpt><trkpt lat="44.7534617" lon="9.035945"><ele>566.0</ele><time>2026-04-02T08:44:11.999Z</time></trkpt><trkpt lat="44.753415" lon="9.03579"><ele>571.2</ele><time>2026-04-02T08:44:12.999Z</time></trkpt><trkpt lat="44.7533767" lon="9.0356333"><ele>576.4000000000001</ele><time>2026-04-02T08:44:13.999Z</time></trkpt><trkpt lat="44.75334" lon="9.03547"><ele>581.6</ele><time>2026-04-02T08:44:14.999Z</time></trkpt><trkpt lat="44.75329" lon="9.035335"><ele>586.8000000000001</ele><time>2026-04-02T08:44:15.999Z</time></trkpt><trkpt lat="44.7532383" lon="9.0352183"><ele>592.0</ele><time>2026-04-02T08:44:16.999Z</time></trkpt><trkpt lat="44.75318" lon="9.03511"><ele>592.0</ele><time>2026-04-02T08:44:17.999Z</time></trkpt><trkpt lat="44.75311" lon="9.03502"><ele>592.0</ele><time>2026-04-02T08:44:18.999Z</time></trkpt><trkpt lat="44.7530333" lon="9.03494"><ele>592.0</ele><time>2026-04-02T08:44:19.999Z</time></trkpt><trkpt lat="44.752955" lon="9.0348483"><ele>592.0</ele><time>2026-04-02T08:44:20.999Z</time></trkpt><trkpt lat="44.7528867" lon="9.0347567"><ele>592.0</ele><time>2026-04-02T08:44:21.999Z</time></trkpt><trkpt lat="44.75282" lon="9.0346617"><ele>593.0</ele><time>2026-04-02T08:44:22.999Z</time></trkpt><trkpt lat="44.7527683" lon="9.0345667"><ele>594.0</ele><time>2026-04-02T08:44:23.999Z</time></trkpt><trkpt lat="44.7527267" lon="9.0344717"><ele>595.0</ele><time>2026-04-02T08:44:24.999Z</time></trkpt><trkpt lat="44.7526767" lon="9.0343883"><ele>596.0</ele><time>2026-04-02T08:44:25.999Z</time></trkpt><trkpt lat="44.75262" lon="9.034315"><ele>597.0</ele><time>2026-04-02T08:44:26.998Z</time></trkpt><trkpt lat="44.7525483" lon="9.0342717"><ele>598.0</ele><time>2026-04-02T08:44:27.999Z</time></trkpt><trkpt lat="44.75247" lon="9.0342417"><ele>598.0</ele><time>2026-04-02T08:44:28.999Z</time></trkpt><trkpt lat="44.7523733" lon="9.03422"><ele>598.0</ele><time>2026-04-02T08:44:29.999Z</time></trkpt><trkpt lat="44.75226" lon="9.0341817"><ele>598.0</ele><time>2026-04-02T08:44:30.998Z</time></trkpt><trkpt lat="44.7521617" lon="9.0341233"><ele>598.0</ele><time>2026-04-02T08:44:31.999Z</time></trkpt><trkpt lat="44.752095" lon="9.0340333"><ele>598.0</ele><time>2026-04-02T08:44:32.999Z</time></trkpt><trkpt lat="44.7520517" lon="9.03392"><ele>596.3333333333334</ele><time>2026-04-02T08:44:33.999Z</time></trkpt><trkpt lat="44.75202" lon="9.0338133"><ele>594.6666666666667</ele><time>2026-04-02T08:44:34.999Z</time></trkpt><trkpt lat="44.7519783" lon="9.0337183"><ele>593.0</ele><time>2026-04-02T08:44:35.999Z</time></trkpt><trkpt lat="44.7519217" lon="9.03365"><ele>591.3333333333334</ele><time>2026-04-02T08:44:36.999Z</time></trkpt><trkpt lat="44.7518417" lon="9.0336117"><ele>589.6666666666666</ele><time>2026-04-02T08:44:37.999Z</time></trkpt><trkpt lat="44.7517567" lon="9.0336"><ele>588.0</ele><time>2026-04-02T08:44:38.999Z</time></trkpt><trkpt lat="44.75166" lon="9.0335867"><ele>588.0</ele><time>2026-04-02T08:44:39.999Z</time></trkpt><trkpt lat="44.7515517" lon="9.033555"><ele>588.0</ele><time>2026-04-02T08:44:40.999Z</time></trkpt><trkpt lat="44.7514367" lon="9.0335033"><ele>588.0</ele><time>2026-04-02T08:44:41.999Z</time></trkpt><trkpt lat="44.75132" lon="9.0334483"><ele>588.0</ele><time>2026-04-02T08:44:42.999Z</time></trkpt><trkpt lat="44.7511917" lon="9.0333883"><ele>588.0</ele><time>2026-04-02T08:44:43.998Z</time></trkpt><trkpt lat="44.7510583" lon="9.0333467"><ele>588.0</ele><time>2026-04-02T08:44:44.998Z</time></trkpt><trkpt lat="44.750925" lon="9.0333367"><ele>588.0</ele><time>2026-04-02T08:44:45.998Z</time></trkpt><trkpt lat="44.7507933" lon="9.0333317"><ele>588.0</ele><time>2026-04-02T08:44:46.999Z</time></trkpt><trkpt lat="44.7506767" lon="9.0333017"><ele>586.6</ele><time>2026-04-02T08:44:47.999Z</time></trkpt><trkpt lat="44.7505783" lon="9.03323"><ele>585.1999999999999</ele><time>2026-04-02T08:44:48.999Z</time></trkpt><trkpt lat="44.7504933" lon="9.0331417"><ele>583.8</ele><time>2026-04-02T08:44:49.999Z</time></trkpt><trkpt lat="44.750425" lon="9.0330367"><ele>582.4</ele><time>2026-04-02T08:44:50.999Z</time></trkpt><trkpt lat="44.7503733" lon="9.03292"><ele>581.0</ele><time>2026-04-02T08:44:51.999Z</time></trkpt><trkpt lat="44.7503467" lon="9.0327917"><ele>581.0</ele><time>2026-04-02T08:44:52.999Z</time></trkpt><trkpt lat="44.750345" lon="9.03265"><ele>581.0</ele><time>2026-04-02T08:44:53.999Z</time></trkpt><trkpt lat="44.7503683" lon="9.032515"><ele>581.0</ele><time>2026-04-02T08:44:54.999Z</time></trkpt><trkpt lat="44.75042" lon="9.0323733"><ele>581.0</ele><time>2026-04-02T08:44:55.999Z</time></trkpt><trkpt lat="44.7504967" lon="9.032255"><ele>581.0</ele><time>2026-04-02T08:44:56.999Z</time></trkpt><trkpt lat="44.7505833" lon="9.0321533"><ele>582.4</ele><time>2026-04-02T08:44:57.999Z</time></trkpt><trkpt lat="44.7506833" lon="9.0320733"><ele>583.8</ele><time>2026-04-02T08:44:58.999Z</time></trkpt><trkpt lat="44.750775" lon="9.03201"><ele>585.1999999999999</ele><time>2026-04-02T08:44:59.999Z</time></trkpt><trkpt lat="44.7508567" lon="9.0319533"><ele>586.6</ele><time>2026-04-02T08:45:00.999Z</time></trkpt><trkpt lat="44.75092" lon="9.0318983"><ele>588.0</ele><time>2026-04-02T08:45:01.999Z</time></trkpt><trkpt lat="44.7509817" lon="9.03184"><ele>588.0</ele><time>2026-04-02T08:45:02.999Z</time></trkpt><trkpt lat="44.7510117" lon="9.0317617"><ele>588.0</ele><time>2026-04-02T08:45:03.999Z</time></trkpt><trkpt lat="44.7510233" lon="9.0316717"><ele>588.0</ele><time>2026-04-02T08:45:04.998Z</time></trkpt><trkpt lat="44.7510117" lon="9.03158"><ele>588.0</ele><time>2026-04-02T08:45:05.999Z</time></trkpt><trkpt lat="44.7509717" lon="9.0315033"><ele>588.0</ele><time>2026-04-02T08:45:06.999Z</time></trkpt><trkpt lat="44.7509483" lon="9.03142"><ele>588.0</ele><time>2026-04-02T08:45:07.999Z</time></trkpt><trkpt lat="44.7509333" lon="9.0313217"><ele>588.0</ele><time>2026-04-02T08:45:08.999Z</time></trkpt><trkpt lat="44.7509283" lon="9.0312017"><ele>586.4</ele><time>2026-04-02T08:45:09.999Z</time></trkpt><trkpt lat="44.7509383" lon="9.0310767"><ele>584.8</ele><time>2026-04-02T08:45:10.999Z</time></trkpt><trkpt lat="44.7509717" lon="9.0309433"><ele>583.2</ele><time>2026-04-02T08:45:11.999Z</time></trkpt><trkpt lat="44.75103" lon="9.0307967"><ele>581.6</ele><time>2026-04-02T08:45:12.999Z</time></trkpt><trkpt lat="44.7511033" lon="9.0306467"><ele>580.0</ele><time>2026-04-02T08:45:13.998Z</time></trkpt><trkpt lat="44.7511733" lon="9.0304983"><ele>576.25</ele><time>2026-04-02T08:45:14.998Z</time></trkpt><trkpt lat="44.75123" lon="9.0303383"><ele>572.5</ele><time>2026-04-02T08:45:15.998Z</time></trkpt><trkpt lat="44.75128" lon="9.0301617"><ele>568.75</ele><time>2026-04-02T08:45:16.999Z</time></trkpt><trkpt lat="44.7513117" lon="9.0299867"><ele>565.0</ele><time>2026-04-02T08:45:17.999Z</time></trkpt><trkpt lat="44.7513467" lon="9.029805"><ele>565.0</ele><time>2026-04-02T08:45:18.998Z</time></trkpt><trkpt lat="44.75138" lon="9.0296133"><ele>565.0</ele><time>2026-04-02T08:45:19.999Z</time></trkpt><trkpt lat="44.751415" lon="9.0294283"><ele>565.0</ele><time>2026-04-02T08:45:20.998Z</time></trkpt><trkpt lat="44.75146" lon="9.029245"><ele>565.0</ele><time>2026-04-02T08:45:21.999Z</time></trkpt><trkpt lat="44.751465" lon="9.02907"><ele>564.6</ele><time>2026-04-02T08:45:22.999Z</time></trkpt><trkpt lat="44.7514767" lon="9.0289133"><ele>564.2</ele><time>2026-04-02T08:45:23.999Z</time></trkpt><trkpt lat="44.7515" lon="9.0287983"><ele>563.8</ele><time>2026-04-02T08:45:24.999Z</time></trkpt><trkpt lat="44.7515417" lon="9.0287017"><ele>563.4</ele><time>2026-04-02T08:45:25.999Z</time></trkpt><trkpt lat="44.7516033" lon="9.028625"><ele>563.0</ele><time>2026-04-02T08:45:26.999Z</time></trkpt><trkpt lat="44.7516833" lon="9.028565"><ele>563.0</ele><time>2026-04-02T08:45:27.999Z</time></trkpt><trkpt lat="44.7517867" lon="9.0285183"><ele>563.0</ele><time>2026-04-02T08:45:28.999Z</time></trkpt><trkpt lat="44.75189" lon="9.0284733"><ele>563.0</ele><time>2026-04-02T08:45:29.999Z</time></trkpt><trkpt lat="44.7519983" lon="9.0284217"><ele>563.0</ele><time>2026-04-02T08:45:30.998Z</time></trkpt><trkpt lat="44.75211" lon="9.028365"><ele>565.75</ele><time>2026-04-02T08:45:31.999Z</time></trkpt><trkpt lat="44.752215" lon="9.0282917"><ele>568.5</ele><time>2026-04-02T08:45:32.999Z</time></trkpt><trkpt lat="44.7523133" lon="9.0282"><ele>571.25</ele><time>2026-04-02T08:45:33.999Z</time></trkpt><trkpt lat="44.75241" lon="9.028095"><ele>574.0</ele><time>2026-04-02T08:45:34.999Z</time></trkpt><trkpt lat="44.752495" lon="9.0279767"><ele>574.0</ele><time>2026-04-02T08:45:35.999Z</time></trkpt><trkpt lat="44.752585" lon="9.0278417"><ele>574.0</ele><time>2026-04-02T08:45:36.999Z</time></trkpt><trkpt lat="44.752665" lon="9.0276933"><ele>574.0</ele><time>2026-04-02T08:45:37.998Z</time></trkpt><trkpt lat="44.75275" lon="9.0275533"><ele>574.0</ele><time>2026-04-02T08:45:38.999Z</time></trkpt><trkpt lat="44.7528417" lon="9.02741"><ele>578.75</ele><time>2026-04-02T08:45:39.999Z</time></trkpt><trkpt lat="44.7529333" lon="9.0272683"><ele>583.5</ele><time>2026-04-02T08:45:40.999Z</time></trkpt><trkpt lat="44.7530233" lon="9.027125"><ele>588.25</ele><time>2026-04-02T08:45:41.999Z</time></trkpt><trkpt lat="44.7531117" lon="9.0269817"><ele>593.0</ele><time>2026-04-02T08:45:42.999Z</time></trkpt><trkpt lat="44.7531983" lon="9.026835"><ele>593.0</ele><time>2026-04-02T08:45:43.999Z</time></trkpt><trkpt lat="44.75327" lon="9.026725"><ele>593.0</ele><time>2026-04-02T08:45:44.999Z</time></trkpt><trkpt lat="44.7533383" lon="9.026655"><ele>593.0</ele><time>2026-04-02T08:45:45.999Z</time></trkpt><trkpt lat="44.7534" lon="9.02663"><ele>593.0</ele><time>2026-04-02T08:45:46.999Z</time></trkpt><trkpt lat="44.7535083" lon="9.0267083"><ele>593.0</ele><time>2026-04-02T08:45:48.999Z</time></trkpt><trkpt lat="44.7535483" lon="9.026795"><ele>598.0</ele><time>2026-04-02T08:45:49.998Z</time></trkpt><trkpt lat="44.75359" lon="9.0269017"><ele>603.0</ele><time>2026-04-02T08:45:50.999Z</time></trkpt><trkpt lat="44.75364" lon="9.0270217"><ele>608.0</ele><time>2026-04-02T08:45:51.998Z</time></trkpt><trkpt lat="44.7536933" lon="9.0271367"><ele>613.0</ele><time>2026-04-02T08:45:52.998Z</time></trkpt><trkpt lat="44.7537333" lon="9.0272583"><ele>618.0</ele><time>2026-04-02T08:45:53.999Z</time></trkpt><trkpt lat="44.7537883" lon="9.0273483"><ele>618.0</ele><time>2026-04-02T08:45:54.999Z</time></trkpt><trkpt lat="44.7538517" lon="9.027415"><ele>618.0</ele><time>2026-04-02T08:45:55.998Z</time></trkpt><trkpt lat="44.7539267" lon="9.0274533"><ele>618.0</ele><time>2026-04-02T08:45:56.999Z</time></trkpt><trkpt lat="44.7540067" lon="9.0274717"><ele>618.0</ele><time>2026-04-02T08:45:57.999Z</time></trkpt><trkpt lat="44.7540817" lon="9.0274633"><ele>618.0</ele><time>2026-04-02T08:45:58.999Z</time></trkpt><trkpt lat="44.7541533" lon="9.02744"><ele>618.0</ele><time>2026-04-02T08:45:59.999Z</time></trkpt><trkpt lat="44.7542033" lon="9.027385"><ele>618.0</ele><time>2026-04-02T08:46:00.999Z</time></trkpt><trkpt lat="44.75423" lon="9.027215"><ele>618.0</ele><time>2026-04-02T08:46:02.999Z</time></trkpt><trkpt lat="44.7542283" lon="9.0271167"><ele>618.0</ele><time>2026-04-02T08:46:03.999Z</time></trkpt><trkpt lat="44.7542233" lon="9.0270083"><ele>618.0</ele><time>2026-04-02T08:46:04.999Z</time></trkpt><trkpt lat="44.7542167" lon="9.026895"><ele>618.0</ele><time>2026-04-02T08:46:05.999Z</time></trkpt><trkpt lat="44.7542083" lon="9.0267717"><ele>618.0</ele><time>2026-04-02T08:46:06.999Z</time></trkpt><trkpt lat="44.75419" lon="9.0266383"><ele>621.0</ele><time>2026-04-02T08:46:07.999Z</time></trkpt><trkpt lat="44.7541717" lon="9.0265067"><ele>624.0</ele><time>2026-04-02T08:46:08.999Z</time></trkpt><trkpt lat="44.7541433" lon="9.02637"><ele>627.0</ele><time>2026-04-02T08:46:09.999Z</time></trkpt><trkpt lat="44.75411" lon="9.0262183"><ele>630.0</ele><time>2026-04-02T08:46:10.999Z</time></trkpt><trkpt lat="44.754075" lon="9.0260733"><ele>633.0</ele><time>2026-04-02T08:46:11.999Z</time></trkpt><trkpt lat="44.75405" lon="9.0259217"><ele>636.2</ele><time>2026-04-02T08:46:12.999Z</time></trkpt><trkpt lat="44.7540133" lon="9.0257783"><ele>639.4</ele><time>2026-04-02T08:46:13.999Z</time></trkpt><trkpt lat="44.75396" lon="9.0256567"><ele>642.6</ele><time>2026-04-02T08:46:14.999Z</time></trkpt><trkpt lat="44.7538833" lon="9.0255417"><ele>645.8000000000001</ele><time>2026-04-02T08:46:15.999Z</time></trkpt><trkpt lat="44.7538" lon="9.0254483"><ele>649.0</ele><time>2026-04-02T08:46:16.999Z</time></trkpt><trkpt lat="44.753715" lon="9.0253433"><ele>649.0</ele><time>2026-04-02T08:46:17.999Z</time></trkpt><trkpt lat="44.75364" lon="9.025235"><ele>649.0</ele><time>2026-04-02T08:46:18.999Z</time></trkpt><trkpt lat="44.75358" lon="9.0251367"><ele>649.0</ele><time>2026-04-02T08:46:19.999Z</time></trkpt><trkpt lat="44.7535283" lon="9.02504"><ele>649.0</ele><time>2026-04-02T08:46:20.998Z</time></trkpt><trkpt lat="44.7534967" lon="9.0249467"><ele>649.0</ele><time>2026-04-02T08:46:21.999Z</time></trkpt><trkpt lat="44.753475" lon="9.0248583"><ele>649.0</ele><time>2026-04-02T08:46:22.999Z</time></trkpt><trkpt lat="44.7534917" lon="9.0246767"><ele>646.0</ele><time>2026-04-02T08:46:24.999Z</time></trkpt><trkpt lat="44.7534967" lon="9.0245583"><ele>643.0</ele><time>2026-04-02T08:46:25.999Z</time></trkpt><trkpt lat="44.753495" lon="9.024435"><ele>640.0</ele><time>2026-04-02T08:46:26.999Z</time></trkpt><trkpt lat="44.7534783" lon="9.0243083"><ele>637.0</ele><time>2026-04-02T08:46:27.998Z</time></trkpt><trkpt lat="44.7534467" lon="9.0241783"><ele>634.0</ele><time>2026-04-02T08:46:28.999Z</time></trkpt><trkpt lat="44.7534017" lon="9.02406"><ele>634.0</ele><time>2026-04-02T08:46:29.998Z</time></trkpt><trkpt lat="44.75336" lon="9.0239567"><ele>634.0</ele><time>2026-04-02T08:46:30.999Z</time></trkpt><trkpt lat="44.75332" lon="9.02385"><ele>634.0</ele><time>2026-04-02T08:46:31.998Z</time></trkpt><trkpt lat="44.7532717" lon="9.023745"><ele>634.0</ele><time>2026-04-02T08:46:32.999Z</time></trkpt><trkpt lat="44.7532283" lon="9.023635"><ele>634.0</ele><time>2026-04-02T08:46:33.999Z</time></trkpt><trkpt lat="44.75319" lon="9.0235167"><ele>634.0</ele><time>2026-04-02T08:46:34.999Z</time></trkpt><trkpt lat="44.7531433" lon="9.0233933"><ele>632.1666666666667</ele><time>2026-04-02T08:46:35.999Z</time></trkpt><trkpt lat="44.7530833" lon="9.0232867"><ele>630.3333333333334</ele><time>2026-04-02T08:46:36.999Z</time></trkpt><trkpt lat="44.7530217" lon="9.0231883"><ele>628.5</ele><time>2026-04-02T08:46:37.998Z</time></trkpt><trkpt lat="44.7529567" lon="9.0230833"><ele>626.6666666666666</ele><time>2026-04-02T08:46:38.999Z</time></trkpt><trkpt lat="44.7528967" lon="9.02299"><ele>624.8333333333333</ele><time>2026-04-02T08:46:39.998Z</time></trkpt><trkpt lat="44.7528517" lon="9.0229217"><ele>623.0</ele><time>2026-04-02T08:46:40.999Z</time></trkpt><trkpt lat="44.7528017" lon="9.0228333"><ele>623.0</ele><time>2026-04-02T08:46:42.999Z</time></trkpt><trkpt lat="44.752785" lon="9.02274"><ele>623.0</ele><time>2026-04-02T08:46:46.998Z</time></trkpt><trkpt lat="44.752855" lon="9.022755"><ele>623.0</ele><time>2026-04-02T08:47:13.998Z</time></trkpt><trkpt lat="44.7529517" lon="9.0228333"><ele>623.0</ele><time>2026-04-02T08:47:15.999Z</time></trkpt><trkpt lat="44.7530067" lon="9.02289"><ele>623.0</ele><time>2026-04-02T08:47:16.999Z</time></trkpt><trkpt lat="44.75307" lon="9.0229467"><ele>623.0</ele><time>2026-04-02T08:47:17.998Z</time></trkpt><trkpt lat="44.7531433" lon="9.0230033"><ele>623.0</ele><time>2026-04-02T08:47:18.999Z</time></trkpt><trkpt lat="44.7532167" lon="9.0230583"><ele>623.0</ele><time>2026-04-02T08:47:19.999Z</time></trkpt><trkpt lat="44.7533033" lon="9.023105"><ele>623.0</ele><time>2026-04-02T08:47:20.999Z</time></trkpt><trkpt lat="44.7534" lon="9.0231383"><ele>623.0</ele><time>2026-04-02T08:47:21.999Z</time></trkpt><trkpt lat="44.7534967" lon="9.023175"><ele>623.0</ele><time>2026-04-02T08:47:22.999Z</time></trkpt><trkpt lat="44.7536" lon="9.023215"><ele>621.5</ele><time>2026-04-02T08:47:23.999Z</time></trkpt><trkpt lat="44.75371" lon="9.023255"><ele>620.0</ele><time>2026-04-02T08:47:24.999Z</time></trkpt><trkpt lat="44.7538233" lon="9.023305"><ele>618.5</ele><time>2026-04-02T08:47:25.999Z</time></trkpt><trkpt lat="44.7539367" lon="9.023345"><ele>617.0</ele><time>2026-04-02T08:47:26.999Z</time></trkpt><trkpt lat="44.754055" lon="9.0233917"><ele>622.5</ele><time>2026-04-02T08:47:27.999Z</time></trkpt><trkpt lat="44.7541717" lon="9.0234533"><ele>628.0</ele><time>2026-04-02T08:47:28.998Z</time></trkpt><trkpt lat="44.7542917" lon="9.0235117"><ele>633.5</ele><time>2026-04-02T08:47:29.999Z</time></trkpt><trkpt lat="44.7544067" lon="9.0235533"><ele>639.0</ele><time>2026-04-02T08:47:30.999Z</time></trkpt><trkpt lat="44.7545333" lon="9.023585"><ele>639.0</ele><time>2026-04-02T08:47:31.999Z</time></trkpt><trkpt lat="44.7546667" lon="9.0236033"><ele>639.0</ele><time>2026-04-02T08:47:32.999Z</time></trkpt><trkpt lat="44.754795" lon="9.0236183"><ele>639.0</ele><time>2026-04-02T08:47:33.999Z</time></trkpt><trkpt lat="44.754935" lon="9.0236467"><ele>639.0</ele><time>2026-04-02T08:47:34.999Z</time></trkpt><trkpt lat="44.7550633" lon="9.0236717"><ele>639.0</ele><time>2026-04-02T08:47:35.999Z</time></trkpt><trkpt lat="44.7551883" lon="9.0237167"><ele>639.0</ele><time>2026-04-02T08:47:36.999Z</time></trkpt><trkpt lat="44.75532" lon="9.0237633"><ele>639.0</ele><time>2026-04-02T08:47:37.999Z</time></trkpt><trkpt lat="44.7554433" lon="9.0237917"><ele>639.0</ele><time>2026-04-02T08:47:38.999Z</time></trkpt><trkpt lat="44.75557" lon="9.0238083"><ele>638.0</ele><time>2026-04-02T08:47:39.999Z</time></trkpt><trkpt lat="44.75569" lon="9.0238283"><ele>637.0</ele><time>2026-04-02T08:47:40.999Z</time></trkpt><trkpt lat="44.7558233" lon="9.0238583"><ele>636.0</ele><time>2026-04-02T08:47:41.999Z</time></trkpt><trkpt lat="44.7559467" lon="9.02389"><ele>635.0</ele><time>2026-04-02T08:47:42.998Z</time></trkpt><trkpt lat="44.7560633" lon="9.023915"><ele>633.0</ele><time>2026-04-02T08:47:43.999Z</time></trkpt><trkpt lat="44.756185" lon="9.023955"><ele>631.0</ele><time>2026-04-02T08:47:44.999Z</time></trkpt><trkpt lat="44.7563033" lon="9.0240067"><ele>629.0</ele><time>2026-04-02T08:47:45.999Z</time></trkpt><trkpt lat="44.756415" lon="9.024065"><ele>627.0</ele><time>2026-04-02T08:47:46.999Z</time></trkpt><trkpt lat="44.75653" lon="9.024135"><ele>630.0</ele><time>2026-04-02T08:47:47.999Z</time></trkpt><trkpt lat="44.75665" lon="9.0241967"><ele>633.0</ele><time>2026-04-02T08:47:48.999Z</time></trkpt><trkpt lat="44.7567733" lon="9.0242667"><ele>636.0</ele><time>2026-04-02T08:47:49.999Z</time></trkpt><trkpt lat="44.7568933" lon="9.0243467"><ele>639.0</ele><time>2026-04-02T08:47:50.998Z</time></trkpt><trkpt lat="44.7570117" lon="9.0244267"><ele>639.0</ele><time>2026-04-02T08:47:51.999Z</time></trkpt><trkpt lat="44.7571267" lon="9.0245233"><ele>639.0</ele><time>2026-04-02T08:47:52.999Z</time></trkpt><trkpt lat="44.757245" lon="9.0246217"><ele>639.0</ele><time>2026-04-02T08:47:53.998Z</time></trkpt><trkpt lat="44.7573617" lon="9.0247283"><ele>639.0</ele><time>2026-04-02T08:47:54.998Z</time></trkpt><trkpt lat="44.75747" lon="9.024845"><ele>639.0</ele><time>2026-04-02T08:47:55.998Z</time></trkpt><trkpt lat="44.7575667" lon="9.024975"><ele>639.0</ele><time>2026-04-02T08:47:56.997Z</time></trkpt><trkpt lat="44.757655" lon="9.0251083"><ele>639.0</ele><time>2026-04-02T08:47:57.998Z</time></trkpt><trkpt lat="44.7577417" lon="9.0252467"><ele>639.0</ele><time>2026-04-02T08:47:58.997Z</time></trkpt><trkpt lat="44.757825" lon="9.0253783"><ele>640.2</ele><time>2026-04-02T08:47:59.998Z</time></trkpt><trkpt lat="44.7578933" lon="9.025505"><ele>641.4</ele><time>2026-04-02T08:48:00.998Z</time></trkpt><trkpt lat="44.7579667" lon="9.0256117"><ele>642.6</ele><time>2026-04-02T08:48:01.998Z</time></trkpt><trkpt lat="44.7580383" lon="9.0256967"><ele>643.8</ele><time>2026-04-02T08:48:02.998Z</time></trkpt><trkpt lat="44.7580983" lon="9.0257933"><ele>645.0</ele><time>2026-04-02T08:48:03.998Z</time></trkpt><trkpt lat="44.7581533" lon="9.0258967"><ele>648.0</ele><time>2026-04-02T08:48:04.998Z</time></trkpt><trkpt lat="44.758185" lon="9.0260317"><ele>651.0</ele><time>2026-04-02T08:48:05.998Z</time></trkpt><trkpt lat="44.75822" lon="9.026165"><ele>654.0</ele><time>2026-04-02T08:48:06.997Z</time></trkpt><trkpt lat="44.75826" lon="9.026305"><ele>657.0</ele><time>2026-04-02T08:48:07.997Z</time></trkpt><trkpt lat="44.7582983" lon="9.0264467"><ele>660.0</ele><time>2026-04-02T08:48:08.998Z</time></trkpt><trkpt lat="44.7583483" lon="9.026585"><ele>661.2</ele><time>2026-04-02T08:48:09.998Z</time></trkpt><trkpt lat="44.7584067" lon="9.02672"><ele>662.4</ele><time>2026-04-02T08:48:10.997Z</time></trkpt><trkpt lat="44.758465" lon="9.026845"><ele>663.5999999999999</ele><time>2026-04-02T08:48:11.997Z</time></trkpt><trkpt lat="44.758525" lon="9.02696"><ele>664.8</ele><time>2026-04-02T08:48:12.998Z</time></trkpt><trkpt lat="44.7585933" lon="9.02707"><ele>666.0</ele><time>2026-04-02T08:48:13.998Z</time></trkpt><trkpt lat="44.7586733" lon="9.027165"><ele>666.0</ele><time>2026-04-02T08:48:14.998Z</time></trkpt><trkpt lat="44.758765" lon="9.02724"><ele>666.0</ele><time>2026-04-02T08:48:15.997Z</time></trkpt><trkpt lat="44.7588767" lon="9.027305"><ele>666.0</ele><time>2026-04-02T08:48:16.997Z</time></trkpt><trkpt lat="44.75899" lon="9.0273283"><ele>666.0</ele><time>2026-04-02T08:48:17.998Z</time></trkpt><trkpt lat="44.7591183" lon="9.02733"><ele>666.0</ele><time>2026-04-02T08:48:18.998Z</time></trkpt><trkpt lat="44.7592433" lon="9.0273233"><ele>666.0</ele><time>2026-04-02T08:48:19.998Z</time></trkpt><trkpt lat="44.7593667" lon="9.0273133"><ele>666.0</ele><time>2026-04-02T08:48:20.998Z</time></trkpt><trkpt lat="44.75948" lon="9.0272833"><ele>666.0</ele><time>2026-04-02T08:48:21.998Z</time></trkpt><trkpt lat="44.75958" lon="9.027225"><ele>666.25</ele><time>2026-04-02T08:48:22.998Z</time></trkpt><trkpt lat="44.759685" lon="9.0271533"><ele>666.5</ele><time>2026-04-02T08:48:23.998Z</time></trkpt><trkpt lat="44.759795" lon="9.0270783"><ele>666.75</ele><time>2026-04-02T08:48:24.998Z</time></trkpt><trkpt lat="44.7599" lon="9.027005"><ele>667.0</ele><time>2026-04-02T08:48:25.997Z</time></trkpt><trkpt lat="44.7599983" lon="9.026985"><ele>667.0</ele><time>2026-04-02T08:48:26.998Z</time></trkpt><trkpt lat="44.7600767" lon="9.027025"><ele>667.0</ele><time>2026-04-02T08:48:27.998Z</time></trkpt><trkpt lat="44.7601383" lon="9.0271"><ele>667.0</ele><time>2026-04-02T08:48:28.998Z</time></trkpt><trkpt lat="44.7601833" lon="9.0272067"><ele>667.0</ele><time>2026-04-02T08:48:29.998Z</time></trkpt><trkpt lat="44.7602183" lon="9.0273267"><ele>667.0</ele><time>2026-04-02T08:48:30.997Z</time></trkpt><trkpt lat="44.760255" lon="9.0274483"><ele>667.0</ele><time>2026-04-02T08:48:31.997Z</time></trkpt><trkpt lat="44.7603017" lon="9.0275783"><ele>667.2</ele><time>2026-04-02T08:48:32.997Z</time></trkpt><trkpt lat="44.7603517" lon="9.0277067"><ele>667.4000000000001</ele><time>2026-04-02T08:48:33.998Z</time></trkpt><trkpt lat="44.76041" lon="9.027835"><ele>667.5999999999999</ele><time>2026-04-02T08:48:34.998Z</time></trkpt><trkpt lat="44.76047" lon="9.0279667"><ele>667.8</ele><time>2026-04-02T08:48:35.998Z</time></trkpt><trkpt lat="44.7605383" lon="9.028085"><ele>668.0</ele><time>2026-04-02T08:48:36.998Z</time></trkpt><trkpt lat="44.7606117" lon="9.0281633"><ele>668.0</ele><time>2026-04-02T08:48:37.998Z</time></trkpt><trkpt lat="44.76069" lon="9.0282183"><ele>668.0</ele><time>2026-04-02T08:48:38.998Z</time></trkpt><trkpt lat="44.7607767" lon="9.028245"><ele>668.0</ele><time>2026-04-02T08:48:39.998Z</time></trkpt><trkpt lat="44.7608617" lon="9.0282567"><ele>668.0</ele><time>2026-04-02T08:48:40.998Z</time></trkpt><trkpt lat="44.7609417" lon="9.02826"><ele>668.0</ele><time>2026-04-02T08:48:41.998Z</time></trkpt><trkpt lat="44.7610133" lon="9.028255"><ele>668.0</ele><time>2026-04-02T08:48:42.997Z</time></trkpt><trkpt lat="44.7610867" lon="9.0282517"><ele>667.5999999999999</ele><time>2026-04-02T08:48:43.998Z</time></trkpt><trkpt lat="44.7611733" lon="9.0282417"><ele>667.1999999999999</ele><time>2026-04-02T08:48:44.998Z</time></trkpt><trkpt lat="44.7612667" lon="9.0282267"><ele>666.8</ele><time>2026-04-02T08:48:45.998Z</time></trkpt><trkpt lat="44.7613633" lon="9.0282083"><ele>666.4</ele><time>2026-04-02T08:48:46.998Z</time></trkpt><trkpt lat="44.76147" lon="9.0282"><ele>666.0</ele><time>2026-04-02T08:48:47.998Z</time></trkpt><trkpt lat="44.76158" lon="9.0281917"><ele>666.0</ele><time>2026-04-02T08:48:48.998Z</time></trkpt><trkpt lat="44.761695" lon="9.0281817"><ele>666.0</ele><time>2026-04-02T08:48:49.998Z</time></trkpt><trkpt lat="44.7618033" lon="9.0281717"><ele>666.0</ele><time>2026-04-02T08:48:50.998Z</time></trkpt><trkpt lat="44.7618967" lon="9.02814"><ele>666.0</ele><time>2026-04-02T08:48:51.998Z</time></trkpt><trkpt lat="44.7619883" lon="9.0281067"><ele>666.0</ele><time>2026-04-02T08:48:52.997Z</time></trkpt><trkpt lat="44.76207" lon="9.0280483"><ele>669.0</ele><time>2026-04-02T08:48:53.998Z</time></trkpt><trkpt lat="44.7621367" lon="9.02797"><ele>672.0</ele><time>2026-04-02T08:48:54.998Z</time></trkpt><trkpt lat="44.7621967" lon="9.027885"><ele>675.0</ele><time>2026-04-02T08:48:55.998Z</time></trkpt><trkpt lat="44.76226" lon="9.0277883"><ele>678.0</ele><time>2026-04-02T08:48:56.998Z</time></trkpt><trkpt lat="44.762325" lon="9.0276833"><ele>681.0</ele><time>2026-04-02T08:48:57.998Z</time></trkpt><trkpt lat="44.7623833" lon="9.027585"><ele>681.0</ele><time>2026-04-02T08:48:58.998Z</time></trkpt><trkpt lat="44.7624183" lon="9.0275033"><ele>681.0</ele><time>2026-04-02T08:48:59.998Z</time></trkpt><trkpt lat="44.7624683" lon="9.02733"><ele>681.0</ele><time>2026-04-02T08:49:01.998Z</time></trkpt><trkpt lat="44.7624817" lon="9.027235"><ele>681.0</ele><time>2026-04-02T08:49:02.998Z</time></trkpt><trkpt lat="44.7624867" lon="9.0271317"><ele>681.0</ele><time>2026-04-02T08:49:03.997Z</time></trkpt><trkpt lat="44.7624717" lon="9.02703"><ele>681.0</ele><time>2026-04-02T08:49:04.998Z</time></trkpt><trkpt lat="44.7624417" lon="9.0269283"><ele>680.8</ele><time>2026-04-02T08:49:05.998Z</time></trkpt><trkpt lat="44.7623983" lon="9.0268317"><ele>680.5999999999999</ele><time>2026-04-02T08:49:06.998Z</time></trkpt><trkpt lat="44.7623683" lon="9.0267517"><ele>680.4</ele><time>2026-04-02T08:49:07.998Z</time></trkpt><trkpt lat="44.76231" lon="9.0266333"><ele>680.2</ele><time>2026-04-02T08:49:09.998Z</time></trkpt><trkpt lat="44.762245" lon="9.0265133"><ele>680.0</ele><time>2026-04-02T08:49:11.998Z</time></trkpt><trkpt lat="44.7621917" lon="9.0263967"><ele>677.2</ele><time>2026-04-02T08:49:13.998Z</time></trkpt><trkpt lat="44.7621417" lon="9.0262767"><ele>674.4</ele><time>2026-04-02T08:49:15.998Z</time></trkpt><trkpt lat="44.7620833" lon="9.0261333"><ele>671.5999999999999</ele><time>2026-04-02T08:49:17.998Z</time></trkpt><trkpt lat="44.762045" lon="9.026035"><ele>668.8</ele><time>2026-04-02T08:49:18.998Z</time></trkpt><trkpt lat="44.7620117" lon="9.0259217"><ele>666.0</ele><time>2026-04-02T08:49:19.998Z</time></trkpt><trkpt lat="44.7619883" lon="9.0258033"><ele>664.1666666666666</ele><time>2026-04-02T08:49:20.998Z</time></trkpt><trkpt lat="44.7619717" lon="9.0257"><ele>662.3333333333334</ele><time>2026-04-02T08:49:21.998Z</time></trkpt><trkpt lat="44.76195" lon="9.0256083"><ele>660.5</ele><time>2026-04-02T08:49:22.998Z</time></trkpt><trkpt lat="44.76193" lon="9.0255133"><ele>658.6666666666667</ele><time>2026-04-02T08:49:23.998Z</time></trkpt><trkpt lat="44.7619033" lon="9.025405"><ele>656.8333333333334</ele><time>2026-04-02T08:49:24.998Z</time></trkpt><trkpt lat="44.761875" lon="9.0253067"><ele>655.0</ele><time>2026-04-02T08:49:25.998Z</time></trkpt><trkpt lat="44.7618483" lon="9.0251583"><ele>654.6</ele><time>2026-04-02T08:49:27.998Z</time></trkpt><trkpt lat="44.761885" lon="9.0250433"><ele>654.2</ele><time>2026-04-02T08:49:30.997Z</time></trkpt><trkpt lat="44.76196" lon="9.025005"><ele>653.8</ele><time>2026-04-02T08:49:32.998Z</time></trkpt><trkpt lat="44.7620533" lon="9.0249683"><ele>653.4</ele><time>2026-04-02T08:49:34.998Z</time></trkpt><trkpt lat="44.7621717" lon="9.0249467"><ele>653.0</ele><time>2026-04-02T08:49:36.998Z</time></trkpt><trkpt lat="44.7622917" lon="9.02499"><ele>653.0</ele><time>2026-04-02T08:49:38.998Z</time></trkpt><trkpt lat="44.762355" lon="9.0250233"><ele>653.0</ele><time>2026-04-02T08:49:39.998Z</time></trkpt><trkpt lat="44.76244" lon="9.0251267"><ele>653.0</ele><time>2026-04-02T08:49:41.998Z</time></trkpt><trkpt lat="44.7624633" lon="9.0252583"><ele>653.0</ele><time>2026-04-02T08:49:43.998Z</time></trkpt><trkpt lat="44.76252" lon="9.025365"><ele>653.0</ele><time>2026-04-02T08:49:45.997Z</time></trkpt><trkpt lat="44.7626317" lon="9.0254067"><ele>650.8</ele><time>2026-04-02T08:49:47.998Z</time></trkpt><trkpt lat="44.7627483" lon="9.02539"><ele>648.5999999999999</ele><time>2026-04-02T08:49:49.998Z</time></trkpt><trkpt lat="44.762815" lon="9.0253783"><ele>646.4000000000001</ele><time>2026-04-02T08:49:50.998Z</time></trkpt><trkpt lat="44.7629" lon="9.025365"><ele>644.2</ele><time>2026-04-02T08:49:51.997Z</time></trkpt><trkpt lat="44.7630017" lon="9.02535"><ele>642.0</ele><time>2026-04-02T08:49:52.998Z</time></trkpt><trkpt lat="44.7631083" lon="9.0253317"><ele>642.0</ele><time>2026-04-02T08:49:53.997Z</time></trkpt><trkpt lat="44.7632117" lon="9.0253267"><ele>642.0</ele><time>2026-04-02T08:49:54.998Z</time></trkpt><trkpt lat="44.7633117" lon="9.025335"><ele>642.0</ele><time>2026-04-02T08:49:55.998Z</time></trkpt><trkpt lat="44.7634067" lon="9.02538"><ele>642.0</ele><time>2026-04-02T08:49:56.998Z</time></trkpt><trkpt lat="44.7634817" lon="9.0254233"><ele>642.0</ele><time>2026-04-02T08:49:57.998Z</time></trkpt><trkpt lat="44.7635533" lon="9.025485"><ele>640.4</ele><time>2026-04-02T08:49:58.998Z</time></trkpt><trkpt lat="44.7636167" lon="9.025565"><ele>638.8000000000001</ele><time>2026-04-02T08:49:59.998Z</time></trkpt><trkpt lat="44.7636767" lon="9.02566"><ele>637.2</ele><time>2026-04-02T08:50:00.998Z</time></trkpt><trkpt lat="44.763745" lon="9.025755"><ele>635.6</ele><time>2026-04-02T08:50:01.998Z</time></trkpt><trkpt lat="44.7638117" lon="9.0258583"><ele>634.0</ele><time>2026-04-02T08:50:02.998Z</time></trkpt><trkpt lat="44.76389" lon="9.025975"><ele>634.0</ele><time>2026-04-02T08:50:03.997Z</time></trkpt><trkpt lat="44.7639817" lon="9.02609"><ele>634.0</ele><time>2026-04-02T08:50:04.998Z</time></trkpt><trkpt lat="44.764075" lon="9.0262083"><ele>634.0</ele><time>2026-04-02T08:50:05.998Z</time></trkpt><trkpt lat="44.764185" lon="9.026325"><ele>634.0</ele><time>2026-04-02T08:50:06.998Z</time></trkpt><trkpt lat="44.7642833" lon="9.0264283"><ele>628.5</ele><time>2026-04-02T08:50:07.998Z</time></trkpt><trkpt lat="44.7643883" lon="9.026525"><ele>623.0</ele><time>2026-04-02T08:50:08.998Z</time></trkpt><trkpt lat="44.7644817" lon="9.026615"><ele>617.5</ele><time>2026-04-02T08:50:09.998Z</time></trkpt><trkpt lat="44.7645567" lon="9.0267267"><ele>612.0</ele><time>2026-04-02T08:50:10.997Z</time></trkpt><trkpt lat="44.7646267" lon="9.02686"><ele>612.0</ele><time>2026-04-02T08:50:11.998Z</time></trkpt><trkpt lat="44.7646883" lon="9.0270083"><ele>612.0</ele><time>2026-04-02T08:50:12.998Z</time></trkpt><trkpt lat="44.7647383" lon="9.02717"><ele>612.0</ele><time>2026-04-02T08:50:13.998Z</time></trkpt><trkpt lat="44.7647817" lon="9.02733"><ele>612.0</ele><time>2026-04-02T08:50:14.998Z</time></trkpt><trkpt lat="44.7648067" lon="9.0274767"><ele>614.0</ele><time>2026-04-02T08:50:15.998Z</time></trkpt><trkpt lat="44.76482" lon="9.0276133"><ele>616.0</ele><time>2026-04-02T08:50:16.998Z</time></trkpt><trkpt lat="44.76483" lon="9.0277383"><ele>618.0</ele><time>2026-04-02T08:50:17.998Z</time></trkpt><trkpt lat="44.764825" lon="9.0278733"><ele>620.0</ele><time>2026-04-02T08:50:18.998Z</time></trkpt><trkpt lat="44.7648067" lon="9.02801"><ele>622.0</ele><time>2026-04-02T08:50:19.997Z</time></trkpt><trkpt lat="44.7647833" lon="9.0281533"><ele>622.0</ele><time>2026-04-02T08:50:20.998Z</time></trkpt><trkpt lat="44.7647567" lon="9.028295"><ele>622.0</ele><time>2026-04-02T08:50:21.998Z</time></trkpt><trkpt lat="44.76474" lon="9.0284533"><ele>622.0</ele><time>2026-04-02T08:50:22.998Z</time></trkpt><trkpt lat="44.7647267" lon="9.028615"><ele>622.0</ele><time>2026-04-02T08:50:23.998Z</time></trkpt><trkpt lat="44.7647217" lon="9.0287767"><ele>622.0</ele><time>2026-04-02T08:50:24.998Z</time></trkpt><trkpt lat="44.7647267" lon="9.0288983"><ele>622.1666666666667</ele><time>2026-04-02T08:50:25.998Z</time></trkpt><trkpt lat="44.7647333" lon="9.0290033"><ele>622.3333333333334</ele><time>2026-04-02T08:50:26.998Z</time></trkpt><trkpt lat="44.7648017" lon="9.02913"><ele>622.5</ele><time>2026-04-02T08:50:28.998Z</time></trkpt><trkpt lat="44.7648533" lon="9.0291833"><ele>622.6666666666666</ele><time>2026-04-02T08:50:29.998Z</time></trkpt><trkpt lat="44.7649233" lon="9.0292367"><ele>622.8333333333333</ele><time>2026-04-02T08:50:30.998Z</time></trkpt><trkpt lat="44.7650117" lon="9.029275"><ele>623.0</ele><time>2026-04-02T08:50:31.997Z</time></trkpt><trkpt lat="44.7651133" lon="9.0293083"><ele>618.8</ele><time>2026-04-02T08:50:32.998Z</time></trkpt><trkpt lat="44.7652317" lon="9.0293183"><ele>614.5999999999999</ele><time>2026-04-02T08:50:33.997Z</time></trkpt><trkpt lat="44.7653433" lon="9.02933"><ele>610.4000000000001</ele><time>2026-04-02T08:50:34.998Z</time></trkpt><trkpt lat="44.76545" lon="9.029345"><ele>606.2</ele><time>2026-04-02T08:50:35.998Z</time></trkpt><trkpt lat="44.7655533" lon="9.0293617"><ele>602.0</ele><time>2026-04-02T08:50:36.997Z</time></trkpt><trkpt lat="44.7656433" lon="9.0293933"><ele>602.0</ele><time>2026-04-02T08:50:37.998Z</time></trkpt><trkpt lat="44.76572" lon="9.02945"><ele>602.0</ele><time>2026-04-02T08:50:38.998Z</time></trkpt><trkpt lat="44.765785" lon="9.029515"><ele>602.0</ele><time>2026-04-02T08:50:39.998Z</time></trkpt><trkpt lat="44.7658367" lon="9.029595"><ele>602.0</ele><time>2026-04-02T08:50:40.998Z</time></trkpt><trkpt lat="44.765885" lon="9.0296783"><ele>602.0</ele><time>2026-04-02T08:50:41.998Z</time></trkpt><trkpt lat="44.7659467" lon="9.029775"><ele>602.0</ele><time>2026-04-02T08:50:42.998Z</time></trkpt><trkpt lat="44.76602" lon="9.0298533"><ele>600.8333333333333</ele><time>2026-04-02T08:50:43.998Z</time></trkpt><trkpt lat="44.7660967" lon="9.029915"><ele>599.6666666666666</ele><time>2026-04-02T08:50:44.998Z</time></trkpt><trkpt lat="44.766175" lon="9.02997"><ele>598.5</ele><time>2026-04-02T08:50:45.998Z</time></trkpt><trkpt lat="44.76626" lon="9.0300217"><ele>597.3333333333334</ele><time>2026-04-02T08:50:46.998Z</time></trkpt><trkpt lat="44.7663383" lon="9.0300683"><ele>596.1666666666667</ele><time>2026-04-02T08:50:47.998Z</time></trkpt><trkpt lat="44.7664033" lon="9.0300917"><ele>595.0</ele><time>2026-04-02T08:50:48.998Z</time></trkpt><trkpt lat="44.7665133" lon="9.0301067"><ele>595.0</ele><time>2026-04-02T08:50:50.998Z</time></trkpt><trkpt lat="44.7665717" lon="9.0300533"><ele>595.0</ele><time>2026-04-02T08:50:52.998Z</time></trkpt><trkpt lat="44.766525" lon="9.0299467"><ele>595.0</ele><time>2026-04-02T08:50:55.997Z</time></trkpt><trkpt lat="44.7664267" lon="9.029865"><ele>595.0</ele><time>2026-04-02T08:50:57.998Z</time></trkpt><trkpt lat="44.76636" lon="9.0298083"><ele>595.0</ele><time>2026-04-02T08:50:58.998Z</time></trkpt><trkpt lat="44.76629" lon="9.029745"><ele>595.0</ele><time>2026-04-02T08:50:59.998Z</time></trkpt><trkpt lat="44.76622" lon="9.029665"><ele>594.0</ele><time>2026-04-02T08:51:00.998Z</time></trkpt><trkpt lat="44.7661533" lon="9.0295583"><ele>593.0</ele><time>2026-04-02T08:51:01.998Z</time></trkpt><trkpt lat="44.7661017" lon="9.0294367"><ele>592.0</ele><time>2026-04-02T08:51:02.998Z</time></trkpt><trkpt lat="44.7660533" lon="9.0292833"><ele>591.0</ele><time>2026-04-02T08:51:03.997Z</time></trkpt><trkpt lat="44.7660267" lon="9.0291167"><ele>590.0</ele><time>2026-04-02T08:51:04.998Z</time></trkpt><trkpt lat="44.76601" lon="9.0289683"><ele>590.0</ele><time>2026-04-02T08:51:05.998Z</time></trkpt><trkpt lat="44.7659867" lon="9.028825"><ele>590.0</ele><time>2026-04-02T08:51:06.997Z</time></trkpt><trkpt lat="44.765945" lon="9.0286983"><ele>590.0</ele><time>2026-04-02T08:51:07.998Z</time></trkpt><trkpt lat="44.7658883" lon="9.028565"><ele>590.0</ele><time>2026-04-02T08:51:08.998Z</time></trkpt><trkpt lat="44.7658267" lon="9.0284333"><ele>590.0</ele><time>2026-04-02T08:51:09.998Z</time></trkpt><trkpt lat="44.7657667" lon="9.0283"><ele>588.5</ele><time>2026-04-02T08:51:10.998Z</time></trkpt><trkpt lat="44.7657217" lon="9.0281433"><ele>587.0</ele><time>2026-04-02T08:51:11.998Z</time></trkpt><trkpt lat="44.7656917" lon="9.02799"><ele>585.5</ele><time>2026-04-02T08:51:12.998Z</time></trkpt><trkpt lat="44.7656717" lon="9.027835"><ele>584.0</ele><time>2026-04-02T08:51:13.998Z</time></trkpt><trkpt lat="44.76566" lon="9.02768"><ele>584.0</ele><time>2026-04-02T08:51:14.998Z</time></trkpt><trkpt lat="44.7656483" lon="9.0275317"><ele>584.0</ele><time>2026-04-02T08:51:15.998Z</time></trkpt><trkpt lat="44.7656267" lon="9.0274033"><ele>584.0</ele><time>2026-04-02T08:51:16.998Z</time></trkpt><trkpt lat="44.7655883" lon="9.0272933"><ele>584.0</ele><time>2026-04-02T08:51:17.998Z</time></trkpt><trkpt lat="44.7655183" lon="9.027185"><ele>584.0</ele><time>2026-04-02T08:51:18.998Z</time></trkpt><trkpt lat="44.7654517" lon="9.0270783"><ele>580.75</ele><time>2026-04-02T08:51:19.997Z</time></trkpt><trkpt lat="44.765385" lon="9.0269583"><ele>577.5</ele><time>2026-04-02T08:51:20.998Z</time></trkpt><trkpt lat="44.76533" lon="9.026825"><ele>574.25</ele><time>2026-04-02T08:51:21.998Z</time></trkpt><trkpt lat="44.7652833" lon="9.026675"><ele>571.0</ele><time>2026-04-02T08:51:22.998Z</time></trkpt><trkpt lat="44.765255" lon="9.0264967"><ele>574.0</ele><time>2026-04-02T08:51:23.998Z</time></trkpt><trkpt lat="44.7652367" lon="9.026315"><ele>577.0</ele><time>2026-04-02T08:51:24.998Z</time></trkpt><trkpt lat="44.7652167" lon="9.0261367"><ele>580.0</ele><time>2026-04-02T08:51:25.998Z</time></trkpt><trkpt lat="44.76518" lon="9.0259633"><ele>583.0</ele><time>2026-04-02T08:51:26.998Z</time></trkpt><trkpt lat="44.7651333" lon="9.0257933"><ele>583.0</ele><time>2026-04-02T08:51:27.997Z</time></trkpt><trkpt lat="44.7650783" lon="9.02562"><ele>583.0</ele><time>2026-04-02T08:51:28.997Z</time></trkpt><trkpt lat="44.764995" lon="9.02546"><ele>583.0</ele><time>2026-04-02T08:51:29.998Z</time></trkpt><trkpt lat="44.76494" lon="9.0253017"><ele>583.0</ele><time>2026-04-02T08:51:30.998Z</time></trkpt><trkpt lat="44.76489" lon="9.0251417"><ele>583.0</ele><time>2026-04-02T08:51:31.998Z</time></trkpt><trkpt lat="44.7648617" lon="9.024985"><ele>583.0</ele><time>2026-04-02T08:51:32.998Z</time></trkpt><trkpt lat="44.7648467" lon="9.0248417"><ele>583.0</ele><time>2026-04-02T08:51:33.998Z</time></trkpt><trkpt lat="44.7648467" lon="9.0247067"><ele>583.0</ele><time>2026-04-02T08:51:34.998Z</time></trkpt><trkpt lat="44.76485" lon="9.0245783"><ele>583.0</ele><time>2026-04-02T08:51:35.998Z</time></trkpt><trkpt lat="44.7648667" lon="9.0244333"><ele>583.0</ele><time>2026-04-02T08:51:36.998Z</time></trkpt><trkpt lat="44.76491" lon="9.0242917"><ele>583.0</ele><time>2026-04-02T08:51:37.998Z</time></trkpt><trkpt lat="44.7649833" lon="9.0241583"><ele>583.0</ele><time>2026-04-02T08:51:38.998Z</time></trkpt><trkpt lat="44.7650833" lon="9.0240483"><ele>583.0</ele><time>2026-04-02T08:51:39.998Z</time></trkpt><trkpt lat="44.7652033" lon="9.0239683"><ele>575.75</ele><time>2026-04-02T08:51:40.998Z</time></trkpt><trkpt lat="44.7653283" lon="9.023915"><ele>568.5</ele><time>2026-04-02T08:51:41.998Z</time></trkpt><trkpt lat="44.7654517" lon="9.0238633"><ele>561.25</ele><time>2026-04-02T08:51:42.998Z</time></trkpt><trkpt lat="44.7655717" lon="9.0238133"><ele>554.0</ele><time>2026-04-02T08:51:43.998Z</time></trkpt><trkpt lat="44.7656733" lon="9.0237433"><ele>554.0</ele><time>2026-04-02T08:51:44.998Z</time></trkpt><trkpt lat="44.76576" lon="9.0236483"><ele>554.0</ele><time>2026-04-02T08:51:45.998Z</time></trkpt><trkpt lat="44.7658317" lon="9.0235383"><ele>554.0</ele><time>2026-04-02T08:51:46.998Z</time></trkpt><trkpt lat="44.7658933" lon="9.0234017"><ele>554.0</ele><time>2026-04-02T08:51:47.998Z</time></trkpt><trkpt lat="44.7659483" lon="9.023245"><ele>551.75</ele><time>2026-04-02T08:51:48.998Z</time></trkpt><trkpt lat="44.7659983" lon="9.0230633"><ele>549.5</ele><time>2026-04-02T08:51:49.997Z</time></trkpt><trkpt lat="44.76605" lon="9.0228883"><ele>547.25</ele><time>2026-04-02T08:51:50.998Z</time></trkpt><trkpt lat="44.76607" lon="9.0227417"><ele>545.0</ele><time>2026-04-02T08:51:51.998Z</time></trkpt><trkpt lat="44.766065" lon="9.0226183"><ele>541.8</ele><time>2026-04-02T08:51:52.997Z</time></trkpt><trkpt lat="44.7660383" lon="9.0225067"><ele>538.6</ele><time>2026-04-02T08:51:53.998Z</time></trkpt><trkpt lat="44.7659967" lon="9.02241"><ele>535.4</ele><time>2026-04-02T08:51:54.997Z</time></trkpt><trkpt lat="44.7659233" lon="9.0223283"><ele>532.2</ele><time>2026-04-02T08:51:55.997Z</time></trkpt><trkpt lat="44.7658317" lon="9.0222583"><ele>529.0</ele><time>2026-04-02T08:51:56.998Z</time></trkpt><trkpt lat="44.76574" lon="9.022185"><ele>529.0</ele><time>2026-04-02T08:51:57.998Z</time></trkpt><trkpt lat="44.76566" lon="9.02209"><ele>529.0</ele><time>2026-04-02T08:51:58.998Z</time></trkpt><trkpt lat="44.7655883" lon="9.02198"><ele>529.0</ele><time>2026-04-02T08:51:59.998Z</time></trkpt><trkpt lat="44.76552" lon="9.0218367"><ele>529.0</ele><time>2026-04-02T08:52:00.998Z</time></trkpt><trkpt lat="44.76547" lon="9.021685"><ele>526.75</ele><time>2026-04-02T08:52:01.998Z</time></trkpt><trkpt lat="44.7654283" lon="9.0215117"><ele>524.5</ele><time>2026-04-02T08:52:02.998Z</time></trkpt><trkpt lat="44.7654083" lon="9.021335"><ele>522.25</ele><time>2026-04-02T08:52:03.998Z</time></trkpt><trkpt lat="44.765395" lon="9.0211783"><ele>520.0</ele><time>2026-04-02T08:52:04.997Z</time></trkpt><trkpt lat="44.7653683" lon="9.0210417"><ele>520.0</ele><time>2026-04-02T08:52:05.998Z</time></trkpt><trkpt lat="44.7653267" lon="9.02091"><ele>520.0</ele><time>2026-04-02T08:52:06.998Z</time></trkpt><trkpt lat="44.7652733" lon="9.0207933"><ele>520.0</ele><time>2026-04-02T08:52:07.998Z</time></trkpt><trkpt lat="44.765205" lon="9.0206717"><ele>520.0</ele><time>2026-04-02T08:52:08.998Z</time></trkpt><trkpt lat="44.765125" lon="9.0205417"><ele>520.0</ele><time>2026-04-02T08:52:09.998Z</time></trkpt><trkpt lat="44.765045" lon="9.0204217"><ele>521.0</ele><time>2026-04-02T08:52:10.997Z</time></trkpt><trkpt lat="44.764975" lon="9.0202767"><ele>522.0</ele><time>2026-04-02T08:52:11.998Z</time></trkpt><trkpt lat="44.764905" lon="9.0201133"><ele>523.0</ele><time>2026-04-02T08:52:12.998Z</time></trkpt><trkpt lat="44.764835" lon="9.0199233"><ele>524.0</ele><time>2026-04-02T08:52:13.998Z</time></trkpt><trkpt lat="44.764755" lon="9.0197433"><ele>520.5</ele><time>2026-04-02T08:52:14.998Z</time></trkpt><trkpt lat="44.7646733" lon="9.0195917"><ele>517.0</ele><time>2026-04-02T08:52:15.998Z</time></trkpt><trkpt lat="44.7645933" lon="9.01946"><ele>513.5</ele><time>2026-04-02T08:52:16.998Z</time></trkpt><trkpt lat="44.7644933" lon="9.0193517"><ele>510.0</ele><time>2026-04-02T08:52:17.998Z</time></trkpt><trkpt lat="44.764395" lon="9.01925"><ele>512.25</ele><time>2026-04-02T08:52:18.998Z</time></trkpt><trkpt lat="44.764305" lon="9.0191533"><ele>514.5</ele><time>2026-04-02T08:52:19.998Z</time></trkpt><trkpt lat="44.7642167" lon="9.0190417"><ele>516.75</ele><time>2026-04-02T08:52:20.998Z</time></trkpt><trkpt lat="44.76414" lon="9.018915"><ele>519.0</ele><time>2026-04-02T08:52:21.998Z</time></trkpt><trkpt lat="44.7640817" lon="9.0187617"><ele>519.0</ele><time>2026-04-02T08:52:22.997Z</time></trkpt><trkpt lat="44.7640383" lon="9.0186167"><ele>519.0</ele><time>2026-04-02T08:52:23.998Z</time></trkpt><trkpt lat="44.764015" lon="9.01848"><ele>519.0</ele><time>2026-04-02T08:52:24.998Z</time></trkpt><trkpt lat="44.7640117" lon="9.0183417"><ele>519.0</ele><time>2026-04-02T08:52:25.998Z</time></trkpt><trkpt lat="44.764015" lon="9.01821"><ele>519.0</ele><time>2026-04-02T08:52:26.998Z</time></trkpt><trkpt lat="44.76401" lon="9.0181"><ele>515.6666666666666</ele><time>2026-04-02T08:52:27.998Z</time></trkpt><trkpt lat="44.7639817" lon="9.0179933"><ele>512.3333333333334</ele><time>2026-04-02T08:52:28.998Z</time></trkpt><trkpt lat="44.763935" lon="9.017915"><ele>509.0</ele><time>2026-04-02T08:52:29.998Z</time></trkpt><trkpt lat="44.7638583" lon="9.0178567"><ele>505.6666666666667</ele><time>2026-04-02T08:52:30.998Z</time></trkpt><trkpt lat="44.7637717" lon="9.0178233"><ele>502.33333333333337</ele><time>2026-04-02T08:52:31.998Z</time></trkpt><trkpt lat="44.76368" lon="9.0178067"><ele>499.0</ele><time>2026-04-02T08:52:32.998Z</time></trkpt><trkpt lat="44.7635867" lon="9.0177983"><ele>499.0</ele><time>2026-04-02T08:52:33.998Z</time></trkpt><trkpt lat="44.763505" lon="9.0177783"><ele>499.0</ele><time>2026-04-02T08:52:34.998Z</time></trkpt><trkpt lat="44.7634233" lon="9.01769"><ele>499.0</ele><time>2026-04-02T08:52:36.998Z</time></trkpt><trkpt lat="44.763425" lon="9.0175383"><ele>499.0</ele><time>2026-04-02T08:52:38.998Z</time></trkpt><trkpt lat="44.7635617" lon="9.0175267"><ele>499.0</ele><time>2026-04-02T08:52:40.998Z</time></trkpt><trkpt lat="44.7636633" lon="9.0175383"><ele>499.0</ele><time>2026-04-02T08:52:41.998Z</time></trkpt><trkpt lat="44.7637783" lon="9.0175467"><ele>499.0</ele><time>2026-04-02T08:52:42.998Z</time></trkpt><trkpt lat="44.7638917" lon="9.017545"><ele>499.0</ele><time>2026-04-02T08:52:43.998Z</time></trkpt><trkpt lat="44.7639983" lon="9.0175533"><ele>499.0</ele><time>2026-04-02T08:52:44.998Z</time></trkpt><trkpt lat="44.7640817" lon="9.0175867"><ele>499.0</ele><time>2026-04-02T08:52:45.998Z</time></trkpt><trkpt lat="44.76415" lon="9.01765"><ele>499.0</ele><time>2026-04-02T08:52:46.998Z</time></trkpt><trkpt lat="44.76422" lon="9.0177233"><ele>499.0</ele><time>2026-04-02T08:52:47.997Z</time></trkpt><trkpt lat="44.7642833" lon="9.0178133"><ele>499.0</ele><time>2026-04-02T08:52:48.998Z</time></trkpt><trkpt lat="44.76434" lon="9.017905"><ele>499.0</ele><time>2026-04-02T08:52:49.998Z</time></trkpt><trkpt lat="44.7644083" lon="9.018"><ele>499.0</ele><time>2026-04-02T08:52:50.998Z</time></trkpt><trkpt lat="44.76451" lon="9.0181017"><ele>498.5</ele><time>2026-04-02T08:52:51.998Z</time></trkpt><trkpt lat="44.7646133" lon="9.0182017"><ele>498.0</ele><time>2026-04-02T08:52:52.998Z</time></trkpt><trkpt lat="44.7647333" lon="9.01829"><ele>497.5</ele><time>2026-04-02T08:52:53.998Z</time></trkpt><trkpt lat="44.764845" lon="9.0183733"><ele>497.0</ele><time>2026-04-02T08:52:54.997Z</time></trkpt><trkpt lat="44.764935" lon="9.01844"><ele>496.99999999999994</ele><time>2026-04-02T08:52:55.998Z</time></trkpt><trkpt lat="44.7650267" lon="9.018475"><ele>497.0</ele><time>2026-04-02T08:52:56.998Z</time></trkpt><trkpt lat="44.76511" lon="9.0184883"><ele>497.0</ele><time>2026-04-02T08:52:57.998Z</time></trkpt><trkpt lat="44.7651783" lon="9.0184833"><ele>497.0</ele><time>2026-04-02T08:52:58.998Z</time></trkpt><trkpt lat="44.7652717" lon="9.0184167"><ele>496.99999999999994</ele><time>2026-04-02T08:53:00.998Z</time></trkpt><trkpt lat="44.7653233" lon="9.01835"><ele>497.0</ele><time>2026-04-02T08:53:01.998Z</time></trkpt><trkpt lat="44.7653783" lon="9.01828"><ele>494.40000000000003</ele><time>2026-04-02T08:53:02.997Z</time></trkpt><trkpt lat="44.7654367" lon="9.0182283"><ele>491.80000000000007</ele><time>2026-04-02T08:53:03.998Z</time></trkpt><trkpt lat="44.7655267" lon="9.0181883"><ele>489.2</ele><time>2026-04-02T08:53:05.998Z</time></trkpt><trkpt lat="44.7656433" lon="9.018235"><ele>486.6</ele><time>2026-04-02T08:53:07.998Z</time></trkpt><trkpt lat="44.76571" lon="9.0182867"><ele>484.0</ele><time>2026-04-02T08:53:08.998Z</time></trkpt><trkpt lat="44.76579" lon="9.01836"><ele>484.00000000000006</ele><time>2026-04-02T08:53:09.997Z</time></trkpt><trkpt lat="44.7658733" lon="9.0184467"><ele>484.0</ele><time>2026-04-02T08:53:10.998Z</time></trkpt><trkpt lat="44.76595" lon="9.0185217"><ele>484.0</ele><time>2026-04-02T08:53:11.998Z</time></trkpt><trkpt lat="44.7660317" lon="9.0185717"><ele>484.0</ele><time>2026-04-02T08:53:12.998Z</time></trkpt><trkpt lat="44.7661067" lon="9.0185917"><ele>484.00000000000006</ele><time>2026-04-02T08:53:13.998Z</time></trkpt><trkpt lat="44.7661883" lon="9.018575"><ele>484.0</ele><time>2026-04-02T08:53:14.998Z</time></trkpt><trkpt lat="44.76628" lon="9.0185367"><ele>482.6666666666667</ele><time>2026-04-02T08:53:15.998Z</time></trkpt><trkpt lat="44.7663683" lon="9.0184717"><ele>481.33333333333337</ele><time>2026-04-02T08:53:16.997Z</time></trkpt><trkpt lat="44.7664583" lon="9.0184067"><ele>480.0</ele><time>2026-04-02T08:53:17.998Z</time></trkpt><trkpt lat="44.76654" lon="9.018365"><ele>478.66666666666663</ele><time>2026-04-02T08:53:18.998Z</time></trkpt><trkpt lat="44.7666167" lon="9.018355"><ele>477.3333333333333</ele><time>2026-04-02T08:53:19.998Z</time></trkpt><trkpt lat="44.7666833" lon="9.018365"><ele>476.0</ele><time>2026-04-02T08:53:20.998Z</time></trkpt><trkpt lat="44.76678" lon="9.0183333"><ele>472.20000000000005</ele><time>2026-04-02T08:53:22.998Z</time></trkpt><trkpt lat="44.7667817" lon="9.0182433"><ele>468.40000000000003</ele><time>2026-04-02T08:53:24.998Z</time></trkpt><trkpt lat="44.76667" lon="9.0181217"><ele>464.6</ele><time>2026-04-02T08:53:26.998Z</time></trkpt><trkpt lat="44.766585" lon="9.01806"><ele>460.8</ele><time>2026-04-02T08:53:27.998Z</time></trkpt><trkpt lat="44.7664933" lon="9.01799"><ele>457.0</ele><time>2026-04-02T08:53:28.998Z</time></trkpt><trkpt lat="44.7664117" lon="9.017915"><ele>457.00000000000006</ele><time>2026-04-02T08:53:29.998Z</time></trkpt><trkpt lat="44.766345" lon="9.0178333"><ele>457.0</ele><time>2026-04-02T08:53:30.998Z</time></trkpt><trkpt lat="44.7663017" lon="9.0177367"><ele>457.0</ele><time>2026-04-02T08:53:31.997Z</time></trkpt><trkpt lat="44.7662767" lon="9.01764"><ele>457.0</ele><time>2026-04-02T08:53:32.998Z</time></trkpt><trkpt lat="44.766265" lon="9.0175333"><ele>457.00000000000006</ele><time>2026-04-02T08:53:33.998Z</time></trkpt><trkpt lat="44.766255" lon="9.0174133"><ele>457.0</ele><time>2026-04-02T08:53:34.997Z</time></trkpt><trkpt lat="44.7662617" lon="9.0173"><ele>453.8</ele><time>2026-04-02T08:53:35.998Z</time></trkpt><trkpt lat="44.76626" lon="9.0171833"><ele>450.6</ele><time>2026-04-02T08:53:36.998Z</time></trkpt><trkpt lat="44.7662467" lon="9.0170683"><ele>447.40000000000003</ele><time>2026-04-02T08:53:37.998Z</time></trkpt><trkpt lat="44.7662183" lon="9.0169517"><ele>444.20000000000005</ele><time>2026-04-02T08:53:38.998Z</time></trkpt><trkpt lat="44.7661683" lon="9.0168383"><ele>441.0</ele><time>2026-04-02T08:53:39.998Z</time></trkpt><trkpt lat="44.7661" lon="9.01673"><ele>439.4</ele><time>2026-04-02T08:53:40.997Z</time></trkpt><trkpt lat="44.76602" lon="9.01663"><ele>437.8</ele><time>2026-04-02T08:53:41.998Z</time></trkpt><trkpt lat="44.7659433" lon="9.01654"><ele>436.19999999999993</ele><time>2026-04-02T08:53:42.998Z</time></trkpt><trkpt lat="44.7658533" lon="9.0164433"><ele>434.59999999999997</ele><time>2026-04-02T08:53:43.997Z</time></trkpt><trkpt lat="44.76577" lon="9.016355"><ele>433.0</ele><time>2026-04-02T08:53:44.998Z</time></trkpt><trkpt lat="44.7656967" lon="9.0162667"><ele>433.00000000000006</ele><time>2026-04-02T08:53:45.998Z</time></trkpt><trkpt lat="44.7656433" lon="9.0161867"><ele>433.0</ele><time>2026-04-02T08:53:46.998Z</time></trkpt><trkpt lat="44.765595" lon="9.0161233"><ele>433.0</ele><time>2026-04-02T08:53:47.998Z</time></trkpt><trkpt lat="44.7655433" lon="9.0159783"><ele>433.0</ele><time>2026-04-02T08:53:49.998Z</time></trkpt><trkpt lat="44.7656083" lon="9.0158883"><ele>433.00000000000006</ele><time>2026-04-02T08:53:51.997Z</time></trkpt><trkpt lat="44.7656733" lon="9.0158617"><ele>433.0</ele><time>2026-04-02T08:53:52.998Z</time></trkpt><trkpt lat="44.7657483" lon="9.015855"><ele>433.0</ele><time>2026-04-02T08:53:53.998Z</time></trkpt><trkpt lat="44.76584" lon="9.0158533"><ele>432.99999999999994</ele><time>2026-04-02T08:53:54.997Z</time></trkpt><trkpt lat="44.7659333" lon="9.015865"><ele>432.99999999999994</ele><time>2026-04-02T08:53:55.997Z</time></trkpt><trkpt lat="44.7660317" lon="9.0158933"><ele>433.0</ele><time>2026-04-02T08:53:56.998Z</time></trkpt><trkpt lat="44.7661233" lon="9.015945"><ele>433.0</ele><time>2026-04-02T08:53:57.998Z</time></trkpt><trkpt lat="44.7661983" lon="9.016025"><ele>430.0</ele><time>2026-04-02T08:53:58.998Z</time></trkpt><trkpt lat="44.766265" lon="9.0160917"><ele>426.99999999999994</ele><time>2026-04-02T08:53:59.998Z</time></trkpt><trkpt lat="44.7663317" lon="9.0161367"><ele>424.0</ele><time>2026-04-02T08:54:00.998Z</time></trkpt><trkpt lat="44.7664217" lon="9.0161317"><ele>421.0</ele><time>2026-04-02T08:54:02.997Z</time></trkpt><trkpt lat="44.76643" lon="9.0159967"><ele>418.0</ele><time>2026-04-02T08:54:04.998Z</time></trkpt><trkpt lat="44.7663867" lon="9.0158317"><ele>417.0</ele><time>2026-04-02T08:54:06.998Z</time></trkpt><trkpt lat="44.766335" lon="9.0157267"><ele>416.0</ele><time>2026-04-02T08:54:07.998Z</time></trkpt><trkpt lat="44.7662717" lon="9.0156317"><ele>415.0</ele><time>2026-04-02T08:54:08.998Z</time></trkpt><trkpt lat="44.76619" lon="9.0155183"><ele>414.0</ele><time>2026-04-02T08:54:09.998Z</time></trkpt><trkpt lat="44.7661033" lon="9.0153917"><ele>413.0</ele><time>2026-04-02T08:54:10.998Z</time></trkpt><trkpt lat="44.7660217" lon="9.01528"><ele>413.0</ele><time>2026-04-02T08:54:11.998Z</time></trkpt><trkpt lat="44.7659333" lon="9.0151567"><ele>413.0</ele><time>2026-04-02T08:54:12.998Z</time></trkpt><trkpt lat="44.7658433" lon="9.0150483"><ele>413.0</ele><time>2026-04-02T08:54:13.998Z</time></trkpt><trkpt lat="44.7657483" lon="9.01496"><ele>413.0</ele><time>2026-04-02T08:54:14.997Z</time></trkpt><trkpt lat="44.7656417" lon="9.0148983"><ele>408.4</ele><time>2026-04-02T08:54:15.998Z</time></trkpt><trkpt lat="44.7655417" lon="9.01483"><ele>403.79999999999995</ele><time>2026-04-02T08:54:16.998Z</time></trkpt><trkpt lat="44.76544" lon="9.014775"><ele>399.2</ele><time>2026-04-02T08:54:17.997Z</time></trkpt><trkpt lat="44.7653567" lon="9.0147383"><ele>394.6</ele><time>2026-04-02T08:54:18.997Z</time></trkpt><trkpt lat="44.7652817" lon="9.014735"><ele>390.0</ele><time>2026-04-02T08:54:19.998Z</time></trkpt><trkpt lat="44.7652083" lon="9.0147633"><ele>390.0</ele><time>2026-04-02T08:54:20.998Z</time></trkpt><trkpt lat="44.765145" lon="9.0148183"><ele>390.0</ele><time>2026-04-02T08:54:21.998Z</time></trkpt><trkpt lat="44.7651017" lon="9.0149133"><ele>390.0</ele><time>2026-04-02T08:54:22.998Z</time></trkpt><trkpt lat="44.76506" lon="9.0150083"><ele>390.0</ele><time>2026-04-02T08:54:23.998Z</time></trkpt><trkpt lat="44.7650067" lon="9.0150817"><ele>390.0</ele><time>2026-04-02T08:54:24.998Z</time></trkpt><trkpt lat="44.7649467" lon="9.0151167"><ele>390.0</ele><time>2026-04-02T08:54:25.998Z</time></trkpt><trkpt lat="44.7648517" lon="9.01511"><ele>390.0</ele><time>2026-04-02T08:54:27.998Z</time></trkpt><trkpt lat="44.7647967" lon="9.014915"><ele>390.0</ele><time>2026-04-02T08:54:29.997Z</time></trkpt><trkpt lat="44.7647683" lon="9.0147567"><ele>390.0</ele><time>2026-04-02T08:54:30.996Z</time></trkpt><trkpt lat="44.7647467" lon="9.0145917"><ele>390.0</ele><time>2026-04-02T08:54:31.997Z</time></trkpt><trkpt lat="44.7647117" lon="9.0144183"><ele>390.0</ele><time>2026-04-02T08:54:32.997Z</time></trkpt><trkpt lat="44.7646817" lon="9.0142533"><ele>390.0</ele><time>2026-04-02T08:54:33.997Z</time></trkpt><trkpt lat="44.76465" lon="9.01409"><ele>390.0</ele><time>2026-04-02T08:54:34.997Z</time></trkpt><trkpt lat="44.7646067" lon="9.013935"><ele>390.0</ele><time>2026-04-02T08:54:35.997Z</time></trkpt><trkpt lat="44.76456" lon="9.013775"><ele>390.75</ele><time>2026-04-02T08:54:36.997Z</time></trkpt><trkpt lat="44.7644883" lon="9.013625"><ele>391.5</ele><time>2026-04-02T08:54:37.997Z</time></trkpt><trkpt lat="44.7644117" lon="9.0134833"><ele>392.25</ele><time>2026-04-02T08:54:38.997Z</time></trkpt><trkpt lat="44.7643367" lon="9.0133433"><ele>393.0</ele><time>2026-04-02T08:54:39.996Z</time></trkpt><trkpt lat="44.76427" lon="9.0132417"><ele>390.59999999999997</ele><time>2026-04-02T08:54:40.997Z</time></trkpt><trkpt lat="44.76421" lon="9.0131767"><ele>388.2</ele><time>2026-04-02T08:54:41.997Z</time></trkpt><trkpt lat="44.7641633" lon="9.01309"><ele>385.8</ele><time>2026-04-02T08:54:42.997Z</time></trkpt><trkpt lat="44.7641217" lon="9.01293"><ele>383.4</ele><time>2026-04-02T08:54:44.997Z</time></trkpt><trkpt lat="44.7641733" lon="9.0128033"><ele>381.0</ele><time>2026-04-02T08:54:46.997Z</time></trkpt><trkpt lat="44.7643017" lon="9.0127983"><ele>379.4</ele><time>2026-04-02T08:54:48.997Z</time></trkpt><trkpt lat="44.7643867" lon="9.0128317"><ele>377.8</ele><time>2026-04-02T08:54:49.997Z</time></trkpt><trkpt lat="44.7644833" lon="9.01288"><ele>376.2</ele><time>2026-04-02T08:54:50.996Z</time></trkpt><trkpt lat="44.7646017" lon="9.0129183"><ele>374.59999999999997</ele><time>2026-04-02T08:54:51.997Z</time></trkpt><trkpt lat="44.76472" lon="9.012935"><ele>373.0</ele><time>2026-04-02T08:54:52.997Z</time></trkpt><trkpt lat="44.7648267" lon="9.0129283"><ele>373.0</ele><time>2026-04-02T08:54:53.997Z</time></trkpt><trkpt lat="44.764915" lon="9.0128983"><ele>373.0</ele><time>2026-04-02T08:54:54.997Z</time></trkpt><trkpt lat="44.7649817" lon="9.01283"><ele>373.0</ele><time>2026-04-02T08:54:55.997Z</time></trkpt><trkpt lat="44.765045" lon="9.0127567"><ele>373.0</ele><time>2026-04-02T08:54:56.997Z</time></trkpt><trkpt lat="44.7651083" lon="9.01269"><ele>373.0</ele><time>2026-04-02T08:54:57.997Z</time></trkpt><trkpt lat="44.7651733" lon="9.0126267"><ele>373.0</ele><time>2026-04-02T08:54:58.997Z</time></trkpt><trkpt lat="44.7652367" lon="9.01258"><ele>371.5</ele><time>2026-04-02T08:54:59.997Z</time></trkpt><trkpt lat="44.7653533" lon="9.0125417"><ele>370.0</ele><time>2026-04-02T08:55:01.996Z</time></trkpt><trkpt lat="44.7655083" lon="9.0125767"><ele>368.5</ele><time>2026-04-02T08:55:03.997Z</time></trkpt><trkpt lat="44.7655967" lon="9.01263"><ele>367.0</ele><time>2026-04-02T08:55:04.997Z</time></trkpt><trkpt lat="44.7656967" lon="9.0126833"><ele>367.0</ele><time>2026-04-02T08:55:05.997Z</time></trkpt><trkpt lat="44.765785" lon="9.0127183"><ele>367.0</ele><time>2026-04-02T08:55:06.997Z</time></trkpt><trkpt lat="44.765865" lon="9.0127317"><ele>367.0</ele><time>2026-04-02T08:55:07.997Z</time></trkpt><trkpt lat="44.765955" lon="9.0127217"><ele>367.0</ele><time>2026-04-02T08:55:08.996Z</time></trkpt><trkpt lat="44.76605" lon="9.0127017"><ele>367.0</ele><time>2026-04-02T08:55:09.997Z</time></trkpt><trkpt lat="44.7661617" lon="9.01269"><ele>368.5</ele><time>2026-04-02T08:55:10.997Z</time></trkpt><trkpt lat="44.766275" lon="9.0127"><ele>370.0</ele><time>2026-04-02T08:55:11.997Z</time></trkpt><trkpt lat="44.7664033" lon="9.0127433"><ele>371.5</ele><time>2026-04-02T08:55:12.997Z</time></trkpt><trkpt lat="44.76654" lon="9.0128133"><ele>373.0</ele><time>2026-04-02T08:55:13.997Z</time></trkpt><trkpt lat="44.7666783" lon="9.0128967"><ele>373.0</ele><time>2026-04-02T08:55:14.996Z</time></trkpt><trkpt lat="44.7668217" lon="9.012985"><ele>373.0</ele><time>2026-04-02T08:55:15.997Z</time></trkpt><trkpt lat="44.76696" lon="9.0130667"><ele>373.0</ele><time>2026-04-02T08:55:16.997Z</time></trkpt><trkpt lat="44.7671017" lon="9.0131267"><ele>374.0</ele><time>2026-04-02T08:55:17.997Z</time></trkpt><trkpt lat="44.7672333" lon="9.01319"><ele>375.0</ele><time>2026-04-02T08:55:18.997Z</time></trkpt><trkpt lat="44.7673767" lon="9.0132467"><ele>376.0</ele><time>2026-04-02T08:55:19.997Z</time></trkpt><trkpt lat="44.7675183" lon="9.01332"><ele>377.0</ele><time>2026-04-02T08:55:20.997Z</time></trkpt><trkpt lat="44.7676583" lon="9.0133817"><ele>370.75</ele><time>2026-04-02T08:55:21.997Z</time></trkpt><trkpt lat="44.76779" lon="9.0134383"><ele>364.5</ele><time>2026-04-02T08:55:22.997Z</time></trkpt><trkpt lat="44.7679333" lon="9.0134833"><ele>358.25</ele><time>2026-04-02T08:55:23.997Z</time></trkpt><trkpt lat="44.76808" lon="9.0135217"><ele>352.0</ele><time>2026-04-02T08:55:24.997Z</time></trkpt><trkpt lat="44.76823" lon="9.0135567"><ele>352.0</ele><time>2026-04-02T08:55:25.997Z</time></trkpt><trkpt lat="44.768375" lon="9.0135833"><ele>352.0</ele><time>2026-04-02T08:55:26.997Z</time></trkpt><trkpt lat="44.7685167" lon="9.0135917"><ele>352.0</ele><time>2026-04-02T08:55:27.997Z</time></trkpt><trkpt lat="44.7686583" lon="9.013575"><ele>352.0</ele><time>2026-04-02T08:55:28.996Z</time></trkpt><trkpt lat="44.7687883" lon="9.0135267"><ele>351.0</ele><time>2026-04-02T08:55:29.997Z</time></trkpt><trkpt lat="44.76892" lon="9.0134567"><ele>350.0</ele><time>2026-04-02T08:55:30.996Z</time></trkpt><trkpt lat="44.7690467" lon="9.0133933"><ele>349.0</ele><time>2026-04-02T08:55:31.997Z</time></trkpt><trkpt lat="44.7691833" lon="9.01333"><ele>348.0</ele><time>2026-04-02T08:55:32.997Z</time></trkpt><trkpt lat="44.76931" lon="9.0132567"><ele>346.25</ele><time>2026-04-02T08:55:33.997Z</time></trkpt><trkpt lat="44.769435" lon="9.0131783"><ele>344.5</ele><time>2026-04-02T08:55:34.997Z</time></trkpt><trkpt lat="44.7695467" lon="9.013105"><ele>342.75</ele><time>2026-04-02T08:55:35.997Z</time></trkpt><trkpt lat="44.7696417" lon="9.01303"><ele>341.0</ele><time>2026-04-02T08:55:36.997Z</time></trkpt><trkpt lat="44.7697133" lon="9.0129467"><ele>341.0</ele><time>2026-04-02T08:55:37.997Z</time></trkpt><trkpt lat="44.7697683" lon="9.01287"><ele>341.0</ele><time>2026-04-02T08:55:38.997Z</time></trkpt><trkpt lat="44.7698067" lon="9.012795"><ele>341.0</ele><time>2026-04-02T08:55:39.997Z</time></trkpt><trkpt lat="44.7698283" lon="9.0127117"><ele>341.0</ele><time>2026-04-02T08:55:40.997Z</time></trkpt><trkpt lat="44.76985" lon="9.0126133"><ele>341.0</ele><time>2026-04-02T08:55:41.997Z</time></trkpt><trkpt lat="44.7698767" lon="9.012505"><ele>341.0</ele><time>2026-04-02T08:55:42.996Z</time></trkpt><trkpt lat="44.7699183" lon="9.0123733"><ele>342.0</ele><time>2026-04-02T08:55:43.997Z</time></trkpt><trkpt lat="44.769975" lon="9.0122367"><ele>343.0</ele><time>2026-04-02T08:55:44.997Z</time></trkpt><trkpt lat="44.7700367" lon="9.012095"><ele>344.0</ele><time>2026-04-02T08:55:45.997Z</time></trkpt><trkpt lat="44.7700983" lon="9.0119433"><ele>345.0</ele><time>2026-04-02T08:55:46.997Z</time></trkpt><trkpt lat="44.7701717" lon="9.0117983"><ele>343.5</ele><time>2026-04-02T08:55:47.997Z</time></trkpt><trkpt lat="44.7702483" lon="9.0116583"><ele>342.0</ele><time>2026-04-02T08:55:48.997Z</time></trkpt><trkpt lat="44.77032" lon="9.0115133"><ele>340.5</ele><time>2026-04-02T08:55:49.997Z</time></trkpt><trkpt lat="44.7704067" lon="9.011365"><ele>339.0</ele><time>2026-04-02T08:55:50.997Z</time></trkpt><trkpt lat="44.7704983" lon="9.0112067"><ele>339.0</ele><time>2026-04-02T08:55:51.997Z</time></trkpt><trkpt lat="44.7705867" lon="9.011045"><ele>339.0</ele><time>2026-04-02T08:55:52.997Z</time></trkpt><trkpt lat="44.7706733" lon="9.0108917"><ele>339.0</ele><time>2026-04-02T08:55:53.997Z</time></trkpt><trkpt lat="44.7707583" lon="9.010725"><ele>339.0</ele><time>2026-04-02T08:55:54.997Z</time></trkpt><trkpt lat="44.7708483" lon="9.0105517"><ele>337.5</ele><time>2026-04-02T08:55:55.997Z</time></trkpt><trkpt lat="44.7709383" lon="9.01039"><ele>336.0</ele><time>2026-04-02T08:55:56.997Z</time></trkpt><trkpt lat="44.7710367" lon="9.0102333"><ele>334.5</ele><time>2026-04-02T08:55:57.997Z</time></trkpt><trkpt lat="44.7711383" lon="9.0100783"><ele>333.0</ele><time>2026-04-02T08:55:58.996Z</time></trkpt><trkpt lat="44.7712467" lon="9.00993"><ele>331.5</ele><time>2026-04-02T08:55:59.997Z</time></trkpt><trkpt lat="44.7713583" lon="9.0097883"><ele>330.0</ele><time>2026-04-02T08:56:00.997Z</time></trkpt><trkpt lat="44.771465" lon="9.0096867"><ele>328.5</ele><time>2026-04-02T08:56:01.996Z</time></trkpt><trkpt lat="44.7715683" lon="9.0096133"><ele>327.0</ele><time>2026-04-02T08:56:02.997Z</time></trkpt><trkpt lat="44.7716583" lon="9.0095517"><ele>327.0</ele><time>2026-04-02T08:56:03.997Z</time></trkpt><trkpt lat="44.77173" lon="9.0094983"><ele>327.0</ele><time>2026-04-02T08:56:04.997Z</time></trkpt><trkpt lat="44.7717967" lon="9.0094283"><ele>327.0</ele><time>2026-04-02T08:56:05.996Z</time></trkpt><trkpt lat="44.7718333" lon="9.009355"><ele>327.0</ele><time>2026-04-02T08:56:06.996Z</time></trkpt><trkpt lat="44.7718833" lon="9.0092317"><ele>327.0</ele><time>2026-04-02T08:56:08.996Z</time></trkpt><trkpt lat="44.771975" lon="9.0091983"><ele>327.0</ele><time>2026-04-02T08:56:10.997Z</time></trkpt><trkpt lat="44.7720417" lon="9.0092133"><ele>326.20000000000005</ele><time>2026-04-02T08:56:11.996Z</time></trkpt><trkpt lat="44.7721133" lon="9.00923"><ele>325.4</ele><time>2026-04-02T08:56:12.996Z</time></trkpt><trkpt lat="44.7721983" lon="9.00924"><ele>324.6</ele><time>2026-04-02T08:56:13.997Z</time></trkpt><trkpt lat="44.772295" lon="9.00925"><ele>323.79999999999995</ele><time>2026-04-02T08:56:14.997Z</time></trkpt><trkpt lat="44.7724067" lon="9.0092433"><ele>323.0</ele><time>2026-04-02T08:56:15.997Z</time></trkpt><trkpt lat="44.7725283" lon="9.0092433"><ele>323.0</ele><time>2026-04-02T08:56:16.997Z</time></trkpt><trkpt lat="44.77266" lon="9.0092617"><ele>323.0</ele><time>2026-04-02T08:56:17.997Z</time></trkpt><trkpt lat="44.7727917" lon="9.0092933"><ele>323.0</ele><time>2026-04-02T08:56:18.997Z</time></trkpt><trkpt lat="44.772925" lon="9.0093233"><ele>323.0</ele><time>2026-04-02T08:56:19.997Z</time></trkpt><trkpt lat="44.773065" lon="9.009365"><ele>323.75</ele><time>2026-04-02T08:56:20.997Z</time></trkpt><trkpt lat="44.773205" lon="9.00942"><ele>324.5</ele><time>2026-04-02T08:56:21.997Z</time></trkpt><trkpt lat="44.77335" lon="9.0094783"><ele>325.25</ele><time>2026-04-02T08:56:22.997Z</time></trkpt><trkpt lat="44.7734883" lon="9.0095317"><ele>326.0</ele><time>2026-04-02T08:56:23.997Z</time></trkpt><trkpt lat="44.7736367" lon="9.0096033"><ele>326.25</ele><time>2026-04-02T08:56:24.997Z</time></trkpt><trkpt lat="44.77377" lon="9.0096733"><ele>326.5</ele><time>2026-04-02T08:56:25.997Z</time></trkpt><trkpt lat="44.7739067" lon="9.0097717"><ele>326.75</ele><time>2026-04-02T08:56:26.996Z</time></trkpt><trkpt lat="44.7740317" lon="9.00988"><ele>327.0</ele><time>2026-04-02T08:56:27.996Z</time></trkpt><trkpt lat="44.7741483" lon="9.0099933"><ele>325.25</ele><time>2026-04-02T08:56:28.997Z</time></trkpt><trkpt lat="44.77427" lon="9.010115"><ele>323.5</ele><time>2026-04-02T08:56:29.996Z</time></trkpt><trkpt lat="44.7743883" lon="9.0102267"><ele>321.75</ele><time>2026-04-02T08:56:30.997Z</time></trkpt><trkpt lat="44.7745183" lon="9.01032"><ele>320.0</ele><time>2026-04-02T08:56:31.997Z</time></trkpt><trkpt lat="44.7746433" lon="9.01041"><ele>319.0</ele><time>2026-04-02T08:56:32.996Z</time></trkpt><trkpt lat="44.7747733" lon="9.0104717"><ele>318.0</ele><time>2026-04-02T08:56:33.997Z</time></trkpt><trkpt lat="44.7748983" lon="9.0105217"><ele>317.0</ele><time>2026-04-02T08:56:34.997Z</time></trkpt><trkpt lat="44.7750217" lon="9.010565"><ele>316.0</ele><time>2026-04-02T08:56:35.997Z</time></trkpt><trkpt lat="44.7751533" lon="9.0106117"><ele>316.25</ele><time>2026-04-02T08:56:36.997Z</time></trkpt><trkpt lat="44.7752817" lon="9.01065"><ele>316.5</ele><time>2026-04-02T08:56:37.997Z</time></trkpt><trkpt lat="44.7754183" lon="9.0106883"><ele>316.75</ele><time>2026-04-02T08:56:38.997Z</time></trkpt><trkpt lat="44.7755617" lon="9.0107233"><ele>317.0</ele><time>2026-04-02T08:56:39.997Z</time></trkpt><trkpt lat="44.7757083" lon="9.01076"><ele>317.0</ele><time>2026-04-02T08:56:40.997Z</time></trkpt><trkpt lat="44.7758583" lon="9.01079"><ele>317.0</ele><time>2026-04-02T08:56:41.997Z</time></trkpt><trkpt lat="44.7760117" lon="9.0108317"><ele>317.0</ele><time>2026-04-02T08:56:42.997Z</time></trkpt><trkpt lat="44.7761583" lon="9.0108533"><ele>315.0</ele><time>2026-04-02T08:56:43.997Z</time></trkpt><trkpt lat="44.776305" lon="9.0108867"><ele>313.0</ele><time>2026-04-02T08:56:44.997Z</time></trkpt><trkpt lat="44.7764417" lon="9.0109083"><ele>311.0</ele><time>2026-04-02T08:56:45.997Z</time></trkpt><trkpt lat="44.7765867" lon="9.010925"><ele>309.0</ele><time>2026-04-02T08:56:46.997Z</time></trkpt><trkpt lat="44.7767233" lon="9.0109517"><ele>309.0</ele><time>2026-04-02T08:56:47.997Z</time></trkpt><trkpt lat="44.7768517" lon="9.010995"><ele>309.0</ele><time>2026-04-02T08:56:48.997Z</time></trkpt><trkpt lat="44.7769917" lon="9.01105"><ele>309.0</ele><time>2026-04-02T08:56:49.997Z</time></trkpt><trkpt lat="44.7771367" lon="9.0111117"><ele>309.0</ele><time>2026-04-02T08:56:50.996Z</time></trkpt><trkpt lat="44.77728" lon="9.0111517"><ele>308.0</ele><time>2026-04-02T08:56:51.997Z</time></trkpt><trkpt lat="44.7774233" lon="9.01119"><ele>307.0</ele><time>2026-04-02T08:56:52.997Z</time></trkpt><trkpt lat="44.77757" lon="9.01123"><ele>306.0</ele><time>2026-04-02T08:56:53.997Z</time></trkpt><trkpt lat="44.777715" lon="9.0112633"><ele>305.0</ele><time>2026-04-02T08:56:54.997Z</time></trkpt><trkpt lat="44.777855" lon="9.0113133"><ele>305.0</ele><time>2026-04-02T08:56:55.997Z</time></trkpt><trkpt lat="44.7779783" lon="9.0113717"><ele>305.0</ele><time>2026-04-02T08:56:56.997Z</time></trkpt><trkpt lat="44.7781083" lon="9.01144"><ele>305.0</ele><time>2026-04-02T08:56:57.997Z</time></trkpt><trkpt lat="44.7782367" lon="9.0115133"><ele>305.0</ele><time>2026-04-02T08:56:58.997Z</time></trkpt><trkpt lat="44.7783667" lon="9.0116017"><ele>303.25</ele><time>2026-04-02T08:56:59.997Z</time></trkpt><trkpt lat="44.7785" lon="9.0116883"><ele>301.5</ele><time>2026-04-02T08:57:00.997Z</time></trkpt><trkpt lat="44.7786317" lon="9.01177"><ele>299.75</ele><time>2026-04-02T08:57:01.997Z</time></trkpt><trkpt lat="44.7787633" lon="9.01185"><ele>298.0</ele><time>2026-04-02T08:57:02.997Z</time></trkpt><trkpt lat="44.7788967" lon="9.0119233"><ele>297.5</ele><time>2026-04-02T08:57:03.997Z</time></trkpt><trkpt lat="44.7790333" lon="9.0119983"><ele>297.0</ele><time>2026-04-02T08:57:04.997Z</time></trkpt><trkpt lat="44.7791733" lon="9.0120783"><ele>296.5</ele><time>2026-04-02T08:57:05.997Z</time></trkpt><trkpt lat="44.77931" lon="9.0121517"><ele>296.0</ele><time>2026-04-02T08:57:06.997Z</time></trkpt><trkpt lat="44.7794483" lon="9.0122233"><ele>296.0</ele><time>2026-04-02T08:57:07.996Z</time></trkpt><trkpt lat="44.779585" lon="9.012295"><ele>296.0</ele><time>2026-04-02T08:57:08.997Z</time></trkpt><trkpt lat="44.779725" lon="9.0123517"><ele>296.0</ele><time>2026-04-02T08:57:09.997Z</time></trkpt><trkpt lat="44.7798633" lon="9.0124117"><ele>296.0</ele><time>2026-04-02T08:57:10.997Z</time></trkpt><trkpt lat="44.780005" lon="9.0124583"><ele>296.0</ele><time>2026-04-02T08:57:11.997Z</time></trkpt><trkpt lat="44.780145" lon="9.0124967"><ele>296.0</ele><time>2026-04-02T08:57:12.997Z</time></trkpt><trkpt lat="44.7802867" lon="9.0125233"><ele>296.0</ele><time>2026-04-02T08:57:13.997Z</time></trkpt><trkpt lat="44.7804317" lon="9.0125267"><ele>296.0</ele><time>2026-04-02T08:57:14.997Z</time></trkpt><trkpt lat="44.7805717" lon="9.0125233"><ele>295.5</ele><time>2026-04-02T08:57:15.996Z</time></trkpt><trkpt lat="44.780685" lon="9.0124883"><ele>295.0</ele><time>2026-04-02T08:57:16.997Z</time></trkpt><trkpt lat="44.780775" lon="9.01244"><ele>294.5</ele><time>2026-04-02T08:57:17.996Z</time></trkpt><trkpt lat="44.7808433" lon="9.0123933"><ele>294.0</ele><time>2026-04-02T08:57:18.997Z</time></trkpt><trkpt lat="44.7809283" lon="9.0123717"><ele>293.5</ele><time>2026-04-02T08:57:20.996Z</time></trkpt><trkpt lat="44.7809767" lon="9.0124483"><ele>293.0</ele><time>2026-04-02T08:57:23.997Z</time></trkpt><trkpt lat="44.7810167" lon="9.0125467"><ele>293.0</ele><time>2026-04-02T08:57:25.997Z</time></trkpt><trkpt lat="44.7810683" lon="9.0126233"><ele>293.0</ele><time>2026-04-02T08:57:28.997Z</time></trkpt><trkpt lat="44.78115" lon="9.0125983"><ele>293.0</ele><time>2026-04-02T08:57:30.997Z</time></trkpt><trkpt lat="44.781215" lon="9.0125633"><ele>293.0</ele><time>2026-04-02T08:57:31.997Z</time></trkpt><trkpt lat="44.7812933" lon="9.012495"><ele>293.0</ele><time>2026-04-02T08:57:32.997Z</time></trkpt><trkpt lat="44.78138" lon="9.01241"><ele>293.0</ele><time>2026-04-02T08:57:33.997Z</time></trkpt><trkpt lat="44.7814783" lon="9.012315"><ele>292.0</ele><time>2026-04-02T08:57:34.997Z</time></trkpt><trkpt lat="44.7815917" lon="9.012215"><ele>291.0</ele><time>2026-04-02T08:57:35.997Z</time></trkpt><trkpt lat="44.7817117" lon="9.0121133"><ele>290.0</ele><time>2026-04-02T08:57:36.997Z</time></trkpt><trkpt lat="44.7818467" lon="9.0120183"><ele>289.0</ele><time>2026-04-02T08:57:37.997Z</time></trkpt><trkpt lat="44.7819817" lon="9.0119133"><ele>289.3333333333333</ele><time>2026-04-02T08:57:38.996Z</time></trkpt><trkpt lat="44.7821233" lon="9.0117983"><ele>289.6666666666667</ele><time>2026-04-02T08:57:39.997Z</time></trkpt><trkpt lat="44.78226" lon="9.0116833"><ele>290.0</ele><time>2026-04-02T08:57:40.997Z</time></trkpt><trkpt lat="44.7823883" lon="9.01156"><ele>290.0</ele><time>2026-04-02T08:57:41.997Z</time></trkpt><trkpt lat="44.7825133" lon="9.0114283"><ele>290.0</ele><time>2026-04-02T08:57:42.997Z</time></trkpt><trkpt lat="44.7826217" lon="9.0112833"><ele>290.0</ele><time>2026-04-02T08:57:43.997Z</time></trkpt><trkpt lat="44.7827233" lon="9.0111317"><ele>293.25</ele><time>2026-04-02T08:57:44.997Z</time></trkpt><trkpt lat="44.782805" lon="9.01099"><ele>296.5</ele><time>2026-04-02T08:57:45.997Z</time></trkpt><trkpt lat="44.782885" lon="9.0108483"><ele>299.75</ele><time>2026-04-02T08:57:46.997Z</time></trkpt><trkpt lat="44.7829567" lon="9.01069"><ele>303.0</ele><time>2026-04-02T08:57:47.997Z</time></trkpt><trkpt lat="44.7829883" lon="9.0104983"><ele>303.0</ele><time>2026-04-02T08:57:48.997Z</time></trkpt><trkpt lat="44.78305" lon="9.0103183"><ele>303.0</ele><time>2026-04-02T08:57:49.997Z</time></trkpt><trkpt lat="44.7831033" lon="9.0101483"><ele>303.0</ele><time>2026-04-02T08:57:50.997Z</time></trkpt><trkpt lat="44.78318" lon="9.0100133"><ele>303.0</ele><time>2026-04-02T08:57:51.996Z</time></trkpt><trkpt lat="44.7832467" lon="9.00985"><ele>299.75</ele><time>2026-04-02T08:57:52.997Z</time></trkpt><trkpt lat="44.7833133" lon="9.0096883"><ele>296.5</ele><time>2026-04-02T08:57:53.996Z</time></trkpt><trkpt lat="44.783375" lon="9.0095083"><ele>293.25</ele><time>2026-04-02T08:57:54.997Z</time></trkpt><trkpt lat="44.7834217" lon="9.0093217"><ele>290.0</ele><time>2026-04-02T08:57:55.996Z</time></trkpt><trkpt lat="44.7834533" lon="9.0091383"><ele>289.75</ele><time>2026-04-02T08:57:56.997Z</time></trkpt><trkpt lat="44.7834483" lon="9.0089433"><ele>289.5</ele><time>2026-04-02T08:57:57.997Z</time></trkpt><trkpt lat="44.783435" lon="9.0087383"><ele>289.25</ele><time>2026-04-02T08:57:58.997Z</time></trkpt><trkpt lat="44.7834383" lon="9.0085267"><ele>289.0</ele><time>2026-04-02T08:57:59.997Z</time></trkpt><trkpt lat="44.7834683" lon="9.0083033"><ele>286.0</ele><time>2026-04-02T08:58:00.997Z</time></trkpt><trkpt lat="44.7835217" lon="9.0080783"><ele>283.0</ele><time>2026-04-02T08:58:01.997Z</time></trkpt><trkpt lat="44.7835833" lon="9.0078633"><ele>280.0</ele><time>2026-04-02T08:58:02.997Z</time></trkpt><trkpt lat="44.78365" lon="9.0076567"><ele>281.0</ele><time>2026-04-02T08:58:03.996Z</time></trkpt><trkpt lat="44.78371" lon="9.007435"><ele>282.0</ele><time>2026-04-02T08:58:04.997Z</time></trkpt><trkpt lat="44.7837633" lon="9.0072417"><ele>283.0</ele><time>2026-04-02T08:58:05.997Z</time></trkpt><trkpt lat="44.783845" lon="9.0070783"><ele>283.0</ele><time>2026-04-02T08:58:06.997Z</time></trkpt><trkpt lat="44.783945" lon="9.0069467"><ele>283.0</ele><time>2026-04-02T08:58:07.997Z</time></trkpt><trkpt lat="44.784065" lon="9.00683"><ele>283.0</ele><time>2026-04-02T08:58:08.996Z</time></trkpt><trkpt lat="44.7841883" lon="9.006705"><ele>283.0</ele><time>2026-04-02T08:58:09.997Z</time></trkpt><trkpt lat="44.7843083" lon="9.0065717"><ele>281.3333333333333</ele><time>2026-04-02T08:58:10.997Z</time></trkpt><trkpt lat="44.78444" lon="9.0064333"><ele>279.6666666666667</ele><time>2026-04-02T08:58:11.997Z</time></trkpt><trkpt lat="44.7845667" lon="9.0062983"><ele>278.0</ele><time>2026-04-02T08:58:12.997Z</time></trkpt><trkpt lat="44.7847083" lon="9.0061567"><ele>278.0</ele><time>2026-04-02T08:58:13.996Z</time></trkpt><trkpt lat="44.7848533" lon="9.0060283"><ele>278.0</ele><time>2026-04-02T08:58:14.997Z</time></trkpt><trkpt lat="44.784975" lon="9.0058833"><ele>278.0</ele><time>2026-04-02T08:58:15.997Z</time></trkpt><trkpt lat="44.7850883" lon="9.0057283"><ele>278.0</ele><time>2026-04-02T08:58:16.997Z</time></trkpt><trkpt lat="44.7852017" lon="9.005575"><ele>278.0</ele><time>2026-04-02T08:58:17.997Z</time></trkpt><trkpt lat="44.7853133" lon="9.0054367"><ele>278.0</ele><time>2026-04-02T08:58:18.996Z</time></trkpt><trkpt lat="44.78542" lon="9.0053083"><ele>278.0</ele><time>2026-04-02T08:58:19.997Z</time></trkpt><trkpt lat="44.7855417" lon="9.0052"><ele>278.0</ele><time>2026-04-02T08:58:20.996Z</time></trkpt><trkpt lat="44.78568" lon="9.0051017"><ele>278.0</ele><time>2026-04-02T08:58:21.997Z</time></trkpt><trkpt lat="44.78582" lon="9.0050133"><ele>278.0</ele><time>2026-04-02T08:58:22.997Z</time></trkpt><trkpt lat="44.785975" lon="9.0049183"><ele>276.0</ele><time>2026-04-02T08:58:23.997Z</time></trkpt><trkpt lat="44.7861417" lon="9.00484"><ele>274.0</ele><time>2026-04-02T08:58:24.997Z</time></trkpt><trkpt lat="44.786305" lon="9.0047633"><ele>272.0</ele><time>2026-04-02T08:58:25.997Z</time></trkpt><trkpt lat="44.78647" lon="9.004685"><ele>272.0</ele><time>2026-04-02T08:58:26.996Z</time></trkpt><trkpt lat="44.7866233" lon="9.004595"><ele>272.0</ele><time>2026-04-02T08:58:27.997Z</time></trkpt><trkpt lat="44.7867683" lon="9.0045117"><ele>272.0</ele><time>2026-04-02T08:58:28.997Z</time></trkpt><trkpt lat="44.786915" lon="9.0044433"><ele>272.0</ele><time>2026-04-02T08:58:29.997Z</time></trkpt><trkpt lat="44.787045" lon="9.0043883"><ele>272.0</ele><time>2026-04-02T08:58:30.997Z</time></trkpt><trkpt lat="44.7871517" lon="9.0043183"><ele>272.0</ele><time>2026-04-02T08:58:31.997Z</time></trkpt><trkpt lat="44.7872417" lon="9.0042333"><ele>272.0</ele><time>2026-04-02T08:58:32.997Z</time></trkpt><trkpt lat="44.78733" lon="9.0041367"><ele>271.6</ele><time>2026-04-02T08:58:33.997Z</time></trkpt><trkpt lat="44.78741" lon="9.0040383"><ele>271.2</ele><time>2026-04-02T08:58:34.997Z</time></trkpt><trkpt lat="44.7874867" lon="9.00393"><ele>270.8</ele><time>2026-04-02T08:58:35.997Z</time></trkpt><trkpt lat="44.7875633" lon="9.0038317"><ele>270.4</ele><time>2026-04-02T08:58:36.997Z</time></trkpt><trkpt lat="44.7876433" lon="9.0037567"><ele>270.0</ele><time>2026-04-02T08:58:37.997Z</time></trkpt><trkpt lat="44.7877217" lon="9.00371"><ele>269.6666666666667</ele><time>2026-04-02T08:58:38.997Z</time></trkpt><trkpt lat="44.7877817" lon="9.0036617"><ele>269.3333333333333</ele><time>2026-04-02T08:58:39.997Z</time></trkpt><trkpt lat="44.787835" lon="9.0035567"><ele>269.0</ele><time>2026-04-02T08:58:41.997Z</time></trkpt><trkpt lat="44.787805" lon="9.0034367"><ele>268.66666666666663</ele><time>2026-04-02T08:58:43.997Z</time></trkpt><trkpt lat="44.787775" lon="9.0033583"><ele>268.3333333333333</ele><time>2026-04-02T08:58:44.997Z</time></trkpt><trkpt lat="44.7877383" lon="9.0032633"><ele>268.0</ele><time>2026-04-02T08:58:45.997Z</time></trkpt><trkpt lat="44.78771" lon="9.0031633"><ele>268.0</ele><time>2026-04-02T08:58:46.997Z</time></trkpt><trkpt lat="44.7876817" lon="9.0030617"><ele>268.0</ele><time>2026-04-02T08:58:47.997Z</time></trkpt><trkpt lat="44.7876583" lon="9.0029583"><ele>268.0</ele><time>2026-04-02T08:58:48.997Z</time></trkpt><trkpt lat="44.78764" lon="9.0028733"><ele>268.0</ele><time>2026-04-02T08:58:49.997Z</time></trkpt><trkpt lat="44.7876567" lon="9.00278"><ele>268.0</ele><time>2026-04-02T08:58:51.997Z</time></trkpt><trkpt lat="44.787735" lon="9.0027617"><ele>268.0</ele><time>2026-04-02T08:58:53.997Z</time></trkpt><trkpt lat="44.7878817" lon="9.0027733"><ele>268.0</ele><time>2026-04-02T08:58:55.997Z</time></trkpt><trkpt lat="44.7879783" lon="9.0027767"><ele>268.0</ele><time>2026-04-02T08:58:56.997Z</time></trkpt><trkpt lat="44.7880883" lon="9.0027833"><ele>268.0</ele><time>2026-04-02T08:58:57.997Z</time></trkpt><trkpt lat="44.7881983" lon="9.0027833"><ele>268.0</ele><time>2026-04-02T08:58:58.997Z</time></trkpt><trkpt lat="44.788325" lon="9.00278"><ele>268.0</ele><time>2026-04-02T08:58:59.997Z</time></trkpt><trkpt lat="44.7884717" lon="9.0027717"><ele>267.0</ele><time>2026-04-02T08:59:00.997Z</time></trkpt><trkpt lat="44.7886233" lon="9.00277"><ele>266.0</ele><time>2026-04-02T08:59:01.997Z</time></trkpt><trkpt lat="44.7887783" lon="9.0027617"><ele>265.0</ele><time>2026-04-02T08:59:02.997Z</time></trkpt><trkpt lat="44.78895" lon="9.0027633"><ele>265.0</ele><time>2026-04-02T08:59:03.997Z</time></trkpt><trkpt lat="44.789125" lon="9.0027567"><ele>265.0</ele><time>2026-04-02T08:59:04.997Z</time></trkpt><trkpt lat="44.7892983" lon="9.0027467"><ele>265.0</ele><time>2026-04-02T08:59:05.997Z</time></trkpt><trkpt lat="44.7894783" lon="9.0027367"><ele>265.3333333333333</ele><time>2026-04-02T08:59:06.996Z</time></trkpt><trkpt lat="44.78965" lon="9.0027083"><ele>265.6666666666667</ele><time>2026-04-02T08:59:07.997Z</time></trkpt><trkpt lat="44.7898283" lon="9.00268"><ele>266.0</ele><time>2026-04-02T08:59:08.997Z</time></trkpt><trkpt lat="44.7900133" lon="9.0026333"><ele>265.0</ele><time>2026-04-02T08:59:09.996Z</time></trkpt><trkpt lat="44.790205" lon="9.0025883"><ele>264.0</ele><time>2026-04-02T08:59:10.997Z</time></trkpt><trkpt lat="44.790395" lon="9.002545"><ele>263.0</ele><time>2026-04-02T08:59:11.997Z</time></trkpt><trkpt lat="44.7905733" lon="9.0025033"><ele>264.33333333333337</ele><time>2026-04-02T08:59:12.997Z</time></trkpt><trkpt lat="44.7907533" lon="9.002465"><ele>265.6666666666667</ele><time>2026-04-02T08:59:13.996Z</time></trkpt><trkpt lat="44.7909317" lon="9.0024217"><ele>267.0</ele><time>2026-04-02T08:59:14.997Z</time></trkpt><trkpt lat="44.7911033" lon="9.0023867"><ele>267.0</ele><time>2026-04-02T08:59:15.997Z</time></trkpt><trkpt lat="44.7912717" lon="9.0023483"><ele>267.0</ele><time>2026-04-02T08:59:16.997Z</time></trkpt><trkpt lat="44.79143" lon="9.0022983"><ele>267.0</ele><time>2026-04-02T08:59:17.996Z</time></trkpt><trkpt lat="44.7915733" lon="9.0022283"><ele>267.0</ele><time>2026-04-02T08:59:18.997Z</time></trkpt><trkpt lat="44.7917167" lon="9.0021417"><ele>267.0</ele><time>2026-04-02T08:59:19.997Z</time></trkpt><trkpt lat="44.7918517" lon="9.0020417"><ele>267.0</ele><time>2026-04-02T08:59:20.996Z</time></trkpt><trkpt lat="44.79199" lon="9.0019317"><ele>266.0</ele><time>2026-04-02T08:59:21.997Z</time></trkpt><trkpt lat="44.792145" lon="9.0018267"><ele>265.0</ele><time>2026-04-02T08:59:22.997Z</time></trkpt><trkpt lat="44.7922867" lon="9.0017117"><ele>264.0</ele><time>2026-04-02T08:59:23.997Z</time></trkpt><trkpt lat="44.79244" lon="9.0015983"><ele>264.0</ele><time>2026-04-02T08:59:24.997Z</time></trkpt><trkpt lat="44.7925933" lon="9.0014833"><ele>264.0</ele><time>2026-04-02T08:59:25.996Z</time></trkpt><trkpt lat="44.7927467" lon="9.0013683"><ele>264.0</ele><time>2026-04-02T08:59:26.997Z</time></trkpt><trkpt lat="44.7928933" lon="9.001255"><ele>261.3333333333333</ele><time>2026-04-02T08:59:27.997Z</time></trkpt><trkpt lat="44.79305" lon="9.0011417"><ele>258.66666666666663</ele><time>2026-04-02T08:59:28.997Z</time></trkpt><trkpt lat="44.7932" lon="9.0010283"><ele>256.0</ele><time>2026-04-02T08:59:29.997Z</time></trkpt><trkpt lat="44.79336" lon="9.000915"><ele>256.66666666666663</ele><time>2026-04-02T08:59:30.996Z</time></trkpt><trkpt lat="44.793515" lon="9.0008"><ele>257.3333333333333</ele><time>2026-04-02T08:59:31.997Z</time></trkpt><trkpt lat="44.7936783" lon="9.0006833"><ele>258.0</ele><time>2026-04-02T08:59:32.997Z</time></trkpt><trkpt lat="44.793825" lon="9.0005617"><ele>258.0</ele><time>2026-04-02T08:59:33.996Z</time></trkpt><trkpt lat="44.793975" lon="9.000435"><ele>258.0</ele><time>2026-04-02T08:59:34.997Z</time></trkpt><trkpt lat="44.7941167" lon="9.0003033"><ele>258.0</ele><time>2026-04-02T08:59:35.997Z</time></trkpt><trkpt lat="44.794255" lon="9.0001617"><ele>257.6666666666667</ele><time>2026-04-02T08:59:36.997Z</time></trkpt><trkpt lat="44.7943967" lon="9.000015"><ele>257.33333333333337</ele><time>2026-04-02T08:59:37.997Z</time></trkpt><trkpt lat="44.7945433" lon="8.9998667"><ele>257.0</ele><time>2026-04-02T08:59:38.997Z</time></trkpt><trkpt lat="44.7947033" lon="8.9997167"><ele>257.0</ele><time>2026-04-02T08:59:39.997Z</time></trkpt><trkpt lat="44.7948583" lon="8.999565"><ele>257.0</ele><time>2026-04-02T08:59:40.997Z</time></trkpt><trkpt lat="44.7950117" lon="8.9994067"><ele>257.0</ele><time>2026-04-02T08:59:41.996Z</time></trkpt><trkpt lat="44.7951683" lon="8.999245"><ele>255.33333333333334</ele><time>2026-04-02T08:59:42.997Z</time></trkpt><trkpt lat="44.7953217" lon="8.99908"><ele>253.66666666666669</ele><time>2026-04-02T08:59:43.997Z</time></trkpt><trkpt lat="44.7954833" lon="8.9989167"><ele>252.0</ele><time>2026-04-02T08:59:44.996Z</time></trkpt><trkpt lat="44.7956433" lon="8.9987583"><ele>252.0</ele><time>2026-04-02T08:59:45.997Z</time></trkpt><trkpt lat="44.7958067" lon="8.9986017"><ele>252.0</ele><time>2026-04-02T08:59:46.997Z</time></trkpt><trkpt lat="44.795965" lon="8.9984417"><ele>252.0</ele><time>2026-04-02T08:59:47.997Z</time></trkpt><trkpt lat="44.7961267" lon="8.9982867"><ele>252.33333333333331</ele><time>2026-04-02T08:59:48.997Z</time></trkpt><trkpt lat="44.79629" lon="8.998135"><ele>252.66666666666666</ele><time>2026-04-02T08:59:49.997Z</time></trkpt><trkpt lat="44.7964467" lon="8.99799"><ele>253.0</ele><time>2026-04-02T08:59:50.997Z</time></trkpt><trkpt lat="44.7965983" lon="8.997855"><ele>253.0</ele><time>2026-04-02T08:59:51.997Z</time></trkpt><trkpt lat="44.7967517" lon="8.99775"><ele>253.0</ele><time>2026-04-02T08:59:52.997Z</time></trkpt><trkpt lat="44.7969133" lon="8.9976667"><ele>253.0</ele><time>2026-04-02T08:59:53.997Z</time></trkpt><trkpt lat="44.7970633" lon="8.9975817"><ele>252.33333333333331</ele><time>2026-04-02T08:59:54.997Z</time></trkpt><trkpt lat="44.7972133" lon="8.9974883"><ele>251.66666666666669</ele><time>2026-04-02T08:59:55.997Z</time></trkpt><trkpt lat="44.797365" lon="8.997395"><ele>251.0</ele><time>2026-04-02T08:59:56.997Z</time></trkpt><trkpt lat="44.797525" lon="8.9972933"><ele>250.33333333333334</ele><time>2026-04-02T08:59:57.997Z</time></trkpt><trkpt lat="44.7976733" lon="8.9971833"><ele>249.66666666666669</ele><time>2026-04-02T08:59:58.997Z</time></trkpt><trkpt lat="44.7978317" lon="8.99707"><ele>249.0</ele><time>2026-04-02T08:59:59.997Z</time></trkpt><trkpt lat="44.7979933" lon="8.99696"><ele>249.0</ele><time>2026-04-02T09:00:00.997Z</time></trkpt><trkpt lat="44.7981533" lon="8.99685"><ele>249.0</ele><time>2026-04-02T09:00:01.997Z</time></trkpt><trkpt lat="44.7983233" lon="8.996745"><ele>249.0</ele><time>2026-04-02T09:00:02.997Z</time></trkpt><trkpt lat="44.7984933" lon="8.9966317"><ele>249.0</ele><time>2026-04-02T09:00:03.997Z</time></trkpt><trkpt lat="44.79866" lon="8.9965117"><ele>249.0</ele><time>2026-04-02T09:00:04.997Z</time></trkpt><trkpt lat="44.7988317" lon="8.9963817"><ele>249.0</ele><time>2026-04-02T09:00:05.997Z</time></trkpt><trkpt lat="44.798995" lon="8.9962467"><ele>249.0</ele><time>2026-04-02T09:00:06.997Z</time></trkpt><trkpt lat="44.7991683" lon="8.9961083"><ele>249.0</ele><time>2026-04-02T09:00:07.996Z</time></trkpt><trkpt lat="44.7993533" lon="8.99596"><ele>249.0</ele><time>2026-04-02T09:00:08.997Z</time></trkpt><trkpt lat="44.7995367" lon="8.99582"><ele>247.66666666666669</ele><time>2026-04-02T09:00:09.997Z</time></trkpt><trkpt lat="44.799715" lon="8.995685"><ele>246.33333333333334</ele><time>2026-04-02T09:00:10.996Z</time></trkpt><trkpt lat="44.799895" lon="8.9955333"><ele>245.0</ele><time>2026-04-02T09:00:11.997Z</time></trkpt><trkpt lat="44.8000717" lon="8.9953883"><ele>245.66666666666669</ele><time>2026-04-02T09:00:12.997Z</time></trkpt><trkpt lat="44.80025" lon="8.995245"><ele>246.33333333333331</ele><time>2026-04-02T09:00:13.997Z</time></trkpt><trkpt lat="44.800435" lon="8.9951067"><ele>247.0</ele><time>2026-04-02T09:00:14.997Z</time></trkpt><trkpt lat="44.8006167" lon="8.9949733"><ele>247.33333333333331</ele><time>2026-04-02T09:00:15.997Z</time></trkpt><trkpt lat="44.8007883" lon="8.9948383"><ele>247.66666666666669</ele><time>2026-04-02T09:00:16.996Z</time></trkpt><trkpt lat="44.8009517" lon="8.9947"><ele>248.0</ele><time>2026-04-02T09:00:17.997Z</time></trkpt><trkpt lat="44.8011067" lon="8.994565"><ele>248.0</ele><time>2026-04-02T09:00:18.997Z</time></trkpt><trkpt lat="44.8012633" lon="8.99443"><ele>248.0</ele><time>2026-04-02T09:00:19.997Z</time></trkpt><trkpt lat="44.8014083" lon="8.9943217"><ele>248.0</ele><time>2026-04-02T09:00:20.997Z</time></trkpt><trkpt lat="44.80155" lon="8.9942117"><ele>247.66666666666669</ele><time>2026-04-02T09:00:21.997Z</time></trkpt><trkpt lat="44.80169" lon="8.9941"><ele>247.33333333333331</ele><time>2026-04-02T09:00:22.997Z</time></trkpt><trkpt lat="44.80183" lon="8.99399"><ele>247.0</ele><time>2026-04-02T09:00:23.997Z</time></trkpt><trkpt lat="44.8019767" lon="8.993865"><ele>247.0</ele><time>2026-04-02T09:00:24.997Z</time></trkpt><trkpt lat="44.802125" lon="8.9937517"><ele>247.0</ele><time>2026-04-02T09:00:25.997Z</time></trkpt><trkpt lat="44.8022633" lon="8.9936333"><ele>247.0</ele><time>2026-04-02T09:00:26.997Z</time></trkpt><trkpt lat="44.80241" lon="8.9935167"><ele>247.0</ele><time>2026-04-02T09:00:27.997Z</time></trkpt><trkpt lat="44.80256" lon="8.9933967"><ele>247.0</ele><time>2026-04-02T09:00:28.997Z</time></trkpt><trkpt lat="44.8027083" lon="8.99328"><ele>247.0</ele><time>2026-04-02T09:00:29.997Z</time></trkpt><trkpt lat="44.8028467" lon="8.9931683"><ele>245.33333333333331</ele><time>2026-04-02T09:00:30.997Z</time></trkpt><trkpt lat="44.8029817" lon="8.9930467"><ele>243.66666666666669</ele><time>2026-04-02T09:00:31.997Z</time></trkpt><trkpt lat="44.8031233" lon="8.9929167"><ele>242.0</ele><time>2026-04-02T09:00:32.997Z</time></trkpt><trkpt lat="44.8032817" lon="8.9927867"><ele>242.0</ele><time>2026-04-02T09:00:33.997Z</time></trkpt><trkpt lat="44.80344" lon="8.99266"><ele>242.0</ele><time>2026-04-02T09:00:34.997Z</time></trkpt><trkpt lat="44.8036017" lon="8.9925283"><ele>242.0</ele><time>2026-04-02T09:00:35.997Z</time></trkpt><trkpt lat="44.8037667" lon="8.9923983"><ele>241.33333333333334</ele><time>2026-04-02T09:00:36.997Z</time></trkpt><trkpt lat="44.803935" lon="8.992275"><ele>240.66666666666669</ele><time>2026-04-02T09:00:37.997Z</time></trkpt><trkpt lat="44.8041" lon="8.99214"><ele>240.0</ele><time>2026-04-02T09:00:38.997Z</time></trkpt><trkpt lat="44.8042633" lon="8.992005"><ele>240.0</ele><time>2026-04-02T09:00:39.997Z</time></trkpt><trkpt lat="44.8044333" lon="8.9918633"><ele>240.0</ele><time>2026-04-02T09:00:40.997Z</time></trkpt><trkpt lat="44.8046067" lon="8.99173"><ele>240.0</ele><time>2026-04-02T09:00:41.996Z</time></trkpt><trkpt lat="44.8047867" lon="8.9915917"><ele>240.0</ele><time>2026-04-02T09:00:42.997Z</time></trkpt><trkpt lat="44.80496" lon="8.991445"><ele>240.0</ele><time>2026-04-02T09:00:43.996Z</time></trkpt><trkpt lat="44.8051367" lon="8.9913083"><ele>240.0</ele><time>2026-04-02T09:00:44.996Z</time></trkpt><trkpt lat="44.8053133" lon="8.9911833"><ele>240.33333333333331</ele><time>2026-04-02T09:00:45.996Z</time></trkpt><trkpt lat="44.8054867" lon="8.9910567"><ele>240.66666666666666</ele><time>2026-04-02T09:00:46.997Z</time></trkpt><trkpt lat="44.805665" lon="8.9909283"><ele>241.0</ele><time>2026-04-02T09:00:47.997Z</time></trkpt><trkpt lat="44.8058283" lon="8.9908017"><ele>239.66666666666666</ele><time>2026-04-02T09:00:48.997Z</time></trkpt><trkpt lat="44.806" lon="8.990685"><ele>238.33333333333331</ele><time>2026-04-02T09:00:49.997Z</time></trkpt><trkpt lat="44.8061767" lon="8.9905733"><ele>237.0</ele><time>2026-04-02T09:00:50.997Z</time></trkpt><trkpt lat="44.8063417" lon="8.9904583"><ele>237.0</ele><time>2026-04-02T09:00:51.997Z</time></trkpt><trkpt lat="44.8065017" lon="8.9903483"><ele>237.0</ele><time>2026-04-02T09:00:52.997Z</time></trkpt><trkpt lat="44.806665" lon="8.9902467"><ele>237.0</ele><time>2026-04-02T09:00:53.996Z</time></trkpt><trkpt lat="44.80682" lon="8.99014"><ele>237.0</ele><time>2026-04-02T09:00:54.997Z</time></trkpt><trkpt lat="44.80698" lon="8.9900217"><ele>237.0</ele><time>2026-04-02T09:00:55.997Z</time></trkpt><trkpt lat="44.8071317" lon="8.9898933"><ele>237.0</ele><time>2026-04-02T09:00:56.997Z</time></trkpt><trkpt lat="44.8072883" lon="8.98976"><ele>237.66666666666669</ele><time>2026-04-02T09:00:57.997Z</time></trkpt><trkpt lat="44.8074417" lon="8.9896167"><ele>238.33333333333334</ele><time>2026-04-02T09:00:58.997Z</time></trkpt><trkpt lat="44.8075917" lon="8.9894733"><ele>239.0</ele><time>2026-04-02T09:00:59.997Z</time></trkpt><trkpt lat="44.80774" lon="8.9893233"><ele>237.66666666666669</ele><time>2026-04-02T09:01:00.997Z</time></trkpt><trkpt lat="44.807905" lon="8.9891683"><ele>236.33333333333331</ele><time>2026-04-02T09:01:01.997Z</time></trkpt><trkpt lat="44.8080717" lon="8.989015"><ele>235.0</ele><time>2026-04-02T09:01:02.997Z</time></trkpt><trkpt lat="44.8082367" lon="8.9888517"><ele>235.0</ele><time>2026-04-02T09:01:03.997Z</time></trkpt><trkpt lat="44.808395" lon="8.9886767"><ele>235.0</ele><time>2026-04-02T09:01:04.996Z</time></trkpt><trkpt lat="44.80855" lon="8.9884983"><ele>235.0</ele><time>2026-04-02T09:01:05.997Z</time></trkpt><trkpt lat="44.8087033" lon="8.9883083"><ele>234.66666666666666</ele><time>2026-04-02T09:01:06.997Z</time></trkpt><trkpt lat="44.80887" lon="8.988125"><ele>234.33333333333331</ele><time>2026-04-02T09:01:07.997Z</time></trkpt><trkpt lat="44.809055" lon="8.9879483"><ele>234.0</ele><time>2026-04-02T09:01:08.996Z</time></trkpt><trkpt lat="44.8092333" lon="8.987775"><ele>232.33333333333331</ele><time>2026-04-02T09:01:09.996Z</time></trkpt><trkpt lat="44.8094117" lon="8.9876083"><ele>230.66666666666666</ele><time>2026-04-02T09:01:10.996Z</time></trkpt><trkpt lat="44.8095833" lon="8.987445"><ele>229.0</ele><time>2026-04-02T09:01:11.996Z</time></trkpt><trkpt lat="44.8097517" lon="8.9872817"><ele>228.66666666666666</ele><time>2026-04-02T09:01:12.996Z</time></trkpt><trkpt lat="44.80992" lon="8.987115"><ele>228.33333333333331</ele><time>2026-04-02T09:01:13.996Z</time></trkpt><trkpt lat="44.81009" lon="8.9869533"><ele>228.0</ele><time>2026-04-02T09:01:14.996Z</time></trkpt><trkpt lat="44.8102567" lon="8.9867967"><ele>228.0</ele><time>2026-04-02T09:01:15.996Z</time></trkpt><trkpt lat="44.81042" lon="8.9866367"><ele>228.0</ele><time>2026-04-02T09:01:16.996Z</time></trkpt><trkpt lat="44.8105767" lon="8.9864867"><ele>228.0</ele><time>2026-04-02T09:01:17.995Z</time></trkpt><trkpt lat="44.8107267" lon="8.9863417"><ele>228.0</ele><time>2026-04-02T09:01:18.995Z</time></trkpt><trkpt lat="44.8108767" lon="8.9861983"><ele>228.0</ele><time>2026-04-02T09:01:19.995Z</time></trkpt><trkpt lat="44.811015" lon="8.9860683"><ele>228.0</ele><time>2026-04-02T09:01:20.996Z</time></trkpt><trkpt lat="44.811145" lon="8.9859467"><ele>228.0</ele><time>2026-04-02T09:01:21.996Z</time></trkpt><trkpt lat="44.8112617" lon="8.985825"><ele>228.0</ele><time>2026-04-02T09:01:22.996Z</time></trkpt><trkpt lat="44.81138" lon="8.9857033"><ele>228.0</ele><time>2026-04-02T09:01:23.996Z</time></trkpt><trkpt lat="44.8115" lon="8.98558"><ele>228.0</ele><time>2026-04-02T09:01:24.996Z</time></trkpt><trkpt lat="44.8116233" lon="8.9854733"><ele>228.0</ele><time>2026-04-02T09:01:25.996Z</time></trkpt><trkpt lat="44.8117367" lon="8.985365"><ele>228.0</ele><time>2026-04-02T09:01:26.996Z</time></trkpt><trkpt lat="44.81185" lon="8.9852483"><ele>228.0</ele><time>2026-04-02T09:01:27.996Z</time></trkpt><trkpt lat="44.8119617" lon="8.9851333"><ele>228.0</ele><time>2026-04-02T09:01:28.996Z</time></trkpt><trkpt lat="44.812075" lon="8.9850317"><ele>227.75</ele><time>2026-04-02T09:01:29.996Z</time></trkpt><trkpt lat="44.8121867" lon="8.98492"><ele>227.5</ele><time>2026-04-02T09:01:30.996Z</time></trkpt><trkpt lat="44.8122983" lon="8.9848067"><ele>227.25</ele><time>2026-04-02T09:01:31.995Z</time></trkpt><trkpt lat="44.8124117" lon="8.9846983"><ele>227.0</ele><time>2026-04-02T09:01:32.996Z</time></trkpt><trkpt lat="44.8125133" lon="8.9845917"><ele>227.0</ele><time>2026-04-02T09:01:33.996Z</time></trkpt><trkpt lat="44.8126183" lon="8.98449"><ele>227.0</ele><time>2026-04-02T09:01:34.995Z</time></trkpt><trkpt lat="44.81272" lon="8.9844"><ele>227.0</ele><time>2026-04-02T09:01:35.996Z</time></trkpt><trkpt lat="44.8128" lon="8.98431"><ele>227.0</ele><time>2026-04-02T09:01:36.996Z</time></trkpt><trkpt lat="44.8128717" lon="8.9842483"><ele>227.0</ele><time>2026-04-02T09:01:37.995Z</time></trkpt><trkpt lat="44.8129433" lon="8.9841683"><ele>227.16666666666669</ele><time>2026-04-02T09:01:39.996Z</time></trkpt><trkpt lat="44.8130033" lon="8.9841183"><ele>227.33333333333334</ele><time>2026-04-02T09:01:42.996Z</time></trkpt><trkpt lat="44.8130533" lon="8.9840517"><ele>227.5</ele><time>2026-04-02T09:01:44.995Z</time></trkpt><trkpt lat="44.8130433" lon="8.9839517"><ele>227.66666666666669</ele><time>2026-04-02T09:01:46.995Z</time></trkpt><trkpt lat="44.8129483" lon="8.9838267"><ele>227.83333333333334</ele><time>2026-04-02T09:01:48.996Z</time></trkpt><trkpt lat="44.812885" lon="8.9837483"><ele>228.0</ele><time>2026-04-02T09:01:49.996Z</time></trkpt><trkpt lat="44.812805" lon="8.9836467"><ele>228.0</ele><time>2026-04-02T09:01:50.996Z</time></trkpt><trkpt lat="44.812715" lon="8.9835233"><ele>228.0</ele><time>2026-04-02T09:01:51.996Z</time></trkpt><trkpt lat="44.812635" lon="8.9833817"><ele>228.0</ele><time>2026-04-02T09:01:52.996Z</time></trkpt><trkpt lat="44.81258" lon="8.9832317"><ele>228.0</ele><time>2026-04-02T09:01:53.996Z</time></trkpt><trkpt lat="44.81254" lon="8.9830517"><ele>228.5</ele><time>2026-04-02T09:01:54.995Z</time></trkpt><trkpt lat="44.8125067" lon="8.9828567"><ele>229.0</ele><time>2026-04-02T09:01:55.996Z</time></trkpt><trkpt lat="44.8124833" lon="8.9826467"><ele>229.5</ele><time>2026-04-02T09:01:56.996Z</time></trkpt><trkpt lat="44.812455" lon="8.98243"><ele>230.0</ele><time>2026-04-02T09:01:57.996Z</time></trkpt><trkpt lat="44.812415" lon="8.9822033"><ele>230.66666666666669</ele><time>2026-04-02T09:01:58.996Z</time></trkpt><trkpt lat="44.8123883" lon="8.9819767"><ele>231.33333333333331</ele><time>2026-04-02T09:01:59.996Z</time></trkpt><trkpt lat="44.8123667" lon="8.9817533"><ele>232.0</ele><time>2026-04-02T09:02:00.996Z</time></trkpt><trkpt lat="44.8123533" lon="8.98153"><ele>232.0</ele><time>2026-04-02T09:02:01.995Z</time></trkpt><trkpt lat="44.81234" lon="8.9813183"><ele>232.0</ele><time>2026-04-02T09:02:02.996Z</time></trkpt><trkpt lat="44.8123283" lon="8.9811083"><ele>232.0</ele><time>2026-04-02T09:02:03.996Z</time></trkpt><trkpt lat="44.81232" lon="8.9808917"><ele>232.25</ele><time>2026-04-02T09:02:04.995Z</time></trkpt><trkpt lat="44.8123167" lon="8.9806817"><ele>232.5</ele><time>2026-04-02T09:02:05.996Z</time></trkpt><trkpt lat="44.812315" lon="8.980475"><ele>232.75</ele><time>2026-04-02T09:02:06.996Z</time></trkpt><trkpt lat="44.8123117" lon="8.9802817"><ele>233.0</ele><time>2026-04-02T09:02:07.996Z</time></trkpt><trkpt lat="44.812305" lon="8.9800883"><ele>233.75</ele><time>2026-04-02T09:02:08.996Z</time></trkpt><trkpt lat="44.8122933" lon="8.9799017"><ele>234.5</ele><time>2026-04-02T09:02:09.995Z</time></trkpt><trkpt lat="44.812275" lon="8.9797233"><ele>235.25</ele><time>2026-04-02T09:02:10.996Z</time></trkpt><trkpt lat="44.8122583" lon="8.9795517"><ele>236.0</ele><time>2026-04-02T09:02:11.996Z</time></trkpt><trkpt lat="44.8122433" lon="8.979415"><ele>236.00000000000003</ele><time>2026-04-02T09:02:12.996Z</time></trkpt><trkpt lat="44.8122333" lon="8.9792867"><ele>236.0</ele><time>2026-04-02T09:02:13.996Z</time></trkpt><trkpt lat="44.8122317" lon="8.979165"><ele>236.0</ele><time>2026-04-02T09:02:14.996Z</time></trkpt><trkpt lat="44.81222" lon="8.9790567"><ele>236.0</ele><time>2026-04-02T09:02:15.996Z</time></trkpt><trkpt lat="44.8122083" lon="8.9789417"><ele>236.00000000000003</ele><time>2026-04-02T09:02:16.996Z</time></trkpt><trkpt lat="44.8121983" lon="8.9788333"><ele>236.0</ele><time>2026-04-02T09:02:17.996Z</time></trkpt><trkpt lat="44.812185" lon="8.9787117"><ele>237.0</ele><time>2026-04-02T09:02:18.996Z</time></trkpt><trkpt lat="44.81217" lon="8.9785817"><ele>238.00000000000003</ele><time>2026-04-02T09:02:19.996Z</time></trkpt><trkpt lat="44.8121567" lon="8.9784367"><ele>239.00000000000003</ele><time>2026-04-02T09:02:20.996Z</time></trkpt><trkpt lat="44.81214" lon="8.9782933"><ele>240.0</ele><time>2026-04-02T09:02:21.996Z</time></trkpt><trkpt lat="44.8121267" lon="8.9781467"><ele>241.0</ele><time>2026-04-02T09:02:22.996Z</time></trkpt><trkpt lat="44.8121067" lon="8.9779833"><ele>241.60000000000002</ele><time>2026-04-02T09:02:23.996Z</time></trkpt><trkpt lat="44.8120883" lon="8.97783"><ele>242.20000000000002</ele><time>2026-04-02T09:02:24.996Z</time></trkpt><trkpt lat="44.8120833" lon="8.977685"><ele>242.79999999999998</ele><time>2026-04-02T09:02:25.996Z</time></trkpt><trkpt lat="44.8120583" lon="8.9775183"><ele>243.39999999999998</ele><time>2026-04-02T09:02:26.995Z</time></trkpt><trkpt lat="44.81204" lon="8.97739"><ele>244.0</ele><time>2026-04-02T09:02:27.996Z</time></trkpt><trkpt lat="44.811975" lon="8.9772233"><ele>244.75</ele><time>2026-04-02T09:02:28.996Z</time></trkpt><trkpt lat="44.8119033" lon="8.9770583"><ele>245.5</ele><time>2026-04-02T09:02:29.996Z</time></trkpt><trkpt lat="44.8118483" lon="8.9768967"><ele>246.25</ele><time>2026-04-02T09:02:30.996Z</time></trkpt><trkpt lat="44.8117767" lon="8.9767183"><ele>247.0</ele><time>2026-04-02T09:02:31.996Z</time></trkpt><trkpt lat="44.8117067" lon="8.9765217"><ele>245.0</ele><time>2026-04-02T09:02:32.996Z</time></trkpt><trkpt lat="44.8116433" lon="8.9763183"><ele>243.0</ele><time>2026-04-02T09:02:33.996Z</time></trkpt><trkpt lat="44.81157" lon="8.976115"><ele>241.0</ele><time>2026-04-02T09:02:34.995Z</time></trkpt><trkpt lat="44.811495" lon="8.9759217"><ele>243.0</ele><time>2026-04-02T09:02:35.996Z</time></trkpt><trkpt lat="44.8114167" lon="8.9757283"><ele>245.0</ele><time>2026-04-02T09:02:36.996Z</time></trkpt><trkpt lat="44.811345" lon="8.9755383"><ele>247.0</ele><time>2026-04-02T09:02:37.996Z</time></trkpt><trkpt lat="44.8112833" lon="8.9753517"><ele>247.0</ele><time>2026-04-02T09:02:38.996Z</time></trkpt><trkpt lat="44.8112233" lon="8.9751817"><ele>247.0</ele><time>2026-04-02T09:02:39.996Z</time></trkpt><trkpt lat="44.8111783" lon="8.9750067"><ele>247.0</ele><time>2026-04-02T09:02:40.996Z</time></trkpt><trkpt lat="44.8111383" lon="8.9748217"><ele>247.0</ele><time>2026-04-02T09:02:41.996Z</time></trkpt><trkpt lat="44.8111083" lon="8.9746417"><ele>247.0</ele><time>2026-04-02T09:02:42.996Z</time></trkpt><trkpt lat="44.8110733" lon="8.9744617"><ele>247.0</ele><time>2026-04-02T09:02:43.995Z</time></trkpt><trkpt lat="44.8110233" lon="8.9742817"><ele>247.0</ele><time>2026-04-02T09:02:44.996Z</time></trkpt><trkpt lat="44.8109683" lon="8.9741"><ele>247.0</ele><time>2026-04-02T09:02:45.996Z</time></trkpt><trkpt lat="44.8109117" lon="8.9739217"><ele>247.0</ele><time>2026-04-02T09:02:46.995Z</time></trkpt><trkpt lat="44.81086" lon="8.9737367"><ele>247.0</ele><time>2026-04-02T09:02:47.996Z</time></trkpt><trkpt lat="44.8108183" lon="8.97354"><ele>247.0</ele><time>2026-04-02T09:02:48.996Z</time></trkpt><trkpt lat="44.8107883" lon="8.9733317"><ele>247.0</ele><time>2026-04-02T09:02:49.996Z</time></trkpt><trkpt lat="44.8107717" lon="8.9731183"><ele>247.25</ele><time>2026-04-02T09:02:50.996Z</time></trkpt><trkpt lat="44.810755" lon="8.9729133"><ele>247.5</ele><time>2026-04-02T09:02:51.996Z</time></trkpt><trkpt lat="44.81073" lon="8.9727167"><ele>247.75</ele><time>2026-04-02T09:02:52.996Z</time></trkpt><trkpt lat="44.8107033" lon="8.97254"><ele>248.0</ele><time>2026-04-02T09:02:53.996Z</time></trkpt><trkpt lat="44.8106583" lon="8.9723767"><ele>248.75</ele><time>2026-04-02T09:02:54.996Z</time></trkpt><trkpt lat="44.8105867" lon="8.9722167"><ele>249.5</ele><time>2026-04-02T09:02:55.995Z</time></trkpt><trkpt lat="44.810505" lon="8.9720567"><ele>250.25</ele><time>2026-04-02T09:02:56.996Z</time></trkpt><trkpt lat="44.81041" lon="8.97189"><ele>251.0</ele><time>2026-04-02T09:02:57.996Z</time></trkpt><trkpt lat="44.8103167" lon="8.971745"><ele>251.4</ele><time>2026-04-02T09:02:58.996Z</time></trkpt><trkpt lat="44.8102283" lon="8.9715983"><ele>251.8</ele><time>2026-04-02T09:02:59.996Z</time></trkpt><trkpt lat="44.8101533" lon="8.971485"><ele>252.20000000000002</ele><time>2026-04-02T09:03:00.996Z</time></trkpt><trkpt lat="44.81009" lon="8.9714017"><ele>252.60000000000002</ele><time>2026-04-02T09:03:01.996Z</time></trkpt><trkpt lat="44.8100283" lon="8.971355"><ele>253.0</ele><time>2026-04-02T09:03:02.996Z</time></trkpt><trkpt lat="44.8099617" lon="8.97134"><ele>252.99999999999997</ele><time>2026-04-02T09:03:03.996Z</time></trkpt><trkpt lat="44.8098933" lon="8.9713483"><ele>253.0</ele><time>2026-04-02T09:03:04.996Z</time></trkpt><trkpt lat="44.80982" lon="8.9713833"><ele>253.0</ele><time>2026-04-02T09:03:05.995Z</time></trkpt><trkpt lat="44.8097433" lon="8.9714283"><ele>253.0</ele><time>2026-04-02T09:03:06.996Z</time></trkpt><trkpt lat="44.8096617" lon="8.9714833"><ele>252.99999999999997</ele><time>2026-04-02T09:03:07.996Z</time></trkpt><trkpt lat="44.80957" lon="8.9715417"><ele>253.0</ele><time>2026-04-02T09:03:08.996Z</time></trkpt><trkpt lat="44.8094733" lon="8.9715667"><ele>253.0</ele><time>2026-04-02T09:03:09.995Z</time></trkpt><trkpt lat="44.80939" lon="8.9715567"><ele>253.0</ele><time>2026-04-02T09:03:10.996Z</time></trkpt><trkpt lat="44.8093333" lon="8.9715117"><ele>253.0</ele><time>2026-04-02T09:03:11.996Z</time></trkpt><trkpt lat="44.809285" lon="8.971345"><ele>253.0</ele><time>2026-04-02T09:03:13.996Z</time></trkpt><trkpt lat="44.80929" lon="8.9712233"><ele>253.0</ele><time>2026-04-02T09:03:14.996Z</time></trkpt><trkpt lat="44.8093183" lon="8.97109"><ele>253.0</ele><time>2026-04-02T09:03:15.995Z</time></trkpt><trkpt lat="44.809345" lon="8.97096"><ele>253.0</ele><time>2026-04-02T09:03:16.995Z</time></trkpt><trkpt lat="44.8093617" lon="8.970835"><ele>253.0</ele><time>2026-04-02T09:03:17.996Z</time></trkpt><trkpt lat="44.8093767" lon="8.9707"><ele>253.0</ele><time>2026-04-02T09:03:18.995Z</time></trkpt><trkpt lat="44.8093917" lon="8.9705567"><ele>253.0</ele><time>2026-04-02T09:03:19.996Z</time></trkpt><trkpt lat="44.8094167" lon="8.9704017"><ele>253.75</ele><time>2026-04-02T09:03:20.995Z</time></trkpt><trkpt lat="44.8094433" lon="8.970235"><ele>254.5</ele><time>2026-04-02T09:03:21.996Z</time></trkpt><trkpt lat="44.80947" lon="8.9700683"><ele>255.25</ele><time>2026-04-02T09:03:22.996Z</time></trkpt><trkpt lat="44.8094917" lon="8.9699033"><ele>256.0</ele><time>2026-04-02T09:03:23.995Z</time></trkpt><trkpt lat="44.809505" lon="8.9697533"><ele>256.6</ele><time>2026-04-02T09:03:24.996Z</time></trkpt><trkpt lat="44.80951" lon="8.96961"><ele>257.20000000000005</ele><time>2026-04-02T09:03:25.996Z</time></trkpt><trkpt lat="44.8095083" lon="8.96949"><ele>257.79999999999995</ele><time>2026-04-02T09:03:26.996Z</time></trkpt><trkpt lat="44.8094833" lon="8.9694017"><ele>258.4</ele><time>2026-04-02T09:03:27.996Z</time></trkpt><trkpt lat="44.8093967" lon="8.9693133"><ele>259.0</ele><time>2026-04-02T09:03:29.996Z</time></trkpt><trkpt lat="44.8093183" lon="8.969415"><ele>260.8</ele><time>2026-04-02T09:03:31.996Z</time></trkpt><trkpt lat="44.8092917" lon="8.969535"><ele>262.59999999999997</ele><time>2026-04-02T09:03:32.996Z</time></trkpt><trkpt lat="44.809265" lon="8.9696833"><ele>264.4</ele><time>2026-04-02T09:03:33.996Z</time></trkpt><trkpt lat="44.8092333" lon="8.9698317"><ele>266.2</ele><time>2026-04-02T09:03:34.996Z</time></trkpt><trkpt lat="44.8091917" lon="8.969975"><ele>268.0</ele><time>2026-04-02T09:03:35.996Z</time></trkpt><trkpt lat="44.8091433" lon="8.9701233"><ele>268.0</ele><time>2026-04-02T09:03:36.996Z</time></trkpt><trkpt lat="44.8090883" lon="8.9702633"><ele>268.0</ele><time>2026-04-02T09:03:37.996Z</time></trkpt><trkpt lat="44.8090317" lon="8.970395"><ele>268.0</ele><time>2026-04-02T09:03:38.996Z</time></trkpt><trkpt lat="44.8089783" lon="8.9705183"><ele>268.0</ele><time>2026-04-02T09:03:39.995Z</time></trkpt><trkpt lat="44.8089333" lon="8.9706183"><ele>268.0</ele><time>2026-04-02T09:03:40.995Z</time></trkpt><trkpt lat="44.8088533" lon="8.970695"><ele>268.0</ele><time>2026-04-02T09:03:42.996Z</time></trkpt><trkpt lat="44.8087717" lon="8.9706433"><ele>268.0</ele><time>2026-04-02T09:03:44.996Z</time></trkpt><trkpt lat="44.8087567" lon="8.970455"><ele>268.0</ele><time>2026-04-02T09:03:46.996Z</time></trkpt><trkpt lat="44.80879" lon="8.9703383"><ele>268.0</ele><time>2026-04-02T09:03:47.996Z</time></trkpt><trkpt lat="44.808825" lon="8.9702083"><ele>268.0</ele><time>2026-04-02T09:03:48.996Z</time></trkpt><trkpt lat="44.80885" lon="8.9700767"><ele>269.16666666666663</ele><time>2026-04-02T09:03:49.996Z</time></trkpt><trkpt lat="44.8088883" lon="8.969935"><ele>270.3333333333333</ele><time>2026-04-02T09:03:50.995Z</time></trkpt><trkpt lat="44.8089167" lon="8.9698"><ele>271.5</ele><time>2026-04-02T09:03:51.995Z</time></trkpt><trkpt lat="44.8089217" lon="8.9696817"><ele>272.6666666666667</ele><time>2026-04-02T09:03:52.996Z</time></trkpt><trkpt lat="44.8088933" lon="8.9695867"><ele>273.83333333333337</ele><time>2026-04-02T09:03:53.996Z</time></trkpt><trkpt lat="44.80884" lon="8.969525"><ele>275.0</ele><time>2026-04-02T09:03:54.996Z</time></trkpt><trkpt lat="44.8087767" lon="8.9695217"><ele>275.0</ele><time>2026-04-02T09:03:55.996Z</time></trkpt><trkpt lat="44.8087233" lon="8.9695767"><ele>275.0</ele><time>2026-04-02T09:03:56.996Z</time></trkpt><trkpt lat="44.8086967" lon="8.9696733"><ele>275.0</ele><time>2026-04-02T09:03:57.995Z</time></trkpt><trkpt lat="44.8086817" lon="8.9697867"><ele>275.0</ele><time>2026-04-02T09:03:58.996Z</time></trkpt><trkpt lat="44.808665" lon="8.9699133"><ele>275.0</ele><time>2026-04-02T09:03:59.996Z</time></trkpt><trkpt lat="44.8086433" lon="8.9700533"><ele>275.0</ele><time>2026-04-02T09:04:00.996Z</time></trkpt><trkpt lat="44.8086133" lon="8.9702067"><ele>273.6</ele><time>2026-04-02T09:04:01.995Z</time></trkpt><trkpt lat="44.8085633" lon="8.9703383"><ele>272.2</ele><time>2026-04-02T09:04:02.995Z</time></trkpt><trkpt lat="44.8084967" lon="8.9704517"><ele>270.8</ele><time>2026-04-02T09:04:03.996Z</time></trkpt><trkpt lat="44.80842" lon="8.9705433"><ele>269.4</ele><time>2026-04-02T09:04:04.996Z</time></trkpt><trkpt lat="44.8083417" lon="8.9706033"><ele>268.0</ele><time>2026-04-02T09:04:05.996Z</time></trkpt><trkpt lat="44.8082683" lon="8.9706067"><ele>270.66666666666663</ele><time>2026-04-02T09:04:06.995Z</time></trkpt><trkpt lat="44.8081917" lon="8.9704833"><ele>273.3333333333333</ele><time>2026-04-02T09:04:08.996Z</time></trkpt><trkpt lat="44.8082" lon="8.9703867"><ele>276.0</ele><time>2026-04-02T09:04:09.996Z</time></trkpt><trkpt lat="44.8082417" lon="8.9703033"><ele>278.6666666666667</ele><time>2026-04-02T09:04:10.995Z</time></trkpt><trkpt lat="44.8083183" lon="8.9702283"><ele>281.33333333333337</ele><time>2026-04-02T09:04:11.995Z</time></trkpt><trkpt lat="44.8083767" lon="8.970145"><ele>284.0</ele><time>2026-04-02T09:04:12.996Z</time></trkpt><trkpt lat="44.8084183" lon="8.9700617"><ele>284.0</ele><time>2026-04-02T09:04:13.996Z</time></trkpt><trkpt lat="44.808385" lon="8.9699117"><ele>284.0</ele><time>2026-04-02T09:04:15.996Z</time></trkpt><trkpt lat="44.8082583" lon="8.9699033"><ele>284.0</ele><time>2026-04-02T09:04:17.995Z</time></trkpt><trkpt lat="44.808165" lon="8.9699367"><ele>284.0</ele><time>2026-04-02T09:04:18.996Z</time></trkpt><trkpt lat="44.80807" lon="8.9699867"><ele>284.0</ele><time>2026-04-02T09:04:19.996Z</time></trkpt><trkpt lat="44.807975" lon="8.970045"><ele>284.0</ele><time>2026-04-02T09:04:20.996Z</time></trkpt><trkpt lat="44.8078817" lon="8.970085"><ele>284.0</ele><time>2026-04-02T09:04:21.996Z</time></trkpt><trkpt lat="44.8077817" lon="8.970115"><ele>284.0</ele><time>2026-04-02T09:04:22.996Z</time></trkpt><trkpt lat="44.80769" lon="8.9701433"><ele>284.0</ele><time>2026-04-02T09:04:23.996Z</time></trkpt><trkpt lat="44.807605" lon="8.9701383"><ele>284.0</ele><time>2026-04-02T09:04:24.996Z</time></trkpt><trkpt lat="44.80753" lon="8.97011"><ele>283.83333333333337</ele><time>2026-04-02T09:04:25.995Z</time></trkpt><trkpt lat="44.8074817" lon="8.9700433"><ele>283.6666666666667</ele><time>2026-04-02T09:04:26.996Z</time></trkpt><trkpt lat="44.807455" lon="8.9699433"><ele>283.5</ele><time>2026-04-02T09:04:27.996Z</time></trkpt><trkpt lat="44.8074517" lon="8.9698233"><ele>283.3333333333333</ele><time>2026-04-02T09:04:28.995Z</time></trkpt><trkpt lat="44.807445" lon="8.9696983"><ele>283.16666666666663</ele><time>2026-04-02T09:04:29.996Z</time></trkpt><trkpt lat="44.8074217" lon="8.9695683"><ele>283.0</ele><time>2026-04-02T09:04:30.996Z</time></trkpt><trkpt lat="44.80739" lon="8.96945"><ele>286.6</ele><time>2026-04-02T09:04:31.996Z</time></trkpt><trkpt lat="44.8073033" lon="8.96936"><ele>290.20000000000005</ele><time>2026-04-02T09:04:32.996Z</time></trkpt><trkpt lat="44.807245" lon="8.9692567"><ele>293.8</ele><time>2026-04-02T09:04:33.996Z</time></trkpt><trkpt lat="44.80718" lon="8.9691667"><ele>297.40000000000003</ele><time>2026-04-02T09:04:34.996Z</time></trkpt><trkpt lat="44.8071167" lon="8.9690633"><ele>301.0</ele><time>2026-04-02T09:04:35.996Z</time></trkpt><trkpt lat="44.8070383" lon="8.968965"><ele>303.6</ele><time>2026-04-02T09:04:36.996Z</time></trkpt><trkpt lat="44.80696" lon="8.9688933"><ele>306.20000000000005</ele><time>2026-04-02T09:04:37.996Z</time></trkpt><trkpt lat="44.8068467" lon="8.9688283"><ele>308.79999999999995</ele><time>2026-04-02T09:04:38.995Z</time></trkpt><trkpt lat="44.8067533" lon="8.9687833"><ele>311.4</ele><time>2026-04-02T09:04:39.996Z</time></trkpt><trkpt lat="44.8066617" lon="8.968765"><ele>314.0</ele><time>2026-04-02T09:04:40.996Z</time></trkpt><trkpt lat="44.8065683" lon="8.9687617"><ele>314.0</ele><time>2026-04-02T09:04:41.996Z</time></trkpt><trkpt lat="44.80647" lon="8.968755"><ele>314.0</ele><time>2026-04-02T09:04:42.996Z</time></trkpt><trkpt lat="44.806365" lon="8.968745"><ele>314.0</ele><time>2026-04-02T09:04:43.996Z</time></trkpt><trkpt lat="44.806255" lon="8.9687217"><ele>314.0</ele><time>2026-04-02T09:04:44.995Z</time></trkpt><trkpt lat="44.8061567" lon="8.9686817"><ele>314.0</ele><time>2026-04-02T09:04:45.995Z</time></trkpt><trkpt lat="44.80608" lon="8.96861"><ele>314.0</ele><time>2026-04-02T09:04:46.996Z</time></trkpt><trkpt lat="44.8060333" lon="8.9685317"><ele>314.0</ele><time>2026-04-02T09:04:47.996Z</time></trkpt><trkpt lat="44.806015" lon="8.9683683"><ele>314.0</ele><time>2026-04-02T09:04:49.996Z</time></trkpt><trkpt lat="44.8060833" lon="8.968295"><ele>314.0</ele><time>2026-04-02T09:04:51.996Z</time></trkpt><trkpt lat="44.8061717" lon="8.9683083"><ele>314.0</ele><time>2026-04-02T09:04:52.996Z</time></trkpt><trkpt lat="44.8062733" lon="8.9683333"><ele>314.0</ele><time>2026-04-02T09:04:53.996Z</time></trkpt><trkpt lat="44.8063967" lon="8.968375"><ele>314.0</ele><time>2026-04-02T09:04:54.996Z</time></trkpt><trkpt lat="44.806505" lon="8.9683933"><ele>314.0</ele><time>2026-04-02T09:04:55.996Z</time></trkpt><trkpt lat="44.8066133" lon="8.9683767"><ele>314.0</ele><time>2026-04-02T09:04:56.996Z</time></trkpt><trkpt lat="44.8067133" lon="8.9683167"><ele>314.83333333333337</ele><time>2026-04-02T09:04:57.996Z</time></trkpt><trkpt lat="44.8068083" lon="8.9682267"><ele>315.6666666666667</ele><time>2026-04-02T09:04:58.996Z</time></trkpt><trkpt lat="44.8068817" lon="8.9681317"><ele>316.5</ele><time>2026-04-02T09:04:59.996Z</time></trkpt><trkpt lat="44.8069367" lon="8.9680333"><ele>317.3333333333333</ele><time>2026-04-02T09:05:00.996Z</time></trkpt><trkpt lat="44.80695" lon="8.967935"><ele>318.16666666666663</ele><time>2026-04-02T09:05:01.995Z</time></trkpt><trkpt lat="44.8069333" lon="8.9678467"><ele>319.0</ele><time>2026-04-02T09:05:02.996Z</time></trkpt><trkpt lat="44.8068583" lon="8.9677683"><ele>320.79999999999995</ele><time>2026-04-02T09:05:04.995Z</time></trkpt><trkpt lat="44.80674" lon="8.9678567"><ele>322.59999999999997</ele><time>2026-04-02T09:05:06.995Z</time></trkpt><trkpt lat="44.806665" lon="8.96793"><ele>324.4</ele><time>2026-04-02T09:05:07.996Z</time></trkpt><trkpt lat="44.806585" lon="8.9679833"><ele>326.2</ele><time>2026-04-02T09:05:08.996Z</time></trkpt><trkpt lat="44.806495" lon="8.9680033"><ele>328.0</ele><time>2026-04-02T09:05:09.995Z</time></trkpt><trkpt lat="44.8063983" lon="8.9680067"><ele>328.0</ele><time>2026-04-02T09:05:10.996Z</time></trkpt><trkpt lat="44.8063067" lon="8.9679883"><ele>328.0</ele><time>2026-04-02T09:05:11.996Z</time></trkpt><trkpt lat="44.8062183" lon="8.9679433"><ele>328.0</ele><time>2026-04-02T09:05:12.996Z</time></trkpt><trkpt lat="44.8061567" lon="8.9678867"><ele>328.0</ele><time>2026-04-02T09:05:13.996Z</time></trkpt><trkpt lat="44.806115" lon="8.9677417"><ele>328.0</ele><time>2026-04-02T09:05:15.996Z</time></trkpt><trkpt lat="44.8061633" lon="8.9676067"><ele>328.0</ele><time>2026-04-02T09:05:17.995Z</time></trkpt><trkpt lat="44.8062783" lon="8.9675633"><ele>328.0</ele><time>2026-04-02T09:05:19.996Z</time></trkpt><trkpt lat="44.806365" lon="8.9675783"><ele>328.0</ele><time>2026-04-02T09:05:20.996Z</time></trkpt><trkpt lat="44.8064567" lon="8.967585"><ele>328.0</ele><time>2026-04-02T09:05:21.996Z</time></trkpt><trkpt lat="44.8065433" lon="8.96756"><ele>328.0</ele><time>2026-04-02T09:05:22.996Z</time></trkpt><trkpt lat="44.806625" lon="8.9675"><ele>330.59999999999997</ele><time>2026-04-02T09:05:23.996Z</time></trkpt><trkpt lat="44.806685" lon="8.9674067"><ele>333.2</ele><time>2026-04-02T09:05:24.995Z</time></trkpt><trkpt lat="44.8067233" lon="8.9672733"><ele>335.8</ele><time>2026-04-02T09:05:25.995Z</time></trkpt><trkpt lat="44.8067433" lon="8.967125"><ele>338.4</ele><time>2026-04-02T09:05:26.996Z</time></trkpt><trkpt lat="44.806755" lon="8.9669833"><ele>341.0</ele><time>2026-04-02T09:05:27.996Z</time></trkpt><trkpt lat="44.80674" lon="8.9668383"><ele>341.0</ele><time>2026-04-02T09:05:28.996Z</time></trkpt><trkpt lat="44.8067283" lon="8.9667"><ele>341.0</ele><time>2026-04-02T09:05:29.996Z</time></trkpt><trkpt lat="44.80672" lon="8.9665717"><ele>341.0</ele><time>2026-04-02T09:05:30.995Z</time></trkpt><trkpt lat="44.80673" lon="8.9664667"><ele>341.0</ele><time>2026-04-02T09:05:31.996Z</time></trkpt><trkpt lat="44.806775" lon="8.9663867"><ele>341.0</ele><time>2026-04-02T09:05:32.995Z</time></trkpt><trkpt lat="44.8068367" lon="8.9663067"><ele>341.0</ele><time>2026-04-02T09:05:33.996Z</time></trkpt><trkpt lat="44.8069" lon="8.9662433"><ele>340.0</ele><time>2026-04-02T09:05:34.996Z</time></trkpt><trkpt lat="44.8069517" lon="8.9661633"><ele>339.0</ele><time>2026-04-02T09:05:35.996Z</time></trkpt><trkpt lat="44.806985" lon="8.96608"><ele>338.0</ele><time>2026-04-02T09:05:36.996Z</time></trkpt><trkpt lat="44.8069967" lon="8.965945"><ele>337.0</ele><time>2026-04-02T09:05:38.996Z</time></trkpt><trkpt lat="44.8069067" lon="8.9659417"><ele>336.0</ele><time>2026-04-02T09:05:40.996Z</time></trkpt><trkpt lat="44.8068417" lon="8.96598"><ele>335.0</ele><time>2026-04-02T09:05:41.996Z</time></trkpt><trkpt lat="44.806765" lon="8.9660367"><ele>338.4</ele><time>2026-04-02T09:05:42.996Z</time></trkpt><trkpt lat="44.8066733" lon="8.9661117"><ele>341.8</ele><time>2026-04-02T09:05:43.995Z</time></trkpt><trkpt lat="44.806585" lon="8.9661983"><ele>345.20000000000005</ele><time>2026-04-02T09:05:44.996Z</time></trkpt><trkpt lat="44.8065033" lon="8.966275"><ele>348.6</ele><time>2026-04-02T09:05:45.995Z</time></trkpt><trkpt lat="44.8064233" lon="8.9663233"><ele>352.0</ele><time>2026-04-02T09:05:46.996Z</time></trkpt><trkpt lat="44.8063433" lon="8.9663383"><ele>352.0</ele><time>2026-04-02T09:05:47.995Z</time></trkpt><trkpt lat="44.8062483" lon="8.9663383"><ele>352.0</ele><time>2026-04-02T09:05:48.996Z</time></trkpt><trkpt lat="44.8061483" lon="8.9663117"><ele>352.0</ele><time>2026-04-02T09:05:49.996Z</time></trkpt><trkpt lat="44.80604" lon="8.96628"><ele>352.0</ele><time>2026-04-02T09:05:50.996Z</time></trkpt><trkpt lat="44.8059317" lon="8.966245"><ele>352.0</ele><time>2026-04-02T09:05:51.996Z</time></trkpt><trkpt lat="44.805815" lon="8.9662033"><ele>352.0</ele><time>2026-04-02T09:05:52.996Z</time></trkpt><trkpt lat="44.8056983" lon="8.9661583"><ele>352.0</ele><time>2026-04-02T09:05:53.996Z</time></trkpt><trkpt lat="44.80558" lon="8.966125"><ele>352.0</ele><time>2026-04-02T09:05:54.996Z</time></trkpt><trkpt lat="44.8054517" lon="8.9660917"><ele>352.0</ele><time>2026-04-02T09:05:55.996Z</time></trkpt><trkpt lat="44.805325" lon="8.9660733"><ele>352.0</ele><time>2026-04-02T09:05:56.996Z</time></trkpt><trkpt lat="44.8051983" lon="8.96605"><ele>352.0</ele><time>2026-04-02T09:05:57.995Z</time></trkpt><trkpt lat="44.8050783" lon="8.9660417"><ele>352.0</ele><time>2026-04-02T09:05:58.996Z</time></trkpt><trkpt lat="44.8049567" lon="8.9660367"><ele>352.0</ele><time>2026-04-02T09:05:59.996Z</time></trkpt><trkpt lat="44.8048267" lon="8.9660533"><ele>352.25</ele><time>2026-04-02T09:06:00.996Z</time></trkpt><trkpt lat="44.80471" lon="8.9660883"><ele>352.5</ele><time>2026-04-02T09:06:01.996Z</time></trkpt><trkpt lat="44.804595" lon="8.96612"><ele>352.75</ele><time>2026-04-02T09:06:02.996Z</time></trkpt><trkpt lat="44.8044667" lon="8.9661483"><ele>353.0</ele><time>2026-04-02T09:06:03.996Z</time></trkpt><trkpt lat="44.80434" lon="8.966185"><ele>357.0</ele><time>2026-04-02T09:06:04.996Z</time></trkpt><trkpt lat="44.80422" lon="8.9662317"><ele>361.0</ele><time>2026-04-02T09:06:05.996Z</time></trkpt><trkpt lat="44.8040917" lon="8.9662667"><ele>365.0</ele><time>2026-04-02T09:06:06.995Z</time></trkpt><trkpt lat="44.8039433" lon="8.966315"><ele>369.0</ele><time>2026-04-02T09:06:07.996Z</time></trkpt><trkpt lat="44.8038083" lon="8.9663467"><ele>369.0</ele><time>2026-04-02T09:06:08.996Z</time></trkpt><trkpt lat="44.803675" lon="8.9663967"><ele>369.0</ele><time>2026-04-02T09:06:09.996Z</time></trkpt><trkpt lat="44.8035383" lon="8.9664383"><ele>369.0</ele><time>2026-04-02T09:06:10.996Z</time></trkpt><trkpt lat="44.8033983" lon="8.9664767"><ele>369.0</ele><time>2026-04-02T09:06:11.996Z</time></trkpt><trkpt lat="44.8032567" lon="8.9665"><ele>371.6</ele><time>2026-04-02T09:06:12.996Z</time></trkpt><trkpt lat="44.8031283" lon="8.9665217"><ele>374.2</ele><time>2026-04-02T09:06:13.996Z</time></trkpt><trkpt lat="44.8030067" lon="8.966545"><ele>376.8</ele><time>2026-04-02T09:06:14.996Z</time></trkpt><trkpt lat="44.8029117" lon="8.966565"><ele>379.40000000000003</ele><time>2026-04-02T09:06:15.996Z</time></trkpt><trkpt lat="44.80284" lon="8.9665683"><ele>382.0</ele><time>2026-04-02T09:06:16.995Z</time></trkpt><trkpt lat="44.80275" lon="8.96648"><ele>382.0</ele><time>2026-04-02T09:06:18.996Z</time></trkpt><trkpt lat="44.8027433" lon="8.96636"><ele>382.0</ele><time>2026-04-02T09:06:20.996Z</time></trkpt><trkpt lat="44.8028517" lon="8.96627"><ele>382.0</ele><time>2026-04-02T09:06:22.996Z</time></trkpt><trkpt lat="44.8029467" lon="8.9662517"><ele>382.0</ele><time>2026-04-02T09:06:23.996Z</time></trkpt><trkpt lat="44.8030567" lon="8.9662467"><ele>382.0</ele><time>2026-04-02T09:06:24.996Z</time></trkpt><trkpt lat="44.8031667" lon="8.966245"><ele>382.0</ele><time>2026-04-02T09:06:25.996Z</time></trkpt><trkpt lat="44.803285" lon="8.9662417"><ele>382.0</ele><time>2026-04-02T09:06:26.996Z</time></trkpt><trkpt lat="44.8033933" lon="8.9661967"><ele>382.0</ele><time>2026-04-02T09:06:27.996Z</time></trkpt><trkpt lat="44.8034883" lon="8.9661233"><ele>382.0</ele><time>2026-04-02T09:06:28.996Z</time></trkpt><trkpt lat="44.8035833" lon="8.9660417"><ele>384.75</ele><time>2026-04-02T09:06:29.995Z</time></trkpt><trkpt lat="44.8036867" lon="8.9659433"><ele>387.5</ele><time>2026-04-02T09:06:30.996Z</time></trkpt><trkpt lat="44.8037933" lon="8.9658533"><ele>390.25</ele><time>2026-04-02T09:06:31.996Z</time></trkpt><trkpt lat="44.8038933" lon="8.96576"><ele>393.0</ele><time>2026-04-02T09:06:32.996Z</time></trkpt><trkpt lat="44.8039933" lon="8.965665"><ele>393.0</ele><time>2026-04-02T09:06:33.996Z</time></trkpt><trkpt lat="44.8041083" lon="8.9655917"><ele>393.0</ele><time>2026-04-02T09:06:34.996Z</time></trkpt><trkpt lat="44.80422" lon="8.9655333"><ele>393.0</ele><time>2026-04-02T09:06:35.996Z</time></trkpt><trkpt lat="44.8043317" lon="8.9655033"><ele>393.0</ele><time>2026-04-02T09:06:36.995Z</time></trkpt><trkpt lat="44.8044267" lon="8.96548"><ele>390.2</ele><time>2026-04-02T09:06:37.996Z</time></trkpt><trkpt lat="44.8044917" lon="8.9654517"><ele>387.4</ele><time>2026-04-02T09:06:38.996Z</time></trkpt><trkpt lat="44.8045583" lon="8.965345"><ele>384.59999999999997</ele><time>2026-04-02T09:06:40.996Z</time></trkpt><trkpt lat="44.8045483" lon="8.96521"><ele>381.79999999999995</ele><time>2026-04-02T09:06:42.996Z</time></trkpt><trkpt lat="44.8044617" lon="8.9651033"><ele>379.0</ele><time>2026-04-02T09:06:44.995Z</time></trkpt><trkpt lat="44.8043317" lon="8.9651117"><ele>381.79999999999995</ele><time>2026-04-02T09:06:46.996Z</time></trkpt><trkpt lat="44.8042467" lon="8.965155"><ele>384.59999999999997</ele><time>2026-04-02T09:06:47.996Z</time></trkpt><trkpt lat="44.8041567" lon="8.9652183"><ele>387.4</ele><time>2026-04-02T09:06:48.996Z</time></trkpt><trkpt lat="44.8040817" lon="8.96528"><ele>390.2</ele><time>2026-04-02T09:06:49.995Z</time></trkpt><trkpt lat="44.8039883" lon="8.9653217"><ele>393.0</ele><time>2026-04-02T09:06:51.996Z</time></trkpt><trkpt lat="44.8039983" lon="8.9651883"><ele>393.0</ele><time>2026-04-02T09:06:55.996Z</time></trkpt><trkpt lat="44.8041083" lon="8.9650917"><ele>393.0</ele><time>2026-04-02T09:06:57.996Z</time></trkpt><trkpt lat="44.8041767" lon="8.9650333"><ele>393.0</ele><time>2026-04-02T09:06:58.996Z</time></trkpt><trkpt lat="44.8042567" lon="8.964975"><ele>393.0</ele><time>2026-04-02T09:06:59.996Z</time></trkpt><trkpt lat="44.804345" lon="8.9649167"><ele>393.0</ele><time>2026-04-02T09:07:00.996Z</time></trkpt><trkpt lat="44.8044433" lon="8.9648667"><ele>395.25</ele><time>2026-04-02T09:07:01.996Z</time></trkpt><trkpt lat="44.8045617" lon="8.96483"><ele>397.5</ele><time>2026-04-02T09:07:02.995Z</time></trkpt><trkpt lat="44.804685" lon="8.9648083"><ele>399.75</ele><time>2026-04-02T09:07:03.996Z</time></trkpt><trkpt lat="44.804815" lon="8.9647833"><ele>402.0</ele><time>2026-04-02T09:07:04.995Z</time></trkpt><trkpt lat="44.8049317" lon="8.9647567"><ele>402.0</ele><time>2026-04-02T09:07:05.996Z</time></trkpt><trkpt lat="44.8050467" lon="8.964725"><ele>402.0</ele><time>2026-04-02T09:07:06.996Z</time></trkpt><trkpt lat="44.805155" lon="8.964685"><ele>402.0</ele><time>2026-04-02T09:07:07.996Z</time></trkpt><trkpt lat="44.8052617" lon="8.9646333"><ele>402.0</ele><time>2026-04-02T09:07:08.996Z</time></trkpt><trkpt lat="44.8053633" lon="8.9645767"><ele>401.0</ele><time>2026-04-02T09:07:09.996Z</time></trkpt><trkpt lat="44.8054517" lon="8.964495"><ele>400.0</ele><time>2026-04-02T09:07:10.996Z</time></trkpt><trkpt lat="44.8055283" lon="8.9644"><ele>399.0</ele><time>2026-04-02T09:07:11.996Z</time></trkpt><trkpt lat="44.8055833" lon="8.9642683"><ele>398.0</ele><time>2026-04-02T09:07:12.996Z</time></trkpt><trkpt lat="44.8056317" lon="8.9641233"><ele>397.0</ele><time>2026-04-02T09:07:13.995Z</time></trkpt><trkpt lat="44.80568" lon="8.9639717"><ele>400.0</ele><time>2026-04-02T09:07:14.996Z</time></trkpt><trkpt lat="44.8057317" lon="8.963815"><ele>403.0</ele><time>2026-04-02T09:07:15.996Z</time></trkpt><trkpt lat="44.8057833" lon="8.9636567"><ele>406.0</ele><time>2026-04-02T09:07:16.996Z</time></trkpt><trkpt lat="44.8058483" lon="8.9635133"><ele>409.0</ele><time>2026-04-02T09:07:17.996Z</time></trkpt><trkpt lat="44.80592" lon="8.9633633"><ele>409.75</ele><time>2026-04-02T09:07:18.996Z</time></trkpt><trkpt lat="44.8059883" lon="8.963215"><ele>410.5</ele><time>2026-04-02T09:07:19.996Z</time></trkpt><trkpt lat="44.8060383" lon="8.9630467"><ele>411.25</ele><time>2026-04-02T09:07:20.996Z</time></trkpt><trkpt lat="44.8060617" lon="8.9628733"><ele>412.0</ele><time>2026-04-02T09:07:21.996Z</time></trkpt><trkpt lat="44.8060983" lon="8.9627033"><ele>408.25</ele><time>2026-04-02T09:07:22.996Z</time></trkpt><trkpt lat="44.80614" lon="8.9625683"><ele>404.5</ele><time>2026-04-02T09:07:23.996Z</time></trkpt><trkpt lat="44.80621" lon="8.9624433"><ele>400.75</ele><time>2026-04-02T09:07:24.996Z</time></trkpt><trkpt lat="44.8062967" lon="8.9623333"><ele>397.0</ele><time>2026-04-02T09:07:25.995Z</time></trkpt><trkpt lat="44.8063983" lon="8.9622267"><ele>397.0</ele><time>2026-04-02T09:07:26.996Z</time></trkpt><trkpt lat="44.80651" lon="8.9621133"><ele>397.0</ele><time>2026-04-02T09:07:27.996Z</time></trkpt><trkpt lat="44.8066233" lon="8.961995"><ele>397.0</ele><time>2026-04-02T09:07:28.996Z</time></trkpt><trkpt lat="44.80674" lon="8.9618717"><ele>397.0</ele><time>2026-04-02T09:07:29.996Z</time></trkpt><trkpt lat="44.8068617" lon="8.9617483"><ele>394.75</ele><time>2026-04-02T09:07:30.996Z</time></trkpt><trkpt lat="44.8069783" lon="8.9616267"><ele>392.5</ele><time>2026-04-02T09:07:31.995Z</time></trkpt><trkpt lat="44.807095" lon="8.9615"><ele>390.25</ele><time>2026-04-02T09:07:32.995Z</time></trkpt><trkpt lat="44.8072183" lon="8.9613733"><ele>388.0</ele><time>2026-04-02T09:07:33.995Z</time></trkpt><trkpt lat="44.8073383" lon="8.961245"><ele>388.0</ele><time>2026-04-02T09:07:34.995Z</time></trkpt><trkpt lat="44.8074567" lon="8.9611183"><ele>388.0</ele><time>2026-04-02T09:07:35.995Z</time></trkpt><trkpt lat="44.80757" lon="8.961"><ele>388.0</ele><time>2026-04-02T09:07:36.995Z</time></trkpt><trkpt lat="44.807675" lon="8.9608867"><ele>388.0</ele><time>2026-04-02T09:07:37.995Z</time></trkpt><trkpt lat="44.8077617" lon="8.9607783"><ele>386.83333333333337</ele><time>2026-04-02T09:07:38.994Z</time></trkpt><trkpt lat="44.8078267" lon="8.9606917"><ele>385.6666666666667</ele><time>2026-04-02T09:07:39.995Z</time></trkpt><trkpt lat="44.80789" lon="8.9606317"><ele>384.5</ele><time>2026-04-02T09:07:40.995Z</time></trkpt><trkpt lat="44.8079517" lon="8.9605933"><ele>383.33333333333337</ele><time>2026-04-02T09:07:41.995Z</time></trkpt><trkpt lat="44.8080617" lon="8.9606333"><ele>382.1666666666667</ele><time>2026-04-02T09:07:43.994Z</time></trkpt><trkpt lat="44.80809" lon="8.960715"><ele>381.0</ele><time>2026-04-02T09:07:44.994Z</time></trkpt><trkpt lat="44.8080883" lon="8.960825"><ele>379.25</ele><time>2026-04-02T09:07:45.995Z</time></trkpt><trkpt lat="44.808065" lon="8.960965"><ele>377.5</ele><time>2026-04-02T09:07:46.995Z</time></trkpt><trkpt lat="44.8080317" lon="8.9611217"><ele>375.75</ele><time>2026-04-02T09:07:47.995Z</time></trkpt><trkpt lat="44.8079933" lon="8.9612983"><ele>374.0</ele><time>2026-04-02T09:07:48.995Z</time></trkpt><trkpt lat="44.80796" lon="8.9614817"><ele>374.0</ele><time>2026-04-02T09:07:49.995Z</time></trkpt><trkpt lat="44.8079267" lon="8.9616533"><ele>374.0</ele><time>2026-04-02T09:07:50.994Z</time></trkpt><trkpt lat="44.8078983" lon="8.9618283"><ele>374.0</ele><time>2026-04-02T09:07:51.994Z</time></trkpt><trkpt lat="44.807875" lon="8.9619933"><ele>374.0</ele><time>2026-04-02T09:07:52.995Z</time></trkpt><trkpt lat="44.8078583" lon="8.9621217"><ele>373.0</ele><time>2026-04-02T09:07:53.995Z</time></trkpt><trkpt lat="44.8078517" lon="8.962225"><ele>372.0</ele><time>2026-04-02T09:07:54.994Z</time></trkpt><trkpt lat="44.80786" lon="8.9623133"><ele>371.0</ele><time>2026-04-02T09:07:55.995Z</time></trkpt><trkpt lat="44.8079333" lon="8.9624067"><ele>370.0</ele><time>2026-04-02T09:07:57.995Z</time></trkpt><trkpt lat="44.8080467" lon="8.9623483"><ele>369.0</ele><time>2026-04-02T09:07:59.995Z</time></trkpt><trkpt lat="44.808105" lon="8.9622517"><ele>368.0</ele><time>2026-04-02T09:08:00.995Z</time></trkpt><trkpt lat="44.8081633" lon="8.962115"><ele>368.0</ele><time>2026-04-02T09:08:01.995Z</time></trkpt><trkpt lat="44.8082117" lon="8.96195"><ele>368.0</ele><time>2026-04-02T09:08:02.995Z</time></trkpt><trkpt lat="44.80826" lon="8.9617767"><ele>368.0</ele><time>2026-04-02T09:08:03.995Z</time></trkpt><trkpt lat="44.8083117" lon="8.961605"><ele>368.0</ele><time>2026-04-02T09:08:04.994Z</time></trkpt><trkpt lat="44.808365" lon="8.961445"><ele>369.2</ele><time>2026-04-02T09:08:05.995Z</time></trkpt><trkpt lat="44.808415" lon="8.96134"><ele>370.4</ele><time>2026-04-02T09:08:06.995Z</time></trkpt><trkpt lat="44.8084617" lon="8.961275"><ele>371.59999999999997</ele><time>2026-04-02T09:08:07.994Z</time></trkpt><trkpt lat="44.8085517" lon="8.96125"><ele>372.79999999999995</ele><time>2026-04-02T09:08:09.995Z</time></trkpt><trkpt lat="44.8086267" lon="8.9613933"><ele>374.0</ele><time>2026-04-02T09:08:11.995Z</time></trkpt><trkpt lat="44.8086133" lon="8.961515"><ele>369.75</ele><time>2026-04-02T09:08:12.994Z</time></trkpt><trkpt lat="44.8085833" lon="8.9616683"><ele>365.5</ele><time>2026-04-02T09:08:13.995Z</time></trkpt><trkpt lat="44.8085483" lon="8.9618317"><ele>361.25</ele><time>2026-04-02T09:08:14.995Z</time></trkpt><trkpt lat="44.8085233" lon="8.9620017"><ele>357.0</ele><time>2026-04-02T09:08:15.995Z</time></trkpt><trkpt lat="44.8085033" lon="8.9621733"><ele>357.0</ele><time>2026-04-02T09:08:16.995Z</time></trkpt><trkpt lat="44.808495" lon="8.9623467"><ele>357.0</ele><time>2026-04-02T09:08:17.995Z</time></trkpt><trkpt lat="44.8085067" lon="8.9624883"><ele>357.0</ele><time>2026-04-02T09:08:18.995Z</time></trkpt><trkpt lat="44.8085333" lon="8.962615"><ele>357.0</ele><time>2026-04-02T09:08:19.995Z</time></trkpt><trkpt lat="44.808585" lon="8.9627317"><ele>357.0</ele><time>2026-04-02T09:08:20.995Z</time></trkpt><trkpt lat="44.8086633" lon="8.9628167"><ele>355.75</ele><time>2026-04-02T09:08:21.995Z</time></trkpt><trkpt lat="44.808765" lon="8.9628767"><ele>354.5</ele><time>2026-04-02T09:08:22.995Z</time></trkpt><trkpt lat="44.8088883" lon="8.9629133"><ele>353.25</ele><time>2026-04-02T09:08:23.995Z</time></trkpt><trkpt lat="44.809015" lon="8.9629483"><ele>352.0</ele><time>2026-04-02T09:08:24.995Z</time></trkpt><trkpt lat="44.8091417" lon="8.9629717"><ele>352.0</ele><time>2026-04-02T09:08:25.995Z</time></trkpt><trkpt lat="44.8092667" lon="8.96299"><ele>352.0</ele><time>2026-04-02T09:08:26.995Z</time></trkpt><trkpt lat="44.8093933" lon="8.9629833"><ele>352.0</ele><time>2026-04-02T09:08:27.995Z</time></trkpt><trkpt lat="44.8095167" lon="8.962965"><ele>352.0</ele><time>2026-04-02T09:08:28.995Z</time></trkpt><trkpt lat="44.8096467" lon="8.96296"><ele>351.75</ele><time>2026-04-02T09:08:29.995Z</time></trkpt><trkpt lat="44.8097717" lon="8.9629583"><ele>351.5</ele><time>2026-04-02T09:08:30.995Z</time></trkpt><trkpt lat="44.8099067" lon="8.9629783"><ele>351.25</ele><time>2026-04-02T09:08:31.995Z</time></trkpt><trkpt lat="44.8100633" lon="8.9629983"><ele>351.0</ele><time>2026-04-02T09:08:32.995Z</time></trkpt><trkpt lat="44.81022" lon="8.9630133"><ele>348.6666666666667</ele><time>2026-04-02T09:08:33.995Z</time></trkpt><trkpt lat="44.81037" lon="8.9630333"><ele>346.33333333333337</ele><time>2026-04-02T09:08:34.994Z</time></trkpt><trkpt lat="44.81052" lon="8.96305"><ele>344.0</ele><time>2026-04-02T09:08:35.994Z</time></trkpt><trkpt lat="44.81068" lon="8.9630733"><ele>344.0</ele><time>2026-04-02T09:08:36.994Z</time></trkpt><trkpt lat="44.81084" lon="8.9630883"><ele>344.0</ele><time>2026-04-02T09:08:37.995Z</time></trkpt><trkpt lat="44.8109983" lon="8.9630983"><ele>344.0</ele><time>2026-04-02T09:08:38.994Z</time></trkpt><trkpt lat="44.8111583" lon="8.963115"><ele>343.6666666666667</ele><time>2026-04-02T09:08:39.995Z</time></trkpt><trkpt lat="44.8113183" lon="8.96312"><ele>343.3333333333333</ele><time>2026-04-02T09:08:40.995Z</time></trkpt><trkpt lat="44.8114783" lon="8.9631283"><ele>343.0</ele><time>2026-04-02T09:08:41.995Z</time></trkpt><trkpt lat="44.81162" lon="8.9631483"><ele>343.0</ele><time>2026-04-02T09:08:42.994Z</time></trkpt><trkpt lat="44.8117667" lon="8.9631883"><ele>343.0</ele><time>2026-04-02T09:08:43.995Z</time></trkpt><trkpt lat="44.8119133" lon="8.9632433"><ele>343.0</ele><time>2026-04-02T09:08:44.995Z</time></trkpt><trkpt lat="44.8120483" lon="8.9633183"><ele>343.0</ele><time>2026-04-02T09:08:45.995Z</time></trkpt><trkpt lat="44.8121833" lon="8.9634"><ele>343.0</ele><time>2026-04-02T09:08:46.995Z</time></trkpt><trkpt lat="44.81232" lon="8.9634867"><ele>343.0</ele><time>2026-04-02T09:08:47.995Z</time></trkpt><trkpt lat="44.81245" lon="8.9635817"><ele>343.0</ele><time>2026-04-02T09:08:48.995Z</time></trkpt><trkpt lat="44.81257" lon="8.963685"><ele>343.0</ele><time>2026-04-02T09:08:49.994Z</time></trkpt><trkpt lat="44.8126517" lon="8.96379"><ele>342.3333333333333</ele><time>2026-04-02T09:08:50.994Z</time></trkpt><trkpt lat="44.812695" lon="8.9638983"><ele>341.66666666666663</ele><time>2026-04-02T09:08:51.995Z</time></trkpt><trkpt lat="44.8127017" lon="8.9640233"><ele>341.0</ele><time>2026-04-02T09:08:52.995Z</time></trkpt><trkpt lat="44.8127033" lon="8.9641483"><ele>340.3333333333333</ele><time>2026-04-02T09:08:53.995Z</time></trkpt><trkpt lat="44.812715" lon="8.9642667"><ele>339.6666666666667</ele><time>2026-04-02T09:08:54.995Z</time></trkpt><trkpt lat="44.8127467" lon="8.9643467"><ele>339.0</ele><time>2026-04-02T09:08:55.995Z</time></trkpt><trkpt lat="44.8128433" lon="8.9644283"><ele>339.0</ele><time>2026-04-02T09:08:57.995Z</time></trkpt><trkpt lat="44.8129667" lon="8.9643817"><ele>339.0</ele><time>2026-04-02T09:08:59.994Z</time></trkpt><trkpt lat="44.8130483" lon="8.9642967"><ele>339.0</ele><time>2026-04-02T09:09:00.995Z</time></trkpt><trkpt lat="44.8131217" lon="8.9642033"><ele>339.0</ele><time>2026-04-02T09:09:01.995Z</time></trkpt><trkpt lat="44.8131967" lon="8.9641233"><ele>339.0</ele><time>2026-04-02T09:09:02.995Z</time></trkpt><trkpt lat="44.8132817" lon="8.96407"><ele>341.79999999999995</ele><time>2026-04-02T09:09:03.995Z</time></trkpt><trkpt lat="44.8133717" lon="8.9640333"><ele>344.59999999999997</ele><time>2026-04-02T09:09:04.995Z</time></trkpt><trkpt lat="44.8134667" lon="8.964025"><ele>347.4</ele><time>2026-04-02T09:09:05.995Z</time></trkpt><trkpt lat="44.8135583" lon="8.9640533"><ele>350.2</ele><time>2026-04-02T09:09:06.995Z</time></trkpt><trkpt lat="44.81366" lon="8.964115"><ele>353.0</ele><time>2026-04-02T09:09:07.995Z</time></trkpt><trkpt lat="44.8137617" lon="8.9642"><ele>354.75</ele><time>2026-04-02T09:09:08.995Z</time></trkpt><trkpt lat="44.8138717" lon="8.9642883"><ele>356.5</ele><time>2026-04-02T09:09:09.995Z</time></trkpt><trkpt lat="44.8139767" lon="8.96438"><ele>358.25</ele><time>2026-04-02T09:09:10.995Z</time></trkpt><trkpt lat="44.8140833" lon="8.96447"><ele>360.0</ele><time>2026-04-02T09:09:11.995Z</time></trkpt><trkpt lat="44.81419" lon="8.9645483"><ele>360.0</ele><time>2026-04-02T09:09:12.995Z</time></trkpt><trkpt lat="44.8143033" lon="8.964615"><ele>360.0</ele><time>2026-04-02T09:09:13.994Z</time></trkpt><trkpt lat="44.81442" lon="8.9646583"><ele>360.0</ele><time>2026-04-02T09:09:14.995Z</time></trkpt><trkpt lat="44.8145417" lon="8.964685"><ele>360.0</ele><time>2026-04-02T09:09:15.995Z</time></trkpt><trkpt lat="44.8146683" lon="8.964705"><ele>363.5</ele><time>2026-04-02T09:09:16.995Z</time></trkpt><trkpt lat="44.81478" lon="8.964705"><ele>367.0</ele><time>2026-04-02T09:09:17.995Z</time></trkpt><trkpt lat="44.8149083" lon="8.9646967"><ele>370.5</ele><time>2026-04-02T09:09:18.995Z</time></trkpt><trkpt lat="44.815035" lon="8.9646867"><ele>374.0</ele><time>2026-04-02T09:09:19.995Z</time></trkpt><trkpt lat="44.8151533" lon="8.964665"><ele>371.6</ele><time>2026-04-02T09:09:20.995Z</time></trkpt><trkpt lat="44.8152717" lon="8.9646383"><ele>369.2</ele><time>2026-04-02T09:09:21.995Z</time></trkpt><trkpt lat="44.8153717" lon="8.9645933"><ele>366.8</ele><time>2026-04-02T09:09:22.995Z</time></trkpt><trkpt lat="44.8154567" lon="8.9645317"><ele>364.40000000000003</ele><time>2026-04-02T09:09:23.995Z</time></trkpt><trkpt lat="44.81554" lon="8.9644433"><ele>362.0</ele><time>2026-04-02T09:09:24.995Z</time></trkpt><trkpt lat="44.8156217" lon="8.9643383"><ele>362.0</ele><time>2026-04-02T09:09:25.995Z</time></trkpt><trkpt lat="44.8156967" lon="8.9642167"><ele>362.0</ele><time>2026-04-02T09:09:26.995Z</time></trkpt><trkpt lat="44.8157683" lon="8.9640783"><ele>362.0</ele><time>2026-04-02T09:09:27.995Z</time></trkpt><trkpt lat="44.8158367" lon="8.963935"><ele>362.0</ele><time>2026-04-02T09:09:28.995Z</time></trkpt><trkpt lat="44.81589" lon="8.96379"><ele>362.5</ele><time>2026-04-02T09:09:29.995Z</time></trkpt><trkpt lat="44.8159283" lon="8.9636333"><ele>363.0</ele><time>2026-04-02T09:09:30.995Z</time></trkpt><trkpt lat="44.81595" lon="8.9634833"><ele>363.5</ele><time>2026-04-02T09:09:31.995Z</time></trkpt><trkpt lat="44.81596" lon="8.9633217"><ele>364.0</ele><time>2026-04-02T09:09:32.995Z</time></trkpt><trkpt lat="44.815965" lon="8.963155"><ele>364.25</ele><time>2026-04-02T09:09:33.995Z</time></trkpt><trkpt lat="44.8159583" lon="8.9629933"><ele>364.5</ele><time>2026-04-02T09:09:34.995Z</time></trkpt><trkpt lat="44.815965" lon="8.9628217"><ele>364.75</ele><time>2026-04-02T09:09:35.995Z</time></trkpt><trkpt lat="44.815975" lon="8.962655"><ele>365.0</ele><time>2026-04-02T09:09:36.995Z</time></trkpt><trkpt lat="44.8159867" lon="8.9624617"><ele>362.75</ele><time>2026-04-02T09:09:37.995Z</time></trkpt><trkpt lat="44.8160083" lon="8.9622783"><ele>360.5</ele><time>2026-04-02T09:09:38.995Z</time></trkpt><trkpt lat="44.8160367" lon="8.9620883"><ele>358.25</ele><time>2026-04-02T09:09:39.995Z</time></trkpt><trkpt lat="44.816045" lon="8.9619033"><ele>356.0</ele><time>2026-04-02T09:09:40.995Z</time></trkpt><trkpt lat="44.8160633" lon="8.961745"><ele>355.83333333333337</ele><time>2026-04-02T09:09:41.995Z</time></trkpt><trkpt lat="44.816095" lon="8.9615983"><ele>355.6666666666667</ele><time>2026-04-02T09:09:42.995Z</time></trkpt><trkpt lat="44.8161333" lon="8.961495"><ele>355.5</ele><time>2026-04-02T09:09:43.995Z</time></trkpt><trkpt lat="44.81619" lon="8.9614183"><ele>355.3333333333333</ele><time>2026-04-02T09:09:44.994Z</time></trkpt><trkpt lat="44.8162667" lon="8.96138"><ele>355.16666666666663</ele><time>2026-04-02T09:09:45.995Z</time></trkpt><trkpt lat="44.81636" lon="8.96136"><ele>355.0</ele><time>2026-04-02T09:09:46.995Z</time></trkpt><trkpt lat="44.81647" lon="8.9613533"><ele>355.0</ele><time>2026-04-02T09:09:47.995Z</time></trkpt><trkpt lat="44.8165817" lon="8.9613383"><ele>355.0</ele><time>2026-04-02T09:09:48.995Z</time></trkpt><trkpt lat="44.81669" lon="8.961295"><ele>355.0</ele><time>2026-04-02T09:09:49.995Z</time></trkpt><trkpt lat="44.8167917" lon="8.9612183"><ele>355.0</ele><time>2026-04-02T09:09:50.994Z</time></trkpt><trkpt lat="44.8168733" lon="8.9611167"><ele>355.0</ele><time>2026-04-02T09:09:51.995Z</time></trkpt><trkpt lat="44.8169433" lon="8.9609983"><ele>353.25</ele><time>2026-04-02T09:09:52.995Z</time></trkpt><trkpt lat="44.8170133" lon="8.960865"><ele>351.5</ele><time>2026-04-02T09:09:53.995Z</time></trkpt><trkpt lat="44.8170917" lon="8.96074"><ele>349.75</ele><time>2026-04-02T09:09:54.995Z</time></trkpt><trkpt lat="44.8171883" lon="8.9606133"><ele>348.0</ele><time>2026-04-02T09:09:55.995Z</time></trkpt><trkpt lat="44.81729" lon="8.9604833"><ele>348.0</ele><time>2026-04-02T09:09:56.995Z</time></trkpt><trkpt lat="44.8174017" lon="8.9603583"><ele>348.0</ele><time>2026-04-02T09:09:57.995Z</time></trkpt><trkpt lat="44.8175233" lon="8.9602217"><ele>348.0</ele><time>2026-04-02T09:09:58.995Z</time></trkpt><trkpt lat="44.81764" lon="8.9600783"><ele>346.3333333333333</ele><time>2026-04-02T09:09:59.995Z</time></trkpt><trkpt lat="44.8177583" lon="8.9599417"><ele>344.66666666666663</ele><time>2026-04-02T09:10:00.995Z</time></trkpt><trkpt lat="44.8178717" lon="8.9597967"><ele>343.0</ele><time>2026-04-02T09:10:01.995Z</time></trkpt><trkpt lat="44.817965" lon="8.9596367"><ele>343.0</ele><time>2026-04-02T09:10:02.995Z</time></trkpt><trkpt lat="44.81807" lon="8.9594667"><ele>343.0</ele><time>2026-04-02T09:10:03.995Z</time></trkpt><trkpt lat="44.8181667" lon="8.9593033"><ele>343.0</ele><time>2026-04-02T09:10:04.994Z</time></trkpt><trkpt lat="44.8182733" lon="8.9591483"><ele>344.0</ele><time>2026-04-02T09:10:05.995Z</time></trkpt><trkpt lat="44.8183667" lon="8.9590183"><ele>345.0</ele><time>2026-04-02T09:10:06.995Z</time></trkpt><trkpt lat="44.8184467" lon="8.95889"><ele>346.0</ele><time>2026-04-02T09:10:07.995Z</time></trkpt><trkpt lat="44.8185133" lon="8.9587633"><ele>347.0</ele><time>2026-04-02T09:10:08.995Z</time></trkpt><trkpt lat="44.8185733" lon="8.9586417"><ele>345.0</ele><time>2026-04-02T09:10:09.995Z</time></trkpt><trkpt lat="44.8186333" lon="8.9585217"><ele>343.0</ele><time>2026-04-02T09:10:10.995Z</time></trkpt><trkpt lat="44.81871" lon="8.9584167"><ele>341.0</ele><time>2026-04-02T09:10:11.995Z</time></trkpt><trkpt lat="44.8187933" lon="8.958315"><ele>339.0</ele><time>2026-04-02T09:10:12.995Z</time></trkpt><trkpt lat="44.8188833" lon="8.9582117"><ele>337.0</ele><time>2026-04-02T09:10:13.995Z</time></trkpt><trkpt lat="44.8189733" lon="8.958115"><ele>337.0</ele><time>2026-04-02T09:10:14.995Z</time></trkpt><trkpt lat="44.8190833" lon="8.9580117"><ele>337.0</ele><time>2026-04-02T09:10:15.994Z</time></trkpt><trkpt lat="44.8191933" lon="8.9579067"><ele>337.0</ele><time>2026-04-02T09:10:16.995Z</time></trkpt><trkpt lat="44.8193033" lon="8.9577983"><ele>337.0</ele><time>2026-04-02T09:10:17.995Z</time></trkpt><trkpt lat="44.8194167" lon="8.9577033"><ele>337.0</ele><time>2026-04-02T09:10:18.995Z</time></trkpt><trkpt lat="44.81955" lon="8.9576217"><ele>337.0</ele><time>2026-04-02T09:10:19.995Z</time></trkpt><trkpt lat="44.8197067" lon="8.957565"><ele>337.0</ele><time>2026-04-02T09:10:20.995Z</time></trkpt><trkpt lat="44.8198567" lon="8.95751"><ele>337.0</ele><time>2026-04-02T09:10:21.995Z</time></trkpt><trkpt lat="44.820015" lon="8.957455"><ele>337.0</ele><time>2026-04-02T09:10:22.995Z</time></trkpt><trkpt lat="44.820155" lon="8.9574067"><ele>337.0</ele><time>2026-04-02T09:10:23.995Z</time></trkpt><trkpt lat="44.8203067" lon="8.9573633"><ele>334.66666666666663</ele><time>2026-04-02T09:10:24.995Z</time></trkpt><trkpt lat="44.8204667" lon="8.95731"><ele>332.3333333333333</ele><time>2026-04-02T09:10:25.995Z</time></trkpt><trkpt lat="44.8206167" lon="8.9572533"><ele>330.0</ele><time>2026-04-02T09:10:26.995Z</time></trkpt><trkpt lat="44.820755" lon="8.9571967"><ele>330.0</ele><time>2026-04-02T09:10:27.995Z</time></trkpt><trkpt lat="44.8208533" lon="8.957145"><ele>330.0</ele><time>2026-04-02T09:10:28.995Z</time></trkpt><trkpt lat="44.8209383" lon="8.9570767"><ele>330.0</ele><time>2026-04-02T09:10:29.995Z</time></trkpt><trkpt lat="44.8210083" lon="8.95698"><ele>330.0</ele><time>2026-04-02T09:10:30.995Z</time></trkpt><trkpt lat="44.8210683" lon="8.9568633"><ele>330.0</ele><time>2026-04-02T09:10:31.995Z</time></trkpt><trkpt lat="44.8211317" lon="8.956735"><ele>328.75</ele><time>2026-04-02T09:10:32.995Z</time></trkpt><trkpt lat="44.8212" lon="8.9565917"><ele>327.5</ele><time>2026-04-02T09:10:33.995Z</time></trkpt><trkpt lat="44.8212683" lon="8.9564383"><ele>326.25</ele><time>2026-04-02T09:10:34.994Z</time></trkpt><trkpt lat="44.8213467" lon="8.956275"><ele>325.0</ele><time>2026-04-02T09:10:35.995Z</time></trkpt><trkpt lat="44.8214283" lon="8.9561"><ele>325.0</ele><time>2026-04-02T09:10:36.995Z</time></trkpt><trkpt lat="44.8215117" lon="8.9559167"><ele>325.0</ele><time>2026-04-02T09:10:37.995Z</time></trkpt><trkpt lat="44.8215933" lon="8.9557483"><ele>325.0</ele><time>2026-04-02T09:10:38.994Z</time></trkpt><trkpt lat="44.82167" lon="8.9555767"><ele>325.0</ele><time>2026-04-02T09:10:39.995Z</time></trkpt><trkpt lat="44.8217517" lon="8.955405"><ele>325.75</ele><time>2026-04-02T09:10:40.995Z</time></trkpt><trkpt lat="44.82182" lon="8.955235"><ele>326.5</ele><time>2026-04-02T09:10:41.995Z</time></trkpt><trkpt lat="44.8218983" lon="8.955055"><ele>327.25</ele><time>2026-04-02T09:10:42.995Z</time></trkpt><trkpt lat="44.8219767" lon="8.95487"><ele>328.0</ele><time>2026-04-02T09:10:43.995Z</time></trkpt><trkpt lat="44.8220533" lon="8.9546817"><ele>328.5</ele><time>2026-04-02T09:10:44.994Z</time></trkpt><trkpt lat="44.8221217" lon="8.9545"><ele>329.0</ele><time>2026-04-02T09:10:45.994Z</time></trkpt><trkpt lat="44.82219" lon="8.9543233"><ele>329.5</ele><time>2026-04-02T09:10:46.995Z</time></trkpt><trkpt lat="44.8222567" lon="8.95416"><ele>330.0</ele><time>2026-04-02T09:10:47.995Z</time></trkpt><trkpt lat="44.82229" lon="8.9539817"><ele>328.5</ele><time>2026-04-02T09:10:48.995Z</time></trkpt><trkpt lat="44.8223117" lon="8.9538017"><ele>327.0</ele><time>2026-04-02T09:10:49.995Z</time></trkpt><trkpt lat="44.82232" lon="8.953615"><ele>325.5</ele><time>2026-04-02T09:10:50.995Z</time></trkpt><trkpt lat="44.8223267" lon="8.9534233"><ele>324.0</ele><time>2026-04-02T09:10:51.995Z</time></trkpt><trkpt lat="44.8223283" lon="8.953225"><ele>321.5</ele><time>2026-04-02T09:10:52.995Z</time></trkpt><trkpt lat="44.822335" lon="8.9530217"><ele>319.0</ele><time>2026-04-02T09:10:53.995Z</time></trkpt><trkpt lat="44.8223433" lon="8.952835"><ele>316.5</ele><time>2026-04-02T09:10:54.995Z</time></trkpt><trkpt lat="44.8223583" lon="8.95266"><ele>314.0</ele><time>2026-04-02T09:10:55.995Z</time></trkpt><trkpt lat="44.8223933" lon="8.9525067"><ele>312.8</ele><time>2026-04-02T09:10:56.995Z</time></trkpt><trkpt lat="44.8224317" lon="8.9523917"><ele>311.59999999999997</ele><time>2026-04-02T09:10:57.995Z</time></trkpt><trkpt lat="44.82249" lon="8.9522883"><ele>310.4</ele><time>2026-04-02T09:10:58.995Z</time></trkpt><trkpt lat="44.8225717" lon="8.9522"><ele>309.2</ele><time>2026-04-02T09:10:59.995Z</time></trkpt><trkpt lat="44.82267" lon="8.9521317"><ele>308.0</ele><time>2026-04-02T09:11:00.995Z</time></trkpt><trkpt lat="44.822795" lon="8.9520683"><ele>307.5</ele><time>2026-04-02T09:11:01.995Z</time></trkpt><trkpt lat="44.8229283" lon="8.952045"><ele>307.0</ele><time>2026-04-02T09:11:02.995Z</time></trkpt><trkpt lat="44.82308" lon="8.9520617"><ele>306.5</ele><time>2026-04-02T09:11:03.995Z</time></trkpt><trkpt lat="44.8232133" lon="8.9520967"><ele>306.0</ele><time>2026-04-02T09:11:04.995Z</time></trkpt><trkpt lat="44.82334" lon="8.95212"><ele>303.75</ele><time>2026-04-02T09:11:05.995Z</time></trkpt><trkpt lat="44.8234833" lon="8.952115"><ele>301.5</ele><time>2026-04-02T09:11:06.995Z</time></trkpt><trkpt lat="44.82361" lon="8.952065"><ele>299.25</ele><time>2026-04-02T09:11:07.995Z</time></trkpt><trkpt lat="44.82374" lon="8.9519933"><ele>297.0</ele><time>2026-04-02T09:11:08.995Z</time></trkpt><trkpt lat="44.8238667" lon="8.9519183"><ele>297.0</ele><time>2026-04-02T09:11:09.994Z</time></trkpt><trkpt lat="44.82399" lon="8.951825"><ele>297.0</ele><time>2026-04-02T09:11:10.995Z</time></trkpt><trkpt lat="44.8241" lon="8.9517"><ele>297.0</ele><time>2026-04-02T09:11:11.995Z</time></trkpt><trkpt lat="44.8242117" lon="8.951565"><ele>297.0</ele><time>2026-04-02T09:11:12.995Z</time></trkpt><trkpt lat="44.824325" lon="8.9514017"><ele>292.6666666666667</ele><time>2026-04-02T09:11:13.995Z</time></trkpt><trkpt lat="44.8244133" lon="8.951225"><ele>288.33333333333337</ele><time>2026-04-02T09:11:14.995Z</time></trkpt><trkpt lat="44.824475" lon="8.95103"><ele>284.0</ele><time>2026-04-02T09:11:15.995Z</time></trkpt><trkpt lat="44.8245333" lon="8.9508167"><ele>284.0</ele><time>2026-04-02T09:11:16.995Z</time></trkpt><trkpt lat="44.8246017" lon="8.950605"><ele>284.0</ele><time>2026-04-02T09:11:17.994Z</time></trkpt><trkpt lat="44.8246667" lon="8.9503833"><ele>284.0</ele><time>2026-04-02T09:11:18.995Z</time></trkpt><trkpt lat="44.824725" lon="8.9501583"><ele>284.6666666666667</ele><time>2026-04-02T09:11:19.994Z</time></trkpt><trkpt lat="44.8247883" lon="8.9499383"><ele>285.3333333333333</ele><time>2026-04-02T09:11:20.995Z</time></trkpt><trkpt lat="44.8248533" lon="8.9497133"><ele>286.0</ele><time>2026-04-02T09:11:21.995Z</time></trkpt><trkpt lat="44.8249267" lon="8.9494917"><ele>286.0</ele><time>2026-04-02T09:11:22.995Z</time></trkpt><trkpt lat="44.824995" lon="8.9492783"><ele>286.0</ele><time>2026-04-02T09:11:23.995Z</time></trkpt><trkpt lat="44.8250667" lon="8.94908"><ele>286.0</ele><time>2026-04-02T09:11:24.995Z</time></trkpt><trkpt lat="44.82513" lon="8.9488883"><ele>285.75</ele><time>2026-04-02T09:11:25.995Z</time></trkpt><trkpt lat="44.8252" lon="8.9487083"><ele>285.5</ele><time>2026-04-02T09:11:26.995Z</time></trkpt><trkpt lat="44.82528" lon="8.9485483"><ele>285.25</ele><time>2026-04-02T09:11:27.994Z</time></trkpt><trkpt lat="44.8253533" lon="8.9484067"><ele>285.0</ele><time>2026-04-02T09:11:28.994Z</time></trkpt><trkpt lat="44.825415" lon="8.9482733"><ele>286.6</ele><time>2026-04-02T09:11:29.994Z</time></trkpt><trkpt lat="44.82548" lon="8.9481517"><ele>288.2</ele><time>2026-04-02T09:11:30.994Z</time></trkpt><trkpt lat="44.8255517" lon="8.9480333"><ele>289.8</ele><time>2026-04-02T09:11:31.995Z</time></trkpt><trkpt lat="44.8256417" lon="8.9479283"><ele>291.4</ele><time>2026-04-02T09:11:32.994Z</time></trkpt><trkpt lat="44.8257333" lon="8.9478433"><ele>293.0</ele><time>2026-04-02T09:11:33.995Z</time></trkpt><trkpt lat="44.82584" lon="8.9477733"><ele>293.0</ele><time>2026-04-02T09:11:34.994Z</time></trkpt><trkpt lat="44.8259583" lon="8.947705"><ele>293.0</ele><time>2026-04-02T09:11:35.994Z</time></trkpt><trkpt lat="44.82608" lon="8.9476383"><ele>293.0</ele><time>2026-04-02T09:11:36.995Z</time></trkpt><trkpt lat="44.826215" lon="8.9475667"><ele>293.0</ele><time>2026-04-02T09:11:37.995Z</time></trkpt><trkpt lat="44.8263667" lon="8.9474867"><ele>292.6666666666667</ele><time>2026-04-02T09:11:38.995Z</time></trkpt><trkpt lat="44.82652" lon="8.9474033"><ele>292.3333333333333</ele><time>2026-04-02T09:11:39.994Z</time></trkpt><trkpt lat="44.8266717" lon="8.9473167"><ele>292.0</ele><time>2026-04-02T09:11:40.995Z</time></trkpt><trkpt lat="44.8268233" lon="8.94724"><ele>288.0</ele><time>2026-04-02T09:11:41.995Z</time></trkpt><trkpt lat="44.8269667" lon="8.94715"><ele>284.0</ele><time>2026-04-02T09:11:42.995Z</time></trkpt><trkpt lat="44.8271033" lon="8.9470417"><ele>280.0</ele><time>2026-04-02T09:11:43.994Z</time></trkpt><trkpt lat="44.8272333" lon="8.9469"><ele>280.0</ele><time>2026-04-02T09:11:44.994Z</time></trkpt><trkpt lat="44.827345" lon="8.9467317"><ele>280.0</ele><time>2026-04-02T09:11:45.995Z</time></trkpt><trkpt lat="44.8274283" lon="8.9465417"><ele>280.0</ele><time>2026-04-02T09:11:46.994Z</time></trkpt><trkpt lat="44.827505" lon="8.9463467"><ele>279.3333333333333</ele><time>2026-04-02T09:11:47.995Z</time></trkpt><trkpt lat="44.827595" lon="8.946145"><ele>278.6666666666667</ele><time>2026-04-02T09:11:48.995Z</time></trkpt><trkpt lat="44.827695" lon="8.945945"><ele>278.0</ele><time>2026-04-02T09:11:49.995Z</time></trkpt><trkpt lat="44.8277867" lon="8.9457433"><ele>278.0</ele><time>2026-04-02T09:11:50.995Z</time></trkpt><trkpt lat="44.8278783" lon="8.945535"><ele>278.0</ele><time>2026-04-02T09:11:51.995Z</time></trkpt><trkpt lat="44.8279683" lon="8.94535"><ele>278.0</ele><time>2026-04-02T09:11:52.995Z</time></trkpt><trkpt lat="44.8280567" lon="8.9451933"><ele>278.0</ele><time>2026-04-02T09:11:53.995Z</time></trkpt><trkpt lat="44.8281583" lon="8.945065"><ele>278.0</ele><time>2026-04-02T09:11:54.995Z</time></trkpt><trkpt lat="44.8282717" lon="8.9449717"><ele>278.0</ele><time>2026-04-02T09:11:55.995Z</time></trkpt><trkpt lat="44.82838" lon="8.9449"><ele>278.0</ele><time>2026-04-02T09:11:56.995Z</time></trkpt><trkpt lat="44.8284817" lon="8.94482"><ele>276.5</ele><time>2026-04-02T09:11:57.995Z</time></trkpt><trkpt lat="44.8285783" lon="8.9447117"><ele>275.0</ele><time>2026-04-02T09:11:58.995Z</time></trkpt><trkpt lat="44.8286517" lon="8.9445917"><ele>273.5</ele><time>2026-04-02T09:11:59.995Z</time></trkpt><trkpt lat="44.82871" lon="8.944445"><ele>272.0</ele><time>2026-04-02T09:12:00.995Z</time></trkpt><trkpt lat="44.8287533" lon="8.944285"><ele>273.75</ele><time>2026-04-02T09:12:01.995Z</time></trkpt><trkpt lat="44.8287867" lon="8.9441217"><ele>275.5</ele><time>2026-04-02T09:12:02.995Z</time></trkpt><trkpt lat="44.828815" lon="8.9439583"><ele>277.25</ele><time>2026-04-02T09:12:03.995Z</time></trkpt><trkpt lat="44.8288617" lon="8.9437983"><ele>279.0</ele><time>2026-04-02T09:12:04.995Z</time></trkpt><trkpt lat="44.82892" lon="8.9436417"><ele>279.0</ele><time>2026-04-02T09:12:05.995Z</time></trkpt><trkpt lat="44.8290083" lon="8.9434867"><ele>279.0</ele><time>2026-04-02T09:12:06.995Z</time></trkpt><trkpt lat="44.8291067" lon="8.9433483"><ele>279.0</ele><time>2026-04-02T09:12:07.994Z</time></trkpt><trkpt lat="44.8292283" lon="8.9432183"><ele>279.0</ele><time>2026-04-02T09:12:08.995Z</time></trkpt><trkpt lat="44.8293583" lon="8.9430967"><ele>277.5</ele><time>2026-04-02T09:12:09.995Z</time></trkpt><trkpt lat="44.8294867" lon="8.942995"><ele>276.0</ele><time>2026-04-02T09:12:10.995Z</time></trkpt><trkpt lat="44.829615" lon="8.94291"><ele>274.5</ele><time>2026-04-02T09:12:11.995Z</time></trkpt><trkpt lat="44.8297483" lon="8.942825"><ele>273.0</ele><time>2026-04-02T09:12:12.995Z</time></trkpt><trkpt lat="44.8298667" lon="8.9427367"><ele>273.0</ele><time>2026-04-02T09:12:13.995Z</time></trkpt><trkpt lat="44.8299583" lon="8.942665"><ele>273.0</ele><time>2026-04-02T09:12:14.995Z</time></trkpt><trkpt lat="44.8300633" lon="8.94263"><ele>273.0</ele><time>2026-04-02T09:12:15.995Z</time></trkpt><trkpt lat="44.8301717" lon="8.9426083"><ele>273.0</ele><time>2026-04-02T09:12:16.995Z</time></trkpt><trkpt lat="44.83028" lon="8.94264"><ele>273.0</ele><time>2026-04-02T09:12:17.995Z</time></trkpt><trkpt lat="44.8303933" lon="8.9426933"><ele>272.2</ele><time>2026-04-02T09:12:18.995Z</time></trkpt><trkpt lat="44.83049" lon="8.9427733"><ele>271.4</ele><time>2026-04-02T09:12:19.995Z</time></trkpt><trkpt lat="44.8305633" lon="8.94287"><ele>270.59999999999997</ele><time>2026-04-02T09:12:20.995Z</time></trkpt><trkpt lat="44.83064" lon="8.9429783"><ele>269.8</ele><time>2026-04-02T09:12:21.994Z</time></trkpt><trkpt lat="44.8307217" lon="8.9430833"><ele>269.0</ele><time>2026-04-02T09:12:22.995Z</time></trkpt><trkpt lat="44.8308133" lon="8.9431417"><ele>269.0</ele><time>2026-04-02T09:12:23.994Z</time></trkpt><trkpt lat="44.830915" lon="8.9431583"><ele>269.0</ele><time>2026-04-02T09:12:24.995Z</time></trkpt><trkpt lat="44.831025" lon="8.9431633"><ele>269.0</ele><time>2026-04-02T09:12:25.995Z</time></trkpt><trkpt lat="44.8311217" lon="8.94313"><ele>269.0</ele><time>2026-04-02T09:12:26.995Z</time></trkpt><trkpt lat="44.83121" lon="8.9430617"><ele>269.0</ele><time>2026-04-02T09:12:27.995Z</time></trkpt><trkpt lat="44.8312667" lon="8.9429483"><ele>268.2</ele><time>2026-04-02T09:12:28.995Z</time></trkpt><trkpt lat="44.8313233" lon="8.9428117"><ele>267.4</ele><time>2026-04-02T09:12:29.995Z</time></trkpt><trkpt lat="44.8313717" lon="8.94268"><ele>266.6</ele><time>2026-04-02T09:12:30.995Z</time></trkpt><trkpt lat="44.83144" lon="8.9425533"><ele>265.8</ele><time>2026-04-02T09:12:31.995Z</time></trkpt><trkpt lat="44.831525" lon="8.9424517"><ele>265.0</ele><time>2026-04-02T09:12:32.995Z</time></trkpt><trkpt lat="44.8316183" lon="8.942365"><ele>265.0</ele><time>2026-04-02T09:12:33.995Z</time></trkpt><trkpt lat="44.8317183" lon="8.94232"><ele>265.0</ele><time>2026-04-02T09:12:34.995Z</time></trkpt><trkpt lat="44.8318517" lon="8.9423"><ele>265.0</ele><time>2026-04-02T09:12:35.995Z</time></trkpt><trkpt lat="44.83199" lon="8.9422983"><ele>265.0</ele><time>2026-04-02T09:12:36.995Z</time></trkpt><trkpt lat="44.8321417" lon="8.9422917"><ele>263.0</ele><time>2026-04-02T09:12:37.995Z</time></trkpt><trkpt lat="44.8322933" lon="8.9422717"><ele>261.0</ele><time>2026-04-02T09:12:38.995Z</time></trkpt><trkpt lat="44.8324467" lon="8.942255"><ele>259.0</ele><time>2026-04-02T09:12:39.995Z</time></trkpt><trkpt lat="44.8325983" lon="8.9422183"><ele>257.0</ele><time>2026-04-02T09:12:40.995Z</time></trkpt><trkpt lat="44.8327617" lon="8.9421717"><ele>255.0</ele><time>2026-04-02T09:12:41.995Z</time></trkpt><trkpt lat="44.8329333" lon="8.9421067"><ele>253.0</ele><time>2026-04-02T09:12:42.995Z</time></trkpt><trkpt lat="44.8331033" lon="8.942045"><ele>253.0</ele><time>2026-04-02T09:12:43.995Z</time></trkpt><trkpt lat="44.833285" lon="8.9419617"><ele>253.0</ele><time>2026-04-02T09:12:44.995Z</time></trkpt><trkpt lat="44.8334433" lon="8.9418683"><ele>253.0</ele><time>2026-04-02T09:12:45.995Z</time></trkpt><trkpt lat="44.8335867" lon="8.9417633"><ele>250.66666666666666</ele><time>2026-04-02T09:12:46.995Z</time></trkpt><trkpt lat="44.8337367" lon="8.9416533"><ele>248.33333333333331</ele><time>2026-04-02T09:12:47.995Z</time></trkpt><trkpt lat="44.833905" lon="8.9415417"><ele>246.0</ele><time>2026-04-02T09:12:48.995Z</time></trkpt><trkpt lat="44.834065" lon="8.9414317"><ele>246.0</ele><time>2026-04-02T09:12:49.995Z</time></trkpt><trkpt lat="44.834235" lon="8.9413117"><ele>246.0</ele><time>2026-04-02T09:12:50.995Z</time></trkpt><trkpt lat="44.8344017" lon="8.941195"><ele>246.0</ele><time>2026-04-02T09:12:51.995Z</time></trkpt><trkpt lat="44.8345783" lon="8.9410717"><ele>246.0</ele><time>2026-04-02T09:12:52.995Z</time></trkpt><trkpt lat="44.8347533" lon="8.940955"><ele>246.0</ele><time>2026-04-02T09:12:53.995Z</time></trkpt><trkpt lat="44.8349283" lon="8.9408333"><ele>246.0</ele><time>2026-04-02T09:12:54.995Z</time></trkpt><trkpt lat="44.8351" lon="8.9407167"><ele>243.66666666666669</ele><time>2026-04-02T09:12:55.995Z</time></trkpt><trkpt lat="44.83528" lon="8.94061"><ele>241.33333333333334</ele><time>2026-04-02T09:12:56.995Z</time></trkpt><trkpt lat="44.8354583" lon="8.940515"><ele>239.0</ele><time>2026-04-02T09:12:57.994Z</time></trkpt><trkpt lat="44.8356217" lon="8.94042"><ele>239.0</ele><time>2026-04-02T09:12:58.995Z</time></trkpt><trkpt lat="44.835765" lon="8.9403383"><ele>239.0</ele><time>2026-04-02T09:12:59.995Z</time></trkpt><trkpt lat="44.8358983" lon="8.9402433"><ele>239.0</ele><time>2026-04-02T09:13:00.995Z</time></trkpt><trkpt lat="44.83602" lon="8.940125"><ele>236.33333333333334</ele><time>2026-04-02T09:13:01.995Z</time></trkpt><trkpt lat="44.8361367" lon="8.9399817"><ele>233.66666666666669</ele><time>2026-04-02T09:13:02.995Z</time></trkpt><trkpt lat="44.836235" lon="8.9398083"><ele>231.0</ele><time>2026-04-02T09:13:03.995Z</time></trkpt><trkpt lat="44.8363267" lon="8.93963"><ele>231.0</ele><time>2026-04-02T09:13:04.995Z</time></trkpt><trkpt lat="44.8364233" lon="8.93945"><ele>231.0</ele><time>2026-04-02T09:13:05.995Z</time></trkpt><trkpt lat="44.8365283" lon="8.9392683"><ele>231.0</ele><time>2026-04-02T09:13:06.994Z</time></trkpt><trkpt lat="44.8366333" lon="8.9390767"><ele>231.66666666666669</ele><time>2026-04-02T09:13:07.994Z</time></trkpt><trkpt lat="44.8367333" lon="8.9388833"><ele>232.33333333333334</ele><time>2026-04-02T09:13:08.995Z</time></trkpt><trkpt lat="44.83684" lon="8.9386867"><ele>233.0</ele><time>2026-04-02T09:13:09.995Z</time></trkpt><trkpt lat="44.83696" lon="8.9384833"><ele>232.33333333333334</ele><time>2026-04-02T09:13:10.995Z</time></trkpt><trkpt lat="44.8370817" lon="8.93828"><ele>231.66666666666669</ele><time>2026-04-02T09:13:11.995Z</time></trkpt><trkpt lat="44.8372083" lon="8.9380767"><ele>231.0</ele><time>2026-04-02T09:13:12.995Z</time></trkpt><trkpt lat="44.8373283" lon="8.93788"><ele>231.0</ele><time>2026-04-02T09:13:13.995Z</time></trkpt><trkpt lat="44.8374617" lon="8.9376917"><ele>231.0</ele><time>2026-04-02T09:13:14.995Z</time></trkpt><trkpt lat="44.8375817" lon="8.9374983"><ele>231.0</ele><time>2026-04-02T09:13:15.995Z</time></trkpt><trkpt lat="44.8377017" lon="8.93731"><ele>230.66666666666669</ele><time>2026-04-02T09:13:16.995Z</time></trkpt><trkpt lat="44.8378117" lon="8.9371317"><ele>230.33333333333334</ele><time>2026-04-02T09:13:17.995Z</time></trkpt><trkpt lat="44.8379217" lon="8.9369733"><ele>230.0</ele><time>2026-04-02T09:13:18.995Z</time></trkpt><trkpt lat="44.838025" lon="8.93682"><ele>231.66666666666669</ele><time>2026-04-02T09:13:19.995Z</time></trkpt><trkpt lat="44.83814" lon="8.93666"><ele>233.33333333333331</ele><time>2026-04-02T09:13:20.995Z</time></trkpt><trkpt lat="44.8382533" lon="8.9365083"><ele>235.0</ele><time>2026-04-02T09:13:21.995Z</time></trkpt><trkpt lat="44.8383783" lon="8.936345"><ele>233.0</ele><time>2026-04-02T09:13:22.995Z</time></trkpt><trkpt lat="44.8384833" lon="8.9361883"><ele>231.0</ele><time>2026-04-02T09:13:23.995Z</time></trkpt><trkpt lat="44.8385967" lon="8.9360283"><ele>229.0</ele><time>2026-04-02T09:13:24.994Z</time></trkpt><trkpt lat="44.83872" lon="8.9358667"><ele>229.0</ele><time>2026-04-02T09:13:25.995Z</time></trkpt><trkpt lat="44.8388517" lon="8.9357233"><ele>229.0</ele><time>2026-04-02T09:13:26.995Z</time></trkpt><trkpt lat="44.8390017" lon="8.9355967"><ele>229.0</ele><time>2026-04-02T09:13:27.995Z</time></trkpt><trkpt lat="44.83916" lon="8.9354983"><ele>228.0</ele><time>2026-04-02T09:13:28.994Z</time></trkpt><trkpt lat="44.8393083" lon="8.9353967"><ele>227.0</ele><time>2026-04-02T09:13:29.995Z</time></trkpt><trkpt lat="44.8394667" lon="8.9352983"><ele>226.0</ele><time>2026-04-02T09:13:30.995Z</time></trkpt><trkpt lat="44.8396267" lon="8.9351967"><ele>226.0</ele><time>2026-04-02T09:13:31.995Z</time></trkpt><trkpt lat="44.83978" lon="8.9350933"><ele>226.0</ele><time>2026-04-02T09:13:32.995Z</time></trkpt><trkpt lat="44.8399367" lon="8.93498"><ele>226.0</ele><time>2026-04-02T09:13:33.994Z</time></trkpt><trkpt lat="44.8400833" lon="8.9348767"><ele>227.33333333333331</ele><time>2026-04-02T09:13:34.995Z</time></trkpt><trkpt lat="44.8402283" lon="8.9347767"><ele>228.66666666666669</ele><time>2026-04-02T09:13:35.994Z</time></trkpt><trkpt lat="44.8403717" lon="8.9346883"><ele>230.0</ele><time>2026-04-02T09:13:36.994Z</time></trkpt><trkpt lat="44.8405117" lon="8.934605"><ele>230.0</ele><time>2026-04-02T09:13:37.995Z</time></trkpt><trkpt lat="44.8406383" lon="8.9345117"><ele>230.0</ele><time>2026-04-02T09:13:38.995Z</time></trkpt><trkpt lat="44.8407633" lon="8.934405"><ele>230.0</ele><time>2026-04-02T09:13:39.994Z</time></trkpt><trkpt lat="44.8408817" lon="8.9343"><ele>230.0</ele><time>2026-04-02T09:13:40.995Z</time></trkpt><trkpt lat="44.8410033" lon="8.9341817"><ele>231.25</ele><time>2026-04-02T09:13:41.995Z</time></trkpt><trkpt lat="44.8411267" lon="8.9340667"><ele>232.5</ele><time>2026-04-02T09:13:42.995Z</time></trkpt><trkpt lat="44.8412383" lon="8.9339583"><ele>233.75</ele><time>2026-04-02T09:13:43.995Z</time></trkpt><trkpt lat="44.8413483" lon="8.933855"><ele>235.0</ele><time>2026-04-02T09:13:44.995Z</time></trkpt><trkpt lat="44.84146" lon="8.93375"><ele>235.0</ele><time>2026-04-02T09:13:45.995Z</time></trkpt><trkpt lat="44.841575" lon="8.9336467"><ele>235.0</ele><time>2026-04-02T09:13:46.995Z</time></trkpt><trkpt lat="44.8416883" lon="8.9335267"><ele>235.0</ele><time>2026-04-02T09:13:47.995Z</time></trkpt><trkpt lat="44.8418133" lon="8.9333983"><ele>235.0</ele><time>2026-04-02T09:13:48.994Z</time></trkpt><trkpt lat="44.8419417" lon="8.9332833"><ele>235.33333333333331</ele><time>2026-04-02T09:13:49.995Z</time></trkpt><trkpt lat="44.842085" lon="8.9331717"><ele>235.66666666666669</ele><time>2026-04-02T09:13:50.995Z</time></trkpt><trkpt lat="44.842225" lon="8.9330767"><ele>236.0</ele><time>2026-04-02T09:13:51.995Z</time></trkpt><trkpt lat="44.8423817" lon="8.9329867"><ele>236.0</ele><time>2026-04-02T09:13:52.994Z</time></trkpt><trkpt lat="44.8425317" lon="8.932905"><ele>236.0</ele><time>2026-04-02T09:13:53.994Z</time></trkpt><trkpt lat="44.8426783" lon="8.9328217"><ele>236.0</ele><time>2026-04-02T09:13:54.994Z</time></trkpt><trkpt lat="44.84282" lon="8.93274"><ele>236.66666666666669</ele><time>2026-04-02T09:13:55.994Z</time></trkpt><trkpt lat="44.8429683" lon="8.9326567"><ele>237.33333333333331</ele><time>2026-04-02T09:13:56.994Z</time></trkpt><trkpt lat="44.8431167" lon="8.9325683"><ele>238.0</ele><time>2026-04-02T09:13:57.994Z</time></trkpt><trkpt lat="44.843245" lon="8.9324883"><ele>238.0</ele><time>2026-04-02T09:13:58.994Z</time></trkpt><trkpt lat="44.8433633" lon="8.932425"><ele>238.0</ele><time>2026-04-02T09:13:59.994Z</time></trkpt><trkpt lat="44.8434583" lon="8.932385"><ele>238.0</ele><time>2026-04-02T09:14:00.994Z</time></trkpt><trkpt lat="44.843545" lon="8.9323533"><ele>238.0</ele><time>2026-04-02T09:14:01.994Z</time></trkpt><trkpt lat="44.8436233" lon="8.9323183"><ele>238.0</ele><time>2026-04-02T09:14:02.994Z</time></trkpt><trkpt lat="44.8437017" lon="8.9322883"><ele>237.60000000000002</ele><time>2026-04-02T09:14:03.994Z</time></trkpt><trkpt lat="44.8437817" lon="8.9322583"><ele>237.20000000000002</ele><time>2026-04-02T09:14:04.994Z</time></trkpt><trkpt lat="44.843875" lon="8.932225"><ele>236.8</ele><time>2026-04-02T09:14:05.994Z</time></trkpt><trkpt lat="44.8439767" lon="8.9321817"><ele>236.4</ele><time>2026-04-02T09:14:06.993Z</time></trkpt><trkpt lat="44.8440783" lon="8.9321383"><ele>236.0</ele><time>2026-04-02T09:14:07.994Z</time></trkpt><trkpt lat="44.844185" lon="8.9320883"><ele>235.75</ele><time>2026-04-02T09:14:08.994Z</time></trkpt><trkpt lat="44.8442983" lon="8.9320283"><ele>235.5</ele><time>2026-04-02T09:14:09.994Z</time></trkpt><trkpt lat="44.844405" lon="8.9319633"><ele>235.25</ele><time>2026-04-02T09:14:10.993Z</time></trkpt><trkpt lat="44.84453" lon="8.9318817"><ele>235.0</ele><time>2026-04-02T09:14:11.994Z</time></trkpt><trkpt lat="44.8446517" lon="8.9318033"><ele>235.25</ele><time>2026-04-02T09:14:12.994Z</time></trkpt><trkpt lat="44.844775" lon="8.9317167"><ele>235.5</ele><time>2026-04-02T09:14:13.994Z</time></trkpt><trkpt lat="44.84491" lon="8.9316317"><ele>235.75</ele><time>2026-04-02T09:14:14.994Z</time></trkpt><trkpt lat="44.8450467" lon="8.931555"><ele>236.0</ele><time>2026-04-02T09:14:15.994Z</time></trkpt><trkpt lat="44.8451817" lon="8.9314633"><ele>233.0</ele><time>2026-04-02T09:14:16.994Z</time></trkpt><trkpt lat="44.8453217" lon="8.931365"><ele>230.0</ele><time>2026-04-02T09:14:17.994Z</time></trkpt><trkpt lat="44.845475" lon="8.9312533"><ele>227.0</ele><time>2026-04-02T09:14:18.994Z</time></trkpt><trkpt lat="44.8456167" lon="8.9311333"><ele>227.0</ele><time>2026-04-02T09:14:19.994Z</time></trkpt><trkpt lat="44.8457667" lon="8.9309983"><ele>227.0</ele><time>2026-04-02T09:14:20.994Z</time></trkpt><trkpt lat="44.8459117" lon="8.93087"><ele>227.0</ele><time>2026-04-02T09:14:21.994Z</time></trkpt><trkpt lat="44.8460633" lon="8.9307483"><ele>228.33333333333334</ele><time>2026-04-02T09:14:22.994Z</time></trkpt><trkpt lat="44.8462267" lon="8.9306333"><ele>229.66666666666669</ele><time>2026-04-02T09:14:23.993Z</time></trkpt><trkpt lat="44.8463833" lon="8.9305167"><ele>231.0</ele><time>2026-04-02T09:14:24.994Z</time></trkpt><trkpt lat="44.8465417" lon="8.9304117"><ele>231.0</ele><time>2026-04-02T09:14:25.994Z</time></trkpt><trkpt lat="44.846705" lon="8.930315"><ele>231.0</ele><time>2026-04-02T09:14:26.994Z</time></trkpt><trkpt lat="44.84687" lon="8.9302117"><ele>231.0</ele><time>2026-04-02T09:14:27.994Z</time></trkpt><trkpt lat="44.8470283" lon="8.93011"><ele>233.0</ele><time>2026-04-02T09:14:28.994Z</time></trkpt><trkpt lat="44.8471883" lon="8.9300267"><ele>235.0</ele><time>2026-04-02T09:14:29.994Z</time></trkpt><trkpt lat="44.8473433" lon="8.9299283"><ele>237.0</ele><time>2026-04-02T09:14:30.993Z</time></trkpt><trkpt lat="44.8475" lon="8.929835"><ele>236.66666666666669</ele><time>2026-04-02T09:14:31.994Z</time></trkpt><trkpt lat="44.84766" lon="8.92975"><ele>236.33333333333334</ele><time>2026-04-02T09:14:32.994Z</time></trkpt><trkpt lat="44.8478183" lon="8.9296667"><ele>236.0</ele><time>2026-04-02T09:14:33.994Z</time></trkpt><trkpt lat="44.8479783" lon="8.9295917"><ele>236.0</ele><time>2026-04-02T09:14:34.993Z</time></trkpt><trkpt lat="44.84815" lon="8.929525"><ele>236.0</ele><time>2026-04-02T09:14:35.994Z</time></trkpt><trkpt lat="44.84831" lon="8.92946"><ele>236.0</ele><time>2026-04-02T09:14:36.994Z</time></trkpt><trkpt lat="44.8484783" lon="8.929395"><ele>235.25</ele><time>2026-04-02T09:14:37.993Z</time></trkpt><trkpt lat="44.8486383" lon="8.9293317"><ele>234.5</ele><time>2026-04-02T09:14:38.994Z</time></trkpt><trkpt lat="44.84877" lon="8.92927"><ele>233.75</ele><time>2026-04-02T09:14:39.994Z</time></trkpt><trkpt lat="44.8488867" lon="8.9291983"><ele>233.0</ele><time>2026-04-02T09:14:40.994Z</time></trkpt><trkpt lat="44.848995" lon="8.9291"><ele>234.0</ele><time>2026-04-02T09:14:41.993Z</time></trkpt><trkpt lat="44.8490967" lon="8.9289933"><ele>235.0</ele><time>2026-04-02T09:14:42.994Z</time></trkpt><trkpt lat="44.8491867" lon="8.9288633"><ele>236.0</ele><time>2026-04-02T09:14:43.993Z</time></trkpt><trkpt lat="44.8492817" lon="8.9287183"><ele>237.0</ele><time>2026-04-02T09:14:44.994Z</time></trkpt><trkpt lat="44.8493667" lon="8.928555"><ele>239.66666666666669</ele><time>2026-04-02T09:14:45.994Z</time></trkpt><trkpt lat="44.849455" lon="8.9283883"><ele>242.33333333333334</ele><time>2026-04-02T09:14:46.994Z</time></trkpt><trkpt lat="44.8495483" lon="8.9282183"><ele>245.0</ele><time>2026-04-02T09:14:47.994Z</time></trkpt><trkpt lat="44.8496433" lon="8.9280433"><ele>245.0</ele><time>2026-04-02T09:14:48.994Z</time></trkpt><trkpt lat="44.84974" lon="8.9278633"><ele>245.0</ele><time>2026-04-02T09:14:49.994Z</time></trkpt><trkpt lat="44.8498267" lon="8.9276717"><ele>245.0</ele><time>2026-04-02T09:14:50.994Z</time></trkpt><trkpt lat="44.8499083" lon="8.9274867"><ele>245.0</ele><time>2026-04-02T09:14:51.994Z</time></trkpt><trkpt lat="44.849995" lon="8.9273283"><ele>245.0</ele><time>2026-04-02T09:14:52.994Z</time></trkpt><trkpt lat="44.8500867" lon="8.9271683"><ele>245.0</ele><time>2026-04-02T09:14:53.993Z</time></trkpt><trkpt lat="44.8501767" lon="8.92699"><ele>245.0</ele><time>2026-04-02T09:14:54.993Z</time></trkpt><trkpt lat="44.8502667" lon="8.9268017"><ele>247.0</ele><time>2026-04-02T09:14:55.994Z</time></trkpt><trkpt lat="44.8503583" lon="8.9266167"><ele>249.0</ele><time>2026-04-02T09:14:56.993Z</time></trkpt><trkpt lat="44.8504483" lon="8.9264217"><ele>251.0</ele><time>2026-04-02T09:14:57.994Z</time></trkpt><trkpt lat="44.85055" lon="8.926235"><ele>251.0</ele><time>2026-04-02T09:14:58.994Z</time></trkpt><trkpt lat="44.85065" lon="8.9260383"><ele>251.0</ele><time>2026-04-02T09:14:59.994Z</time></trkpt><trkpt lat="44.8507583" lon="8.92584"><ele>251.0</ele><time>2026-04-02T09:15:00.994Z</time></trkpt><trkpt lat="44.8508583" lon="8.9256317"><ele>251.33333333333334</ele><time>2026-04-02T09:15:01.994Z</time></trkpt><trkpt lat="44.85096" lon="8.925425"><ele>251.66666666666669</ele><time>2026-04-02T09:15:02.994Z</time></trkpt><trkpt lat="44.8510617" lon="8.9252217"><ele>252.0</ele><time>2026-04-02T09:15:03.994Z</time></trkpt><trkpt lat="44.851165" lon="8.92501"><ele>254.33333333333331</ele><time>2026-04-02T09:15:04.994Z</time></trkpt><trkpt lat="44.8512583" lon="8.92482"><ele>256.66666666666663</ele><time>2026-04-02T09:15:05.994Z</time></trkpt><trkpt lat="44.851345" lon="8.9246417"><ele>259.0</ele><time>2026-04-02T09:15:06.994Z</time></trkpt><trkpt lat="44.851435" lon="8.9244817"><ele>259.0</ele><time>2026-04-02T09:15:07.994Z</time></trkpt><trkpt lat="44.8515217" lon="8.9243517"><ele>259.0</ele><time>2026-04-02T09:15:08.994Z</time></trkpt><trkpt lat="44.8516367" lon="8.9242267"><ele>259.0</ele><time>2026-04-02T09:15:09.994Z</time></trkpt><trkpt lat="44.8517383" lon="8.9240983"><ele>259.0</ele><time>2026-04-02T09:15:10.994Z</time></trkpt><trkpt lat="44.8518383" lon="8.9239717"><ele>257.66666666666663</ele><time>2026-04-02T09:15:11.994Z</time></trkpt><trkpt lat="44.8519533" lon="8.923845"><ele>256.3333333333333</ele><time>2026-04-02T09:15:12.994Z</time></trkpt><trkpt lat="44.8520683" lon="8.9237083"><ele>255.0</ele><time>2026-04-02T09:15:13.994Z</time></trkpt><trkpt lat="44.852185" lon="8.9235633"><ele>255.0</ele><time>2026-04-02T09:15:14.994Z</time></trkpt><trkpt lat="44.8522933" lon="8.9234117"><ele>255.0</ele><time>2026-04-02T09:15:15.993Z</time></trkpt><trkpt lat="44.8524067" lon="8.9232533"><ele>255.0</ele><time>2026-04-02T09:15:16.994Z</time></trkpt><trkpt lat="44.8525267" lon="8.92308"><ele>252.66666666666669</ele><time>2026-04-02T09:15:17.994Z</time></trkpt><trkpt lat="44.8526433" lon="8.92291"><ele>250.33333333333334</ele><time>2026-04-02T09:15:18.994Z</time></trkpt><trkpt lat="44.852755" lon="8.9227383"><ele>248.0</ele><time>2026-04-02T09:15:19.994Z</time></trkpt><trkpt lat="44.8528733" lon="8.9225783"><ele>251.33333333333334</ele><time>2026-04-02T09:15:20.994Z</time></trkpt><trkpt lat="44.8530067" lon="8.92244"><ele>254.66666666666669</ele><time>2026-04-02T09:15:21.993Z</time></trkpt><trkpt lat="44.8531633" lon="8.9223133"><ele>258.0</ele><time>2026-04-02T09:15:22.994Z</time></trkpt><trkpt lat="44.8533217" lon="8.9221883"><ele>256.6666666666667</ele><time>2026-04-02T09:15:23.994Z</time></trkpt><trkpt lat="44.8534733" lon="8.9220683"><ele>255.33333333333334</ele><time>2026-04-02T09:15:24.994Z</time></trkpt><trkpt lat="44.8536267" lon="8.9219433"><ele>254.0</ele><time>2026-04-02T09:15:25.993Z</time></trkpt><trkpt lat="44.85377" lon="8.921825"><ele>258.33333333333337</ele><time>2026-04-02T09:15:26.993Z</time></trkpt><trkpt lat="44.8539117" lon="8.9217133"><ele>262.6666666666667</ele><time>2026-04-02T09:15:27.994Z</time></trkpt><trkpt lat="44.8540467" lon="8.921595"><ele>267.0</ele><time>2026-04-02T09:15:28.994Z</time></trkpt><trkpt lat="44.8541817" lon="8.9214667"><ele>263.6666666666667</ele><time>2026-04-02T09:15:29.993Z</time></trkpt><trkpt lat="44.8543167" lon="8.9213183"><ele>260.33333333333337</ele><time>2026-04-02T09:15:30.994Z</time></trkpt><trkpt lat="44.85444" lon="8.92117"><ele>257.0</ele><time>2026-04-02T09:15:31.994Z</time></trkpt><trkpt lat="44.85458" lon="8.9210083"><ele>260.33333333333337</ele><time>2026-04-02T09:15:32.994Z</time></trkpt><trkpt lat="44.85471" lon="8.9208533"><ele>263.6666666666667</ele><time>2026-04-02T09:15:33.994Z</time></trkpt><trkpt lat="44.8548317" lon="8.9207133"><ele>267.0</ele><time>2026-04-02T09:15:34.994Z</time></trkpt><trkpt lat="44.85495" lon="8.92057"><ele>267.0</ele><time>2026-04-02T09:15:35.993Z</time></trkpt><trkpt lat="44.8550683" lon="8.9204217"><ele>267.0</ele><time>2026-04-02T09:15:36.994Z</time></trkpt><trkpt lat="44.8552" lon="8.9202817"><ele>267.0</ele><time>2026-04-02T09:15:37.994Z</time></trkpt><trkpt lat="44.8553267" lon="8.920125"><ele>269.6666666666667</ele><time>2026-04-02T09:15:38.994Z</time></trkpt><trkpt lat="44.8554617" lon="8.9199733"><ele>272.33333333333337</ele><time>2026-04-02T09:15:39.994Z</time></trkpt><trkpt lat="44.85559" lon="8.919815"><ele>275.0</ele><time>2026-04-02T09:15:40.994Z</time></trkpt><trkpt lat="44.855725" lon="8.91966"><ele>275.0</ele><time>2026-04-02T09:15:41.994Z</time></trkpt><trkpt lat="44.8558567" lon="8.9195133"><ele>275.0</ele><time>2026-04-02T09:15:42.994Z</time></trkpt><trkpt lat="44.8559917" lon="8.91937"><ele>275.0</ele><time>2026-04-02T09:15:43.993Z</time></trkpt><trkpt lat="44.8561133" lon="8.9192317"><ele>276.0</ele><time>2026-04-02T09:15:44.994Z</time></trkpt><trkpt lat="44.8562267" lon="8.9190833"><ele>277.0</ele><time>2026-04-02T09:15:45.993Z</time></trkpt><trkpt lat="44.8563333" lon="8.9189267"><ele>278.0</ele><time>2026-04-02T09:15:46.994Z</time></trkpt><trkpt lat="44.8564417" lon="8.91876"><ele>278.0</ele><time>2026-04-02T09:15:47.994Z</time></trkpt><trkpt lat="44.8565467" lon="8.9185883"><ele>278.0</ele><time>2026-04-02T09:15:48.994Z</time></trkpt><trkpt lat="44.856635" lon="8.9184233"><ele>278.0</ele><time>2026-04-02T09:15:49.994Z</time></trkpt><trkpt lat="44.85672" lon="8.918265"><ele>278.0</ele><time>2026-04-02T09:15:50.994Z</time></trkpt><trkpt lat="44.856815" lon="8.918115"><ele>281.0</ele><time>2026-04-02T09:15:51.994Z</time></trkpt><trkpt lat="44.8569083" lon="8.9179517"><ele>284.0</ele><time>2026-04-02T09:15:52.994Z</time></trkpt><trkpt lat="44.85699" lon="8.9177717"><ele>287.0</ele><time>2026-04-02T09:15:53.994Z</time></trkpt><trkpt lat="44.8570683" lon="8.917575"><ele>288.0</ele><time>2026-04-02T09:15:54.994Z</time></trkpt><trkpt lat="44.8571417" lon="8.9173633"><ele>289.0</ele><time>2026-04-02T09:15:55.994Z</time></trkpt><trkpt lat="44.8572167" lon="8.91716"><ele>290.0</ele><time>2026-04-02T09:15:56.994Z</time></trkpt><trkpt lat="44.8572883" lon="8.9169467"><ele>291.6666666666667</ele><time>2026-04-02T09:15:57.994Z</time></trkpt><trkpt lat="44.8573567" lon="8.9167317"><ele>293.3333333333333</ele><time>2026-04-02T09:15:58.994Z</time></trkpt><trkpt lat="44.8574283" lon="8.916515"><ele>295.0</ele><time>2026-04-02T09:15:59.994Z</time></trkpt><trkpt lat="44.8575" lon="8.916295"><ele>295.0</ele><time>2026-04-02T09:16:00.994Z</time></trkpt><trkpt lat="44.857565" lon="8.91608"><ele>295.0</ele><time>2026-04-02T09:16:01.993Z</time></trkpt><trkpt lat="44.857635" lon="8.9158733"><ele>295.0</ele><time>2026-04-02T09:16:02.994Z</time></trkpt><trkpt lat="44.8576983" lon="8.9156883"><ele>298.75</ele><time>2026-04-02T09:16:03.994Z</time></trkpt><trkpt lat="44.85777" lon="8.9155083"><ele>302.5</ele><time>2026-04-02T09:16:04.993Z</time></trkpt><trkpt lat="44.8578467" lon="8.9153383"><ele>306.25</ele><time>2026-04-02T09:16:05.993Z</time></trkpt><trkpt lat="44.8579283" lon="8.91519"><ele>310.0</ele><time>2026-04-02T09:16:06.994Z</time></trkpt><trkpt lat="44.8580183" lon="8.91506"><ele>310.0</ele><time>2026-04-02T09:16:07.994Z</time></trkpt><trkpt lat="44.8581217" lon="8.914935"><ele>310.0</ele><time>2026-04-02T09:16:08.994Z</time></trkpt><trkpt lat="44.8582217" lon="8.9147917"><ele>310.0</ele><time>2026-04-02T09:16:09.994Z</time></trkpt><trkpt lat="44.8583317" lon="8.9146583"><ele>310.0</ele><time>2026-04-02T09:16:10.994Z</time></trkpt><trkpt lat="44.85845" lon="8.9145383"><ele>310.25</ele><time>2026-04-02T09:16:11.994Z</time></trkpt><trkpt lat="44.85858" lon="8.9144467"><ele>310.5</ele><time>2026-04-02T09:16:12.994Z</time></trkpt><trkpt lat="44.8587067" lon="8.914345"><ele>310.75</ele><time>2026-04-02T09:16:13.993Z</time></trkpt><trkpt lat="44.8588183" lon="8.9142633"><ele>311.0</ele><time>2026-04-02T09:16:14.994Z</time></trkpt><trkpt lat="44.85891" lon="8.9141867"><ele>310.25</ele><time>2026-04-02T09:16:15.994Z</time></trkpt><trkpt lat="44.8590233" lon="8.9141367"><ele>309.5</ele><time>2026-04-02T09:16:16.994Z</time></trkpt><trkpt lat="44.8591383" lon="8.9141"><ele>308.75</ele><time>2026-04-02T09:16:17.994Z</time></trkpt><trkpt lat="44.8592667" lon="8.9140833"><ele>308.0</ele><time>2026-04-02T09:16:18.994Z</time></trkpt><trkpt lat="44.8594017" lon="8.9140717"><ele>308.0</ele><time>2026-04-02T09:16:19.993Z</time></trkpt><trkpt lat="44.85951" lon="8.914055"><ele>308.0</ele><time>2026-04-02T09:16:20.993Z</time></trkpt><trkpt lat="44.85963" lon="8.9140317"><ele>308.0</ele><time>2026-04-02T09:16:21.994Z</time></trkpt><trkpt lat="44.85976" lon="8.9140233"><ele>308.0</ele><time>2026-04-02T09:16:22.994Z</time></trkpt><trkpt lat="44.8599017" lon="8.9140267"><ele>308.0</ele><time>2026-04-02T09:16:23.994Z</time></trkpt><trkpt lat="44.86004" lon="8.91406"><ele>308.0</ele><time>2026-04-02T09:16:24.994Z</time></trkpt><trkpt lat="44.860165" lon="8.91412"><ele>308.0</ele><time>2026-04-02T09:16:25.994Z</time></trkpt><trkpt lat="44.8602717" lon="8.9142167"><ele>308.0</ele><time>2026-04-02T09:16:26.994Z</time></trkpt><trkpt lat="44.86037" lon="8.9143417"><ele>308.0</ele><time>2026-04-02T09:16:27.994Z</time></trkpt><trkpt lat="44.8604733" lon="8.914485"><ele>308.0</ele><time>2026-04-02T09:16:28.994Z</time></trkpt><trkpt lat="44.8605833" lon="8.9146367"><ele>308.0</ele><time>2026-04-02T09:16:29.993Z</time></trkpt><trkpt lat="44.8606967" lon="8.91479"><ele>308.0</ele><time>2026-04-02T09:16:30.994Z</time></trkpt><trkpt lat="44.8608083" lon="8.914935"><ele>308.0</ele><time>2026-04-02T09:16:31.994Z</time></trkpt><trkpt lat="44.8609083" lon="8.915075"><ele>308.0</ele><time>2026-04-02T09:16:32.993Z</time></trkpt><trkpt lat="44.8610067" lon="8.9151883"><ele>308.0</ele><time>2026-04-02T09:16:33.994Z</time></trkpt><trkpt lat="44.8611067" lon="8.91528"><ele>309.75</ele><time>2026-04-02T09:16:34.994Z</time></trkpt><trkpt lat="44.8612167" lon="8.9153533"><ele>311.5</ele><time>2026-04-02T09:16:35.994Z</time></trkpt><trkpt lat="44.8613233" lon="8.9154117"><ele>313.25</ele><time>2026-04-02T09:16:36.994Z</time></trkpt><trkpt lat="44.8614367" lon="8.9154633"><ele>315.0</ele><time>2026-04-02T09:16:37.994Z</time></trkpt><trkpt lat="44.8615483" lon="8.91549"><ele>315.0</ele><time>2026-04-02T09:16:38.993Z</time></trkpt><trkpt lat="44.8616633" lon="8.915495"><ele>315.0</ele><time>2026-04-02T09:16:39.993Z</time></trkpt><trkpt lat="44.8617767" lon="8.915485"><ele>315.0</ele><time>2026-04-02T09:16:40.994Z</time></trkpt><trkpt lat="44.861875" lon="8.915455"><ele>315.0</ele><time>2026-04-02T09:16:41.994Z</time></trkpt><trkpt lat="44.861975" lon="8.915395"><ele>315.0</ele><time>2026-04-02T09:16:42.994Z</time></trkpt><trkpt lat="44.8620817" lon="8.915305"><ele>314.25</ele><time>2026-04-02T09:16:43.994Z</time></trkpt><trkpt lat="44.862185" lon="8.91522"><ele>313.5</ele><time>2026-04-02T09:16:44.993Z</time></trkpt><trkpt lat="44.862285" lon="8.915125"><ele>312.75</ele><time>2026-04-02T09:16:45.994Z</time></trkpt><trkpt lat="44.86236" lon="8.9150017"><ele>312.0</ele><time>2026-04-02T09:16:46.994Z</time></trkpt><trkpt lat="44.8624383" lon="8.91489"><ele>312.0</ele><time>2026-04-02T09:16:47.994Z</time></trkpt><trkpt lat="44.86251" lon="8.914755"><ele>312.0</ele><time>2026-04-02T09:16:48.993Z</time></trkpt><trkpt lat="44.8625833" lon="8.91461"><ele>312.0</ele><time>2026-04-02T09:16:49.994Z</time></trkpt><trkpt lat="44.862655" lon="8.9144467"><ele>312.0</ele><time>2026-04-02T09:16:50.994Z</time></trkpt><trkpt lat="44.8627283" lon="8.9142767"><ele>307.0</ele><time>2026-04-02T09:16:51.994Z</time></trkpt><trkpt lat="44.8628" lon="8.9141033"><ele>302.0</ele><time>2026-04-02T09:16:52.994Z</time></trkpt><trkpt lat="44.86288" lon="8.9139317"><ele>297.0</ele><time>2026-04-02T09:16:53.994Z</time></trkpt><trkpt lat="44.8629717" lon="8.9137767"><ele>292.0</ele><time>2026-04-02T09:16:54.994Z</time></trkpt><trkpt lat="44.86307" lon="8.9136283"><ele>292.0</ele><time>2026-04-02T09:16:55.994Z</time></trkpt><trkpt lat="44.8631783" lon="8.913495"><ele>292.0</ele><time>2026-04-02T09:16:56.994Z</time></trkpt><trkpt lat="44.86326" lon="8.9133567"><ele>292.0</ele><time>2026-04-02T09:16:57.994Z</time></trkpt><trkpt lat="44.8633233" lon="8.9132283"><ele>292.0</ele><time>2026-04-02T09:16:58.994Z</time></trkpt><trkpt lat="44.8633817" lon="8.9131033"><ele>293.8</ele><time>2026-04-02T09:16:59.993Z</time></trkpt><trkpt lat="44.8634167" lon="8.9129767"><ele>295.6</ele><time>2026-04-02T09:17:00.994Z</time></trkpt><trkpt lat="44.8634317" lon="8.9128633"><ele>297.40000000000003</ele><time>2026-04-02T09:17:01.994Z</time></trkpt><trkpt lat="44.86344" lon="8.9127417"><ele>299.2</ele><time>2026-04-02T09:17:02.994Z</time></trkpt><trkpt lat="44.86344" lon="8.9126067"><ele>301.0</ele><time>2026-04-02T09:17:03.994Z</time></trkpt><trkpt lat="44.8634417" lon="8.91247"><ele>301.40000000000003</ele><time>2026-04-02T09:17:04.994Z</time></trkpt><trkpt lat="44.8634267" lon="8.9123217"><ele>301.8</ele><time>2026-04-02T09:17:05.993Z</time></trkpt><trkpt lat="44.8634017" lon="8.91217"><ele>302.20000000000005</ele><time>2026-04-02T09:17:06.993Z</time></trkpt><trkpt lat="44.8633617" lon="8.912025"><ele>302.6</ele><time>2026-04-02T09:17:07.994Z</time></trkpt><trkpt lat="44.8633117" lon="8.9118833"><ele>303.0</ele><time>2026-04-02T09:17:08.994Z</time></trkpt><trkpt lat="44.8632633" lon="8.9117433"><ele>302.25</ele><time>2026-04-02T09:17:09.994Z</time></trkpt><trkpt lat="44.8632317" lon="8.911595"><ele>301.5</ele><time>2026-04-02T09:17:10.994Z</time></trkpt><trkpt lat="44.8632133" lon="8.9114367"><ele>300.75</ele><time>2026-04-02T09:17:11.994Z</time></trkpt><trkpt lat="44.8632133" lon="8.9112733"><ele>300.0</ele><time>2026-04-02T09:17:12.994Z</time></trkpt><trkpt lat="44.863235" lon="8.9110983"><ele>300.0</ele><time>2026-04-02T09:17:13.994Z</time></trkpt><trkpt lat="44.86327" lon="8.9109367"><ele>300.0</ele><time>2026-04-02T09:17:14.993Z</time></trkpt><trkpt lat="44.8633233" lon="8.9107867"><ele>300.0</ele><time>2026-04-02T09:17:15.994Z</time></trkpt><trkpt lat="44.863415" lon="8.910655"><ele>300.0</ele><time>2026-04-02T09:17:16.994Z</time></trkpt><trkpt lat="44.8635183" lon="8.910535"><ele>296.0</ele><time>2026-04-02T09:17:17.994Z</time></trkpt><trkpt lat="44.8636367" lon="8.9104067"><ele>292.0</ele><time>2026-04-02T09:17:18.994Z</time></trkpt><trkpt lat="44.863765" lon="8.9102733"><ele>288.0</ele><time>2026-04-02T09:17:19.994Z</time></trkpt><trkpt lat="44.863905" lon="8.9101283"><ele>285.3333333333333</ele><time>2026-04-02T09:17:20.994Z</time></trkpt><trkpt lat="44.8640483" lon="8.9099867"><ele>282.66666666666663</ele><time>2026-04-02T09:17:21.994Z</time></trkpt><trkpt lat="44.8641967" lon="8.909835"><ele>280.0</ele><time>2026-04-02T09:17:22.994Z</time></trkpt><trkpt lat="44.8643333" lon="8.9096817"><ele>280.0</ele><time>2026-04-02T09:17:23.994Z</time></trkpt><trkpt lat="44.86446" lon="8.9095217"><ele>280.0</ele><time>2026-04-02T09:17:24.994Z</time></trkpt><trkpt lat="44.8645967" lon="8.90938"><ele>280.0</ele><time>2026-04-02T09:17:25.994Z</time></trkpt><trkpt lat="44.864725" lon="8.9092333"><ele>276.3333333333333</ele><time>2026-04-02T09:17:26.994Z</time></trkpt><trkpt lat="44.8648667" lon="8.9090983"><ele>272.6666666666667</ele><time>2026-04-02T09:17:27.994Z</time></trkpt><trkpt lat="44.865" lon="8.90897"><ele>269.0</ele><time>2026-04-02T09:17:28.994Z</time></trkpt><trkpt lat="44.86513" lon="8.9088483"><ele>269.0</ele><time>2026-04-02T09:17:29.994Z</time></trkpt><trkpt lat="44.8652583" lon="8.9087317"><ele>269.0</ele><time>2026-04-02T09:17:30.994Z</time></trkpt><trkpt lat="44.8653983" lon="8.908625"><ele>269.0</ele><time>2026-04-02T09:17:31.994Z</time></trkpt><trkpt lat="44.8655417" lon="8.90853"><ele>269.0</ele><time>2026-04-02T09:17:32.994Z</time></trkpt><trkpt lat="44.8656817" lon="8.9084767"><ele>269.0</ele><time>2026-04-02T09:17:33.993Z</time></trkpt><trkpt lat="44.8658217" lon="8.9084417"><ele>269.0</ele><time>2026-04-02T09:17:34.994Z</time></trkpt><trkpt lat="44.86597" lon="8.90844"><ele>269.0</ele><time>2026-04-02T09:17:35.994Z</time></trkpt><trkpt lat="44.8661133" lon="8.908455"><ele>265.6666666666667</ele><time>2026-04-02T09:17:36.994Z</time></trkpt><trkpt lat="44.8662617" lon="8.90848"><ele>262.3333333333333</ele><time>2026-04-02T09:17:37.993Z</time></trkpt><trkpt lat="44.8664417" lon="8.90853"><ele>259.0</ele><time>2026-04-02T09:17:38.993Z</time></trkpt><trkpt lat="44.8666417" lon="8.9085717"><ele>256.66666666666663</ele><time>2026-04-02T09:17:39.994Z</time></trkpt><trkpt lat="44.8668217" lon="8.90862"><ele>254.33333333333331</ele><time>2026-04-02T09:17:40.993Z</time></trkpt><trkpt lat="44.8669883" lon="8.90866"><ele>252.0</ele><time>2026-04-02T09:17:41.994Z</time></trkpt><trkpt lat="44.8671617" lon="8.9087017"><ele>252.0</ele><time>2026-04-02T09:17:42.994Z</time></trkpt><trkpt lat="44.867325" lon="8.9087367"><ele>252.0</ele><time>2026-04-02T09:17:43.993Z</time></trkpt><trkpt lat="44.867475" lon="8.9087483"><ele>252.0</ele><time>2026-04-02T09:17:44.994Z</time></trkpt><trkpt lat="44.867615" lon="8.9087517"><ele>252.0</ele><time>2026-04-02T09:17:45.993Z</time></trkpt><trkpt lat="44.8677633" lon="8.9087533"><ele>252.0</ele><time>2026-04-02T09:17:46.994Z</time></trkpt><trkpt lat="44.8679183" lon="8.9087467"><ele>252.0</ele><time>2026-04-02T09:17:47.994Z</time></trkpt><trkpt lat="44.868055" lon="8.9087233"><ele>252.0</ele><time>2026-04-02T09:17:48.993Z</time></trkpt><trkpt lat="44.8682" lon="8.9086967"><ele>252.0</ele><time>2026-04-02T09:17:49.994Z</time></trkpt><trkpt lat="44.8683383" lon="8.9086583"><ele>252.0</ele><time>2026-04-02T09:17:50.993Z</time></trkpt><trkpt lat="44.8684817" lon="8.9086133"><ele>252.0</ele><time>2026-04-02T09:17:51.994Z</time></trkpt><trkpt lat="44.8686283" lon="8.9085633"><ele>252.0</ele><time>2026-04-02T09:17:52.994Z</time></trkpt><trkpt lat="44.868785" lon="8.9085117"><ele>251.25</ele><time>2026-04-02T09:17:53.994Z</time></trkpt><trkpt lat="44.8689367" lon="8.9084683"><ele>250.5</ele><time>2026-04-02T09:17:54.994Z</time></trkpt><trkpt lat="44.869075" lon="8.9084183"><ele>249.75</ele><time>2026-04-02T09:17:55.994Z</time></trkpt><trkpt lat="44.86922" lon="8.9083717"><ele>249.0</ele><time>2026-04-02T09:17:56.994Z</time></trkpt><trkpt lat="44.86936" lon="8.908325"><ele>247.75</ele><time>2026-04-02T09:17:57.994Z</time></trkpt><trkpt lat="44.8695" lon="8.9082867"><ele>246.5</ele><time>2026-04-02T09:17:58.994Z</time></trkpt><trkpt lat="44.869635" lon="8.90824"><ele>245.25</ele><time>2026-04-02T09:17:59.994Z</time></trkpt><trkpt lat="44.8697717" lon="8.9081967"><ele>244.0</ele><time>2026-04-02T09:18:00.994Z</time></trkpt><trkpt lat="44.86991" lon="8.9081183"><ele>244.0</ele><time>2026-04-02T09:18:01.994Z</time></trkpt><trkpt lat="44.8700483" lon="8.908045"><ele>244.0</ele><time>2026-04-02T09:18:02.994Z</time></trkpt><trkpt lat="44.870165" lon="8.9079533"><ele>244.0</ele><time>2026-04-02T09:18:03.993Z</time></trkpt><trkpt lat="44.8702783" lon="8.9078433"><ele>244.0</ele><time>2026-04-02T09:18:04.993Z</time></trkpt><trkpt lat="44.8703867" lon="8.907725"><ele>244.0</ele><time>2026-04-02T09:18:05.993Z</time></trkpt><trkpt lat="44.8704883" lon="8.9076017"><ele>244.0</ele><time>2026-04-02T09:18:06.994Z</time></trkpt><trkpt lat="44.870595" lon="8.9074817"><ele>244.0</ele><time>2026-04-02T09:18:07.994Z</time></trkpt><trkpt lat="44.8706933" lon="8.9073633"><ele>244.0</ele><time>2026-04-02T09:18:08.994Z</time></trkpt><trkpt lat="44.8707967" lon="8.9072433"><ele>244.0</ele><time>2026-04-02T09:18:09.993Z</time></trkpt><trkpt lat="44.87091" lon="8.9071233"><ele>244.0</ele><time>2026-04-02T09:18:10.994Z</time></trkpt><trkpt lat="44.8710117" lon="8.9070083"><ele>244.0</ele><time>2026-04-02T09:18:11.994Z</time></trkpt><trkpt lat="44.8711117" lon="8.90688"><ele>244.0</ele><time>2026-04-02T09:18:12.994Z</time></trkpt><trkpt lat="44.8712233" lon="8.906745"><ele>244.0</ele><time>2026-04-02T09:18:13.994Z</time></trkpt><trkpt lat="44.871325" lon="8.9066133"><ele>244.0</ele><time>2026-04-02T09:18:14.994Z</time></trkpt><trkpt lat="44.8714367" lon="8.9064717"><ele>244.0</ele><time>2026-04-02T09:18:15.994Z</time></trkpt><trkpt lat="44.8715467" lon="8.90633"><ele>244.0</ele><time>2026-04-02T09:18:16.994Z</time></trkpt><trkpt lat="44.8716667" lon="8.9061883"><ele>243.33333333333331</ele><time>2026-04-02T09:18:17.994Z</time></trkpt><trkpt lat="44.871785" lon="8.9060333"><ele>242.66666666666669</ele><time>2026-04-02T09:18:18.994Z</time></trkpt><trkpt lat="44.8719067" lon="8.9058917"><ele>242.0</ele><time>2026-04-02T09:18:19.994Z</time></trkpt><trkpt lat="44.8720333" lon="8.9057667"><ele>242.0</ele><time>2026-04-02T09:18:20.994Z</time></trkpt><trkpt lat="44.8721633" lon="8.90566"><ele>242.0</ele><time>2026-04-02T09:18:21.994Z</time></trkpt><trkpt lat="44.8723083" lon="8.9055667"><ele>242.0</ele><time>2026-04-02T09:18:22.994Z</time></trkpt><trkpt lat="44.8724533" lon="8.9055017"><ele>241.0</ele><time>2026-04-02T09:18:23.994Z</time></trkpt><trkpt lat="44.8726083" lon="8.905435"><ele>240.0</ele><time>2026-04-02T09:18:24.994Z</time></trkpt><trkpt lat="44.87275" lon="8.9053917"><ele>239.0</ele><time>2026-04-02T09:18:25.994Z</time></trkpt><trkpt lat="44.8729067" lon="8.9053583"><ele>239.0</ele><time>2026-04-02T09:18:26.993Z</time></trkpt><trkpt lat="44.873065" lon="8.905325"><ele>239.0</ele><time>2026-04-02T09:18:27.994Z</time></trkpt><trkpt lat="44.8732267" lon="8.905295"><ele>239.0</ele><time>2026-04-02T09:18:28.994Z</time></trkpt><trkpt lat="44.87338" lon="8.9052683"><ele>239.75</ele><time>2026-04-02T09:18:29.994Z</time></trkpt><trkpt lat="44.8735183" lon="8.9052367"><ele>240.5</ele><time>2026-04-02T09:18:30.994Z</time></trkpt><trkpt lat="44.8736333" lon="8.9051733"><ele>241.25</ele><time>2026-04-02T09:18:31.994Z</time></trkpt><trkpt lat="44.87376" lon="8.9050767"><ele>242.0</ele><time>2026-04-02T09:18:32.993Z</time></trkpt><trkpt lat="44.87387" lon="8.9049683"><ele>242.0</ele><time>2026-04-02T09:18:33.993Z</time></trkpt><trkpt lat="44.87396" lon="8.904835"><ele>242.0</ele><time>2026-04-02T09:18:34.994Z</time></trkpt><trkpt lat="44.874045" lon="8.904695"><ele>242.0</ele><time>2026-04-02T09:18:35.994Z</time></trkpt><trkpt lat="44.8741283" lon="8.9045583"><ele>242.0</ele><time>2026-04-02T09:18:36.994Z</time></trkpt><trkpt lat="44.8742033" lon="8.9044133"><ele>244.5</ele><time>2026-04-02T09:18:37.994Z</time></trkpt><trkpt lat="44.87429" lon="8.9042717"><ele>247.0</ele><time>2026-04-02T09:18:38.994Z</time></trkpt><trkpt lat="44.87438" lon="8.90411"><ele>249.5</ele><time>2026-04-02T09:18:39.994Z</time></trkpt><trkpt lat="44.87447" lon="8.9039467"><ele>252.0</ele><time>2026-04-02T09:18:40.994Z</time></trkpt><trkpt lat="44.874565" lon="8.90378"><ele>252.33333333333331</ele><time>2026-04-02T09:18:41.994Z</time></trkpt><trkpt lat="44.874665" lon="8.90362"><ele>252.66666666666666</ele><time>2026-04-02T09:18:42.994Z</time></trkpt><trkpt lat="44.874765" lon="8.9034533"><ele>253.0</ele><time>2026-04-02T09:18:43.994Z</time></trkpt><trkpt lat="44.87486" lon="8.9032917"><ele>253.0</ele><time>2026-04-02T09:18:44.994Z</time></trkpt><trkpt lat="44.8749483" lon="8.9031483"><ele>253.0</ele><time>2026-04-02T09:18:45.994Z</time></trkpt><trkpt lat="44.87504" lon="8.903025"><ele>253.0</ele><time>2026-04-02T09:18:46.994Z</time></trkpt><trkpt lat="44.87513" lon="8.902915"><ele>253.0</ele><time>2026-04-02T09:18:47.994Z</time></trkpt><trkpt lat="44.8752467" lon="8.90284"><ele>253.0</ele><time>2026-04-02T09:18:48.994Z</time></trkpt><trkpt lat="44.87537" lon="8.9027833"><ele>253.0</ele><time>2026-04-02T09:18:49.994Z</time></trkpt><trkpt lat="44.8755083" lon="8.9027317"><ele>253.0</ele><time>2026-04-02T09:18:50.994Z</time></trkpt><trkpt lat="44.875645" lon="8.902685"><ele>253.0</ele><time>2026-04-02T09:18:51.994Z</time></trkpt><trkpt lat="44.8757867" lon="8.90264"><ele>253.0</ele><time>2026-04-02T09:18:52.994Z</time></trkpt><trkpt lat="44.8759267" lon="8.9025917"><ele>253.0</ele><time>2026-04-02T09:18:53.994Z</time></trkpt><trkpt lat="44.8760717" lon="8.90253"><ele>253.0</ele><time>2026-04-02T09:18:54.994Z</time></trkpt><trkpt lat="44.8762167" lon="8.90248"><ele>253.0</ele><time>2026-04-02T09:18:55.994Z</time></trkpt><trkpt lat="44.87637" lon="8.902435"><ele>251.0</ele><time>2026-04-02T09:18:56.994Z</time></trkpt><trkpt lat="44.8765233" lon="8.9023817"><ele>249.0</ele><time>2026-04-02T09:18:57.993Z</time></trkpt><trkpt lat="44.876675" lon="8.90232"><ele>247.0</ele><time>2026-04-02T09:18:58.993Z</time></trkpt><trkpt lat="44.8768267" lon="8.90227"><ele>245.66666666666666</ele><time>2026-04-02T09:18:59.994Z</time></trkpt><trkpt lat="44.8769767" lon="8.9022117"><ele>244.33333333333331</ele><time>2026-04-02T09:19:00.994Z</time></trkpt><trkpt lat="44.87713" lon="8.9021583"><ele>243.0</ele><time>2026-04-02T09:19:01.994Z</time></trkpt><trkpt lat="44.877285" lon="8.9020967"><ele>243.0</ele><time>2026-04-02T09:19:02.994Z</time></trkpt><trkpt lat="44.877445" lon="8.902035"><ele>243.0</ele><time>2026-04-02T09:19:03.994Z</time></trkpt><trkpt lat="44.8775983" lon="8.9019817"><ele>243.0</ele><time>2026-04-02T09:19:04.994Z</time></trkpt><trkpt lat="44.877755" lon="8.9019233"><ele>242.66666666666669</ele><time>2026-04-02T09:19:05.993Z</time></trkpt><trkpt lat="44.877915" lon="8.9018683"><ele>242.33333333333334</ele><time>2026-04-02T09:19:06.994Z</time></trkpt><trkpt lat="44.8780783" lon="8.9018183"><ele>242.0</ele><time>2026-04-02T09:19:07.994Z</time></trkpt><trkpt lat="44.8782333" lon="8.90176"><ele>243.66666666666669</ele><time>2026-04-02T09:19:08.993Z</time></trkpt><trkpt lat="44.8783883" lon="8.9017117"><ele>245.33333333333331</ele><time>2026-04-02T09:19:09.994Z</time></trkpt><trkpt lat="44.878545" lon="8.9016517"><ele>247.0</ele><time>2026-04-02T09:19:10.994Z</time></trkpt><trkpt lat="44.8787017" lon="8.9015933"><ele>247.0</ele><time>2026-04-02T09:19:11.994Z</time></trkpt><trkpt lat="44.87885" lon="8.901535"><ele>247.0</ele><time>2026-04-02T09:19:12.994Z</time></trkpt><trkpt lat="44.8790083" lon="8.9014783"><ele>247.0</ele><time>2026-04-02T09:19:13.994Z</time></trkpt><trkpt lat="44.87918" lon="8.90143"><ele>246.0</ele><time>2026-04-02T09:19:14.994Z</time></trkpt><trkpt lat="44.8793417" lon="8.901375"><ele>245.0</ele><time>2026-04-02T09:19:15.994Z</time></trkpt><trkpt lat="44.8794967" lon="8.9013117"><ele>244.0</ele><time>2026-04-02T09:19:16.994Z</time></trkpt><trkpt lat="44.87965" lon="8.9012533"><ele>244.0</ele><time>2026-04-02T09:19:17.994Z</time></trkpt><trkpt lat="44.8797967" lon="8.9011817"><ele>244.0</ele><time>2026-04-02T09:19:18.993Z</time></trkpt><trkpt lat="44.8799433" lon="8.9011083"><ele>244.0</ele><time>2026-04-02T09:19:19.994Z</time></trkpt><trkpt lat="44.8800933" lon="8.901035"><ele>244.33333333333331</ele><time>2026-04-02T09:19:20.994Z</time></trkpt><trkpt lat="44.880245" lon="8.9009617"><ele>244.66666666666669</ele><time>2026-04-02T09:19:21.994Z</time></trkpt><trkpt lat="44.8803967" lon="8.9008883"><ele>245.0</ele><time>2026-04-02T09:19:22.994Z</time></trkpt><trkpt lat="44.8805417" lon="8.9008233"><ele>247.0</ele><time>2026-04-02T09:19:23.994Z</time></trkpt><trkpt lat="44.880695" lon="8.9007567"><ele>249.0</ele><time>2026-04-02T09:19:24.994Z</time></trkpt><trkpt lat="44.88085" lon="8.9006933"><ele>251.0</ele><time>2026-04-02T09:19:25.994Z</time></trkpt><trkpt lat="44.8810083" lon="8.9006333"><ele>252.33333333333334</ele><time>2026-04-02T09:19:26.994Z</time></trkpt><trkpt lat="44.8811633" lon="8.9005683"><ele>253.66666666666669</ele><time>2026-04-02T09:19:27.994Z</time></trkpt><trkpt lat="44.8813217" lon="8.900495"><ele>255.0</ele><time>2026-04-02T09:19:28.994Z</time></trkpt><trkpt lat="44.88148" lon="8.90043"><ele>255.0</ele><time>2026-04-02T09:19:29.994Z</time></trkpt><trkpt lat="44.88163" lon="8.900365"><ele>255.0</ele><time>2026-04-02T09:19:30.994Z</time></trkpt><trkpt lat="44.881775" lon="8.9003033"><ele>255.0</ele><time>2026-04-02T09:19:31.994Z</time></trkpt><trkpt lat="44.8819217" lon="8.9002367"><ele>255.0</ele><time>2026-04-02T09:19:32.994Z</time></trkpt><trkpt lat="44.8820733" lon="8.9001567"><ele>255.0</ele><time>2026-04-02T09:19:33.993Z</time></trkpt><trkpt lat="44.8822183" lon="8.9000633"><ele>255.0</ele><time>2026-04-02T09:19:34.994Z</time></trkpt><trkpt lat="44.882355" lon="8.8999533"><ele>255.0</ele><time>2026-04-02T09:19:35.994Z</time></trkpt><trkpt lat="44.8824867" lon="8.899825"><ele>255.0</ele><time>2026-04-02T09:19:36.994Z</time></trkpt><trkpt lat="44.8825917" lon="8.8996767"><ele>255.0</ele><time>2026-04-02T09:19:37.994Z</time></trkpt><trkpt lat="44.88268" lon="8.899505"><ele>255.0</ele><time>2026-04-02T09:19:38.994Z</time></trkpt><trkpt lat="44.8827517" lon="8.8993183"><ele>255.0</ele><time>2026-04-02T09:19:39.994Z</time></trkpt><trkpt lat="44.8828017" lon="8.8991117"><ele>255.0</ele><time>2026-04-02T09:19:40.994Z</time></trkpt><trkpt lat="44.882835" lon="8.8989033"><ele>255.0</ele><time>2026-04-02T09:19:41.993Z</time></trkpt><trkpt lat="44.88286" lon="8.8986917"><ele>255.0</ele><time>2026-04-02T09:19:42.994Z</time></trkpt><trkpt lat="44.8828717" lon="8.89847"><ele>255.0</ele><time>2026-04-02T09:19:43.994Z</time></trkpt><trkpt lat="44.8828967" lon="8.8982367"><ele>254.66666666666669</ele><time>2026-04-02T09:19:44.994Z</time></trkpt><trkpt lat="44.882935" lon="8.898"><ele>254.33333333333334</ele><time>2026-04-02T09:19:45.993Z</time></trkpt><trkpt lat="44.8829667" lon="8.8977433"><ele>254.0</ele><time>2026-04-02T09:19:46.994Z</time></trkpt><trkpt lat="44.88299" lon="8.8974917"><ele>252.33333333333334</ele><time>2026-04-02T09:19:47.993Z</time></trkpt><trkpt lat="44.88301" lon="8.89724"><ele>250.66666666666669</ele><time>2026-04-02T09:19:48.994Z</time></trkpt><trkpt lat="44.8830333" lon="8.8969833"><ele>249.0</ele><time>2026-04-02T09:19:49.994Z</time></trkpt><trkpt lat="44.8830533" lon="8.896715"><ele>247.0</ele><time>2026-04-02T09:19:50.994Z</time></trkpt><trkpt lat="44.8830833" lon="8.89645"><ele>245.0</ele><time>2026-04-02T09:19:51.994Z</time></trkpt><trkpt lat="44.88312" lon="8.8961983"><ele>243.0</ele><time>2026-04-02T09:19:52.994Z</time></trkpt><trkpt lat="44.8831583" lon="8.8959267"><ele>241.33333333333331</ele><time>2026-04-02T09:19:53.994Z</time></trkpt><trkpt lat="44.8831983" lon="8.8956517"><ele>239.66666666666666</ele><time>2026-04-02T09:19:54.994Z</time></trkpt><trkpt lat="44.88324" lon="8.8953683"><ele>238.0</ele><time>2026-04-02T09:19:55.993Z</time></trkpt><trkpt lat="44.8832767" lon="8.89508"><ele>237.0</ele><time>2026-04-02T09:19:56.994Z</time></trkpt><trkpt lat="44.8833083" lon="8.89481"><ele>236.0</ele><time>2026-04-02T09:19:57.994Z</time></trkpt><trkpt lat="44.8833383" lon="8.89456"><ele>235.0</ele><time>2026-04-02T09:19:58.993Z</time></trkpt><trkpt lat="44.88336" lon="8.8943367"><ele>234.0</ele><time>2026-04-02T09:19:59.994Z</time></trkpt><trkpt lat="44.8833733" lon="8.8941117"><ele>233.0</ele><time>2026-04-02T09:20:00.993Z</time></trkpt><trkpt lat="44.883385" lon="8.8938967"><ele>232.0</ele><time>2026-04-02T09:20:01.994Z</time></trkpt><trkpt lat="44.8834017" lon="8.89368"><ele>232.0</ele><time>2026-04-02T09:20:02.994Z</time></trkpt><trkpt lat="44.8834117" lon="8.89346"><ele>232.0</ele><time>2026-04-02T09:20:03.994Z</time></trkpt><trkpt lat="44.88342" lon="8.8932467"><ele>232.0</ele><time>2026-04-02T09:20:04.994Z</time></trkpt><trkpt lat="44.8834267" lon="8.89304"><ele>231.0</ele><time>2026-04-02T09:20:05.994Z</time></trkpt><trkpt lat="44.8834417" lon="8.8928417"><ele>230.0</ele><time>2026-04-02T09:20:06.994Z</time></trkpt><trkpt lat="44.8834567" lon="8.8926517"><ele>229.0</ele><time>2026-04-02T09:20:07.994Z</time></trkpt><trkpt lat="44.883455" lon="8.89247"><ele>228.0</ele><time>2026-04-02T09:20:08.994Z</time></trkpt><trkpt lat="44.883465" lon="8.892315"><ele>227.5</ele><time>2026-04-02T09:20:09.993Z</time></trkpt><trkpt lat="44.8834683" lon="8.892195"><ele>227.0</ele><time>2026-04-02T09:20:10.994Z</time></trkpt><trkpt lat="44.8834717" lon="8.892085"><ele>226.5</ele><time>2026-04-02T09:20:11.994Z</time></trkpt><trkpt lat="44.8834783" lon="8.8919667"><ele>226.0</ele><time>2026-04-02T09:20:12.994Z</time></trkpt><trkpt lat="44.8834817" lon="8.8918467"><ele>225.5</ele><time>2026-04-02T09:20:13.994Z</time></trkpt><trkpt lat="44.8834817" lon="8.89172"><ele>225.0</ele><time>2026-04-02T09:20:14.993Z</time></trkpt><trkpt lat="44.8834883" lon="8.891585"><ele>225.0</ele><time>2026-04-02T09:20:15.994Z</time></trkpt><trkpt lat="44.8834917" lon="8.8914667"><ele>225.0</ele><time>2026-04-02T09:20:16.994Z</time></trkpt><trkpt lat="44.8835017" lon="8.8913467"><ele>225.0</ele><time>2026-04-02T09:20:17.994Z</time></trkpt><trkpt lat="44.8835133" lon="8.8912367"><ele>225.0</ele><time>2026-04-02T09:20:18.994Z</time></trkpt><trkpt lat="44.8835183" lon="8.891135"><ele>225.0</ele><time>2026-04-02T09:20:19.993Z</time></trkpt><trkpt lat="44.88353" lon="8.8909733"><ele>225.0</ele><time>2026-04-02T09:20:21.993Z</time></trkpt><trkpt lat="44.8835367" lon="8.8908633"><ele>225.0</ele><time>2026-04-02T09:20:23.993Z</time></trkpt><trkpt lat="44.8835167" lon="8.891035"><ele>225.0</ele><time>2026-04-02T09:20:40.993Z</time></trkpt><trkpt lat="44.8835233" lon="8.89118"><ele>225.0</ele><time>2026-04-02T09:20:41.993Z</time></trkpt><trkpt lat="44.88352" lon="8.8913417"><ele>225.0</ele><time>2026-04-02T09:20:42.993Z</time></trkpt><trkpt lat="44.8835083" lon="8.8914967"><ele>225.0</ele><time>2026-04-02T09:20:43.992Z</time></trkpt><trkpt lat="44.88349" lon="8.8916167"><ele>225.0</ele><time>2026-04-02T09:20:44.993Z</time></trkpt><trkpt lat="44.883425" lon="8.8917367"><ele>225.0</ele><time>2026-04-02T09:20:46.992Z</time></trkpt><trkpt lat="44.8833417" lon="8.89174"><ele>225.0</ele><time>2026-04-02T09:20:48.993Z</time></trkpt><trkpt lat="44.883235" lon="8.8916867"><ele>225.0</ele><time>2026-04-02T09:20:50.993Z</time></trkpt><trkpt lat="44.8831633" lon="8.891655"><ele>226.8</ele><time>2026-04-02T09:20:51.993Z</time></trkpt><trkpt lat="44.8830967" lon="8.8916183"><ele>228.6</ele><time>2026-04-02T09:20:52.993Z</time></trkpt><trkpt lat="44.8830033" lon="8.8915783"><ele>230.39999999999998</ele><time>2026-04-02T09:20:53.993Z</time></trkpt><trkpt lat="44.8828967" lon="8.8915267"><ele>232.2</ele><time>2026-04-02T09:20:54.993Z</time></trkpt><trkpt lat="44.882795" lon="8.891475"><ele>234.0</ele><time>2026-04-02T09:20:55.992Z</time></trkpt><trkpt lat="44.8827017" lon="8.8914083"><ele>232.75</ele><time>2026-04-02T09:20:56.993Z</time></trkpt><trkpt lat="44.882595" lon="8.8913417"><ele>231.5</ele><time>2026-04-02T09:20:57.992Z</time></trkpt><trkpt lat="44.882485" lon="8.89127"><ele>230.25</ele><time>2026-04-02T09:20:58.993Z</time></trkpt><trkpt lat="44.8823733" lon="8.8912017"><ele>229.0</ele><time>2026-04-02T09:20:59.993Z</time></trkpt><trkpt lat="44.8822533" lon="8.89115"><ele>229.0</ele><time>2026-04-02T09:21:00.993Z</time></trkpt><trkpt lat="44.8821317" lon="8.8911017"><ele>229.0</ele><time>2026-04-02T09:21:01.993Z</time></trkpt><trkpt lat="44.882" lon="8.8910617"><ele>229.0</ele><time>2026-04-02T09:21:02.992Z</time></trkpt><trkpt lat="44.8818767" lon="8.8910233"><ele>229.0</ele><time>2026-04-02T09:21:03.993Z</time></trkpt><trkpt lat="44.8817567" lon="8.89099"><ele>228.25</ele><time>2026-04-02T09:21:04.993Z</time></trkpt><trkpt lat="44.881645" lon="8.890935"><ele>227.5</ele><time>2026-04-02T09:21:05.993Z</time></trkpt><trkpt lat="44.881535" lon="8.8908733"><ele>226.75</ele><time>2026-04-02T09:21:06.992Z</time></trkpt><trkpt lat="44.88142" lon="8.8908133"><ele>226.0</ele><time>2026-04-02T09:21:07.993Z</time></trkpt><trkpt lat="44.8813067" lon="8.8907517"><ele>226.75</ele><time>2026-04-02T09:21:08.993Z</time></trkpt><trkpt lat="44.8811817" lon="8.8906833"><ele>227.5</ele><time>2026-04-02T09:21:09.993Z</time></trkpt><trkpt lat="44.88105" lon="8.890615"><ele>228.25</ele><time>2026-04-02T09:21:10.993Z</time></trkpt><trkpt lat="44.88092" lon="8.8905533"><ele>229.0</ele><time>2026-04-02T09:21:11.993Z</time></trkpt><trkpt lat="44.8807883" lon="8.8904817"><ele>229.0</ele><time>2026-04-02T09:21:12.993Z</time></trkpt><trkpt lat="44.880655" lon="8.8904367"><ele>229.0</ele><time>2026-04-02T09:21:13.992Z</time></trkpt><trkpt lat="44.8805233" lon="8.8904117"><ele>229.0</ele><time>2026-04-02T09:21:14.993Z</time></trkpt><trkpt lat="44.880395" lon="8.8904"><ele>229.0</ele><time>2026-04-02T09:21:15.993Z</time></trkpt><trkpt lat="44.880275" lon="8.8903817"><ele>229.0</ele><time>2026-04-02T09:21:16.993Z</time></trkpt><trkpt lat="44.8801717" lon="8.8903767"><ele>228.99999999999997</ele><time>2026-04-02T09:21:17.993Z</time></trkpt><trkpt lat="44.8800767" lon="8.890365"><ele>228.99999999999997</ele><time>2026-04-02T09:21:18.993Z</time></trkpt><trkpt lat="44.8799767" lon="8.89033"><ele>229.0</ele><time>2026-04-02T09:21:19.993Z</time></trkpt><trkpt lat="44.8798783" lon="8.89028"><ele>229.0</ele><time>2026-04-02T09:21:20.992Z</time></trkpt><trkpt lat="44.8797867" lon="8.89022"><ele>228.66666666666666</ele><time>2026-04-02T09:21:21.993Z</time></trkpt><trkpt lat="44.879715" lon="8.8901567"><ele>228.33333333333331</ele><time>2026-04-02T09:21:22.993Z</time></trkpt><trkpt lat="44.8796567" lon="8.8901017"><ele>228.0</ele><time>2026-04-02T09:21:23.993Z</time></trkpt><trkpt lat="44.87961" lon="8.8900333"><ele>227.66666666666669</ele><time>2026-04-02T09:21:24.992Z</time></trkpt><trkpt lat="44.879575" lon="8.8899467"><ele>227.33333333333334</ele><time>2026-04-02T09:21:25.993Z</time></trkpt><trkpt lat="44.8795333" lon="8.8898483"><ele>227.0</ele><time>2026-04-02T09:21:26.993Z</time></trkpt><trkpt lat="44.879485" lon="8.88975"><ele>227.39999999999998</ele><time>2026-04-02T09:21:27.993Z</time></trkpt><trkpt lat="44.8794383" lon="8.88966"><ele>227.79999999999998</ele><time>2026-04-02T09:21:28.993Z</time></trkpt><trkpt lat="44.879385" lon="8.889585"><ele>228.2</ele><time>2026-04-02T09:21:29.993Z</time></trkpt><trkpt lat="44.879295" lon="8.8895217"><ele>228.6</ele><time>2026-04-02T09:21:30.993Z</time></trkpt><trkpt lat="44.8791883" lon="8.8894583"><ele>229.0</ele><time>2026-04-02T09:21:31.993Z</time></trkpt><trkpt lat="44.87908" lon="8.8894117"><ele>229.0</ele><time>2026-04-02T09:21:32.993Z</time></trkpt><trkpt lat="44.8789717" lon="8.8893567"><ele>229.0</ele><time>2026-04-02T09:21:33.993Z</time></trkpt><trkpt lat="44.8788533" lon="8.8892683"><ele>229.0</ele><time>2026-04-02T09:21:34.993Z</time></trkpt><trkpt lat="44.878745" lon="8.8892133"><ele>229.0</ele><time>2026-04-02T09:21:35.992Z</time></trkpt><trkpt lat="44.8786583" lon="8.8891617"><ele>229.6</ele><time>2026-04-02T09:21:36.993Z</time></trkpt><trkpt lat="44.8785933" lon="8.8891267"><ele>230.2</ele><time>2026-04-02T09:21:37.992Z</time></trkpt><trkpt lat="44.87849" lon="8.8890533"><ele>230.79999999999998</ele><time>2026-04-02T09:21:39.992Z</time></trkpt><trkpt lat="44.8783817" lon="8.88897"><ele>231.39999999999998</ele><time>2026-04-02T09:21:41.993Z</time></trkpt><trkpt lat="44.8783233" lon="8.8889033"><ele>232.0</ele><time>2026-04-02T09:21:42.993Z</time></trkpt><trkpt lat="44.87827" lon="8.88884"><ele>230.0</ele><time>2026-04-02T09:21:43.993Z</time></trkpt><trkpt lat="44.8782033" lon="8.8887333"><ele>228.0</ele><time>2026-04-02T09:21:45.993Z</time></trkpt><trkpt lat="44.8781267" lon="8.8887117"><ele>226.0</ele><time>2026-04-02T09:21:49.993Z</time></trkpt><trkpt lat="44.8780617" lon="8.8887883"><ele>224.0</ele><time>2026-04-02T09:21:51.993Z</time></trkpt><trkpt lat="44.8779717" lon="8.8889183"><ele>222.0</ele><time>2026-04-02T09:21:53.992Z</time></trkpt><trkpt lat="44.8779367" lon="8.8889967"><ele>222.0</ele><time>2026-04-02T09:21:54.993Z</time></trkpt><trkpt lat="44.87787" lon="8.8890533"><ele>222.0</ele><time>2026-04-02T09:21:55.993Z</time></trkpt><trkpt lat="44.8778083" lon="8.8891117"><ele>222.0</ele><time>2026-04-02T09:21:56.992Z</time></trkpt><trkpt lat="44.8777117" lon="8.8891733"><ele>222.0</ele><time>2026-04-02T09:21:58.993Z</time></trkpt><trkpt lat="44.8776333" lon="8.88921"><ele>222.0</ele><time>2026-04-02T09:22:00.993Z</time></trkpt><trkpt lat="44.87755" lon="8.88922"><ele>222.0</ele><time>2026-04-02T09:22:02.993Z</time></trkpt><trkpt lat="44.8774367" lon="8.8891917"><ele>221.0</ele><time>2026-04-02T09:22:04.993Z</time></trkpt><trkpt lat="44.8773217" lon="8.889165"><ele>220.0</ele><time>2026-04-02T09:22:06.992Z</time></trkpt><trkpt lat="44.877245" lon="8.889115"><ele>219.0</ele><time>2026-04-02T09:22:08.993Z</time></trkpt><trkpt lat="44.8771883" lon="8.8890533"><ele>218.0</ele><time>2026-04-02T09:22:11.993Z</time></trkpt><trkpt lat="44.8771233" lon="8.8889933"><ele>217.0</ele><time>2026-04-02T09:22:16.993Z</time></trkpt><trkpt lat="44.8770633" lon="8.8889333"><ele>216.0</ele><time>2026-04-02T09:22:19.993Z</time></trkpt><trkpt lat="44.876995" lon="8.888945"><ele>216.0</ele><time>2026-04-02T09:22:21.993Z</time></trkpt><trkpt lat="44.8769317" lon="8.8889883"><ele>216.0</ele><time>2026-04-02T09:22:23.993Z</time></trkpt><trkpt lat="44.8768617" lon="8.889085"><ele>216.0</ele><time>2026-04-02T09:22:25.993Z</time></trkpt><trkpt lat="44.8768" lon="8.88919"><ele>216.0</ele><time>2026-04-02T09:22:27.993Z</time></trkpt><trkpt lat="44.8767417" lon="8.889255"><ele>216.0</ele><time>2026-04-02T09:22:29.993Z</time></trkpt><trkpt lat="44.8766583" lon="8.8893"><ele>216.0</ele><time>2026-04-02T09:22:31.993Z</time></trkpt><trkpt lat="44.8765633" lon="8.889265"><ele>215.16666666666666</ele><time>2026-04-02T09:22:33.993Z</time></trkpt><trkpt lat="44.8765133" lon="8.88921"><ele>214.33333333333331</ele><time>2026-04-02T09:22:34.992Z</time></trkpt><trkpt lat="44.8764617" lon="8.889135"><ele>213.5</ele><time>2026-04-02T09:22:35.993Z</time></trkpt><trkpt lat="44.8764183" lon="8.88906"><ele>212.66666666666666</ele><time>2026-04-02T09:22:36.993Z</time></trkpt><trkpt lat="44.8763717" lon="8.888915"><ele>211.83333333333331</ele><time>2026-04-02T09:22:38.993Z</time></trkpt><trkpt lat="44.8763633" lon="8.88876"><ele>211.0</ele><time>2026-04-02T09:22:40.992Z</time></trkpt><trkpt lat="44.8763633" lon="8.8886217"><ele>211.0</ele><time>2026-04-02T09:22:42.993Z</time></trkpt><trkpt lat="44.8763733" lon="8.888485"><ele>211.0</ele><time>2026-04-02T09:22:44.992Z</time></trkpt><trkpt lat="44.876425" lon="8.8883217"><ele>211.0</ele><time>2026-04-02T09:22:46.993Z</time></trkpt><trkpt lat="44.8764783" lon="8.8882367"><ele>211.0</ele><time>2026-04-02T09:22:47.993Z</time></trkpt><trkpt lat="44.876545" lon="8.8881717"><ele>211.0</ele><time>2026-04-02T09:22:48.992Z</time></trkpt><trkpt lat="44.8766133" lon="8.8881333"><ele>211.33333333333331</ele><time>2026-04-02T09:22:49.993Z</time></trkpt><trkpt lat="44.876685" lon="8.8881067"><ele>211.66666666666666</ele><time>2026-04-02T09:22:50.993Z</time></trkpt><trkpt lat="44.87677" lon="8.88812"><ele>212.0</ele><time>2026-04-02T09:22:51.993Z</time></trkpt><trkpt lat="44.87688" lon="8.8881617"><ele>212.33333333333331</ele><time>2026-04-02T09:22:53.993Z</time></trkpt><trkpt lat="44.8769633" lon="8.8882367"><ele>212.66666666666666</ele><time>2026-04-02T09:22:55.993Z</time></trkpt><trkpt lat="44.8770367" lon="8.8882633"><ele>213.0</ele><time>2026-04-02T09:22:57.993Z</time></trkpt><trkpt lat="44.8770983" lon="8.8883167"><ele>213.5</ele><time>2026-04-02T09:23:01.993Z</time></trkpt><trkpt lat="44.877085" lon="8.8884367"><ele>214.0</ele><time>2026-04-02T09:23:05.993Z</time></trkpt><trkpt lat="44.8770667" lon="8.8885533"><ele>214.5</ele><time>2026-04-02T09:23:08.993Z</time></trkpt><trkpt lat="44.8770383" lon="8.88843"><ele>215.0</ele><time>2026-04-02T09:24:42.992Z</time></trkpt><trkpt lat="44.877015" lon="8.8883383"><ele>215.5</ele><time>2026-04-02T09:24:46.993Z</time></trkpt><trkpt lat="44.87696" lon="8.8882933"><ele>216.0</ele><time>2026-04-02T09:24:48.993Z</time></trkpt><trkpt lat="44.8768883" lon="8.8882417"><ele>216.0</ele><time>2026-04-02T09:24:50.993Z</time></trkpt><trkpt lat="44.8767983" lon="8.888155"><ele>216.0</ele><time>2026-04-02T09:24:52.992Z</time></trkpt><trkpt lat="44.8767167" lon="8.8880933"><ele>216.0</ele><time>2026-04-02T09:24:54.993Z</time></trkpt><trkpt lat="44.876645" lon="8.888075"><ele>216.0</ele><time>2026-04-02T09:24:56.993Z</time></trkpt><trkpt lat="44.8765717" lon="8.888105"><ele>216.0</ele><time>2026-04-02T09:24:58.993Z</time></trkpt><trkpt lat="44.876495" lon="8.8881883"><ele>216.0</ele><time>2026-04-02T09:25:00.993Z</time></trkpt><trkpt lat="44.8764183" lon="8.8883283"><ele>215.0</ele><time>2026-04-02T09:25:02.993Z</time></trkpt><trkpt lat="44.8763767" lon="8.88847"><ele>214.00000000000003</ele><time>2026-04-02T09:25:04.993Z</time></trkpt><trkpt lat="44.87637" lon="8.8886033"><ele>213.0</ele><time>2026-04-02T09:25:06.992Z</time></trkpt><trkpt lat="44.87639" lon="8.88874"><ele>212.0</ele><time>2026-04-02T09:25:08.993Z</time></trkpt><trkpt lat="44.8763933" lon="8.8888783"><ele>211.0</ele><time>2026-04-02T09:25:10.993Z</time></trkpt><trkpt lat="44.8764233" lon="8.889025"><ele>211.0</ele><time>2026-04-02T09:25:12.993Z</time></trkpt><trkpt lat="44.8765033" lon="8.8891617"><ele>211.0</ele><time>2026-04-02T09:25:14.993Z</time></trkpt><trkpt lat="44.87655" lon="8.8892233"><ele>211.0</ele><time>2026-04-02T09:25:15.993Z</time></trkpt><trkpt lat="44.87665" lon="8.8892917"><ele>211.0</ele><time>2026-04-02T09:25:17.993Z</time></trkpt><trkpt lat="44.8767283" lon="8.88927"><ele>211.0</ele><time>2026-04-02T09:25:19.993Z</time></trkpt><trkpt lat="44.8767917" lon="8.8891917"><ele>211.83333333333331</ele><time>2026-04-02T09:25:21.993Z</time></trkpt><trkpt lat="44.8768517" lon="8.88909"><ele>212.66666666666666</ele><time>2026-04-02T09:25:23.992Z</time></trkpt><trkpt lat="44.8769" lon="8.8889983"><ele>213.5</ele><time>2026-04-02T09:25:25.993Z</time></trkpt><trkpt lat="44.876945" lon="8.8889283"><ele>214.33333333333331</ele><time>2026-04-02T09:25:27.993Z</time></trkpt><trkpt lat="44.8770117" lon="8.88892"><ele>215.16666666666666</ele><time>2026-04-02T09:25:29.993Z</time></trkpt><trkpt lat="44.87709" lon="8.8889633"><ele>216.0</ele><time>2026-04-02T09:25:31.993Z</time></trkpt><trkpt lat="44.8771883" lon="8.889035"><ele>216.0</ele><time>2026-04-02T09:25:33.993Z</time></trkpt><trkpt lat="44.8772833" lon="8.889125"><ele>216.00000000000003</ele><time>2026-04-02T09:25:35.993Z</time></trkpt><trkpt lat="44.87737" lon="8.8891717"><ele>216.00000000000003</ele><time>2026-04-02T09:25:37.992Z</time></trkpt><trkpt lat="44.8774367" lon="8.8892183"><ele>216.0</ele><time>2026-04-02T09:25:39.993Z</time></trkpt><trkpt lat="44.8774317" lon="8.8893567"><ele>216.0</ele><time>2026-04-02T09:25:43.993Z</time></trkpt><trkpt lat="44.87739" lon="8.8894783"><ele>216.0</ele><time>2026-04-02T09:25:45.993Z</time></trkpt><trkpt lat="44.8774067" lon="8.889605"><ele>216.00000000000003</ele><time>2026-04-02T09:25:47.993Z</time></trkpt><trkpt lat="44.877475" lon="8.88974"><ele>216.00000000000003</ele><time>2026-04-02T09:25:49.993Z</time></trkpt><trkpt lat="44.8775333" lon="8.8898133"><ele>216.0</ele><time>2026-04-02T09:25:50.993Z</time></trkpt><trkpt lat="44.8775883" lon="8.8899117"><ele>216.0</ele><time>2026-04-02T09:25:51.993Z</time></trkpt><trkpt lat="44.877645" lon="8.890005"><ele>214.83333333333334</ele><time>2026-04-02T09:25:52.993Z</time></trkpt><trkpt lat="44.877695" lon="8.8901"><ele>213.66666666666669</ele><time>2026-04-02T09:25:53.993Z</time></trkpt><trkpt lat="44.8777417" lon="8.890205"><ele>212.5</ele><time>2026-04-02T09:25:54.992Z</time></trkpt><trkpt lat="44.8777767" lon="8.8903117"><ele>211.33333333333334</ele><time>2026-04-02T09:25:55.993Z</time></trkpt><trkpt lat="44.8777933" lon="8.8904017"><ele>210.16666666666669</ele><time>2026-04-02T09:25:56.993Z</time></trkpt><trkpt lat="44.877785" lon="8.890515"><ele>209.0</ele><time>2026-04-02T09:25:58.992Z</time></trkpt><trkpt lat="44.8777267" lon="8.8906333"><ele>209.0</ele><time>2026-04-02T09:26:00.991Z</time></trkpt><trkpt lat="44.8776683" lon="8.8907117"><ele>209.0</ele><time>2026-04-02T09:26:01.992Z</time></trkpt><trkpt lat="44.8775933" lon="8.8908"><ele>209.0</ele><time>2026-04-02T09:26:02.992Z</time></trkpt><trkpt lat="44.8775083" lon="8.8908717"><ele>209.0</ele><time>2026-04-02T09:26:03.992Z</time></trkpt><trkpt lat="44.8774183" lon="8.8909233"><ele>209.0</ele><time>2026-04-02T09:26:04.992Z</time></trkpt><trkpt lat="44.877315" lon="8.8909633"><ele>205.0</ele><time>2026-04-02T09:26:05.992Z</time></trkpt><trkpt lat="44.877225" lon="8.8909733"><ele>201.0</ele><time>2026-04-02T09:26:06.992Z</time></trkpt><trkpt lat="44.8771233" lon="8.89097"><ele>197.0</ele><time>2026-04-02T09:26:07.991Z</time></trkpt><trkpt lat="44.8770117" lon="8.8909667"><ele>193.0</ele><time>2026-04-02T09:26:08.992Z</time></trkpt><trkpt lat="44.87689" lon="8.8909617"><ele>189.0</ele><time>2026-04-02T09:26:09.992Z</time></trkpt><trkpt lat="44.8767717" lon="8.8909617"><ele>188.25</ele><time>2026-04-02T09:26:10.992Z</time></trkpt><trkpt lat="44.87666" lon="8.8909417"><ele>187.5</ele><time>2026-04-02T09:26:11.992Z</time></trkpt><trkpt lat="44.8765483" lon="8.8909083"><ele>186.75</ele><time>2026-04-02T09:26:12.992Z</time></trkpt><trkpt lat="44.8764367" lon="8.8908633"><ele>186.0</ele><time>2026-04-02T09:26:13.991Z</time></trkpt><trkpt lat="44.8763267" lon="8.8908183"><ele>186.0</ele><time>2026-04-02T09:26:14.992Z</time></trkpt><trkpt lat="44.8762217" lon="8.890755"><ele>186.0</ele><time>2026-04-02T09:26:15.992Z</time></trkpt><trkpt lat="44.876105" lon="8.890675"><ele>186.0</ele><time>2026-04-02T09:26:16.992Z</time></trkpt><trkpt lat="44.87599" lon="8.890595"><ele>186.0</ele><time>2026-04-02T09:26:17.992Z</time></trkpt><trkpt lat="44.8758617" lon="8.890505"><ele>182.0</ele><time>2026-04-02T09:26:18.992Z</time></trkpt><trkpt lat="44.8757317" lon="8.890415"><ele>178.0</ele><time>2026-04-02T09:26:19.992Z</time></trkpt><trkpt lat="44.875595" lon="8.8903167"><ele>174.0</ele><time>2026-04-02T09:26:20.992Z</time></trkpt><trkpt lat="44.8754567" lon="8.890225"><ele>174.0</ele><time>2026-04-02T09:26:21.992Z</time></trkpt><trkpt lat="44.875315" lon="8.89013"><ele>174.0</ele><time>2026-04-02T09:26:22.991Z</time></trkpt><trkpt lat="44.8751767" lon="8.8900167"><ele>174.0</ele><time>2026-04-02T09:26:23.991Z</time></trkpt><trkpt lat="44.875045" lon="8.8899017"><ele>172.75</ele><time>2026-04-02T09:26:24.992Z</time></trkpt><trkpt lat="44.8749217" lon="8.889805"><ele>171.5</ele><time>2026-04-02T09:26:25.992Z</time></trkpt><trkpt lat="44.8748067" lon="8.8897033"><ele>170.25</ele><time>2026-04-02T09:26:26.992Z</time></trkpt><trkpt lat="44.8746967" lon="8.8896067"><ele>169.0</ele><time>2026-04-02T09:26:27.992Z</time></trkpt><trkpt lat="44.8745967" lon="8.8895017"><ele>169.0</ele><time>2026-04-02T09:26:28.992Z</time></trkpt><trkpt lat="44.874505" lon="8.8893917"><ele>169.0</ele><time>2026-04-02T09:26:29.992Z</time></trkpt><trkpt lat="44.87443" lon="8.88928"><ele>169.0</ele><time>2026-04-02T09:26:30.992Z</time></trkpt><trkpt lat="44.8743417" lon="8.88914"><ele>169.0</ele><time>2026-04-02T09:26:31.992Z</time></trkpt><trkpt lat="44.87425" lon="8.889"><ele>167.25</ele><time>2026-04-02T09:26:32.992Z</time></trkpt><trkpt lat="44.8741583" lon="8.88886"><ele>165.5</ele><time>2026-04-02T09:26:33.992Z</time></trkpt><trkpt lat="44.874065" lon="8.88873"><ele>163.75</ele><time>2026-04-02T09:26:34.992Z</time></trkpt><trkpt lat="44.8739733" lon="8.888595"><ele>162.0</ele><time>2026-04-02T09:26:35.992Z</time></trkpt><trkpt lat="44.8738817" lon="8.8884417"><ele>163.0</ele><time>2026-04-02T09:26:36.992Z</time></trkpt><trkpt lat="44.8738133" lon="8.8882867"><ele>164.0</ele><time>2026-04-02T09:26:37.992Z</time></trkpt><trkpt lat="44.8737533" lon="8.888115"><ele>165.0</ele><time>2026-04-02T09:26:38.992Z</time></trkpt><trkpt lat="44.8736917" lon="8.8879383"><ele>166.0</ele><time>2026-04-02T09:26:39.992Z</time></trkpt><trkpt lat="44.873645" lon="8.8877833"><ele>166.0</ele><time>2026-04-02T09:26:40.992Z</time></trkpt><trkpt lat="44.8736" lon="8.8876533"><ele>166.0</ele><time>2026-04-02T09:26:41.992Z</time></trkpt><trkpt lat="44.8735517" lon="8.8875583"><ele>166.0</ele><time>2026-04-02T09:26:42.992Z</time></trkpt><trkpt lat="44.8734833" lon="8.8874867"><ele>166.0</ele><time>2026-04-02T09:26:43.992Z</time></trkpt><trkpt lat="44.8734083" lon="8.8874533"><ele>166.0</ele><time>2026-04-02T09:26:44.992Z</time></trkpt><trkpt lat="44.87333" lon="8.8874333"><ele>166.0</ele><time>2026-04-02T09:26:45.992Z</time></trkpt><trkpt lat="44.8732483" lon="8.8874317"><ele>164.0</ele><time>2026-04-02T09:26:46.992Z</time></trkpt><trkpt lat="44.8731733" lon="8.8874533"><ele>162.0</ele><time>2026-04-02T09:26:47.992Z</time></trkpt><trkpt lat="44.8730917" lon="8.8874733"><ele>160.0</ele><time>2026-04-02T09:26:48.992Z</time></trkpt><trkpt lat="44.8730117" lon="8.88753"><ele>158.0</ele><time>2026-04-02T09:26:49.991Z</time></trkpt><trkpt lat="44.8729317" lon="8.8875983"><ele>156.0</ele><time>2026-04-02T09:26:50.992Z</time></trkpt><trkpt lat="44.87286" lon="8.8876567"><ele>154.0</ele><time>2026-04-02T09:26:51.992Z</time></trkpt><trkpt lat="44.87278" lon="8.8876917"><ele>154.0</ele><time>2026-04-02T09:26:52.992Z</time></trkpt><trkpt lat="44.8727083" lon="8.8876983"><ele>154.0</ele><time>2026-04-02T09:26:53.992Z</time></trkpt><trkpt lat="44.8726333" lon="8.8876733"><ele>154.0</ele><time>2026-04-02T09:26:54.991Z</time></trkpt><trkpt lat="44.87255" lon="8.88762"><ele>154.0</ele><time>2026-04-02T09:26:55.992Z</time></trkpt><trkpt lat="44.8724633" lon="8.8875417"><ele>154.0</ele><time>2026-04-02T09:26:56.991Z</time></trkpt><trkpt lat="44.87239" lon="8.8874433"><ele>154.0</ele><time>2026-04-02T09:26:57.992Z</time></trkpt><trkpt lat="44.8723367" lon="8.8873267"><ele>153.75</ele><time>2026-04-02T09:26:58.991Z</time></trkpt><trkpt lat="44.8723267" lon="8.887175"><ele>153.5</ele><time>2026-04-02T09:26:59.992Z</time></trkpt><trkpt lat="44.8723367" lon="8.8870167"><ele>153.25</ele><time>2026-04-02T09:27:00.992Z</time></trkpt><trkpt lat="44.87235" lon="8.8868517"><ele>153.0</ele><time>2026-04-02T09:27:01.991Z</time></trkpt><trkpt lat="44.8723517" lon="8.8866717"><ele>152.75</ele><time>2026-04-02T09:27:02.992Z</time></trkpt><trkpt lat="44.8723567" lon="8.8864917"><ele>152.5</ele><time>2026-04-02T09:27:03.992Z</time></trkpt><trkpt lat="44.872365" lon="8.886295"><ele>152.25</ele><time>2026-04-02T09:27:04.991Z</time></trkpt><trkpt lat="44.872365" lon="8.88609"><ele>152.0</ele><time>2026-04-02T09:27:05.991Z</time></trkpt><trkpt lat="44.87236" lon="8.8858833"><ele>152.0</ele><time>2026-04-02T09:27:06.991Z</time></trkpt><trkpt lat="44.8723467" lon="8.8856883"><ele>152.0</ele><time>2026-04-02T09:27:07.992Z</time></trkpt><trkpt lat="44.872335" lon="8.8854917"><ele>152.0</ele><time>2026-04-02T09:27:08.992Z</time></trkpt><trkpt lat="44.8723567" lon="8.8853017"><ele>152.0</ele><time>2026-04-02T09:27:09.992Z</time></trkpt><trkpt lat="44.87238" lon="8.885105"><ele>152.0</ele><time>2026-04-02T09:27:10.992Z</time></trkpt><trkpt lat="44.8724067" lon="8.8849033"><ele>152.0</ele><time>2026-04-02T09:27:11.991Z</time></trkpt><trkpt lat="44.8724383" lon="8.8846883"><ele>152.0</ele><time>2026-04-02T09:27:12.991Z</time></trkpt><trkpt lat="44.87247" lon="8.8844983"><ele>152.0</ele><time>2026-04-02T09:27:13.991Z</time></trkpt><trkpt lat="44.8725033" lon="8.8843417"><ele>152.0</ele><time>2026-04-02T09:27:14.992Z</time></trkpt><trkpt lat="44.8725533" lon="8.8842183"><ele>152.0</ele><time>2026-04-02T09:27:15.992Z</time></trkpt><trkpt lat="44.8726" lon="8.884095"><ele>152.0</ele><time>2026-04-02T09:27:16.992Z</time></trkpt><trkpt lat="44.8726467" lon="8.883965"><ele>152.0</ele><time>2026-04-02T09:27:17.992Z</time></trkpt><trkpt lat="44.8726917" lon="8.88383"><ele>152.0</ele><time>2026-04-02T09:27:18.991Z</time></trkpt><trkpt lat="44.872735" lon="8.8836817"><ele>151.0</ele><time>2026-04-02T09:27:19.992Z</time></trkpt><trkpt lat="44.87277" lon="8.883535"><ele>150.0</ele><time>2026-04-02T09:27:20.992Z</time></trkpt><trkpt lat="44.8728" lon="8.88338"><ele>149.0</ele><time>2026-04-02T09:27:21.992Z</time></trkpt><trkpt lat="44.8728233" lon="8.8832233"><ele>148.0</ele><time>2026-04-02T09:27:22.992Z</time></trkpt><trkpt lat="44.8728517" lon="8.883065"><ele>148.0</ele><time>2026-04-02T09:27:23.992Z</time></trkpt><trkpt lat="44.8728817" lon="8.882895"><ele>148.0</ele><time>2026-04-02T09:27:24.992Z</time></trkpt><trkpt lat="44.87291" lon="8.8827133"><ele>148.0</ele><time>2026-04-02T09:27:25.992Z</time></trkpt><trkpt lat="44.8729367" lon="8.882525"><ele>148.0</ele><time>2026-04-02T09:27:26.992Z</time></trkpt><trkpt lat="44.87296" lon="8.88233"><ele>148.0</ele><time>2026-04-02T09:27:27.992Z</time></trkpt><trkpt lat="44.872975" lon="8.8821533"><ele>148.0</ele><time>2026-04-02T09:27:28.992Z</time></trkpt><trkpt lat="44.872985" lon="8.8819917"><ele>148.0</ele><time>2026-04-02T09:27:29.991Z</time></trkpt><trkpt lat="44.8729867" lon="8.8818217"><ele>148.0</ele><time>2026-04-02T09:27:30.992Z</time></trkpt><trkpt lat="44.87298" lon="8.8816583"><ele>148.0</ele><time>2026-04-02T09:27:31.991Z</time></trkpt><trkpt lat="44.8729717" lon="8.8815"><ele>148.0</ele><time>2026-04-02T09:27:32.992Z</time></trkpt><trkpt lat="44.8729667" lon="8.8813583"><ele>148.0</ele><time>2026-04-02T09:27:33.992Z</time></trkpt><trkpt lat="44.8729517" lon="8.8812233"><ele>148.0</ele><time>2026-04-02T09:27:34.992Z</time></trkpt><trkpt lat="44.8729367" lon="8.881075"><ele>148.0</ele><time>2026-04-02T09:27:35.991Z</time></trkpt><trkpt lat="44.8729133" lon="8.8809217"><ele>147.75</ele><time>2026-04-02T09:27:36.992Z</time></trkpt><trkpt lat="44.8729" lon="8.8807717"><ele>147.5</ele><time>2026-04-02T09:27:37.992Z</time></trkpt><trkpt lat="44.8728783" lon="8.8806183"><ele>147.25</ele><time>2026-04-02T09:27:38.992Z</time></trkpt><trkpt lat="44.872855" lon="8.8804567"><ele>147.0</ele><time>2026-04-02T09:27:39.992Z</time></trkpt><trkpt lat="44.872825" lon="8.8803"><ele>147.0</ele><time>2026-04-02T09:27:40.992Z</time></trkpt><trkpt lat="44.8727833" lon="8.8801267"><ele>147.0</ele><time>2026-04-02T09:27:41.992Z</time></trkpt><trkpt lat="44.87274" lon="8.8799483"><ele>147.0</ele><time>2026-04-02T09:27:42.992Z</time></trkpt><trkpt lat="44.872705" lon="8.8797667"><ele>147.0</ele><time>2026-04-02T09:27:43.992Z</time></trkpt><trkpt lat="44.8726683" lon="8.8795733"><ele>146.66666666666666</ele><time>2026-04-02T09:27:44.992Z</time></trkpt><trkpt lat="44.87264" lon="8.8793567"><ele>146.33333333333331</ele><time>2026-04-02T09:27:45.992Z</time></trkpt><trkpt lat="44.8726367" lon="8.8791533"><ele>146.0</ele><time>2026-04-02T09:27:46.992Z</time></trkpt><trkpt lat="44.8726467" lon="8.8789317"><ele>145.0</ele><time>2026-04-02T09:27:47.992Z</time></trkpt><trkpt lat="44.87268" lon="8.8787267"><ele>144.0</ele><time>2026-04-02T09:27:48.992Z</time></trkpt><trkpt lat="44.872725" lon="8.878515"><ele>143.0</ele><time>2026-04-02T09:27:49.992Z</time></trkpt><trkpt lat="44.87278" lon="8.8783267"><ele>143.0</ele><time>2026-04-02T09:27:50.992Z</time></trkpt><trkpt lat="44.8728433" lon="8.8781333"><ele>143.0</ele><time>2026-04-02T09:27:51.992Z</time></trkpt><trkpt lat="44.8728983" lon="8.87794"><ele>143.0</ele><time>2026-04-02T09:27:52.992Z</time></trkpt><trkpt lat="44.8729533" lon="8.8777467"><ele>143.0</ele><time>2026-04-02T09:27:53.992Z</time></trkpt><trkpt lat="44.87302" lon="8.87755"><ele>144.0</ele><time>2026-04-02T09:27:54.992Z</time></trkpt><trkpt lat="44.87307" lon="8.8773483"><ele>145.0</ele><time>2026-04-02T09:27:55.991Z</time></trkpt><trkpt lat="44.8731167" lon="8.8771417"><ele>146.0</ele><time>2026-04-02T09:27:56.992Z</time></trkpt><trkpt lat="44.8731633" lon="8.8769433"><ele>145.5</ele><time>2026-04-02T09:27:57.992Z</time></trkpt><trkpt lat="44.87322" lon="8.8767417"><ele>145.0</ele><time>2026-04-02T09:27:58.992Z</time></trkpt><trkpt lat="44.8732733" lon="8.876545"><ele>144.5</ele><time>2026-04-02T09:27:59.991Z</time></trkpt><trkpt lat="44.873325" lon="8.8763583"><ele>144.0</ele><time>2026-04-02T09:28:00.992Z</time></trkpt><trkpt lat="44.87337" lon="8.876175"><ele>144.0</ele><time>2026-04-02T09:28:01.992Z</time></trkpt><trkpt lat="44.873395" lon="8.8759833"><ele>144.0</ele><time>2026-04-02T09:28:02.992Z</time></trkpt><trkpt lat="44.8734167" lon="8.875805"><ele>144.0</ele><time>2026-04-02T09:28:03.992Z</time></trkpt><trkpt lat="44.8734433" lon="8.8756183"><ele>144.0</ele><time>2026-04-02T09:28:04.992Z</time></trkpt><trkpt lat="44.8734467" lon="8.8754267"><ele>143.75</ele><time>2026-04-02T09:28:05.992Z</time></trkpt><trkpt lat="44.8734467" lon="8.8752333"><ele>143.5</ele><time>2026-04-02T09:28:06.992Z</time></trkpt><trkpt lat="44.873435" lon="8.8750217"><ele>143.25</ele><time>2026-04-02T09:28:07.992Z</time></trkpt><trkpt lat="44.87343" lon="8.8748133"><ele>143.0</ele><time>2026-04-02T09:28:08.992Z</time></trkpt><trkpt lat="44.87342" lon="8.8746183"><ele>143.0</ele><time>2026-04-02T09:28:09.992Z</time></trkpt><trkpt lat="44.8734083" lon="8.8744167"><ele>143.0</ele><time>2026-04-02T09:28:10.991Z</time></trkpt><trkpt lat="44.87339" lon="8.874215"><ele>143.0</ele><time>2026-04-02T09:28:11.992Z</time></trkpt><trkpt lat="44.8733583" lon="8.874015"><ele>143.0</ele><time>2026-04-02T09:28:12.992Z</time></trkpt><trkpt lat="44.873315" lon="8.8738183"><ele>142.33333333333331</ele><time>2026-04-02T09:28:13.992Z</time></trkpt><trkpt lat="44.8732817" lon="8.87361"><ele>141.66666666666666</ele><time>2026-04-02T09:28:14.992Z</time></trkpt><trkpt lat="44.8732467" lon="8.8734067"><ele>141.0</ele><time>2026-04-02T09:28:15.992Z</time></trkpt><trkpt lat="44.8732133" lon="8.8731933"><ele>140.66666666666666</ele><time>2026-04-02T09:28:16.992Z</time></trkpt><trkpt lat="44.8731883" lon="8.8729767"><ele>140.33333333333331</ele><time>2026-04-02T09:28:17.992Z</time></trkpt><trkpt lat="44.8731717" lon="8.8727583"><ele>140.0</ele><time>2026-04-02T09:28:18.992Z</time></trkpt><trkpt lat="44.8731683" lon="8.8725517"><ele>140.0</ele><time>2026-04-02T09:28:19.992Z</time></trkpt><trkpt lat="44.8731767" lon="8.8723333"><ele>140.0</ele><time>2026-04-02T09:28:20.992Z</time></trkpt><trkpt lat="44.8731983" lon="8.8721217"><ele>140.0</ele><time>2026-04-02T09:28:21.992Z</time></trkpt><trkpt lat="44.8732233" lon="8.8718933"><ele>140.0</ele><time>2026-04-02T09:28:22.992Z</time></trkpt><trkpt lat="44.873255" lon="8.8716667"><ele>140.0</ele><time>2026-04-02T09:28:23.992Z</time></trkpt><trkpt lat="44.8732967" lon="8.871455"><ele>140.0</ele><time>2026-04-02T09:28:24.992Z</time></trkpt><trkpt lat="44.8733383" lon="8.87127"><ele>140.0</ele><time>2026-04-02T09:28:25.992Z</time></trkpt><trkpt lat="44.8733967" lon="8.8711067"><ele>140.0</ele><time>2026-04-02T09:28:26.991Z</time></trkpt><trkpt lat="44.873455" lon="8.8709833"><ele>140.0</ele><time>2026-04-02T09:28:27.992Z</time></trkpt><trkpt lat="44.873515" lon="8.8708333"><ele>140.0</ele><time>2026-04-02T09:28:28.992Z</time></trkpt><trkpt lat="44.8735817" lon="8.8707067"><ele>139.4</ele><time>2026-04-02T09:28:29.992Z</time></trkpt><trkpt lat="44.8736683" lon="8.87058"><ele>138.8</ele><time>2026-04-02T09:28:30.992Z</time></trkpt><trkpt lat="44.8737583" lon="8.8704617"><ele>138.2</ele><time>2026-04-02T09:28:31.992Z</time></trkpt><trkpt lat="44.8738367" lon="8.8703633"><ele>137.6</ele><time>2026-04-02T09:28:32.992Z</time></trkpt><trkpt lat="44.8738983" lon="8.870295"><ele>137.0</ele><time>2026-04-02T09:28:33.992Z</time></trkpt><trkpt lat="44.8739467" lon="8.870185"><ele>137.0</ele><time>2026-04-02T09:28:35.991Z</time></trkpt><trkpt lat="44.87388" lon="8.870105"><ele>137.0</ele><time>2026-04-02T09:28:38.991Z</time></trkpt><trkpt lat="44.8737483" lon="8.8700317"><ele>137.0</ele><time>2026-04-02T09:28:40.991Z</time></trkpt><trkpt lat="44.873665" lon="8.8699917"><ele>137.0</ele><time>2026-04-02T09:28:41.992Z</time></trkpt><trkpt lat="44.873565" lon="8.869945"><ele>137.0</ele><time>2026-04-02T09:28:42.992Z</time></trkpt><trkpt lat="44.8734617" lon="8.8698883"><ele>138.0</ele><time>2026-04-02T09:28:43.991Z</time></trkpt><trkpt lat="44.8733483" lon="8.8698283"><ele>139.0</ele><time>2026-04-02T09:28:44.992Z</time></trkpt><trkpt lat="44.8732367" lon="8.86978"><ele>140.0</ele><time>2026-04-02T09:28:45.992Z</time></trkpt><trkpt lat="44.8731333" lon="8.8697433"><ele>141.0</ele><time>2026-04-02T09:28:46.991Z</time></trkpt><trkpt lat="44.8730233" lon="8.86971"><ele>141.0</ele><time>2026-04-02T09:28:47.992Z</time></trkpt><trkpt lat="44.8729183" lon="8.8696867"><ele>141.0</ele><time>2026-04-02T09:28:48.992Z</time></trkpt><trkpt lat="44.8728133" lon="8.869665"><ele>141.0</ele><time>2026-04-02T09:28:49.992Z</time></trkpt><trkpt lat="44.87271" lon="8.869675"><ele>141.0</ele><time>2026-04-02T09:28:50.992Z</time></trkpt><trkpt lat="44.8726067" lon="8.8697017"><ele>141.0</ele><time>2026-04-02T09:28:51.992Z</time></trkpt><trkpt lat="44.8724983" lon="8.8697417"><ele>142.0</ele><time>2026-04-02T09:28:52.991Z</time></trkpt><trkpt lat="44.8723967" lon="8.8698"><ele>143.0</ele><time>2026-04-02T09:28:53.992Z</time></trkpt><trkpt lat="44.872285" lon="8.86987"><ele>144.0</ele><time>2026-04-02T09:28:54.992Z</time></trkpt><trkpt lat="44.8721667" lon="8.8699467"><ele>145.0</ele><time>2026-04-02T09:28:55.992Z</time></trkpt><trkpt lat="44.872055" lon="8.8700367"><ele>145.25</ele><time>2026-04-02T09:28:56.992Z</time></trkpt><trkpt lat="44.8719333" lon="8.8701183"><ele>145.5</ele><time>2026-04-02T09:28:57.992Z</time></trkpt><trkpt lat="44.87181" lon="8.870205"><ele>145.75</ele><time>2026-04-02T09:28:58.992Z</time></trkpt><trkpt lat="44.87168" lon="8.8702917"><ele>146.0</ele><time>2026-04-02T09:28:59.991Z</time></trkpt><trkpt lat="44.871555" lon="8.8703817"><ele>148.0</ele><time>2026-04-02T09:29:00.992Z</time></trkpt><trkpt lat="44.8714283" lon="8.8704683"><ele>150.0</ele><time>2026-04-02T09:29:01.992Z</time></trkpt><trkpt lat="44.87131" lon="8.870545"><ele>152.0</ele><time>2026-04-02T09:29:02.992Z</time></trkpt><trkpt lat="44.8711933" lon="8.8706183"><ele>154.0</ele><time>2026-04-02T09:29:03.991Z</time></trkpt><trkpt lat="44.8710867" lon="8.8706967"><ele>154.0</ele><time>2026-04-02T09:29:04.992Z</time></trkpt><trkpt lat="44.8709817" lon="8.87077"><ele>154.0</ele><time>2026-04-02T09:29:05.991Z</time></trkpt><trkpt lat="44.8708833" lon="8.8708183"><ele>154.0</ele><time>2026-04-02T09:29:06.992Z</time></trkpt><trkpt lat="44.8707883" lon="8.870835"><ele>154.0</ele><time>2026-04-02T09:29:07.992Z</time></trkpt><trkpt lat="44.870695" lon="8.8708183"><ele>154.0</ele><time>2026-04-02T09:29:08.992Z</time></trkpt><trkpt lat="44.8706" lon="8.8707783"><ele>153.75</ele><time>2026-04-02T09:29:09.992Z</time></trkpt><trkpt lat="44.8704867" lon="8.87072"><ele>153.5</ele><time>2026-04-02T09:29:10.991Z</time></trkpt><trkpt lat="44.870365" lon="8.87067"><ele>153.25</ele><time>2026-04-02T09:29:11.992Z</time></trkpt><trkpt lat="44.8702417" lon="8.8706383"><ele>153.0</ele><time>2026-04-02T09:29:12.992Z</time></trkpt><trkpt lat="44.8701233" lon="8.870605"><ele>153.20000000000002</ele><time>2026-04-02T09:29:13.991Z</time></trkpt><trkpt lat="44.8700067" lon="8.8705533"><ele>153.4</ele><time>2026-04-02T09:29:14.992Z</time></trkpt><trkpt lat="44.8699017" lon="8.8705133"><ele>153.60000000000002</ele><time>2026-04-02T09:29:15.992Z</time></trkpt><trkpt lat="44.869805" lon="8.8704817"><ele>153.8</ele><time>2026-04-02T09:29:16.992Z</time></trkpt><trkpt lat="44.8697183" lon="8.870465"><ele>154.0</ele><time>2026-04-02T09:29:17.992Z</time></trkpt><trkpt lat="44.8696467" lon="8.8704533"><ele>154.0</ele><time>2026-04-02T09:29:18.992Z</time></trkpt><trkpt lat="44.86955" lon="8.8704333"><ele>154.0</ele><time>2026-04-02T09:29:20.992Z</time></trkpt><trkpt lat="44.8695033" lon="8.8703583"><ele>154.0</ele><time>2026-04-02T09:29:23.992Z</time></trkpt><trkpt lat="44.8695267" lon="8.8702183"><ele>154.0</ele><time>2026-04-02T09:29:25.992Z</time></trkpt><trkpt lat="44.8695483" lon="8.87011"><ele>154.0</ele><time>2026-04-02T09:29:26.991Z</time></trkpt><trkpt lat="44.8695633" lon="8.8699783"><ele>154.0</ele><time>2026-04-02T09:29:27.992Z</time></trkpt><trkpt lat="44.8695767" lon="8.86982"><ele>152.5</ele><time>2026-04-02T09:29:28.992Z</time></trkpt><trkpt lat="44.86958" lon="8.8696367"><ele>151.0</ele><time>2026-04-02T09:29:29.992Z</time></trkpt><trkpt lat="44.8695833" lon="8.8694417"><ele>149.5</ele><time>2026-04-02T09:29:30.992Z</time></trkpt><trkpt lat="44.86959" lon="8.869235"><ele>148.0</ele><time>2026-04-02T09:29:31.992Z</time></trkpt><trkpt lat="44.8696" lon="8.869025"><ele>146.66666666666669</ele><time>2026-04-02T09:29:32.992Z</time></trkpt><trkpt lat="44.8696117" lon="8.8687983"><ele>145.33333333333334</ele><time>2026-04-02T09:29:33.992Z</time></trkpt><trkpt lat="44.8696183" lon="8.86857"><ele>144.0</ele><time>2026-04-02T09:29:34.992Z</time></trkpt><trkpt lat="44.8696267" lon="8.8683283"><ele>144.0</ele><time>2026-04-02T09:29:35.992Z</time></trkpt><trkpt lat="44.8696333" lon="8.868095"><ele>144.0</ele><time>2026-04-02T09:29:36.992Z</time></trkpt><trkpt lat="44.8696367" lon="8.8678667"><ele>144.0</ele><time>2026-04-02T09:29:37.992Z</time></trkpt><trkpt lat="44.8696467" lon="8.8676467"><ele>143.66666666666666</ele><time>2026-04-02T09:29:38.992Z</time></trkpt><trkpt lat="44.8696533" lon="8.867415"><ele>143.33333333333331</ele><time>2026-04-02T09:29:39.992Z</time></trkpt><trkpt lat="44.86969" lon="8.8671933"><ele>143.0</ele><time>2026-04-02T09:29:40.992Z</time></trkpt><trkpt lat="44.869755" lon="8.8669933"><ele>143.0</ele><time>2026-04-02T09:29:41.992Z</time></trkpt><trkpt lat="44.86983" lon="8.8667967"><ele>143.0</ele><time>2026-04-02T09:29:42.992Z</time></trkpt><trkpt lat="44.8699167" lon="8.86661"><ele>143.0</ele><time>2026-04-02T09:29:43.992Z</time></trkpt><trkpt lat="44.8700167" lon="8.8664233"><ele>143.0</ele><time>2026-04-02T09:29:44.992Z</time></trkpt><trkpt lat="44.87011" lon="8.8662317"><ele>143.0</ele><time>2026-04-02T09:29:45.992Z</time></trkpt><trkpt lat="44.8702083" lon="8.8660417"><ele>143.0</ele><time>2026-04-02T09:29:46.992Z</time></trkpt><trkpt lat="44.8703017" lon="8.86584"><ele>142.0</ele><time>2026-04-02T09:29:47.991Z</time></trkpt><trkpt lat="44.870395" lon="8.86564"><ele>141.0</ele><time>2026-04-02T09:29:48.992Z</time></trkpt><trkpt lat="44.87049" lon="8.8654567"><ele>140.0</ele><time>2026-04-02T09:29:49.992Z</time></trkpt><trkpt lat="44.8705783" lon="8.8652917"><ele>140.0</ele><time>2026-04-02T09:29:50.992Z</time></trkpt><trkpt lat="44.8706633" lon="8.8651283"><ele>140.0</ele><time>2026-04-02T09:29:51.992Z</time></trkpt><trkpt lat="44.8707383" lon="8.864975"><ele>140.0</ele><time>2026-04-02T09:29:52.992Z</time></trkpt><trkpt lat="44.8708067" lon="8.8648183"><ele>140.0</ele><time>2026-04-02T09:29:53.992Z</time></trkpt><trkpt lat="44.8708617" lon="8.864635"><ele>139.75</ele><time>2026-04-02T09:29:54.992Z</time></trkpt><trkpt lat="44.8709083" lon="8.86444"><ele>139.5</ele><time>2026-04-02T09:29:55.992Z</time></trkpt><trkpt lat="44.87093" lon="8.8642383"><ele>139.25</ele><time>2026-04-02T09:29:56.992Z</time></trkpt><trkpt lat="44.8709383" lon="8.8640167"><ele>139.0</ele><time>2026-04-02T09:29:57.992Z</time></trkpt><trkpt lat="44.8709333" lon="8.8637867"><ele>138.33333333333334</ele><time>2026-04-02T09:29:58.992Z</time></trkpt><trkpt lat="44.8709167" lon="8.8635533"><ele>137.66666666666666</ele><time>2026-04-02T09:29:59.992Z</time></trkpt><trkpt lat="44.8709117" lon="8.8633217"><ele>137.0</ele><time>2026-04-02T09:30:00.992Z</time></trkpt><trkpt lat="44.8709017" lon="8.863075"><ele>136.33333333333331</ele><time>2026-04-02T09:30:01.992Z</time></trkpt><trkpt lat="44.870895" lon="8.86282"><ele>135.66666666666666</ele><time>2026-04-02T09:30:02.992Z</time></trkpt><trkpt lat="44.870885" lon="8.8625617"><ele>135.0</ele><time>2026-04-02T09:30:03.992Z</time></trkpt><trkpt lat="44.87088" lon="8.8623"><ele>135.0</ele><time>2026-04-02T09:30:04.992Z</time></trkpt><trkpt lat="44.8708767" lon="8.8620367"><ele>135.0</ele><time>2026-04-02T09:30:05.992Z</time></trkpt><trkpt lat="44.87087" lon="8.8617733"><ele>135.0</ele><time>2026-04-02T09:30:06.992Z</time></trkpt><trkpt lat="44.87086" lon="8.8615"><ele>135.0</ele><time>2026-04-02T09:30:07.992Z</time></trkpt><trkpt lat="44.8708467" lon="8.8612383"><ele>135.0</ele><time>2026-04-02T09:30:08.992Z</time></trkpt><trkpt lat="44.870845" lon="8.8610067"><ele>135.0</ele><time>2026-04-02T09:30:09.991Z</time></trkpt><trkpt lat="44.8708467" lon="8.8607617"><ele>135.0</ele><time>2026-04-02T09:30:10.991Z</time></trkpt><trkpt lat="44.870855" lon="8.8605217"><ele>135.0</ele><time>2026-04-02T09:30:11.991Z</time></trkpt><trkpt lat="44.8708783" lon="8.8602967"><ele>135.0</ele><time>2026-04-02T09:30:12.992Z</time></trkpt><trkpt lat="44.870915" lon="8.8600717"><ele>134.66666666666666</ele><time>2026-04-02T09:30:13.992Z</time></trkpt><trkpt lat="44.8709533" lon="8.8598383"><ele>134.33333333333331</ele><time>2026-04-02T09:30:14.992Z</time></trkpt><trkpt lat="44.870985" lon="8.8595983"><ele>134.0</ele><time>2026-04-02T09:30:15.992Z</time></trkpt><trkpt lat="44.8710217" lon="8.8593633"><ele>134.33333333333331</ele><time>2026-04-02T09:30:16.992Z</time></trkpt><trkpt lat="44.8710633" lon="8.859125"><ele>134.66666666666666</ele><time>2026-04-02T09:30:17.992Z</time></trkpt><trkpt lat="44.8710933" lon="8.8588917"><ele>135.0</ele><time>2026-04-02T09:30:18.992Z</time></trkpt><trkpt lat="44.87114" lon="8.858675"><ele>135.0</ele><time>2026-04-02T09:30:19.991Z</time></trkpt><trkpt lat="44.8711833" lon="8.8584283"><ele>135.0</ele><time>2026-04-02T09:30:20.992Z</time></trkpt><trkpt lat="44.871225" lon="8.8581983"><ele>135.0</ele><time>2026-04-02T09:30:21.992Z</time></trkpt><trkpt lat="44.8712667" lon="8.85798"><ele>135.0</ele><time>2026-04-02T09:30:22.992Z</time></trkpt><trkpt lat="44.8712983" lon="8.85777"><ele>135.0</ele><time>2026-04-02T09:30:23.992Z</time></trkpt><trkpt lat="44.87133" lon="8.8575883"><ele>135.0</ele><time>2026-04-02T09:30:24.992Z</time></trkpt><trkpt lat="44.8713517" lon="8.8574133"><ele>135.0</ele><time>2026-04-02T09:30:25.992Z</time></trkpt><trkpt lat="44.8713767" lon="8.8572533"><ele>134.8</ele><time>2026-04-02T09:30:26.992Z</time></trkpt><trkpt lat="44.8714" lon="8.8571267"><ele>134.6</ele><time>2026-04-02T09:30:27.991Z</time></trkpt><trkpt lat="44.8714217" lon="8.85704"><ele>134.4</ele><time>2026-04-02T09:30:28.992Z</time></trkpt><trkpt lat="44.8714617" lon="8.8569617"><ele>134.2</ele><time>2026-04-02T09:30:30.991Z</time></trkpt><trkpt lat="44.8715517" lon="8.856935"><ele>134.0</ele><time>2026-04-02T09:30:34.992Z</time></trkpt><trkpt lat="44.8716967" lon="8.8569517"><ele>133.5</ele><time>2026-04-02T09:30:36.992Z</time></trkpt><trkpt lat="44.871805" lon="8.8569767"><ele>133.0</ele><time>2026-04-02T09:30:37.992Z</time></trkpt><trkpt lat="44.8719217" lon="8.8570017"><ele>132.5</ele><time>2026-04-02T09:30:38.992Z</time></trkpt><trkpt lat="44.8720517" lon="8.8570233"><ele>132.0</ele><time>2026-04-02T09:30:39.991Z</time></trkpt><trkpt lat="44.8721833" lon="8.8570467"><ele>132.0</ele><time>2026-04-02T09:30:40.992Z</time></trkpt><trkpt lat="44.8723233" lon="8.8570633"><ele>132.0</ele><time>2026-04-02T09:30:41.992Z</time></trkpt><trkpt lat="44.8724633" lon="8.85709"><ele>132.0</ele><time>2026-04-02T09:30:42.992Z</time></trkpt><trkpt lat="44.8726083" lon="8.8571217"><ele>132.0</ele><time>2026-04-02T09:30:43.991Z</time></trkpt><trkpt lat="44.8727583" lon="8.8571433"><ele>132.0</ele><time>2026-04-02T09:30:44.992Z</time></trkpt><trkpt lat="44.87292" lon="8.8571633"><ele>132.0</ele><time>2026-04-02T09:30:45.992Z</time></trkpt><trkpt lat="44.87308" lon="8.857195"><ele>132.0</ele><time>2026-04-02T09:30:46.992Z</time></trkpt><trkpt lat="44.8732483" lon="8.8572183"><ele>132.0</ele><time>2026-04-02T09:30:47.992Z</time></trkpt><trkpt lat="44.8734183" lon="8.8572417"><ele>132.0</ele><time>2026-04-02T09:30:48.992Z</time></trkpt><trkpt lat="44.8735867" lon="8.85726"><ele>132.0</ele><time>2026-04-02T09:30:49.992Z</time></trkpt><trkpt lat="44.8737517" lon="8.857285"><ele>132.66666666666666</ele><time>2026-04-02T09:30:50.992Z</time></trkpt><trkpt lat="44.8739267" lon="8.8573017"><ele>133.33333333333331</ele><time>2026-04-02T09:30:51.992Z</time></trkpt><trkpt lat="44.8740967" lon="8.8573233"><ele>134.0</ele><time>2026-04-02T09:30:52.991Z</time></trkpt><trkpt lat="44.8742617" lon="8.8573517"><ele>133.33333333333331</ele><time>2026-04-02T09:30:53.991Z</time></trkpt><trkpt lat="44.8744233" lon="8.8573783"><ele>132.66666666666666</ele><time>2026-04-02T09:30:54.992Z</time></trkpt><trkpt lat="44.8745783" lon="8.8573967"><ele>132.0</ele><time>2026-04-02T09:30:55.991Z</time></trkpt><trkpt lat="44.8747367" lon="8.8574233"><ele>132.0</ele><time>2026-04-02T09:30:56.992Z</time></trkpt><trkpt lat="44.8748983" lon="8.8574417"><ele>132.0</ele><time>2026-04-02T09:30:57.992Z</time></trkpt><trkpt lat="44.8750617" lon="8.8574567"><ele>132.0</ele><time>2026-04-02T09:30:58.992Z</time></trkpt><trkpt lat="44.8752217" lon="8.8574867"><ele>132.0</ele><time>2026-04-02T09:30:59.991Z</time></trkpt><trkpt lat="44.8753917" lon="8.8575167"><ele>132.0</ele><time>2026-04-02T09:31:00.992Z</time></trkpt><trkpt lat="44.8755583" lon="8.857545"><ele>132.0</ele><time>2026-04-02T09:31:01.992Z</time></trkpt><trkpt lat="44.8757117" lon="8.857575"><ele>132.0</ele><time>2026-04-02T09:31:02.992Z</time></trkpt><trkpt lat="44.87588" lon="8.8575933"><ele>132.0</ele><time>2026-04-02T09:31:03.992Z</time></trkpt><trkpt lat="44.8760433" lon="8.8576217"><ele>132.0</ele><time>2026-04-02T09:31:04.992Z</time></trkpt><trkpt lat="44.876205" lon="8.857645"><ele>131.66666666666666</ele><time>2026-04-02T09:31:05.992Z</time></trkpt><trkpt lat="44.8763617" lon="8.8576733"><ele>131.33333333333331</ele><time>2026-04-02T09:31:06.992Z</time></trkpt><trkpt lat="44.8765167" lon="8.85769"><ele>131.0</ele><time>2026-04-02T09:31:07.991Z</time></trkpt><trkpt lat="44.87668" lon="8.85771"><ele>130.33333333333331</ele><time>2026-04-02T09:31:08.992Z</time></trkpt><trkpt lat="44.87683" lon="8.85774"><ele>129.66666666666666</ele><time>2026-04-02T09:31:09.992Z</time></trkpt><trkpt lat="44.8769833" lon="8.8577683"><ele>129.0</ele><time>2026-04-02T09:31:10.991Z</time></trkpt><trkpt lat="44.8771367" lon="8.8577983"><ele>129.0</ele><time>2026-04-02T09:31:11.992Z</time></trkpt><trkpt lat="44.8772933" lon="8.857825"><ele>129.0</ele><time>2026-04-02T09:31:12.992Z</time></trkpt><trkpt lat="44.8774583" lon="8.8578533"><ele>129.0</ele><time>2026-04-02T09:31:13.992Z</time></trkpt><trkpt lat="44.8776183" lon="8.857875"><ele>129.0</ele><time>2026-04-02T09:31:14.991Z</time></trkpt><trkpt lat="44.8777733" lon="8.85789"><ele>129.0</ele><time>2026-04-02T09:31:15.992Z</time></trkpt><trkpt lat="44.8779367" lon="8.85792"><ele>129.0</ele><time>2026-04-02T09:31:16.992Z</time></trkpt><trkpt lat="44.878105" lon="8.8579417"><ele>129.0</ele><time>2026-04-02T09:31:17.991Z</time></trkpt><trkpt lat="44.8782617" lon="8.8579667"><ele>129.0</ele><time>2026-04-02T09:31:18.991Z</time></trkpt><trkpt lat="44.8784217" lon="8.85799"><ele>129.0</ele><time>2026-04-02T09:31:19.992Z</time></trkpt><trkpt lat="44.8785817" lon="8.85801"><ele>128.33333333333334</ele><time>2026-04-02T09:31:20.992Z</time></trkpt><trkpt lat="44.8787383" lon="8.8580383"><ele>127.66666666666667</ele><time>2026-04-02T09:31:21.992Z</time></trkpt><trkpt lat="44.8788967" lon="8.8580583"><ele>127.0</ele><time>2026-04-02T09:31:22.992Z</time></trkpt><trkpt lat="44.8790517" lon="8.8580817"><ele>127.0</ele><time>2026-04-02T09:31:23.992Z</time></trkpt><trkpt lat="44.8792083" lon="8.85811"><ele>127.0</ele><time>2026-04-02T09:31:24.991Z</time></trkpt><trkpt lat="44.8793617" lon="8.8581367"><ele>127.0</ele><time>2026-04-02T09:31:25.992Z</time></trkpt><trkpt lat="44.8795133" lon="8.8581633"><ele>127.25</ele><time>2026-04-02T09:31:26.992Z</time></trkpt><trkpt lat="44.879665" lon="8.8581833"><ele>127.5</ele><time>2026-04-02T09:31:27.992Z</time></trkpt><trkpt lat="44.879815" lon="8.8582"><ele>127.75</ele><time>2026-04-02T09:31:28.991Z</time></trkpt><trkpt lat="44.8799567" lon="8.85822"><ele>128.0</ele><time>2026-04-02T09:31:29.992Z</time></trkpt><trkpt lat="44.8801033" lon="8.858245"><ele>128.0</ele><time>2026-04-02T09:31:30.992Z</time></trkpt><trkpt lat="44.8802517" lon="8.8582683"><ele>128.0</ele><time>2026-04-02T09:31:31.992Z</time></trkpt><trkpt lat="44.8803933" lon="8.8582867"><ele>128.0</ele><time>2026-04-02T09:31:32.992Z</time></trkpt><trkpt lat="44.8805383" lon="8.8583117"><ele>128.0</ele><time>2026-04-02T09:31:33.992Z</time></trkpt><trkpt lat="44.8806867" lon="8.8583367"><ele>128.0</ele><time>2026-04-02T09:31:34.99Z</time></trkpt><trkpt lat="44.8808283" lon="8.8583617"><ele>128.0</ele><time>2026-04-02T09:31:35.991Z</time></trkpt><trkpt lat="44.8809633" lon="8.8583833"><ele>128.0</ele><time>2026-04-02T09:31:36.991Z</time></trkpt><trkpt lat="44.8810983" lon="8.8584167"><ele>128.0</ele><time>2026-04-02T09:31:37.991Z</time></trkpt><trkpt lat="44.8812333" lon="8.85844"><ele>127.75</ele><time>2026-04-02T09:31:38.991Z</time></trkpt><trkpt lat="44.88137" lon="8.8584617"><ele>127.5</ele><time>2026-04-02T09:31:39.991Z</time></trkpt><trkpt lat="44.8815033" lon="8.8584767"><ele>127.25</ele><time>2026-04-02T09:31:40.991Z</time></trkpt><trkpt lat="44.8816317" lon="8.8584917"><ele>127.0</ele><time>2026-04-02T09:31:41.991Z</time></trkpt><trkpt lat="44.8817633" lon="8.8585067"><ele>127.0</ele><time>2026-04-02T09:31:42.991Z</time></trkpt><trkpt lat="44.8819" lon="8.8585267"><ele>127.0</ele><time>2026-04-02T09:31:43.991Z</time></trkpt><trkpt lat="44.8820267" lon="8.8585467"><ele>127.0</ele><time>2026-04-02T09:31:44.991Z</time></trkpt><trkpt lat="44.8821583" lon="8.8585767"><ele>127.0</ele><time>2026-04-02T09:31:45.991Z</time></trkpt><trkpt lat="44.8822917" lon="8.858605"><ele>127.0</ele><time>2026-04-02T09:31:46.991Z</time></trkpt><trkpt lat="44.8824217" lon="8.8586283"><ele>127.0</ele><time>2026-04-02T09:31:47.991Z</time></trkpt><trkpt lat="44.8825383" lon="8.8586533"><ele>127.0</ele><time>2026-04-02T09:31:48.99Z</time></trkpt><trkpt lat="44.8826517" lon="8.858675"><ele>127.0</ele><time>2026-04-02T09:31:49.991Z</time></trkpt><trkpt lat="44.88275" lon="8.8587"><ele>127.0</ele><time>2026-04-02T09:31:50.991Z</time></trkpt><trkpt lat="44.88285" lon="8.858715"><ele>126.99999999999999</ele><time>2026-04-02T09:31:51.991Z</time></trkpt><trkpt lat="44.8829483" lon="8.8587417"><ele>126.99999999999999</ele><time>2026-04-02T09:31:52.99Z</time></trkpt><trkpt lat="44.8830417" lon="8.8587533"><ele>127.0</ele><time>2026-04-02T09:31:53.991Z</time></trkpt><trkpt lat="44.8831367" lon="8.8587683"><ele>127.0</ele><time>2026-04-02T09:31:54.991Z</time></trkpt><trkpt lat="44.8832333" lon="8.858785"><ele>127.0</ele><time>2026-04-02T09:31:55.99Z</time></trkpt><trkpt lat="44.8833167" lon="8.85879"><ele>127.0</ele><time>2026-04-02T09:31:56.991Z</time></trkpt><trkpt lat="44.883395" lon="8.8587917"><ele>127.0</ele><time>2026-04-02T09:31:57.991Z</time></trkpt><trkpt lat="44.883465" lon="8.8587833"><ele>127.0</ele><time>2026-04-02T09:31:58.991Z</time></trkpt><trkpt lat="44.8835367" lon="8.8587767"><ele>127.0</ele><time>2026-04-02T09:31:59.991Z</time></trkpt><trkpt lat="44.8836017" lon="8.8587883"><ele>127.0</ele><time>2026-04-02T09:32:00.99Z</time></trkpt><trkpt lat="44.8836667" lon="8.8588033"><ele>127.0</ele><time>2026-04-02T09:32:01.991Z</time></trkpt><trkpt lat="44.883775" lon="8.85875"><ele>127.00000000000001</ele><time>2026-04-02T09:32:03.99Z</time></trkpt><trkpt lat="44.883825" lon="8.858605"><ele>127.0</ele><time>2026-04-02T09:32:05.991Z</time></trkpt><trkpt lat="44.883835" lon="8.85851"><ele>127.0</ele><time>2026-04-02T09:32:06.991Z</time></trkpt><trkpt lat="44.88386" lon="8.8584133"><ele>127.0</ele><time>2026-04-02T09:32:07.991Z</time></trkpt><trkpt lat="44.8839033" lon="8.85832"><ele>127.00000000000001</ele><time>2026-04-02T09:32:08.991Z</time></trkpt><trkpt lat="44.883955" lon="8.8582433"><ele>127.0</ele><time>2026-04-02T09:32:09.991Z</time></trkpt><trkpt lat="44.8840133" lon="8.8581767"><ele>127.33333333333334</ele><time>2026-04-02T09:32:10.991Z</time></trkpt><trkpt lat="44.8840783" lon="8.85811"><ele>127.66666666666667</ele><time>2026-04-02T09:32:11.991Z</time></trkpt><trkpt lat="44.8841367" lon="8.8580383"><ele>128.0</ele><time>2026-04-02T09:32:12.991Z</time></trkpt><trkpt lat="44.8842017" lon="8.8579717"><ele>128.33333333333334</ele><time>2026-04-02T09:32:13.991Z</time></trkpt><trkpt lat="44.8842733" lon="8.8579033"><ele>128.66666666666666</ele><time>2026-04-02T09:32:14.99Z</time></trkpt><trkpt lat="44.8843583" lon="8.857825"><ele>129.0</ele><time>2026-04-02T09:32:15.991Z</time></trkpt><trkpt lat="44.8844333" lon="8.85776"><ele>129.0</ele><time>2026-04-02T09:32:16.991Z</time></trkpt><trkpt lat="44.8845217" lon="8.8576933"><ele>129.0</ele><time>2026-04-02T09:32:17.991Z</time></trkpt><trkpt lat="44.88461" lon="8.8576317"><ele>129.0</ele><time>2026-04-02T09:32:18.991Z</time></trkpt><trkpt lat="44.8847017" lon="8.8575617"><ele>129.0</ele><time>2026-04-02T09:32:19.991Z</time></trkpt><trkpt lat="44.88479" lon="8.8575017"><ele>129.0</ele><time>2026-04-02T09:32:20.99Z</time></trkpt><trkpt lat="44.88487" lon="8.8574467"><ele>128.83333333333334</ele><time>2026-04-02T09:32:21.99Z</time></trkpt><trkpt lat="44.8849333" lon="8.8573983"><ele>128.66666666666666</ele><time>2026-04-02T09:32:22.991Z</time></trkpt><trkpt lat="44.8849933" lon="8.8573467"><ele>128.5</ele><time>2026-04-02T09:32:24.991Z</time></trkpt><trkpt lat="44.88508" lon="8.857295"><ele>128.33333333333331</ele><time>2026-04-02T09:32:28.991Z</time></trkpt><trkpt lat="44.88516" lon="8.8572567"><ele>128.16666666666666</ele><time>2026-04-02T09:32:30.99Z</time></trkpt><trkpt lat="44.8852567" lon="8.8572417"><ele>128.0</ele><time>2026-04-02T09:32:32.991Z</time></trkpt><trkpt lat="44.8853633" lon="8.8572117"><ele>127.80000000000001</ele><time>2026-04-02T09:32:34.991Z</time></trkpt><trkpt lat="44.8854617" lon="8.8571983"><ele>127.60000000000001</ele><time>2026-04-02T09:32:36.991Z</time></trkpt><trkpt lat="44.8855617" lon="8.8571733"><ele>127.39999999999999</ele><time>2026-04-02T09:32:38.991Z</time></trkpt><trkpt lat="44.885635" lon="8.8570717"><ele>127.19999999999999</ele><time>2026-04-02T09:32:40.991Z</time></trkpt><trkpt lat="44.885665" lon="8.856905"><ele>127.0</ele><time>2026-04-02T09:32:42.99Z</time></trkpt><trkpt lat="44.8856767" lon="8.8568083"><ele>127.00000000000001</ele><time>2026-04-02T09:32:43.991Z</time></trkpt><trkpt lat="44.8857" lon="8.8567067"><ele>127.0</ele><time>2026-04-02T09:32:44.991Z</time></trkpt><trkpt lat="44.8857383" lon="8.8566117"><ele>127.0</ele><time>2026-04-02T09:32:45.99Z</time></trkpt><trkpt lat="44.8858017" lon="8.856545"><ele>127.0</ele><time>2026-04-02T09:32:46.991Z</time></trkpt><trkpt lat="44.88589" lon="8.85649"><ele>127.00000000000001</ele><time>2026-04-02T09:32:47.991Z</time></trkpt><trkpt lat="44.8859867" lon="8.8564333"><ele>127.0</ele><time>2026-04-02T09:32:48.99Z</time></trkpt><trkpt lat="44.8860767" lon="8.8563733"><ele>126.6</ele><time>2026-04-02T09:32:49.99Z</time></trkpt><trkpt lat="44.8861767" lon="8.856315"><ele>126.19999999999999</ele><time>2026-04-02T09:32:50.991Z</time></trkpt><trkpt lat="44.886275" lon="8.8562667"><ele>125.8</ele><time>2026-04-02T09:32:51.991Z</time></trkpt><trkpt lat="44.8863767" lon="8.8562233"><ele>125.4</ele><time>2026-04-02T09:32:52.991Z</time></trkpt><trkpt lat="44.8864683" lon="8.856175"><ele>125.0</ele><time>2026-04-02T09:32:53.991Z</time></trkpt><trkpt lat="44.8865733" lon="8.8561317"><ele>125.0</ele><time>2026-04-02T09:32:54.991Z</time></trkpt><trkpt lat="44.8866833" lon="8.8560883"><ele>125.0</ele><time>2026-04-02T09:32:55.991Z</time></trkpt><trkpt lat="44.88679" lon="8.85605"><ele>125.0</ele><time>2026-04-02T09:32:56.991Z</time></trkpt><trkpt lat="44.886895" lon="8.8560133"><ele>125.0</ele><time>2026-04-02T09:32:57.991Z</time></trkpt><trkpt lat="44.8870017" lon="8.8559817"><ele>125.0</ele><time>2026-04-02T09:32:58.991Z</time></trkpt><trkpt lat="44.8871083" lon="8.85595"><ele>125.0</ele><time>2026-04-02T09:32:59.991Z</time></trkpt><trkpt lat="44.8872167" lon="8.8559317"><ele>125.0</ele><time>2026-04-02T09:33:00.991Z</time></trkpt><trkpt lat="44.88733" lon="8.855915"><ele>125.0</ele><time>2026-04-02T09:33:01.991Z</time></trkpt><trkpt lat="44.8874467" lon="8.855905"><ele>125.0</ele><time>2026-04-02T09:33:02.99Z</time></trkpt><trkpt lat="44.8875583" lon="8.8558867"><ele>124.8</ele><time>2026-04-02T09:33:03.991Z</time></trkpt><trkpt lat="44.8876617" lon="8.85588"><ele>124.6</ele><time>2026-04-02T09:33:04.991Z</time></trkpt><trkpt lat="44.887765" lon="8.8558667"><ele>124.4</ele><time>2026-04-02T09:33:05.991Z</time></trkpt><trkpt lat="44.8878667" lon="8.85586"><ele>124.2</ele><time>2026-04-02T09:33:06.991Z</time></trkpt><trkpt lat="44.8879733" lon="8.85585"><ele>124.0</ele><time>2026-04-02T09:33:07.991Z</time></trkpt><trkpt lat="44.8880783" lon="8.85585"><ele>124.00000000000001</ele><time>2026-04-02T09:33:08.991Z</time></trkpt><trkpt lat="44.8881767" lon="8.85585"><ele>124.0</ele><time>2026-04-02T09:33:09.991Z</time></trkpt><trkpt lat="44.888265" lon="8.8558533"><ele>124.0</ele><time>2026-04-02T09:33:10.991Z</time></trkpt><trkpt lat="44.88835" lon="8.85585"><ele>124.0</ele><time>2026-04-02T09:33:11.991Z</time></trkpt><trkpt lat="44.888415" lon="8.8558467"><ele>124.00000000000001</ele><time>2026-04-02T09:33:12.991Z</time></trkpt><trkpt lat="44.8884883" lon="8.855845"><ele>124.0</ele><time>2026-04-02T09:33:14.991Z</time></trkpt><trkpt lat="44.888565" lon="8.8558333"><ele>124.00000000000001</ele><time>2026-04-02T09:33:17.991Z</time></trkpt><trkpt lat="44.88866" lon="8.8558283"><ele>124.0</ele><time>2026-04-02T09:33:34.991Z</time></trkpt><trkpt lat="44.8887567" lon="8.85583"><ele>124.0</ele><time>2026-04-02T09:33:36.991Z</time></trkpt><trkpt lat="44.8888267" lon="8.8558283"><ele>124.0</ele><time>2026-04-02T09:33:37.991Z</time></trkpt><trkpt lat="44.888905" lon="8.8558283"><ele>124.00000000000001</ele><time>2026-04-02T09:33:38.991Z</time></trkpt><trkpt lat="44.8889867" lon="8.8558267"><ele>124.0</ele><time>2026-04-02T09:33:39.991Z</time></trkpt><trkpt lat="44.8890567" lon="8.855825"><ele>124.00000000000001</ele><time>2026-04-02T09:33:40.991Z</time></trkpt><trkpt lat="44.8891583" lon="8.85583"><ele>124.0</ele><time>2026-04-02T09:33:42.991Z</time></trkpt><trkpt lat="44.8892317" lon="8.8558417"><ele>124.0</ele><time>2026-04-02T09:33:44.991Z</time></trkpt><trkpt lat="44.8893233" lon="8.8558467"><ele>124.0</ele><time>2026-04-02T09:33:46.99Z</time></trkpt><trkpt lat="44.8893867" lon="8.855845"><ele>124.00000000000001</ele><time>2026-04-02T09:33:47.991Z</time></trkpt><trkpt lat="44.8894667" lon="8.85584"><ele>124.0</ele><time>2026-04-02T09:33:48.99Z</time></trkpt><trkpt lat="44.889555" lon="8.8558367"><ele>123.75</ele><time>2026-04-02T09:33:49.991Z</time></trkpt><trkpt lat="44.889655" lon="8.855825"><ele>123.5</ele><time>2026-04-02T09:33:50.991Z</time></trkpt><trkpt lat="44.8897667" lon="8.85582"><ele>123.25</ele><time>2026-04-02T09:33:51.991Z</time></trkpt><trkpt lat="44.8898867" lon="8.8558167"><ele>123.0</ele><time>2026-04-02T09:33:52.991Z</time></trkpt><trkpt lat="44.890015" lon="8.8558217"><ele>123.5</ele><time>2026-04-02T09:33:53.991Z</time></trkpt><trkpt lat="44.8901433" lon="8.8558167"><ele>124.0</ele><time>2026-04-02T09:33:54.99Z</time></trkpt><trkpt lat="44.8902767" lon="8.855815"><ele>124.5</ele><time>2026-04-02T09:33:55.991Z</time></trkpt><trkpt lat="44.8904117" lon="8.8558067"><ele>125.0</ele><time>2026-04-02T09:33:56.991Z</time></trkpt><trkpt lat="44.890545" lon="8.855805"><ele>125.0</ele><time>2026-04-02T09:33:57.991Z</time></trkpt><trkpt lat="44.8906833" lon="8.8558033"><ele>125.0</ele><time>2026-04-02T09:33:58.991Z</time></trkpt><trkpt lat="44.8908217" lon="8.8558"><ele>125.0</ele><time>2026-04-02T09:33:59.991Z</time></trkpt><trkpt lat="44.8909517" lon="8.8557983"><ele>125.0</ele><time>2026-04-02T09:34:00.991Z</time></trkpt><trkpt lat="44.89108" lon="8.85579"><ele>124.25</ele><time>2026-04-02T09:34:01.991Z</time></trkpt><trkpt lat="44.8912067" lon="8.8557883"><ele>123.5</ele><time>2026-04-02T09:34:02.991Z</time></trkpt><trkpt lat="44.8913417" lon="8.8557867"><ele>122.75</ele><time>2026-04-02T09:34:03.991Z</time></trkpt><trkpt lat="44.891475" lon="8.8557883"><ele>122.0</ele><time>2026-04-02T09:34:04.991Z</time></trkpt><trkpt lat="44.8916133" lon="8.8557867"><ele>122.0</ele><time>2026-04-02T09:34:05.991Z</time></trkpt><trkpt lat="44.89175" lon="8.8557833"><ele>122.0</ele><time>2026-04-02T09:34:06.991Z</time></trkpt><trkpt lat="44.891885" lon="8.8557833"><ele>122.0</ele><time>2026-04-02T09:34:07.991Z</time></trkpt><trkpt lat="44.8920133" lon="8.8557783"><ele>122.0</ele><time>2026-04-02T09:34:08.991Z</time></trkpt><trkpt lat="44.892145" lon="8.855765"><ele>121.25</ele><time>2026-04-02T09:34:09.991Z</time></trkpt><trkpt lat="44.89227" lon="8.8557583"><ele>120.5</ele><time>2026-04-02T09:34:10.991Z</time></trkpt><trkpt lat="44.8924017" lon="8.8557517"><ele>119.75</ele><time>2026-04-02T09:34:11.991Z</time></trkpt><trkpt lat="44.892525" lon="8.8557467"><ele>119.0</ele><time>2026-04-02T09:34:12.991Z</time></trkpt><trkpt lat="44.8926583" lon="8.85575"><ele>119.0</ele><time>2026-04-02T09:34:13.991Z</time></trkpt><trkpt lat="44.8928017" lon="8.8557483"><ele>119.0</ele><time>2026-04-02T09:34:14.99Z</time></trkpt><trkpt lat="44.8929383" lon="8.8557433"><ele>119.0</ele><time>2026-04-02T09:34:15.991Z</time></trkpt><trkpt lat="44.8930667" lon="8.85574"><ele>119.0</ele><time>2026-04-02T09:34:16.991Z</time></trkpt><trkpt lat="44.89318" lon="8.8557417"><ele>119.0</ele><time>2026-04-02T09:34:17.991Z</time></trkpt><trkpt lat="44.89329" lon="8.8557417"><ele>119.0</ele><time>2026-04-02T09:34:18.991Z</time></trkpt><trkpt lat="44.8934117" lon="8.8557433"><ele>119.0</ele><time>2026-04-02T09:34:19.991Z</time></trkpt><trkpt lat="44.8935317" lon="8.855735"><ele>119.0</ele><time>2026-04-02T09:34:20.991Z</time></trkpt><trkpt lat="44.8936467" lon="8.8557267"><ele>119.25</ele><time>2026-04-02T09:34:21.99Z</time></trkpt><trkpt lat="44.893765" lon="8.8557283"><ele>119.5</ele><time>2026-04-02T09:34:22.99Z</time></trkpt><trkpt lat="44.8938767" lon="8.8557217"><ele>119.75</ele><time>2026-04-02T09:34:23.991Z</time></trkpt><trkpt lat="44.8939917" lon="8.8557133"><ele>120.0</ele><time>2026-04-02T09:34:24.991Z</time></trkpt><trkpt lat="44.8941117" lon="8.8557117"><ele>120.0</ele><time>2026-04-02T09:34:25.991Z</time></trkpt><trkpt lat="44.8942383" lon="8.8557067"><ele>120.0</ele><time>2026-04-02T09:34:26.99Z</time></trkpt><trkpt lat="44.8943583" lon="8.8556967"><ele>120.0</ele><time>2026-04-02T09:34:27.991Z</time></trkpt><trkpt lat="44.8944683" lon="8.8557017"><ele>120.0</ele><time>2026-04-02T09:34:28.991Z</time></trkpt><trkpt lat="44.8945667" lon="8.85571"><ele>120.2</ele><time>2026-04-02T09:34:29.99Z</time></trkpt><trkpt lat="44.8946683" lon="8.8557067"><ele>120.4</ele><time>2026-04-02T09:34:30.991Z</time></trkpt><trkpt lat="44.8947683" lon="8.8557017"><ele>120.6</ele><time>2026-04-02T09:34:31.99Z</time></trkpt><trkpt lat="44.8948717" lon="8.855695"><ele>120.8</ele><time>2026-04-02T09:34:32.991Z</time></trkpt><trkpt lat="44.8949833" lon="8.855685"><ele>121.0</ele><time>2026-04-02T09:34:33.991Z</time></trkpt><trkpt lat="44.895085" lon="8.85567"><ele>120.8</ele><time>2026-04-02T09:34:34.991Z</time></trkpt><trkpt lat="44.89519" lon="8.8556617"><ele>120.6</ele><time>2026-04-02T09:34:35.991Z</time></trkpt><trkpt lat="44.8953017" lon="8.8556633"><ele>120.4</ele><time>2026-04-02T09:34:36.99Z</time></trkpt><trkpt lat="44.8954083" lon="8.8556683"><ele>120.2</ele><time>2026-04-02T09:34:37.991Z</time></trkpt><trkpt lat="44.8955133" lon="8.8556617"><ele>120.0</ele><time>2026-04-02T09:34:38.991Z</time></trkpt><trkpt lat="44.8956133" lon="8.8556467"><ele>120.0</ele><time>2026-04-02T09:34:39.991Z</time></trkpt><trkpt lat="44.8956933" lon="8.85563"><ele>120.0</ele><time>2026-04-02T09:34:40.991Z</time></trkpt><trkpt lat="44.8957617" lon="8.8556083"><ele>120.0</ele><time>2026-04-02T09:34:41.99Z</time></trkpt><trkpt lat="44.8958683" lon="8.8555567"><ele>120.0</ele><time>2026-04-02T09:34:43.99Z</time></trkpt><trkpt lat="44.895945" lon="8.85551"><ele>120.0</ele><time>2026-04-02T09:34:45.991Z</time></trkpt><trkpt lat="44.8960133" lon="8.85546"><ele>120.0</ele><time>2026-04-02T09:34:48.991Z</time></trkpt><trkpt lat="44.8961033" lon="8.8553983"><ele>119.8</ele><time>2026-04-02T09:34:51.99Z</time></trkpt><trkpt lat="44.8961867" lon="8.855355"><ele>119.6</ele><time>2026-04-02T09:34:53.991Z</time></trkpt><trkpt lat="44.8962767" lon="8.8553083"><ele>119.4</ele><time>2026-04-02T09:34:55.991Z</time></trkpt><trkpt lat="44.89633" lon="8.8552083"><ele>119.2</ele><time>2026-04-02T09:34:57.991Z</time></trkpt><trkpt lat="44.8963067" lon="8.8550567"><ele>119.0</ele><time>2026-04-02T09:34:59.991Z</time></trkpt><trkpt lat="44.8962667" lon="8.8549617"><ele>119.0</ele><time>2026-04-02T09:35:00.991Z</time></trkpt><trkpt lat="44.8962217" lon="8.8548483"><ele>119.0</ele><time>2026-04-02T09:35:01.991Z</time></trkpt><trkpt lat="44.8961717" lon="8.8547333"><ele>119.0</ele><time>2026-04-02T09:35:02.99Z</time></trkpt><trkpt lat="44.8961283" lon="8.85463"><ele>119.0</ele><time>2026-04-02T09:35:03.991Z</time></trkpt><trkpt lat="44.8960867" lon="8.8545083"><ele>119.0</ele><time>2026-04-02T09:35:04.991Z</time></trkpt><trkpt lat="44.89603" lon="8.854375"><ele>118.80000000000001</ele><time>2026-04-02T09:35:05.991Z</time></trkpt><trkpt lat="44.895975" lon="8.8542633"><ele>118.60000000000001</ele><time>2026-04-02T09:35:06.991Z</time></trkpt><trkpt lat="44.8959083" lon="8.85415"><ele>118.4</ele><time>2026-04-02T09:35:07.991Z</time></trkpt><trkpt lat="44.8958333" lon="8.8540317"><ele>118.2</ele><time>2026-04-02T09:35:08.991Z</time></trkpt><trkpt lat="44.89575" lon="8.8539167"><ele>118.0</ele><time>2026-04-02T09:35:09.991Z</time></trkpt><trkpt lat="44.8956633" lon="8.8538083"><ele>117.80000000000001</ele><time>2026-04-02T09:35:10.991Z</time></trkpt><trkpt lat="44.895585" lon="8.8536933"><ele>117.60000000000001</ele><time>2026-04-02T09:35:11.99Z</time></trkpt><trkpt lat="44.8955083" lon="8.8535867"><ele>117.39999999999999</ele><time>2026-04-02T09:35:12.991Z</time></trkpt><trkpt lat="44.8954267" lon="8.8534683"><ele>117.19999999999999</ele><time>2026-04-02T09:35:13.991Z</time></trkpt><trkpt lat="44.89535" lon="8.8533583"><ele>117.0</ele><time>2026-04-02T09:35:14.991Z</time></trkpt><trkpt lat="44.8952717" lon="8.8532467"><ele>117.0</ele><time>2026-04-02T09:35:15.991Z</time></trkpt><trkpt lat="44.8951917" lon="8.8531367"><ele>116.99999999999999</ele><time>2026-04-02T09:35:16.991Z</time></trkpt><trkpt lat="44.8951233" lon="8.8530167"><ele>116.99999999999999</ele><time>2026-04-02T09:35:17.991Z</time></trkpt><trkpt lat="44.8950583" lon="8.8528917"><ele>117.0</ele><time>2026-04-02T09:35:18.991Z</time></trkpt><trkpt lat="44.8949967" lon="8.8527667"><ele>117.0</ele><time>2026-04-02T09:35:19.991Z</time></trkpt><trkpt lat="44.8949383" lon="8.8526417"><ele>117.5</ele><time>2026-04-02T09:35:20.99Z</time></trkpt><trkpt lat="44.894905" lon="8.8525017"><ele>118.0</ele><time>2026-04-02T09:35:21.99Z</time></trkpt><trkpt lat="44.8948833" lon="8.8523383"><ele>118.5</ele><time>2026-04-02T09:35:22.99Z</time></trkpt><trkpt lat="44.894865" lon="8.8521767"><ele>119.0</ele><time>2026-04-02T09:35:23.991Z</time></trkpt><trkpt lat="44.89486" lon="8.8520117"><ele>119.0</ele><time>2026-04-02T09:35:24.991Z</time></trkpt><trkpt lat="44.8948617" lon="8.8518633"><ele>119.0</ele><time>2026-04-02T09:35:25.99Z</time></trkpt><trkpt lat="44.8948617" lon="8.8517183"><ele>119.0</ele><time>2026-04-02T09:35:26.99Z</time></trkpt><trkpt lat="44.8948683" lon="8.8515783"><ele>119.0</ele><time>2026-04-02T09:35:27.991Z</time></trkpt><trkpt lat="44.89488" lon="8.851455"><ele>119.0</ele><time>2026-04-02T09:35:28.991Z</time></trkpt><trkpt lat="44.8948917" lon="8.8513483"><ele>118.99999999999999</ele><time>2026-04-02T09:35:29.991Z</time></trkpt><trkpt lat="44.8949083" lon="8.8512533"><ele>119.0</ele><time>2026-04-02T09:35:30.991Z</time></trkpt><trkpt lat="44.8949267" lon="8.851165"><ele>119.0</ele><time>2026-04-02T09:35:31.991Z</time></trkpt><trkpt lat="44.894955" lon="8.8510033"><ele>119.0</ele><time>2026-04-02T09:35:33.991Z</time></trkpt><trkpt lat="44.894925" lon="8.850845"><ele>118.99999999999999</ele><time>2026-04-02T09:35:35.991Z</time></trkpt><trkpt lat="44.8949017" lon="8.8507617"><ele>119.0</ele><time>2026-04-02T09:35:36.991Z</time></trkpt><trkpt lat="44.8948867" lon="8.8506583"><ele>119.0</ele><time>2026-04-02T09:35:37.991Z</time></trkpt><trkpt lat="44.8948683" lon="8.850555"><ele>119.0</ele><time>2026-04-02T09:35:38.99Z</time></trkpt><trkpt lat="44.8948567" lon="8.85043"><ele>119.0</ele><time>2026-04-02T09:35:39.991Z</time></trkpt><trkpt lat="44.8948433" lon="8.8502933"><ele>119.0</ele><time>2026-04-02T09:35:40.991Z</time></trkpt><trkpt lat="44.8948433" lon="8.8501433"><ele>119.0</ele><time>2026-04-02T09:35:41.991Z</time></trkpt><trkpt lat="44.894835" lon="8.8499917"><ele>120.0</ele><time>2026-04-02T09:35:42.991Z</time></trkpt><trkpt lat="44.8948317" lon="8.8498533"><ele>120.0</ele><time>2026-04-02T09:35:43.991Z</time></trkpt><trkpt lat="44.8948367" lon="8.8497533"><ele>120.0</ele><time>2026-04-02T09:35:44.991Z</time></trkpt><trkpt lat="44.894845" lon="8.84964"><ele>120.0</ele><time>2026-04-02T09:35:46.99Z</time></trkpt></trkseg></trk></gpx>